<?xml version="1.0" encoding="UTF-8" standalone="no" ?>
<gpx xmlns="http://www.topografix.com/GPX/1/1" xmlns:xsi="http://www.w3.org/2001/XMLSchema-instance" xsi:schemaLocation="http://www.topografix.com/GPX/1/1 http://www.topografix.com/GPX/1/1/gpx.xsd" version="1.1" creator="VisuGPX - https://www.visugpx.com">
  <metadata>
    <name>MB. Sortie du 17/11/2019</name>
    <desc><![CDATA[Sortie VTT du dimanche 17 novembre 2019]]></desc>
  </metadata>
  <trk>
    <name><![CDATA[Pornichet Cyclisme]]></name>
    <trkseg>
      <trkpt lat="47.26407" lon="-2.31569">
        <ele>10.39999961853</ele>
        <time>2019-11-17T08:01:00.000Z</time>
      </trkpt>
      <trkpt lat="47.26409" lon="-2.31583">
        <ele>10.39999961853</ele>
        <time>2019-11-17T08:01:03.000Z</time>
      </trkpt>
      <trkpt lat="47.26409" lon="-2.31588">
        <ele>10.199999809265</ele>
        <time>2019-11-17T08:01:04.000Z</time>
      </trkpt>
      <trkpt lat="47.26409" lon="-2.31597">
        <ele>10.199999809265</ele>
        <time>2019-11-17T08:01:06.000Z</time>
      </trkpt>
      <trkpt lat="47.26408" lon="-2.31641">
        <ele>10.199999809265</ele>
        <time>2019-11-17T08:01:14.000Z</time>
      </trkpt>
      <trkpt lat="47.26408" lon="-2.31663">
        <ele>10.199999809265</ele>
        <time>2019-11-17T08:01:18.000Z</time>
      </trkpt>
      <trkpt lat="47.26406" lon="-2.31665">
        <ele>10.199999809265</ele>
        <time>2019-11-17T08:01:19.000Z</time>
      </trkpt>
      <trkpt lat="47.26393" lon="-2.31671">
        <ele>10.199999809265</ele>
        <time>2019-11-17T08:01:23.000Z</time>
      </trkpt>
      <trkpt lat="47.26382" lon="-2.31679">
        <ele>10.199999809265</ele>
        <time>2019-11-17T08:01:26.000Z</time>
      </trkpt>
      <trkpt lat="47.2637" lon="-2.31687">
        <ele>10.199999809265</ele>
        <time>2019-11-17T08:01:29.000Z</time>
      </trkpt>
      <trkpt lat="47.26356" lon="-2.31694">
        <ele>9.8000001907349</ele>
        <time>2019-11-17T08:01:32.000Z</time>
      </trkpt>
      <trkpt lat="47.26352" lon="-2.31696">
        <ele>9.6000003814697</ele>
        <time>2019-11-17T08:01:33.000Z</time>
      </trkpt>
      <trkpt lat="47.26348" lon="-2.31699">
        <ele>9.1999998092651</ele>
        <time>2019-11-17T08:01:34.000Z</time>
      </trkpt>
      <trkpt lat="47.26342" lon="-2.31702">
        <ele>9</ele>
        <time>2019-11-17T08:01:35.000Z</time>
      </trkpt>
      <trkpt lat="47.26337" lon="-2.31704">
        <ele>8.6000003814697</ele>
        <time>2019-11-17T08:01:36.000Z</time>
      </trkpt>
      <trkpt lat="47.26312" lon="-2.31716">
        <ele>8.6000003814697</ele>
        <time>2019-11-17T08:01:41.000Z</time>
      </trkpt>
      <trkpt lat="47.26305" lon="-2.31723">
        <ele>8.1999998092651</ele>
        <time>2019-11-17T08:01:43.000Z</time>
      </trkpt>
      <trkpt lat="47.26304" lon="-2.31728">
        <ele>7.8000001907349</ele>
        <time>2019-11-17T08:01:44.000Z</time>
      </trkpt>
      <trkpt lat="47.26304" lon="-2.31733">
        <ele>7.1999998092651</ele>
        <time>2019-11-17T08:01:45.000Z</time>
      </trkpt>
      <trkpt lat="47.26305" lon="-2.31737">
        <ele>6.8000001907349</ele>
        <time>2019-11-17T08:01:46.000Z</time>
      </trkpt>
      <trkpt lat="47.26306" lon="-2.31744">
        <ele>6.4000000953674</ele>
        <time>2019-11-17T08:01:47.000Z</time>
      </trkpt>
      <trkpt lat="47.26308" lon="-2.31756">
        <ele>6.4000000953674</ele>
        <time>2019-11-17T08:01:49.000Z</time>
      </trkpt>
      <trkpt lat="47.26309" lon="-2.318">
        <ele>6.4000000953674</ele>
        <time>2019-11-17T08:01:56.000Z</time>
      </trkpt>
      <trkpt lat="47.26305" lon="-2.3184">
        <ele>6.4000000953674</ele>
        <time>2019-11-17T08:02:02.000Z</time>
      </trkpt>
      <trkpt lat="47.26303" lon="-2.31853">
        <ele>6.4000000953674</ele>
        <time>2019-11-17T08:02:04.000Z</time>
      </trkpt>
      <trkpt lat="47.26304" lon="-2.31863">
        <ele>6.4000000953674</ele>
        <time>2019-11-17T08:02:06.000Z</time>
      </trkpt>
      <trkpt lat="47.26305" lon="-2.3187">
        <ele>6.4000000953674</ele>
        <time>2019-11-17T08:02:08.000Z</time>
      </trkpt>
      <trkpt lat="47.26299" lon="-2.31886">
        <ele>6.4000000953674</ele>
        <time>2019-11-17T08:02:13.000Z</time>
      </trkpt>
      <trkpt lat="47.26283" lon="-2.31908">
        <ele>6.4000000953674</ele>
        <time>2019-11-17T08:02:19.000Z</time>
      </trkpt>
      <trkpt lat="47.26267" lon="-2.31934">
        <ele>6.4000000953674</ele>
        <time>2019-11-17T08:02:25.000Z</time>
      </trkpt>
      <trkpt lat="47.26256" lon="-2.31953">
        <ele>6</ele>
        <time>2019-11-17T08:02:29.000Z</time>
      </trkpt>
      <trkpt lat="47.26253" lon="-2.31958">
        <ele>5.5999999046326</ele>
        <time>2019-11-17T08:02:30.000Z</time>
      </trkpt>
      <trkpt lat="47.26251" lon="-2.31963">
        <ele>5.1999998092651</ele>
        <time>2019-11-17T08:02:31.000Z</time>
      </trkpt>
      <trkpt lat="47.26249" lon="-2.31967">
        <ele>4.8000001907349</ele>
        <time>2019-11-17T08:02:32.000Z</time>
      </trkpt>
      <trkpt lat="47.26248" lon="-2.31969">
        <ele>4.4000000953674</ele>
        <time>2019-11-17T08:02:33.000Z</time>
      </trkpt>
      <trkpt lat="47.2624" lon="-2.3197">
        <ele>4.4000000953674</ele>
        <time>2019-11-17T08:02:36.000Z</time>
      </trkpt>
      <trkpt lat="47.26238" lon="-2.31972">
        <ele>4.4000000953674</ele>
        <time>2019-11-17T08:02:37.000Z</time>
      </trkpt>
      <trkpt lat="47.26231" lon="-2.3198">
        <ele>4.4000000953674</ele>
        <time>2019-11-17T08:02:40.000Z</time>
      </trkpt>
      <trkpt lat="47.26213" lon="-2.31992">
        <ele>4.4000000953674</ele>
        <time>2019-11-17T08:02:46.000Z</time>
      </trkpt>
      <trkpt lat="47.26211" lon="-2.31993">
        <ele>4.4000000953674</ele>
        <time>2019-11-17T08:02:47.000Z</time>
      </trkpt>
      <trkpt lat="47.26208" lon="-2.32001">
        <ele>4.4000000953674</ele>
        <time>2019-11-17T08:02:49.000Z</time>
      </trkpt>
      <trkpt lat="47.26202" lon="-2.32016">
        <ele>4.4000000953674</ele>
        <time>2019-11-17T08:02:55.000Z</time>
      </trkpt>
      <trkpt lat="47.26201" lon="-2.32016">
        <ele>4.4000000953674</ele>
        <time>2019-11-17T08:02:56.000Z</time>
      </trkpt>
      <trkpt lat="47.26193" lon="-2.32014">
        <ele>4.4000000953674</ele>
        <time>2019-11-17T08:03:00.000Z</time>
      </trkpt>
      <trkpt lat="47.2619" lon="-2.32014">
        <ele>4.4000000953674</ele>
        <time>2019-11-17T08:03:01.000Z</time>
      </trkpt>
      <trkpt lat="47.26179" lon="-2.32019">
        <ele>4.4000000953674</ele>
        <time>2019-11-17T08:03:04.000Z</time>
      </trkpt>
      <trkpt lat="47.26171" lon="-2.32025">
        <ele>4.4000000953674</ele>
        <time>2019-11-17T08:03:06.000Z</time>
      </trkpt>
      <trkpt lat="47.26167" lon="-2.32028">
        <ele>4.4000000953674</ele>
        <time>2019-11-17T08:03:07.000Z</time>
      </trkpt>
      <trkpt lat="47.26161" lon="-2.32038">
        <ele>4.4000000953674</ele>
        <time>2019-11-17T08:03:09.000Z</time>
      </trkpt>
      <trkpt lat="47.26154" lon="-2.32058">
        <ele>4.4000000953674</ele>
        <time>2019-11-17T08:03:12.000Z</time>
      </trkpt>
      <trkpt lat="47.26151" lon="-2.32071">
        <ele>4.4000000953674</ele>
        <time>2019-11-17T08:03:14.000Z</time>
      </trkpt>
      <trkpt lat="47.26136" lon="-2.32114">
        <ele>4.4000000953674</ele>
        <time>2019-11-17T08:03:21.000Z</time>
      </trkpt>
      <trkpt lat="47.26126" lon="-2.32144">
        <ele>4.4000000953674</ele>
        <time>2019-11-17T08:03:26.000Z</time>
      </trkpt>
      <trkpt lat="47.26124" lon="-2.3215">
        <ele>4.4000000953674</ele>
        <time>2019-11-17T08:03:27.000Z</time>
      </trkpt>
      <trkpt lat="47.26103" lon="-2.32201">
        <ele>4.4000000953674</ele>
        <time>2019-11-17T08:03:36.000Z</time>
      </trkpt>
      <trkpt lat="47.26094" lon="-2.32218">
        <ele>4.4000000953674</ele>
        <time>2019-11-17T08:03:39.000Z</time>
      </trkpt>
      <trkpt lat="47.26084" lon="-2.32232">
        <ele>4.4000000953674</ele>
        <time>2019-11-17T08:03:42.000Z</time>
      </trkpt>
      <trkpt lat="47.26059" lon="-2.32263">
        <ele>4.4000000953674</ele>
        <time>2019-11-17T08:03:49.000Z</time>
      </trkpt>
      <trkpt lat="47.26028" lon="-2.32296">
        <ele>4.4000000953674</ele>
        <time>2019-11-17T08:03:57.000Z</time>
      </trkpt>
      <trkpt lat="47.26002" lon="-2.32327">
        <ele>4.4000000953674</ele>
        <time>2019-11-17T08:04:04.000Z</time>
      </trkpt>
      <trkpt lat="47.25958" lon="-2.32385">
        <ele>4.4000000953674</ele>
        <time>2019-11-17T08:04:16.000Z</time>
      </trkpt>
      <trkpt lat="47.25951" lon="-2.32394">
        <ele>4.4000000953674</ele>
        <time>2019-11-17T08:04:18.000Z</time>
      </trkpt>
      <trkpt lat="47.25923" lon="-2.32431">
        <ele>4.4000000953674</ele>
        <time>2019-11-17T08:04:26.000Z</time>
      </trkpt>
      <trkpt lat="47.25896" lon="-2.32464">
        <ele>4.4000000953674</ele>
        <time>2019-11-17T08:04:34.000Z</time>
      </trkpt>
      <trkpt lat="47.25888" lon="-2.3247">
        <ele>4.4000000953674</ele>
        <time>2019-11-17T08:04:36.000Z</time>
      </trkpt>
      <trkpt lat="47.25876" lon="-2.32474">
        <ele>4.4000000953674</ele>
        <time>2019-11-17T08:04:39.000Z</time>
      </trkpt>
      <trkpt lat="47.25853" lon="-2.32474">
        <ele>4.4000000953674</ele>
        <time>2019-11-17T08:04:44.000Z</time>
      </trkpt>
      <trkpt lat="47.25848" lon="-2.32474">
        <ele>4.4000000953674</ele>
        <time>2019-11-17T08:04:45.000Z</time>
      </trkpt>
      <trkpt lat="47.25822" lon="-2.32464">
        <ele>4.4000000953674</ele>
        <time>2019-11-17T08:04:51.000Z</time>
      </trkpt>
      <trkpt lat="47.25803" lon="-2.32457">
        <ele>4.4000000953674</ele>
        <time>2019-11-17T08:04:56.000Z</time>
      </trkpt>
      <trkpt lat="47.25799" lon="-2.32457">
        <ele>4.4000000953674</ele>
        <time>2019-11-17T08:05:00.000Z</time>
      </trkpt>
      <trkpt lat="47.25799" lon="-2.32456">
        <ele>4.4000000953674</ele>
        <time>2019-11-17T08:05:01.000Z</time>
      </trkpt>
      <trkpt lat="47.25798" lon="-2.32456">
        <ele>4.4000000953674</ele>
        <time>2019-11-17T08:05:02.000Z</time>
      </trkpt>
      <trkpt lat="47.25793" lon="-2.32457">
        <ele>4.4000000953674</ele>
        <time>2019-11-17T08:05:04.000Z</time>
      </trkpt>
      <trkpt lat="47.25787" lon="-2.32458">
        <ele>4.4000000953674</ele>
        <time>2019-11-17T08:05:06.000Z</time>
      </trkpt>
      <trkpt lat="47.2578" lon="-2.32452">
        <ele>4.4000000953674</ele>
        <time>2019-11-17T08:05:08.000Z</time>
      </trkpt>
      <trkpt lat="47.25765" lon="-2.3243">
        <ele>4.4000000953674</ele>
        <time>2019-11-17T08:05:13.000Z</time>
      </trkpt>
      <trkpt lat="47.25751" lon="-2.32427">
        <ele>4.4000000953674</ele>
        <time>2019-11-17T08:05:16.000Z</time>
      </trkpt>
      <trkpt lat="47.2572" lon="-2.32426">
        <ele>4.4000000953674</ele>
        <time>2019-11-17T08:05:22.000Z</time>
      </trkpt>
      <trkpt lat="47.25686" lon="-2.32421">
        <ele>4.4000000953674</ele>
        <time>2019-11-17T08:05:29.000Z</time>
      </trkpt>
      <trkpt lat="47.25668" lon="-2.32421">
        <ele>4.4000000953674</ele>
        <time>2019-11-17T08:05:33.000Z</time>
      </trkpt>
      <trkpt lat="47.25661" lon="-2.32428">
        <ele>4.4000000953674</ele>
        <time>2019-11-17T08:05:35.000Z</time>
      </trkpt>
      <trkpt lat="47.25663" lon="-2.32447">
        <ele>4.4000000953674</ele>
        <time>2019-11-17T08:05:38.000Z</time>
      </trkpt>
      <trkpt lat="47.25666" lon="-2.32458">
        <ele>4.8000001907349</ele>
        <time>2019-11-17T08:05:40.000Z</time>
      </trkpt>
      <trkpt lat="47.25668" lon="-2.32463">
        <ele>5.1999998092651</ele>
        <time>2019-11-17T08:05:41.000Z</time>
      </trkpt>
      <trkpt lat="47.25669" lon="-2.32469">
        <ele>5.5999999046326</ele>
        <time>2019-11-17T08:05:42.000Z</time>
      </trkpt>
      <trkpt lat="47.25671" lon="-2.32475">
        <ele>6</ele>
        <time>2019-11-17T08:05:43.000Z</time>
      </trkpt>
      <trkpt lat="47.25673" lon="-2.3248">
        <ele>6.4000000953674</ele>
        <time>2019-11-17T08:05:44.000Z</time>
      </trkpt>
      <trkpt lat="47.25675" lon="-2.32486">
        <ele>6.4000000953674</ele>
        <time>2019-11-17T08:05:45.000Z</time>
      </trkpt>
      <trkpt lat="47.25687" lon="-2.32523">
        <ele>6.4000000953674</ele>
        <time>2019-11-17T08:05:52.000Z</time>
      </trkpt>
      <trkpt lat="47.25692" lon="-2.32538">
        <ele>6.8000001907349</ele>
        <time>2019-11-17T08:05:55.000Z</time>
      </trkpt>
      <trkpt lat="47.25693" lon="-2.32543">
        <ele>7.1999998092651</ele>
        <time>2019-11-17T08:05:56.000Z</time>
      </trkpt>
      <trkpt lat="47.25695" lon="-2.32549">
        <ele>7.5999999046326</ele>
        <time>2019-11-17T08:05:57.000Z</time>
      </trkpt>
      <trkpt lat="47.25697" lon="-2.32554">
        <ele>8</ele>
        <time>2019-11-17T08:05:58.000Z</time>
      </trkpt>
      <trkpt lat="47.25698" lon="-2.32559">
        <ele>8.3999996185303</ele>
        <time>2019-11-17T08:05:59.000Z</time>
      </trkpt>
      <trkpt lat="47.2571" lon="-2.326">
        <ele>8.3999996185303</ele>
        <time>2019-11-17T08:06:07.000Z</time>
      </trkpt>
      <trkpt lat="47.25707" lon="-2.32622">
        <ele>8.3999996185303</ele>
        <time>2019-11-17T08:06:11.000Z</time>
      </trkpt>
      <trkpt lat="47.25693" lon="-2.32631">
        <ele>8.3999996185303</ele>
        <time>2019-11-17T08:06:15.000Z</time>
      </trkpt>
      <trkpt lat="47.25682" lon="-2.32636">
        <ele>8.8000001907349</ele>
        <time>2019-11-17T08:06:18.000Z</time>
      </trkpt>
      <trkpt lat="47.25678" lon="-2.32638">
        <ele>9.1999998092651</ele>
        <time>2019-11-17T08:06:19.000Z</time>
      </trkpt>
      <trkpt lat="47.25674" lon="-2.32639">
        <ele>10</ele>
        <time>2019-11-17T08:06:20.000Z</time>
      </trkpt>
      <trkpt lat="47.2567" lon="-2.32642">
        <ele>10.39999961853</ele>
        <time>2019-11-17T08:06:21.000Z</time>
      </trkpt>
      <trkpt lat="47.25662" lon="-2.32644">
        <ele>10.39999961853</ele>
        <time>2019-11-17T08:06:23.000Z</time>
      </trkpt>
      <trkpt lat="47.25631" lon="-2.32657">
        <ele>10.39999961853</ele>
        <time>2019-11-17T08:06:31.000Z</time>
      </trkpt>
      <trkpt lat="47.25616" lon="-2.32662">
        <ele>10.800000190735</ele>
        <time>2019-11-17T08:06:35.000Z</time>
      </trkpt>
      <trkpt lat="47.25613" lon="-2.32664">
        <ele>11.199999809265</ele>
        <time>2019-11-17T08:06:36.000Z</time>
      </trkpt>
      <trkpt lat="47.25609" lon="-2.32666">
        <ele>11.60000038147</ele>
        <time>2019-11-17T08:06:37.000Z</time>
      </trkpt>
      <trkpt lat="47.25605" lon="-2.32667">
        <ele>12.39999961853</ele>
        <time>2019-11-17T08:06:38.000Z</time>
      </trkpt>
      <trkpt lat="47.25594" lon="-2.32672">
        <ele>12.39999961853</ele>
        <time>2019-11-17T08:06:41.000Z</time>
      </trkpt>
      <trkpt lat="47.25567" lon="-2.32683">
        <ele>12.39999961853</ele>
        <time>2019-11-17T08:06:48.000Z</time>
      </trkpt>
      <trkpt lat="47.2554" lon="-2.32695">
        <ele>12.39999961853</ele>
        <time>2019-11-17T08:06:55.000Z</time>
      </trkpt>
      <trkpt lat="47.25519" lon="-2.32701">
        <ele>12.39999961853</ele>
        <time>2019-11-17T08:07:00.000Z</time>
      </trkpt>
      <trkpt lat="47.25514" lon="-2.32702">
        <ele>12.39999961853</ele>
        <time>2019-11-17T08:07:01.000Z</time>
      </trkpt>
      <trkpt lat="47.25509" lon="-2.32702">
        <ele>12.39999961853</ele>
        <time>2019-11-17T08:07:02.000Z</time>
      </trkpt>
      <trkpt lat="47.25488" lon="-2.32705">
        <ele>12.39999961853</ele>
        <time>2019-11-17T08:07:07.000Z</time>
      </trkpt>
      <trkpt lat="47.25484" lon="-2.32708">
        <ele>12.39999961853</ele>
        <time>2019-11-17T08:07:08.000Z</time>
      </trkpt>
      <trkpt lat="47.25473" lon="-2.32718">
        <ele>12.39999961853</ele>
        <time>2019-11-17T08:07:11.000Z</time>
      </trkpt>
      <trkpt lat="47.25466" lon="-2.32726">
        <ele>12.39999961853</ele>
        <time>2019-11-17T08:07:13.000Z</time>
      </trkpt>
      <trkpt lat="47.25441" lon="-2.32761">
        <ele>12.39999961853</ele>
        <time>2019-11-17T08:07:21.000Z</time>
      </trkpt>
      <trkpt lat="47.25436" lon="-2.32772">
        <ele>12.39999961853</ele>
        <time>2019-11-17T08:07:23.000Z</time>
      </trkpt>
      <trkpt lat="47.2543" lon="-2.32788">
        <ele>12.39999961853</ele>
        <time>2019-11-17T08:07:26.000Z</time>
      </trkpt>
      <trkpt lat="47.25426" lon="-2.32792">
        <ele>12.39999961853</ele>
        <time>2019-11-17T08:07:27.000Z</time>
      </trkpt>
      <trkpt lat="47.25413" lon="-2.32813">
        <ele>12.39999961853</ele>
        <time>2019-11-17T08:07:31.000Z</time>
      </trkpt>
      <trkpt lat="47.25393" lon="-2.32836">
        <ele>12.39999961853</ele>
        <time>2019-11-17T08:07:36.000Z</time>
      </trkpt>
      <trkpt lat="47.25386" lon="-2.32846">
        <ele>12.39999961853</ele>
        <time>2019-11-17T08:07:38.000Z</time>
      </trkpt>
      <trkpt lat="47.25359" lon="-2.32873">
        <ele>12.39999961853</ele>
        <time>2019-11-17T08:07:45.000Z</time>
      </trkpt>
      <trkpt lat="47.25355" lon="-2.32877">
        <ele>12.39999961853</ele>
        <time>2019-11-17T08:07:46.000Z</time>
      </trkpt>
      <trkpt lat="47.25336" lon="-2.32897">
        <ele>12.39999961853</ele>
        <time>2019-11-17T08:07:51.000Z</time>
      </trkpt>
      <trkpt lat="47.25313" lon="-2.3292">
        <ele>12.39999961853</ele>
        <time>2019-11-17T08:07:57.000Z</time>
      </trkpt>
      <trkpt lat="47.2531" lon="-2.32925">
        <ele>12.39999961853</ele>
        <time>2019-11-17T08:07:58.000Z</time>
      </trkpt>
      <trkpt lat="47.25309" lon="-2.32931">
        <ele>12</ele>
        <time>2019-11-17T08:07:59.000Z</time>
      </trkpt>
      <trkpt lat="47.25308" lon="-2.32937">
        <ele>11.60000038147</ele>
        <time>2019-11-17T08:08:00.000Z</time>
      </trkpt>
      <trkpt lat="47.25309" lon="-2.32943">
        <ele>11.199999809265</ele>
        <time>2019-11-17T08:08:01.000Z</time>
      </trkpt>
      <trkpt lat="47.2531" lon="-2.32949">
        <ele>10.800000190735</ele>
        <time>2019-11-17T08:08:02.000Z</time>
      </trkpt>
      <trkpt lat="47.25312" lon="-2.32955">
        <ele>10.39999961853</ele>
        <time>2019-11-17T08:08:03.000Z</time>
      </trkpt>
      <trkpt lat="47.25313" lon="-2.3296">
        <ele>10.39999961853</ele>
        <time>2019-11-17T08:08:04.000Z</time>
      </trkpt>
      <trkpt lat="47.2532" lon="-2.32977">
        <ele>10.39999961853</ele>
        <time>2019-11-17T08:08:07.000Z</time>
      </trkpt>
      <trkpt lat="47.25322" lon="-2.32982">
        <ele>10.39999961853</ele>
        <time>2019-11-17T08:08:08.000Z</time>
      </trkpt>
      <trkpt lat="47.25337" lon="-2.33024">
        <ele>10.39999961853</ele>
        <time>2019-11-17T08:08:15.000Z</time>
      </trkpt>
      <trkpt lat="47.25339" lon="-2.3303">
        <ele>10.39999961853</ele>
        <time>2019-11-17T08:08:16.000Z</time>
      </trkpt>
      <trkpt lat="47.2535" lon="-2.33056">
        <ele>10.39999961853</ele>
        <time>2019-11-17T08:08:21.000Z</time>
      </trkpt>
      <trkpt lat="47.25367" lon="-2.33101">
        <ele>10.39999961853</ele>
        <time>2019-11-17T08:08:29.000Z</time>
      </trkpt>
      <trkpt lat="47.25373" lon="-2.33119">
        <ele>10.39999961853</ele>
        <time>2019-11-17T08:08:34.000Z</time>
      </trkpt>
      <trkpt lat="47.25373" lon="-2.33122">
        <ele>10.39999961853</ele>
        <time>2019-11-17T08:08:38.000Z</time>
      </trkpt>
      <trkpt lat="47.25373" lon="-2.33122">
        <ele>10.39999961853</ele>
        <time>2019-11-17T08:08:39.000Z</time>
      </trkpt>
      <trkpt lat="47.25374" lon="-2.33124">
        <ele>10.39999961853</ele>
        <time>2019-11-17T08:10:02.000Z</time>
      </trkpt>
      <trkpt lat="47.25377" lon="-2.33129">
        <ele>10.39999961853</ele>
        <time>2019-11-17T08:10:04.000Z</time>
      </trkpt>
      <trkpt lat="47.25385" lon="-2.33137">
        <ele>10.39999961853</ele>
        <time>2019-11-17T08:10:08.000Z</time>
      </trkpt>
      <trkpt lat="47.25388" lon="-2.33136">
        <ele>10.39999961853</ele>
        <time>2019-11-17T08:10:09.000Z</time>
      </trkpt>
      <trkpt lat="47.25397" lon="-2.3313">
        <ele>10.39999961853</ele>
        <time>2019-11-17T08:10:12.000Z</time>
      </trkpt>
      <trkpt lat="47.254" lon="-2.33128">
        <ele>10.39999961853</ele>
        <time>2019-11-17T08:10:13.000Z</time>
      </trkpt>
      <trkpt lat="47.25422" lon="-2.33118">
        <ele>10.39999961853</ele>
        <time>2019-11-17T08:10:19.000Z</time>
      </trkpt>
      <trkpt lat="47.25448" lon="-2.33107">
        <ele>10.39999961853</ele>
        <time>2019-11-17T08:10:26.000Z</time>
      </trkpt>
      <trkpt lat="47.25475" lon="-2.33093">
        <ele>10.39999961853</ele>
        <time>2019-11-17T08:10:33.000Z</time>
      </trkpt>
      <trkpt lat="47.25485" lon="-2.33085">
        <ele>10</ele>
        <time>2019-11-17T08:10:36.000Z</time>
      </trkpt>
      <trkpt lat="47.25488" lon="-2.33081">
        <ele>9.6000003814697</ele>
        <time>2019-11-17T08:10:37.000Z</time>
      </trkpt>
      <trkpt lat="47.25491" lon="-2.33078">
        <ele>9.1999998092651</ele>
        <time>2019-11-17T08:10:38.000Z</time>
      </trkpt>
      <trkpt lat="47.25495" lon="-2.33075">
        <ele>8.8000001907349</ele>
        <time>2019-11-17T08:10:39.000Z</time>
      </trkpt>
      <trkpt lat="47.25498" lon="-2.33071">
        <ele>8.3999996185303</ele>
        <time>2019-11-17T08:10:40.000Z</time>
      </trkpt>
      <trkpt lat="47.25512" lon="-2.33056">
        <ele>8.3999996185303</ele>
        <time>2019-11-17T08:10:44.000Z</time>
      </trkpt>
      <trkpt lat="47.25525" lon="-2.33044">
        <ele>8.3999996185303</ele>
        <time>2019-11-17T08:10:48.000Z</time>
      </trkpt>
      <trkpt lat="47.25534" lon="-2.3304">
        <ele>8.3999996185303</ele>
        <time>2019-11-17T08:10:50.000Z</time>
      </trkpt>
      <trkpt lat="47.25538" lon="-2.33039">
        <ele>8.3999996185303</ele>
        <time>2019-11-17T08:10:51.000Z</time>
      </trkpt>
      <trkpt lat="47.25557" lon="-2.33037">
        <ele>8.3999996185303</ele>
        <time>2019-11-17T08:10:56.000Z</time>
      </trkpt>
      <trkpt lat="47.25573" lon="-2.33035">
        <ele>8.8000001907349</ele>
        <time>2019-11-17T08:11:00.000Z</time>
      </trkpt>
      <trkpt lat="47.25576" lon="-2.33033">
        <ele>9.1999998092651</ele>
        <time>2019-11-17T08:11:01.000Z</time>
      </trkpt>
      <trkpt lat="47.2558" lon="-2.33032">
        <ele>9.6000003814697</ele>
        <time>2019-11-17T08:11:02.000Z</time>
      </trkpt>
      <trkpt lat="47.25584" lon="-2.33031">
        <ele>10</ele>
        <time>2019-11-17T08:11:03.000Z</time>
      </trkpt>
      <trkpt lat="47.25588" lon="-2.3303">
        <ele>10.39999961853</ele>
        <time>2019-11-17T08:11:04.000Z</time>
      </trkpt>
      <trkpt lat="47.25612" lon="-2.33024">
        <ele>10.39999961853</ele>
        <time>2019-11-17T08:11:10.000Z</time>
      </trkpt>
      <trkpt lat="47.25616" lon="-2.33015">
        <ele>10.39999961853</ele>
        <time>2019-11-17T08:11:12.000Z</time>
      </trkpt>
      <trkpt lat="47.25617" lon="-2.33009">
        <ele>10.39999961853</ele>
        <time>2019-11-17T08:11:13.000Z</time>
      </trkpt>
      <trkpt lat="47.25613" lon="-2.32992">
        <ele>10.800000190735</ele>
        <time>2019-11-17T08:11:16.000Z</time>
      </trkpt>
      <trkpt lat="47.25612" lon="-2.32986">
        <ele>11.199999809265</ele>
        <time>2019-11-17T08:11:17.000Z</time>
      </trkpt>
      <trkpt lat="47.25611" lon="-2.32981">
        <ele>11.60000038147</ele>
        <time>2019-11-17T08:11:18.000Z</time>
      </trkpt>
      <trkpt lat="47.2561" lon="-2.32975">
        <ele>12</ele>
        <time>2019-11-17T08:11:19.000Z</time>
      </trkpt>
      <trkpt lat="47.25609" lon="-2.32969">
        <ele>12.39999961853</ele>
        <time>2019-11-17T08:11:20.000Z</time>
      </trkpt>
      <trkpt lat="47.25605" lon="-2.3294">
        <ele>12.39999961853</ele>
        <time>2019-11-17T08:11:25.000Z</time>
      </trkpt>
      <trkpt lat="47.25597" lon="-2.32891">
        <ele>12.39999961853</ele>
        <time>2019-11-17T08:11:33.000Z</time>
      </trkpt>
      <trkpt lat="47.25592" lon="-2.32846">
        <ele>12.39999961853</ele>
        <time>2019-11-17T08:11:40.000Z</time>
      </trkpt>
      <trkpt lat="47.25594" lon="-2.32812">
        <ele>12.39999961853</ele>
        <time>2019-11-17T08:11:45.000Z</time>
      </trkpt>
      <trkpt lat="47.25596" lon="-2.32805">
        <ele>12.39999961853</ele>
        <time>2019-11-17T08:11:46.000Z</time>
      </trkpt>
      <trkpt lat="47.256" lon="-2.32771">
        <ele>12.800000190735</ele>
        <time>2019-11-17T08:11:51.000Z</time>
      </trkpt>
      <trkpt lat="47.25601" lon="-2.32764">
        <ele>13.199999809265</ele>
        <time>2019-11-17T08:11:52.000Z</time>
      </trkpt>
      <trkpt lat="47.25602" lon="-2.32757">
        <ele>13.60000038147</ele>
        <time>2019-11-17T08:11:53.000Z</time>
      </trkpt>
      <trkpt lat="47.25602" lon="-2.32751">
        <ele>14</ele>
        <time>2019-11-17T08:11:54.000Z</time>
      </trkpt>
      <trkpt lat="47.25602" lon="-2.32744">
        <ele>14.39999961853</ele>
        <time>2019-11-17T08:11:55.000Z</time>
      </trkpt>
      <trkpt lat="47.25603" lon="-2.32731">
        <ele>14.39999961853</ele>
        <time>2019-11-17T08:11:57.000Z</time>
      </trkpt>
      <trkpt lat="47.25604" lon="-2.32688">
        <ele>14.39999961853</ele>
        <time>2019-11-17T08:12:04.000Z</time>
      </trkpt>
      <trkpt lat="47.25606" lon="-2.32669">
        <ele>14.39999961853</ele>
        <time>2019-11-17T08:12:07.000Z</time>
      </trkpt>
      <trkpt lat="47.25609" lon="-2.32664">
        <ele>14.39999961853</ele>
        <time>2019-11-17T08:12:08.000Z</time>
      </trkpt>
      <trkpt lat="47.25627" lon="-2.32653">
        <ele>14.39999961853</ele>
        <time>2019-11-17T08:12:12.000Z</time>
      </trkpt>
      <trkpt lat="47.25661" lon="-2.32637">
        <ele>14.39999961853</ele>
        <time>2019-11-17T08:12:19.000Z</time>
      </trkpt>
      <trkpt lat="47.25681" lon="-2.32628">
        <ele>14</ele>
        <time>2019-11-17T08:12:23.000Z</time>
      </trkpt>
      <trkpt lat="47.25686" lon="-2.32626">
        <ele>13</ele>
        <time>2019-11-17T08:12:24.000Z</time>
      </trkpt>
      <trkpt lat="47.25691" lon="-2.32623">
        <ele>12.60000038147</ele>
        <time>2019-11-17T08:12:25.000Z</time>
      </trkpt>
      <trkpt lat="47.25696" lon="-2.3262">
        <ele>12.199999809265</ele>
        <time>2019-11-17T08:12:26.000Z</time>
      </trkpt>
      <trkpt lat="47.25701" lon="-2.32617">
        <ele>12.199999809265</ele>
        <time>2019-11-17T08:12:27.000Z</time>
      </trkpt>
      <trkpt lat="47.25704" lon="-2.32614">
        <ele>12.199999809265</ele>
        <time>2019-11-17T08:12:28.000Z</time>
      </trkpt>
      <trkpt lat="47.25708" lon="-2.32602">
        <ele>12.199999809265</ele>
        <time>2019-11-17T08:12:30.000Z</time>
      </trkpt>
      <trkpt lat="47.25707" lon="-2.32596">
        <ele>11.800000190735</ele>
        <time>2019-11-17T08:12:31.000Z</time>
      </trkpt>
      <trkpt lat="47.25705" lon="-2.32589">
        <ele>11.39999961853</ele>
        <time>2019-11-17T08:12:32.000Z</time>
      </trkpt>
      <trkpt lat="47.25703" lon="-2.32583">
        <ele>11</ele>
        <time>2019-11-17T08:12:33.000Z</time>
      </trkpt>
      <trkpt lat="47.25701" lon="-2.32575">
        <ele>10.60000038147</ele>
        <time>2019-11-17T08:12:34.000Z</time>
      </trkpt>
      <trkpt lat="47.25699" lon="-2.32568">
        <ele>10.199999809265</ele>
        <time>2019-11-17T08:12:35.000Z</time>
      </trkpt>
      <trkpt lat="47.25696" lon="-2.32562">
        <ele>10.199999809265</ele>
        <time>2019-11-17T08:12:36.000Z</time>
      </trkpt>
      <trkpt lat="47.25692" lon="-2.32546">
        <ele>10.199999809265</ele>
        <time>2019-11-17T08:12:38.000Z</time>
      </trkpt>
      <trkpt lat="47.25682" lon="-2.32514">
        <ele>10.199999809265</ele>
        <time>2019-11-17T08:12:42.000Z</time>
      </trkpt>
      <trkpt lat="47.25671" lon="-2.32481">
        <ele>9.8000001907349</ele>
        <time>2019-11-17T08:12:46.000Z</time>
      </trkpt>
      <trkpt lat="47.25669" lon="-2.32472">
        <ele>9.3999996185303</ele>
        <time>2019-11-17T08:12:47.000Z</time>
      </trkpt>
      <trkpt lat="47.25666" lon="-2.32464">
        <ele>8.3999996185303</ele>
        <time>2019-11-17T08:12:48.000Z</time>
      </trkpt>
      <trkpt lat="47.25664" lon="-2.32455">
        <ele>8</ele>
        <time>2019-11-17T08:12:49.000Z</time>
      </trkpt>
      <trkpt lat="47.25657" lon="-2.32423">
        <ele>8</ele>
        <time>2019-11-17T08:12:53.000Z</time>
      </trkpt>
      <trkpt lat="47.25656" lon="-2.3241">
        <ele>8</ele>
        <time>2019-11-17T08:12:55.000Z</time>
      </trkpt>
      <trkpt lat="47.25658" lon="-2.32406">
        <ele>8</ele>
        <time>2019-11-17T08:12:56.000Z</time>
      </trkpt>
      <trkpt lat="47.25666" lon="-2.32407">
        <ele>8</ele>
        <time>2019-11-17T08:12:58.000Z</time>
      </trkpt>
      <trkpt lat="47.25673" lon="-2.32417">
        <ele>8</ele>
        <time>2019-11-17T08:13:00.000Z</time>
      </trkpt>
      <trkpt lat="47.25678" lon="-2.3242">
        <ele>8</ele>
        <time>2019-11-17T08:13:01.000Z</time>
      </trkpt>
      <trkpt lat="47.25702" lon="-2.32424">
        <ele>7.5999999046326</ele>
        <time>2019-11-17T08:13:05.000Z</time>
      </trkpt>
      <trkpt lat="47.25708" lon="-2.32424">
        <ele>7.1999998092651</ele>
        <time>2019-11-17T08:13:06.000Z</time>
      </trkpt>
      <trkpt lat="47.25714" lon="-2.32424">
        <ele>6.8000001907349</ele>
        <time>2019-11-17T08:13:07.000Z</time>
      </trkpt>
      <trkpt lat="47.2572" lon="-2.32424">
        <ele>6.4000000953674</ele>
        <time>2019-11-17T08:13:08.000Z</time>
      </trkpt>
      <trkpt lat="47.25726" lon="-2.32424">
        <ele>6</ele>
        <time>2019-11-17T08:13:09.000Z</time>
      </trkpt>
      <trkpt lat="47.25741" lon="-2.32424">
        <ele>6</ele>
        <time>2019-11-17T08:13:12.000Z</time>
      </trkpt>
      <trkpt lat="47.25755" lon="-2.32423">
        <ele>6</ele>
        <time>2019-11-17T08:13:15.000Z</time>
      </trkpt>
      <trkpt lat="47.25764" lon="-2.3242">
        <ele>6</ele>
        <time>2019-11-17T08:13:17.000Z</time>
      </trkpt>
      <trkpt lat="47.25776" lon="-2.32415">
        <ele>6</ele>
        <time>2019-11-17T08:13:20.000Z</time>
      </trkpt>
      <trkpt lat="47.25784" lon="-2.32422">
        <ele>6</ele>
        <time>2019-11-17T08:13:22.000Z</time>
      </trkpt>
      <trkpt lat="47.25794" lon="-2.3244">
        <ele>6</ele>
        <time>2019-11-17T08:13:25.000Z</time>
      </trkpt>
      <trkpt lat="47.25797" lon="-2.32446">
        <ele>6</ele>
        <time>2019-11-17T08:13:26.000Z</time>
      </trkpt>
      <trkpt lat="47.25802" lon="-2.32451">
        <ele>6</ele>
        <time>2019-11-17T08:13:27.000Z</time>
      </trkpt>
      <trkpt lat="47.25819" lon="-2.32463">
        <ele>6</ele>
        <time>2019-11-17T08:13:30.000Z</time>
      </trkpt>
      <trkpt lat="47.25825" lon="-2.32466">
        <ele>6</ele>
        <time>2019-11-17T08:13:31.000Z</time>
      </trkpt>
      <trkpt lat="47.25831" lon="-2.32469">
        <ele>6</ele>
        <time>2019-11-17T08:13:32.000Z</time>
      </trkpt>
      <trkpt lat="47.2586" lon="-2.32475">
        <ele>6</ele>
        <time>2019-11-17T08:13:37.000Z</time>
      </trkpt>
      <trkpt lat="47.25893" lon="-2.32465">
        <ele>6</ele>
        <time>2019-11-17T08:13:43.000Z</time>
      </trkpt>
      <trkpt lat="47.25913" lon="-2.32442">
        <ele>6</ele>
        <time>2019-11-17T08:13:47.000Z</time>
      </trkpt>
      <trkpt lat="47.25946" lon="-2.324">
        <ele>6</ele>
        <time>2019-11-17T08:13:54.000Z</time>
      </trkpt>
      <trkpt lat="47.25977" lon="-2.3236">
        <ele>6</ele>
        <time>2019-11-17T08:14:01.000Z</time>
      </trkpt>
      <trkpt lat="47.26008" lon="-2.3232">
        <ele>6</ele>
        <time>2019-11-17T08:14:08.000Z</time>
      </trkpt>
      <trkpt lat="47.26039" lon="-2.32283">
        <ele>6</ele>
        <time>2019-11-17T08:14:15.000Z</time>
      </trkpt>
      <trkpt lat="47.26043" lon="-2.32278">
        <ele>6</ele>
        <time>2019-11-17T08:14:16.000Z</time>
      </trkpt>
      <trkpt lat="47.26071" lon="-2.32246">
        <ele>6</ele>
        <time>2019-11-17T08:14:23.000Z</time>
      </trkpt>
      <trkpt lat="47.26075" lon="-2.3224">
        <ele>6</ele>
        <time>2019-11-17T08:14:24.000Z</time>
      </trkpt>
      <trkpt lat="47.26092" lon="-2.32217">
        <ele>6</ele>
        <time>2019-11-17T08:14:28.000Z</time>
      </trkpt>
      <trkpt lat="47.26109" lon="-2.3218">
        <ele>6</ele>
        <time>2019-11-17T08:14:33.000Z</time>
      </trkpt>
      <trkpt lat="47.26124" lon="-2.32145">
        <ele>6</ele>
        <time>2019-11-17T08:14:38.000Z</time>
      </trkpt>
      <trkpt lat="47.26126" lon="-2.32137">
        <ele>6</ele>
        <time>2019-11-17T08:14:39.000Z</time>
      </trkpt>
      <trkpt lat="47.26133" lon="-2.32114">
        <ele>6</ele>
        <time>2019-11-17T08:14:42.000Z</time>
      </trkpt>
      <trkpt lat="47.26146" lon="-2.32068">
        <ele>6</ele>
        <time>2019-11-17T08:14:48.000Z</time>
      </trkpt>
      <trkpt lat="47.26159" lon="-2.3203">
        <ele>6</ele>
        <time>2019-11-17T08:14:54.000Z</time>
      </trkpt>
      <trkpt lat="47.26166" lon="-2.3202">
        <ele>6</ele>
        <time>2019-11-17T08:14:57.000Z</time>
      </trkpt>
      <trkpt lat="47.26168" lon="-2.32018">
        <ele>6</ele>
        <time>2019-11-17T08:14:58.000Z</time>
      </trkpt>
      <trkpt lat="47.26169" lon="-2.32018">
        <ele>6</ele>
        <time>2019-11-17T08:14:59.000Z</time>
      </trkpt>
      <trkpt lat="47.26174" lon="-2.32018">
        <ele>6</ele>
        <time>2019-11-17T08:15:02.000Z</time>
      </trkpt>
      <trkpt lat="47.26175" lon="-2.32018">
        <ele>6</ele>
        <time>2019-11-17T08:15:03.000Z</time>
      </trkpt>
      <trkpt lat="47.26179" lon="-2.32019">
        <ele>5.5999999046326</ele>
        <time>2019-11-17T08:15:06.000Z</time>
      </trkpt>
      <trkpt lat="47.26181" lon="-2.3202">
        <ele>5.1999998092651</ele>
        <time>2019-11-17T08:15:07.000Z</time>
      </trkpt>
      <trkpt lat="47.26183" lon="-2.32021">
        <ele>4.8000001907349</ele>
        <time>2019-11-17T08:15:08.000Z</time>
      </trkpt>
      <trkpt lat="47.26185" lon="-2.32022">
        <ele>4.4000000953674</ele>
        <time>2019-11-17T08:15:09.000Z</time>
      </trkpt>
      <trkpt lat="47.26187" lon="-2.32022">
        <ele>4</ele>
        <time>2019-11-17T08:15:10.000Z</time>
      </trkpt>
      <trkpt lat="47.26193" lon="-2.3202">
        <ele>4</ele>
        <time>2019-11-17T08:15:14.000Z</time>
      </trkpt>
      <trkpt lat="47.26195" lon="-2.32009">
        <ele>4</ele>
        <time>2019-11-17T08:15:18.000Z</time>
      </trkpt>
      <trkpt lat="47.26196" lon="-2.32008">
        <ele>4</ele>
        <time>2019-11-17T08:15:19.000Z</time>
      </trkpt>
      <trkpt lat="47.26202" lon="-2.32004">
        <ele>4</ele>
        <time>2019-11-17T08:15:22.000Z</time>
      </trkpt>
      <trkpt lat="47.26209" lon="-2.31997">
        <ele>4</ele>
        <time>2019-11-17T08:15:25.000Z</time>
      </trkpt>
      <trkpt lat="47.26218" lon="-2.31988">
        <ele>4</ele>
        <time>2019-11-17T08:15:28.000Z</time>
      </trkpt>
      <trkpt lat="47.26228" lon="-2.31973">
        <ele>4</ele>
        <time>2019-11-17T08:15:32.000Z</time>
      </trkpt>
      <trkpt lat="47.26245" lon="-2.31947">
        <ele>4</ele>
        <time>2019-11-17T08:15:38.000Z</time>
      </trkpt>
      <trkpt lat="47.26252" lon="-2.31937">
        <ele>4</ele>
        <time>2019-11-17T08:15:41.000Z</time>
      </trkpt>
      <trkpt lat="47.26263" lon="-2.31923">
        <ele>4</ele>
        <time>2019-11-17T08:15:45.000Z</time>
      </trkpt>
      <trkpt lat="47.26279" lon="-2.31903">
        <ele>4</ele>
        <time>2019-11-17T08:15:50.000Z</time>
      </trkpt>
      <trkpt lat="47.26291" lon="-2.31897">
        <ele>4</ele>
        <time>2019-11-17T08:15:54.000Z</time>
      </trkpt>
      <trkpt lat="47.26295" lon="-2.31909">
        <ele>4</ele>
        <time>2019-11-17T08:15:58.000Z</time>
      </trkpt>
      <trkpt lat="47.26302" lon="-2.31928">
        <ele>4</ele>
        <time>2019-11-17T08:16:03.000Z</time>
      </trkpt>
      <trkpt lat="47.26312" lon="-2.3193">
        <ele>4</ele>
        <time>2019-11-17T08:16:07.000Z</time>
      </trkpt>
      <trkpt lat="47.26318" lon="-2.31927">
        <ele>4</ele>
        <time>2019-11-17T08:16:09.000Z</time>
      </trkpt>
      <trkpt lat="47.26327" lon="-2.31927">
        <ele>4</ele>
        <time>2019-11-17T08:16:11.000Z</time>
      </trkpt>
      <trkpt lat="47.26336" lon="-2.31928">
        <ele>4</ele>
        <time>2019-11-17T08:16:14.000Z</time>
      </trkpt>
      <trkpt lat="47.26339" lon="-2.31931">
        <ele>4</ele>
        <time>2019-11-17T08:16:15.000Z</time>
      </trkpt>
      <trkpt lat="47.2634" lon="-2.31935">
        <ele>4.4000000953674</ele>
        <time>2019-11-17T08:16:16.000Z</time>
      </trkpt>
      <trkpt lat="47.26342" lon="-2.3194">
        <ele>4.8000001907349</ele>
        <time>2019-11-17T08:16:17.000Z</time>
      </trkpt>
      <trkpt lat="47.26344" lon="-2.31943">
        <ele>5.1999998092651</ele>
        <time>2019-11-17T08:16:18.000Z</time>
      </trkpt>
      <trkpt lat="47.26345" lon="-2.31947">
        <ele>5.5999999046326</ele>
        <time>2019-11-17T08:16:19.000Z</time>
      </trkpt>
      <trkpt lat="47.26346" lon="-2.3195">
        <ele>6</ele>
        <time>2019-11-17T08:16:20.000Z</time>
      </trkpt>
      <trkpt lat="47.26352" lon="-2.31964">
        <ele>6</ele>
        <time>2019-11-17T08:16:24.000Z</time>
      </trkpt>
      <trkpt lat="47.2636" lon="-2.31975">
        <ele>6</ele>
        <time>2019-11-17T08:16:28.000Z</time>
      </trkpt>
      <trkpt lat="47.26363" lon="-2.31975">
        <ele>6</ele>
        <time>2019-11-17T08:16:29.000Z</time>
      </trkpt>
      <trkpt lat="47.2637" lon="-2.31976">
        <ele>6.4000000953674</ele>
        <time>2019-11-17T08:16:31.000Z</time>
      </trkpt>
      <trkpt lat="47.26373" lon="-2.31976">
        <ele>6.8000001907349</ele>
        <time>2019-11-17T08:16:32.000Z</time>
      </trkpt>
      <trkpt lat="47.26377" lon="-2.31977">
        <ele>7.1999998092651</ele>
        <time>2019-11-17T08:16:33.000Z</time>
      </trkpt>
      <trkpt lat="47.26381" lon="-2.3198">
        <ele>7.5999999046326</ele>
        <time>2019-11-17T08:16:34.000Z</time>
      </trkpt>
      <trkpt lat="47.26384" lon="-2.31982">
        <ele>8</ele>
        <time>2019-11-17T08:16:35.000Z</time>
      </trkpt>
      <trkpt lat="47.26388" lon="-2.31983">
        <ele>8</ele>
        <time>2019-11-17T08:16:37.000Z</time>
      </trkpt>
      <trkpt lat="47.26394" lon="-2.31985">
        <ele>8</ele>
        <time>2019-11-17T08:16:39.000Z</time>
      </trkpt>
      <trkpt lat="47.26397" lon="-2.31987">
        <ele>8.6000003814697</ele>
        <time>2019-11-17T08:16:40.000Z</time>
      </trkpt>
      <trkpt lat="47.26399" lon="-2.31988">
        <ele>9</ele>
        <time>2019-11-17T08:16:41.000Z</time>
      </trkpt>
      <trkpt lat="47.26401" lon="-2.31987">
        <ele>9.3999996185303</ele>
        <time>2019-11-17T08:16:42.000Z</time>
      </trkpt>
      <trkpt lat="47.26403" lon="-2.31988">
        <ele>9.8000001907349</ele>
        <time>2019-11-17T08:16:43.000Z</time>
      </trkpt>
      <trkpt lat="47.26405" lon="-2.31989">
        <ele>10.199999809265</ele>
        <time>2019-11-17T08:16:44.000Z</time>
      </trkpt>
      <trkpt lat="47.26415" lon="-2.31989">
        <ele>10.199999809265</ele>
        <time>2019-11-17T08:16:48.000Z</time>
      </trkpt>
      <trkpt lat="47.26426" lon="-2.3199">
        <ele>10.60000038147</ele>
        <time>2019-11-17T08:16:52.000Z</time>
      </trkpt>
      <trkpt lat="47.26429" lon="-2.31991">
        <ele>11</ele>
        <time>2019-11-17T08:16:53.000Z</time>
      </trkpt>
      <trkpt lat="47.26431" lon="-2.31992">
        <ele>11.39999961853</ele>
        <time>2019-11-17T08:16:54.000Z</time>
      </trkpt>
      <trkpt lat="47.26435" lon="-2.31994">
        <ele>12.199999809265</ele>
        <time>2019-11-17T08:16:55.000Z</time>
      </trkpt>
      <trkpt lat="47.26442" lon="-2.31995">
        <ele>12.199999809265</ele>
        <time>2019-11-17T08:16:57.000Z</time>
      </trkpt>
      <trkpt lat="47.26448" lon="-2.31995">
        <ele>12.199999809265</ele>
        <time>2019-11-17T08:16:59.000Z</time>
      </trkpt>
      <trkpt lat="47.26456" lon="-2.31995">
        <ele>12.60000038147</ele>
        <time>2019-11-17T08:17:02.000Z</time>
      </trkpt>
      <trkpt lat="47.26459" lon="-2.31996">
        <ele>13</ele>
        <time>2019-11-17T08:17:03.000Z</time>
      </trkpt>
      <trkpt lat="47.26463" lon="-2.31996">
        <ele>13.39999961853</ele>
        <time>2019-11-17T08:17:04.000Z</time>
      </trkpt>
      <trkpt lat="47.26466" lon="-2.31996">
        <ele>14</ele>
        <time>2019-11-17T08:17:05.000Z</time>
      </trkpt>
      <trkpt lat="47.2647" lon="-2.31995">
        <ele>14.39999961853</ele>
        <time>2019-11-17T08:17:06.000Z</time>
      </trkpt>
      <trkpt lat="47.26477" lon="-2.31994">
        <ele>14.39999961853</ele>
        <time>2019-11-17T08:17:08.000Z</time>
      </trkpt>
      <trkpt lat="47.26481" lon="-2.31997">
        <ele>14.39999961853</ele>
        <time>2019-11-17T08:17:09.000Z</time>
      </trkpt>
      <trkpt lat="47.26487" lon="-2.31996">
        <ele>14.39999961853</ele>
        <time>2019-11-17T08:17:11.000Z</time>
      </trkpt>
      <trkpt lat="47.26502" lon="-2.31996">
        <ele>14.800000190735</ele>
        <time>2019-11-17T08:17:15.000Z</time>
      </trkpt>
      <trkpt lat="47.26504" lon="-2.31997">
        <ele>15.199999809265</ele>
        <time>2019-11-17T08:17:16.000Z</time>
      </trkpt>
      <trkpt lat="47.26506" lon="-2.31996">
        <ele>15.60000038147</ele>
        <time>2019-11-17T08:17:17.000Z</time>
      </trkpt>
      <trkpt lat="47.26507" lon="-2.31996">
        <ele>16</ele>
        <time>2019-11-17T08:17:18.000Z</time>
      </trkpt>
      <trkpt lat="47.26508" lon="-2.31996">
        <ele>16.39999961853</ele>
        <time>2019-11-17T08:17:19.000Z</time>
      </trkpt>
      <trkpt lat="47.2651" lon="-2.31996">
        <ele>16.39999961853</ele>
        <time>2019-11-17T08:17:20.000Z</time>
      </trkpt>
      <trkpt lat="47.26513" lon="-2.31997">
        <ele>16.799999237061</ele>
        <time>2019-11-17T08:17:22.000Z</time>
      </trkpt>
      <trkpt lat="47.26514" lon="-2.31998">
        <ele>17.200000762939</ele>
        <time>2019-11-17T08:17:23.000Z</time>
      </trkpt>
      <trkpt lat="47.26516" lon="-2.31999">
        <ele>17.60000038147</ele>
        <time>2019-11-17T08:17:24.000Z</time>
      </trkpt>
      <trkpt lat="47.26518" lon="-2.32">
        <ele>18.200000762939</ele>
        <time>2019-11-17T08:17:25.000Z</time>
      </trkpt>
      <trkpt lat="47.2652" lon="-2.32001">
        <ele>18.60000038147</ele>
        <time>2019-11-17T08:17:26.000Z</time>
      </trkpt>
      <trkpt lat="47.26527" lon="-2.32009">
        <ele>18.60000038147</ele>
        <time>2019-11-17T08:17:29.000Z</time>
      </trkpt>
      <trkpt lat="47.26529" lon="-2.32011">
        <ele>18.60000038147</ele>
        <time>2019-11-17T08:17:30.000Z</time>
      </trkpt>
      <trkpt lat="47.26537" lon="-2.32029">
        <ele>18.60000038147</ele>
        <time>2019-11-17T08:17:36.000Z</time>
      </trkpt>
      <trkpt lat="47.26542" lon="-2.32037">
        <ele>18.60000038147</ele>
        <time>2019-11-17T08:17:39.000Z</time>
      </trkpt>
      <trkpt lat="47.26544" lon="-2.32038">
        <ele>19</ele>
        <time>2019-11-17T08:17:40.000Z</time>
      </trkpt>
      <trkpt lat="47.26546" lon="-2.32039">
        <ele>19.39999961853</ele>
        <time>2019-11-17T08:17:41.000Z</time>
      </trkpt>
      <trkpt lat="47.26549" lon="-2.32039">
        <ele>19.799999237061</ele>
        <time>2019-11-17T08:17:42.000Z</time>
      </trkpt>
      <trkpt lat="47.26552" lon="-2.32037">
        <ele>20.39999961853</ele>
        <time>2019-11-17T08:17:43.000Z</time>
      </trkpt>
      <trkpt lat="47.26555" lon="-2.32035">
        <ele>20.799999237061</ele>
        <time>2019-11-17T08:17:44.000Z</time>
      </trkpt>
      <trkpt lat="47.26576" lon="-2.32028">
        <ele>21.200000762939</ele>
        <time>2019-11-17T08:17:51.000Z</time>
      </trkpt>
      <trkpt lat="47.26579" lon="-2.32026">
        <ele>21.60000038147</ele>
        <time>2019-11-17T08:17:52.000Z</time>
      </trkpt>
      <trkpt lat="47.26582" lon="-2.32025">
        <ele>22</ele>
        <time>2019-11-17T08:17:53.000Z</time>
      </trkpt>
      <trkpt lat="47.26585" lon="-2.32024">
        <ele>22.39999961853</ele>
        <time>2019-11-17T08:17:54.000Z</time>
      </trkpt>
      <trkpt lat="47.26588" lon="-2.32022">
        <ele>22.799999237061</ele>
        <time>2019-11-17T08:17:55.000Z</time>
      </trkpt>
      <trkpt lat="47.26602" lon="-2.32017">
        <ele>22.799999237061</ele>
        <time>2019-11-17T08:18:00.000Z</time>
      </trkpt>
      <trkpt lat="47.26621" lon="-2.32012">
        <ele>22.799999237061</ele>
        <time>2019-11-17T08:18:07.000Z</time>
      </trkpt>
      <trkpt lat="47.2663" lon="-2.32009">
        <ele>23.60000038147</ele>
        <time>2019-11-17T08:18:10.000Z</time>
      </trkpt>
      <trkpt lat="47.26633" lon="-2.32007">
        <ele>24</ele>
        <time>2019-11-17T08:18:11.000Z</time>
      </trkpt>
      <trkpt lat="47.26636" lon="-2.32006">
        <ele>24.39999961853</ele>
        <time>2019-11-17T08:18:12.000Z</time>
      </trkpt>
      <trkpt lat="47.2664" lon="-2.32006">
        <ele>24.799999237061</ele>
        <time>2019-11-17T08:18:13.000Z</time>
      </trkpt>
      <trkpt lat="47.26642" lon="-2.32007">
        <ele>24.799999237061</ele>
        <time>2019-11-17T08:18:14.000Z</time>
      </trkpt>
      <trkpt lat="47.26645" lon="-2.3201">
        <ele>24.799999237061</ele>
        <time>2019-11-17T08:18:15.000Z</time>
      </trkpt>
      <trkpt lat="47.26649" lon="-2.32019">
        <ele>24.799999237061</ele>
        <time>2019-11-17T08:18:17.000Z</time>
      </trkpt>
      <trkpt lat="47.2666" lon="-2.32058">
        <ele>24.799999237061</ele>
        <time>2019-11-17T08:18:24.000Z</time>
      </trkpt>
      <trkpt lat="47.26663" lon="-2.3207">
        <ele>24.799999237061</ele>
        <time>2019-11-17T08:18:26.000Z</time>
      </trkpt>
      <trkpt lat="47.2667" lon="-2.321">
        <ele>24.799999237061</ele>
        <time>2019-11-17T08:18:31.000Z</time>
      </trkpt>
      <trkpt lat="47.26677" lon="-2.32125">
        <ele>24.799999237061</ele>
        <time>2019-11-17T08:18:36.000Z</time>
      </trkpt>
      <trkpt lat="47.2668" lon="-2.32125">
        <ele>24.799999237061</ele>
        <time>2019-11-17T08:18:37.000Z</time>
      </trkpt>
      <trkpt lat="47.26684" lon="-2.32112">
        <ele>24.799999237061</ele>
        <time>2019-11-17T08:18:40.000Z</time>
      </trkpt>
      <trkpt lat="47.26684" lon="-2.32107">
        <ele>24.799999237061</ele>
        <time>2019-11-17T08:18:41.000Z</time>
      </trkpt>
      <trkpt lat="47.26685" lon="-2.32077">
        <ele>24.799999237061</ele>
        <time>2019-11-17T08:18:46.000Z</time>
      </trkpt>
      <trkpt lat="47.26687" lon="-2.32038">
        <ele>24.799999237061</ele>
        <time>2019-11-17T08:18:53.000Z</time>
      </trkpt>
      <trkpt lat="47.26689" lon="-2.32033">
        <ele>24.799999237061</ele>
        <time>2019-11-17T08:18:54.000Z</time>
      </trkpt>
      <trkpt lat="47.26693" lon="-2.32021">
        <ele>24.799999237061</ele>
        <time>2019-11-17T08:18:57.000Z</time>
      </trkpt>
      <trkpt lat="47.26697" lon="-2.32013">
        <ele>24.799999237061</ele>
        <time>2019-11-17T08:18:59.000Z</time>
      </trkpt>
      <trkpt lat="47.26703" lon="-2.32005">
        <ele>24.799999237061</ele>
        <time>2019-11-17T08:19:01.000Z</time>
      </trkpt>
      <trkpt lat="47.26707" lon="-2.32002">
        <ele>24.799999237061</ele>
        <time>2019-11-17T08:19:02.000Z</time>
      </trkpt>
      <trkpt lat="47.26721" lon="-2.31994">
        <ele>24.799999237061</ele>
        <time>2019-11-17T08:19:05.000Z</time>
      </trkpt>
      <trkpt lat="47.2673" lon="-2.31987">
        <ele>24.39999961853</ele>
        <time>2019-11-17T08:19:07.000Z</time>
      </trkpt>
      <trkpt lat="47.26734" lon="-2.31983">
        <ele>24</ele>
        <time>2019-11-17T08:19:08.000Z</time>
      </trkpt>
      <trkpt lat="47.26739" lon="-2.31979">
        <ele>23.60000038147</ele>
        <time>2019-11-17T08:19:09.000Z</time>
      </trkpt>
      <trkpt lat="47.26744" lon="-2.31976">
        <ele>23</ele>
        <time>2019-11-17T08:19:10.000Z</time>
      </trkpt>
      <trkpt lat="47.26748" lon="-2.31971">
        <ele>22.60000038147</ele>
        <time>2019-11-17T08:19:11.000Z</time>
      </trkpt>
      <trkpt lat="47.26754" lon="-2.3196">
        <ele>22.60000038147</ele>
        <time>2019-11-17T08:19:13.000Z</time>
      </trkpt>
      <trkpt lat="47.26762" lon="-2.31948">
        <ele>22.60000038147</ele>
        <time>2019-11-17T08:19:16.000Z</time>
      </trkpt>
      <trkpt lat="47.26766" lon="-2.31949">
        <ele>22.60000038147</ele>
        <time>2019-11-17T08:19:17.000Z</time>
      </trkpt>
      <trkpt lat="47.26776" lon="-2.31964">
        <ele>22.60000038147</ele>
        <time>2019-11-17T08:19:20.000Z</time>
      </trkpt>
      <trkpt lat="47.26779" lon="-2.31971">
        <ele>22.200000762939</ele>
        <time>2019-11-17T08:19:21.000Z</time>
      </trkpt>
      <trkpt lat="47.26782" lon="-2.31977">
        <ele>21.39999961853</ele>
        <time>2019-11-17T08:19:22.000Z</time>
      </trkpt>
      <trkpt lat="47.26787" lon="-2.31986">
        <ele>21</ele>
        <time>2019-11-17T08:19:23.000Z</time>
      </trkpt>
      <trkpt lat="47.2679" lon="-2.31993">
        <ele>20.60000038147</ele>
        <time>2019-11-17T08:19:24.000Z</time>
      </trkpt>
      <trkpt lat="47.26798" lon="-2.32007">
        <ele>20.60000038147</ele>
        <time>2019-11-17T08:19:26.000Z</time>
      </trkpt>
      <trkpt lat="47.26809" lon="-2.32032">
        <ele>20.60000038147</ele>
        <time>2019-11-17T08:19:29.000Z</time>
      </trkpt>
      <trkpt lat="47.26814" lon="-2.32048">
        <ele>20</ele>
        <time>2019-11-17T08:19:31.000Z</time>
      </trkpt>
      <trkpt lat="47.26817" lon="-2.32057">
        <ele>19.60000038147</ele>
        <time>2019-11-17T08:19:32.000Z</time>
      </trkpt>
      <trkpt lat="47.26818" lon="-2.32065">
        <ele>19.200000762939</ele>
        <time>2019-11-17T08:19:33.000Z</time>
      </trkpt>
      <trkpt lat="47.26821" lon="-2.32073">
        <ele>18.799999237061</ele>
        <time>2019-11-17T08:19:34.000Z</time>
      </trkpt>
      <trkpt lat="47.26823" lon="-2.32082">
        <ele>18.200000762939</ele>
        <time>2019-11-17T08:19:35.000Z</time>
      </trkpt>
      <trkpt lat="47.26828" lon="-2.32099">
        <ele>18.200000762939</ele>
        <time>2019-11-17T08:19:37.000Z</time>
      </trkpt>
      <trkpt lat="47.26839" lon="-2.32137">
        <ele>17.799999237061</ele>
        <time>2019-11-17T08:19:42.000Z</time>
      </trkpt>
      <trkpt lat="47.2684" lon="-2.32144">
        <ele>17.39999961853</ele>
        <time>2019-11-17T08:19:43.000Z</time>
      </trkpt>
      <trkpt lat="47.26843" lon="-2.32152">
        <ele>17</ele>
        <time>2019-11-17T08:19:44.000Z</time>
      </trkpt>
      <trkpt lat="47.26844" lon="-2.32159">
        <ele>16.60000038147</ele>
        <time>2019-11-17T08:19:45.000Z</time>
      </trkpt>
      <trkpt lat="47.26846" lon="-2.32166">
        <ele>16.200000762939</ele>
        <time>2019-11-17T08:19:46.000Z</time>
      </trkpt>
      <trkpt lat="47.26851" lon="-2.3218">
        <ele>16.200000762939</ele>
        <time>2019-11-17T08:19:48.000Z</time>
      </trkpt>
      <trkpt lat="47.26859" lon="-2.322">
        <ele>16.200000762939</ele>
        <time>2019-11-17T08:19:51.000Z</time>
      </trkpt>
      <trkpt lat="47.26867" lon="-2.32216">
        <ele>16.200000762939</ele>
        <time>2019-11-17T08:19:53.000Z</time>
      </trkpt>
      <trkpt lat="47.2687" lon="-2.32223">
        <ele>16.200000762939</ele>
        <time>2019-11-17T08:19:54.000Z</time>
      </trkpt>
      <trkpt lat="47.26877" lon="-2.32237">
        <ele>15.800000190735</ele>
        <time>2019-11-17T08:19:56.000Z</time>
      </trkpt>
      <trkpt lat="47.26881" lon="-2.32243">
        <ele>15.39999961853</ele>
        <time>2019-11-17T08:19:57.000Z</time>
      </trkpt>
      <trkpt lat="47.26885" lon="-2.32251">
        <ele>15</ele>
        <time>2019-11-17T08:19:58.000Z</time>
      </trkpt>
      <trkpt lat="47.26889" lon="-2.32256">
        <ele>14.60000038147</ele>
        <time>2019-11-17T08:19:59.000Z</time>
      </trkpt>
      <trkpt lat="47.26894" lon="-2.32264">
        <ele>14.199999809265</ele>
        <time>2019-11-17T08:20:00.000Z</time>
      </trkpt>
      <trkpt lat="47.26898" lon="-2.32271">
        <ele>14.199999809265</ele>
        <time>2019-11-17T08:20:01.000Z</time>
      </trkpt>
      <trkpt lat="47.26911" lon="-2.32295">
        <ele>13.60000038147</ele>
        <time>2019-11-17T08:20:04.000Z</time>
      </trkpt>
      <trkpt lat="47.26914" lon="-2.32303">
        <ele>13.199999809265</ele>
        <time>2019-11-17T08:20:05.000Z</time>
      </trkpt>
      <trkpt lat="47.26917" lon="-2.32311">
        <ele>12.39999961853</ele>
        <time>2019-11-17T08:20:06.000Z</time>
      </trkpt>
      <trkpt lat="47.26918" lon="-2.32318">
        <ele>11.800000190735</ele>
        <time>2019-11-17T08:20:07.000Z</time>
      </trkpt>
      <trkpt lat="47.26916" lon="-2.32326">
        <ele>11.800000190735</ele>
        <time>2019-11-17T08:20:08.000Z</time>
      </trkpt>
      <trkpt lat="47.26913" lon="-2.32331">
        <ele>11.800000190735</ele>
        <time>2019-11-17T08:20:09.000Z</time>
      </trkpt>
      <trkpt lat="47.26902" lon="-2.32338">
        <ele>11.800000190735</ele>
        <time>2019-11-17T08:20:12.000Z</time>
      </trkpt>
      <trkpt lat="47.26893" lon="-2.3234">
        <ele>11.800000190735</ele>
        <time>2019-11-17T08:20:14.000Z</time>
      </trkpt>
      <trkpt lat="47.26874" lon="-2.32343">
        <ele>11.800000190735</ele>
        <time>2019-11-17T08:20:18.000Z</time>
      </trkpt>
      <trkpt lat="47.26846" lon="-2.32349">
        <ele>12.199999809265</ele>
        <time>2019-11-17T08:20:24.000Z</time>
      </trkpt>
      <trkpt lat="47.26842" lon="-2.3235">
        <ele>12.800000190735</ele>
        <time>2019-11-17T08:20:25.000Z</time>
      </trkpt>
      <trkpt lat="47.26838" lon="-2.32351">
        <ele>13.199999809265</ele>
        <time>2019-11-17T08:20:26.000Z</time>
      </trkpt>
      <trkpt lat="47.26834" lon="-2.32351">
        <ele>13.60000038147</ele>
        <time>2019-11-17T08:20:27.000Z</time>
      </trkpt>
      <trkpt lat="47.2683" lon="-2.32352">
        <ele>14</ele>
        <time>2019-11-17T08:20:28.000Z</time>
      </trkpt>
      <trkpt lat="47.26826" lon="-2.32352">
        <ele>14</ele>
        <time>2019-11-17T08:20:29.000Z</time>
      </trkpt>
      <trkpt lat="47.26819" lon="-2.32355">
        <ele>14.800000190735</ele>
        <time>2019-11-17T08:20:31.000Z</time>
      </trkpt>
      <trkpt lat="47.26815" lon="-2.32355">
        <ele>15.199999809265</ele>
        <time>2019-11-17T08:20:32.000Z</time>
      </trkpt>
      <trkpt lat="47.26812" lon="-2.32355">
        <ele>15.800000190735</ele>
        <time>2019-11-17T08:20:33.000Z</time>
      </trkpt>
      <trkpt lat="47.26808" lon="-2.32356">
        <ele>16.200000762939</ele>
        <time>2019-11-17T08:20:34.000Z</time>
      </trkpt>
      <trkpt lat="47.26801" lon="-2.32357">
        <ele>16.60000038147</ele>
        <time>2019-11-17T08:20:36.000Z</time>
      </trkpt>
      <trkpt lat="47.26798" lon="-2.32358">
        <ele>17</ele>
        <time>2019-11-17T08:20:37.000Z</time>
      </trkpt>
      <trkpt lat="47.26794" lon="-2.32358">
        <ele>17.39999961853</ele>
        <time>2019-11-17T08:20:38.000Z</time>
      </trkpt>
      <trkpt lat="47.26791" lon="-2.32361">
        <ele>17.799999237061</ele>
        <time>2019-11-17T08:20:39.000Z</time>
      </trkpt>
      <trkpt lat="47.26788" lon="-2.32362">
        <ele>18.200000762939</ele>
        <time>2019-11-17T08:20:40.000Z</time>
      </trkpt>
      <trkpt lat="47.26782" lon="-2.32368">
        <ele>18.200000762939</ele>
        <time>2019-11-17T08:20:42.000Z</time>
      </trkpt>
      <trkpt lat="47.26779" lon="-2.32379">
        <ele>18.60000038147</ele>
        <time>2019-11-17T08:20:44.000Z</time>
      </trkpt>
      <trkpt lat="47.26779" lon="-2.32385">
        <ele>19</ele>
        <time>2019-11-17T08:20:45.000Z</time>
      </trkpt>
      <trkpt lat="47.2678" lon="-2.32391">
        <ele>19.39999961853</ele>
        <time>2019-11-17T08:20:46.000Z</time>
      </trkpt>
      <trkpt lat="47.26781" lon="-2.32398">
        <ele>19.799999237061</ele>
        <time>2019-11-17T08:20:47.000Z</time>
      </trkpt>
      <trkpt lat="47.26782" lon="-2.32404">
        <ele>20.200000762939</ele>
        <time>2019-11-17T08:20:48.000Z</time>
      </trkpt>
      <trkpt lat="47.26785" lon="-2.32417">
        <ele>20.200000762939</ele>
        <time>2019-11-17T08:20:50.000Z</time>
      </trkpt>
      <trkpt lat="47.26792" lon="-2.32469">
        <ele>20.200000762939</ele>
        <time>2019-11-17T08:20:57.000Z</time>
      </trkpt>
      <trkpt lat="47.26798" lon="-2.32526">
        <ele>20.200000762939</ele>
        <time>2019-11-17T08:21:04.000Z</time>
      </trkpt>
      <trkpt lat="47.26801" lon="-2.32577">
        <ele>20.200000762939</ele>
        <time>2019-11-17T08:21:10.000Z</time>
      </trkpt>
      <trkpt lat="47.26808" lon="-2.32622">
        <ele>20.200000762939</ele>
        <time>2019-11-17T08:21:16.000Z</time>
      </trkpt>
      <trkpt lat="47.26812" lon="-2.32652">
        <ele>20.200000762939</ele>
        <time>2019-11-17T08:21:20.000Z</time>
      </trkpt>
      <trkpt lat="47.26811" lon="-2.3266">
        <ele>20.200000762939</ele>
        <time>2019-11-17T08:21:21.000Z</time>
      </trkpt>
      <trkpt lat="47.26804" lon="-2.32681">
        <ele>20.200000762939</ele>
        <time>2019-11-17T08:21:24.000Z</time>
      </trkpt>
      <trkpt lat="47.26807" lon="-2.32704">
        <ele>20.200000762939</ele>
        <time>2019-11-17T08:21:27.000Z</time>
      </trkpt>
      <trkpt lat="47.2681" lon="-2.32711">
        <ele>20.200000762939</ele>
        <time>2019-11-17T08:21:28.000Z</time>
      </trkpt>
      <trkpt lat="47.26827" lon="-2.3275">
        <ele>20.200000762939</ele>
        <time>2019-11-17T08:21:33.000Z</time>
      </trkpt>
      <trkpt lat="47.26837" lon="-2.32779">
        <ele>19.799999237061</ele>
        <time>2019-11-17T08:21:36.000Z</time>
      </trkpt>
      <trkpt lat="47.26839" lon="-2.3279">
        <ele>19.200000762939</ele>
        <time>2019-11-17T08:21:37.000Z</time>
      </trkpt>
      <trkpt lat="47.26841" lon="-2.328">
        <ele>18.799999237061</ele>
        <time>2019-11-17T08:21:38.000Z</time>
      </trkpt>
      <trkpt lat="47.26844" lon="-2.32811">
        <ele>18</ele>
        <time>2019-11-17T08:21:39.000Z</time>
      </trkpt>
      <trkpt lat="47.26847" lon="-2.32822">
        <ele>17.39999961853</ele>
        <time>2019-11-17T08:21:40.000Z</time>
      </trkpt>
      <trkpt lat="47.2685" lon="-2.32831">
        <ele>16.60000038147</ele>
        <time>2019-11-17T08:21:41.000Z</time>
      </trkpt>
      <trkpt lat="47.26854" lon="-2.3284">
        <ele>15.800000190735</ele>
        <time>2019-11-17T08:21:42.000Z</time>
      </trkpt>
      <trkpt lat="47.26858" lon="-2.32849">
        <ele>15</ele>
        <time>2019-11-17T08:21:43.000Z</time>
      </trkpt>
      <trkpt lat="47.26861" lon="-2.32857">
        <ele>14.199999809265</ele>
        <time>2019-11-17T08:21:44.000Z</time>
      </trkpt>
      <trkpt lat="47.26864" lon="-2.32864">
        <ele>12.60000038147</ele>
        <time>2019-11-17T08:21:45.000Z</time>
      </trkpt>
      <trkpt lat="47.26865" lon="-2.3287">
        <ele>11.60000038147</ele>
        <time>2019-11-17T08:21:46.000Z</time>
      </trkpt>
      <trkpt lat="47.26865" lon="-2.32876">
        <ele>10.800000190735</ele>
        <time>2019-11-17T08:21:47.000Z</time>
      </trkpt>
      <trkpt lat="47.26862" lon="-2.32881">
        <ele>9.8000001907349</ele>
        <time>2019-11-17T08:21:48.000Z</time>
      </trkpt>
      <trkpt lat="47.26858" lon="-2.32884">
        <ele>8.8000001907349</ele>
        <time>2019-11-17T08:21:49.000Z</time>
      </trkpt>
      <trkpt lat="47.26853" lon="-2.32885">
        <ele>8</ele>
        <time>2019-11-17T08:21:50.000Z</time>
      </trkpt>
      <trkpt lat="47.26848" lon="-2.32886">
        <ele>8</ele>
        <time>2019-11-17T08:21:51.000Z</time>
      </trkpt>
      <trkpt lat="47.26837" lon="-2.32891">
        <ele>8</ele>
        <time>2019-11-17T08:21:53.000Z</time>
      </trkpt>
      <trkpt lat="47.26826" lon="-2.32899">
        <ele>8</ele>
        <time>2019-11-17T08:21:55.000Z</time>
      </trkpt>
      <trkpt lat="47.26821" lon="-2.32903">
        <ele>8</ele>
        <time>2019-11-17T08:21:56.000Z</time>
      </trkpt>
      <trkpt lat="47.268" lon="-2.32916">
        <ele>8</ele>
        <time>2019-11-17T08:22:00.000Z</time>
      </trkpt>
      <trkpt lat="47.26794" lon="-2.32919">
        <ele>8</ele>
        <time>2019-11-17T08:22:01.000Z</time>
      </trkpt>
      <trkpt lat="47.26783" lon="-2.32928">
        <ele>8</ele>
        <time>2019-11-17T08:22:03.000Z</time>
      </trkpt>
      <trkpt lat="47.26779" lon="-2.32934">
        <ele>7.5999999046326</ele>
        <time>2019-11-17T08:22:04.000Z</time>
      </trkpt>
      <trkpt lat="47.26774" lon="-2.3294">
        <ele>7.1999998092651</ele>
        <time>2019-11-17T08:22:05.000Z</time>
      </trkpt>
      <trkpt lat="47.2677" lon="-2.32945">
        <ele>6.8000001907349</ele>
        <time>2019-11-17T08:22:06.000Z</time>
      </trkpt>
      <trkpt lat="47.26765" lon="-2.3295">
        <ele>6.1999998092651</ele>
        <time>2019-11-17T08:22:07.000Z</time>
      </trkpt>
      <trkpt lat="47.26761" lon="-2.32955">
        <ele>5.8000001907349</ele>
        <time>2019-11-17T08:22:08.000Z</time>
      </trkpt>
      <trkpt lat="47.26746" lon="-2.3297">
        <ele>5.8000001907349</ele>
        <time>2019-11-17T08:22:11.000Z</time>
      </trkpt>
      <trkpt lat="47.26739" lon="-2.32983">
        <ele>5.8000001907349</ele>
        <time>2019-11-17T08:22:13.000Z</time>
      </trkpt>
      <trkpt lat="47.26735" lon="-2.32998">
        <ele>5.8000001907349</ele>
        <time>2019-11-17T08:22:15.000Z</time>
      </trkpt>
      <trkpt lat="47.26734" lon="-2.33019">
        <ele>5.8000001907349</ele>
        <time>2019-11-17T08:22:18.000Z</time>
      </trkpt>
      <trkpt lat="47.26733" lon="-2.33036">
        <ele>5.8000001907349</ele>
        <time>2019-11-17T08:22:21.000Z</time>
      </trkpt>
      <trkpt lat="47.2673" lon="-2.33049">
        <ele>5.8000001907349</ele>
        <time>2019-11-17T08:22:23.000Z</time>
      </trkpt>
      <trkpt lat="47.26732" lon="-2.33058">
        <ele>5.8000001907349</ele>
        <time>2019-11-17T08:22:25.000Z</time>
      </trkpt>
      <trkpt lat="47.26738" lon="-2.33062">
        <ele>5.8000001907349</ele>
        <time>2019-11-17T08:22:27.000Z</time>
      </trkpt>
      <trkpt lat="47.2674" lon="-2.33064">
        <ele>5.8000001907349</ele>
        <time>2019-11-17T08:22:28.000Z</time>
      </trkpt>
      <trkpt lat="47.26743" lon="-2.33065">
        <ele>5.8000001907349</ele>
        <time>2019-11-17T08:22:30.000Z</time>
      </trkpt>
      <trkpt lat="47.26748" lon="-2.3306">
        <ele>5.8000001907349</ele>
        <time>2019-11-17T08:22:32.000Z</time>
      </trkpt>
      <trkpt lat="47.26755" lon="-2.33055">
        <ele>5.8000001907349</ele>
        <time>2019-11-17T08:22:34.000Z</time>
      </trkpt>
      <trkpt lat="47.26766" lon="-2.33044">
        <ele>5.8000001907349</ele>
        <time>2019-11-17T08:22:37.000Z</time>
      </trkpt>
      <trkpt lat="47.268" lon="-2.33009">
        <ele>5.8000001907349</ele>
        <time>2019-11-17T08:22:45.000Z</time>
      </trkpt>
      <trkpt lat="47.26817" lon="-2.32994">
        <ele>5.8000001907349</ele>
        <time>2019-11-17T08:22:49.000Z</time>
      </trkpt>
      <trkpt lat="47.26824" lon="-2.32988">
        <ele>5.8000001907349</ele>
        <time>2019-11-17T08:22:51.000Z</time>
      </trkpt>
      <trkpt lat="47.26851" lon="-2.32961">
        <ele>5.8000001907349</ele>
        <time>2019-11-17T08:22:58.000Z</time>
      </trkpt>
      <trkpt lat="47.26877" lon="-2.32937">
        <ele>5.8000001907349</ele>
        <time>2019-11-17T08:23:05.000Z</time>
      </trkpt>
      <trkpt lat="47.26905" lon="-2.32911">
        <ele>5.8000001907349</ele>
        <time>2019-11-17T08:23:12.000Z</time>
      </trkpt>
      <trkpt lat="47.26921" lon="-2.32897">
        <ele>5.8000001907349</ele>
        <time>2019-11-17T08:23:16.000Z</time>
      </trkpt>
      <trkpt lat="47.26925" lon="-2.32893">
        <ele>5.8000001907349</ele>
        <time>2019-11-17T08:23:17.000Z</time>
      </trkpt>
      <trkpt lat="47.26953" lon="-2.32867">
        <ele>5.8000001907349</ele>
        <time>2019-11-17T08:23:24.000Z</time>
      </trkpt>
      <trkpt lat="47.26961" lon="-2.3286">
        <ele>5.8000001907349</ele>
        <time>2019-11-17T08:23:26.000Z</time>
      </trkpt>
      <trkpt lat="47.26968" lon="-2.32853">
        <ele>5.8000001907349</ele>
        <time>2019-11-17T08:23:28.000Z</time>
      </trkpt>
      <trkpt lat="47.26979" lon="-2.32842">
        <ele>5.8000001907349</ele>
        <time>2019-11-17T08:23:31.000Z</time>
      </trkpt>
      <trkpt lat="47.26988" lon="-2.32835">
        <ele>5.8000001907349</ele>
        <time>2019-11-17T08:23:33.000Z</time>
      </trkpt>
      <trkpt lat="47.27003" lon="-2.3282">
        <ele>6.1999998092651</ele>
        <time>2019-11-17T08:23:37.000Z</time>
      </trkpt>
      <trkpt lat="47.27008" lon="-2.32816">
        <ele>6.5999999046326</ele>
        <time>2019-11-17T08:23:38.000Z</time>
      </trkpt>
      <trkpt lat="47.27012" lon="-2.32812">
        <ele>7</ele>
        <time>2019-11-17T08:23:39.000Z</time>
      </trkpt>
      <trkpt lat="47.27016" lon="-2.32808">
        <ele>7.4000000953674</ele>
        <time>2019-11-17T08:23:40.000Z</time>
      </trkpt>
      <trkpt lat="47.27021" lon="-2.32803">
        <ele>7.8000001907349</ele>
        <time>2019-11-17T08:23:41.000Z</time>
      </trkpt>
      <trkpt lat="47.27046" lon="-2.3278">
        <ele>7.8000001907349</ele>
        <time>2019-11-17T08:23:47.000Z</time>
      </trkpt>
      <trkpt lat="47.27051" lon="-2.32776">
        <ele>7.8000001907349</ele>
        <time>2019-11-17T08:23:48.000Z</time>
      </trkpt>
      <trkpt lat="47.27097" lon="-2.32736">
        <ele>7.8000001907349</ele>
        <time>2019-11-17T08:23:58.000Z</time>
      </trkpt>
      <trkpt lat="47.27128" lon="-2.32705">
        <ele>7.8000001907349</ele>
        <time>2019-11-17T08:24:06.000Z</time>
      </trkpt>
      <trkpt lat="47.27137" lon="-2.3269">
        <ele>7.8000001907349</ele>
        <time>2019-11-17T08:24:09.000Z</time>
      </trkpt>
      <trkpt lat="47.27144" lon="-2.32682">
        <ele>7.8000001907349</ele>
        <time>2019-11-17T08:24:11.000Z</time>
      </trkpt>
      <trkpt lat="47.27159" lon="-2.32666">
        <ele>8.1999998092651</ele>
        <time>2019-11-17T08:24:15.000Z</time>
      </trkpt>
      <trkpt lat="47.27163" lon="-2.32662">
        <ele>8.8000001907349</ele>
        <time>2019-11-17T08:24:16.000Z</time>
      </trkpt>
      <trkpt lat="47.27168" lon="-2.32658">
        <ele>9.1999998092651</ele>
        <time>2019-11-17T08:24:17.000Z</time>
      </trkpt>
      <trkpt lat="47.27172" lon="-2.32654">
        <ele>9.6000003814697</ele>
        <time>2019-11-17T08:24:18.000Z</time>
      </trkpt>
      <trkpt lat="47.27177" lon="-2.3265">
        <ele>10</ele>
        <time>2019-11-17T08:24:19.000Z</time>
      </trkpt>
      <trkpt lat="47.2719" lon="-2.32638">
        <ele>10</ele>
        <time>2019-11-17T08:24:22.000Z</time>
      </trkpt>
      <trkpt lat="47.27216" lon="-2.32613">
        <ele>10</ele>
        <time>2019-11-17T08:24:28.000Z</time>
      </trkpt>
      <trkpt lat="47.27251" lon="-2.32578">
        <ele>10</ele>
        <time>2019-11-17T08:24:36.000Z</time>
      </trkpt>
      <trkpt lat="47.27284" lon="-2.32538">
        <ele>10</ele>
        <time>2019-11-17T08:24:44.000Z</time>
      </trkpt>
      <trkpt lat="47.27314" lon="-2.32491">
        <ele>10</ele>
        <time>2019-11-17T08:24:52.000Z</time>
      </trkpt>
      <trkpt lat="47.27326" lon="-2.32472">
        <ele>10</ele>
        <time>2019-11-17T08:24:55.000Z</time>
      </trkpt>
      <trkpt lat="47.27334" lon="-2.32458">
        <ele>10</ele>
        <time>2019-11-17T08:24:57.000Z</time>
      </trkpt>
      <trkpt lat="47.27349" lon="-2.3242">
        <ele>10</ele>
        <time>2019-11-17T08:25:02.000Z</time>
      </trkpt>
      <trkpt lat="47.27361" lon="-2.32371">
        <ele>10</ele>
        <time>2019-11-17T08:25:08.000Z</time>
      </trkpt>
      <trkpt lat="47.27363" lon="-2.32364">
        <ele>10</ele>
        <time>2019-11-17T08:25:09.000Z</time>
      </trkpt>
      <trkpt lat="47.27367" lon="-2.32344">
        <ele>10</ele>
        <time>2019-11-17T08:25:12.000Z</time>
      </trkpt>
      <trkpt lat="47.27372" lon="-2.32317">
        <ele>10</ele>
        <time>2019-11-17T08:25:16.000Z</time>
      </trkpt>
      <trkpt lat="47.27374" lon="-2.32311">
        <ele>10</ele>
        <time>2019-11-17T08:25:17.000Z</time>
      </trkpt>
      <trkpt lat="47.27382" lon="-2.32277">
        <ele>10</ele>
        <time>2019-11-17T08:25:22.000Z</time>
      </trkpt>
      <trkpt lat="47.27391" lon="-2.32244">
        <ele>10</ele>
        <time>2019-11-17T08:25:26.000Z</time>
      </trkpt>
      <trkpt lat="47.27392" lon="-2.32235">
        <ele>10</ele>
        <time>2019-11-17T08:25:27.000Z</time>
      </trkpt>
      <trkpt lat="47.274" lon="-2.32178">
        <ele>10</ele>
        <time>2019-11-17T08:25:33.000Z</time>
      </trkpt>
      <trkpt lat="47.27402" lon="-2.32151">
        <ele>10</ele>
        <time>2019-11-17T08:25:36.000Z</time>
      </trkpt>
      <trkpt lat="47.27404" lon="-2.32143">
        <ele>9.3999996185303</ele>
        <time>2019-11-17T08:25:37.000Z</time>
      </trkpt>
      <trkpt lat="47.27405" lon="-2.32135">
        <ele>9</ele>
        <time>2019-11-17T08:25:38.000Z</time>
      </trkpt>
      <trkpt lat="47.27407" lon="-2.32127">
        <ele>8.6000003814697</ele>
        <time>2019-11-17T08:25:39.000Z</time>
      </trkpt>
      <trkpt lat="47.27408" lon="-2.32119">
        <ele>8.1999998092651</ele>
        <time>2019-11-17T08:25:40.000Z</time>
      </trkpt>
      <trkpt lat="47.27409" lon="-2.32111">
        <ele>7.8000001907349</ele>
        <time>2019-11-17T08:25:41.000Z</time>
      </trkpt>
      <trkpt lat="47.27409" lon="-2.32104">
        <ele>7.8000001907349</ele>
        <time>2019-11-17T08:25:42.000Z</time>
      </trkpt>
      <trkpt lat="47.27408" lon="-2.32096">
        <ele>7.8000001907349</ele>
        <time>2019-11-17T08:25:43.000Z</time>
      </trkpt>
      <trkpt lat="47.27401" lon="-2.32075">
        <ele>7.8000001907349</ele>
        <time>2019-11-17T08:25:46.000Z</time>
      </trkpt>
      <trkpt lat="47.27398" lon="-2.32069">
        <ele>7.8000001907349</ele>
        <time>2019-11-17T08:25:47.000Z</time>
      </trkpt>
      <trkpt lat="47.27395" lon="-2.32064">
        <ele>7.8000001907349</ele>
        <time>2019-11-17T08:25:48.000Z</time>
      </trkpt>
      <trkpt lat="47.27385" lon="-2.32051">
        <ele>7.8000001907349</ele>
        <time>2019-11-17T08:25:51.000Z</time>
      </trkpt>
      <trkpt lat="47.2736" lon="-2.32019">
        <ele>7.8000001907349</ele>
        <time>2019-11-17T08:25:58.000Z</time>
      </trkpt>
      <trkpt lat="47.27349" lon="-2.32003">
        <ele>7.8000001907349</ele>
        <time>2019-11-17T08:26:01.000Z</time>
      </trkpt>
      <trkpt lat="47.27341" lon="-2.31992">
        <ele>7.8000001907349</ele>
        <time>2019-11-17T08:26:03.000Z</time>
      </trkpt>
      <trkpt lat="47.27336" lon="-2.31987">
        <ele>7.8000001907349</ele>
        <time>2019-11-17T08:26:04.000Z</time>
      </trkpt>
      <trkpt lat="47.27317" lon="-2.31968">
        <ele>7.8000001907349</ele>
        <time>2019-11-17T08:26:08.000Z</time>
      </trkpt>
      <trkpt lat="47.27304" lon="-2.31957">
        <ele>7.8000001907349</ele>
        <time>2019-11-17T08:26:11.000Z</time>
      </trkpt>
      <trkpt lat="47.27295" lon="-2.31952">
        <ele>7.8000001907349</ele>
        <time>2019-11-17T08:26:13.000Z</time>
      </trkpt>
      <trkpt lat="47.27281" lon="-2.31945">
        <ele>7.8000001907349</ele>
        <time>2019-11-17T08:26:16.000Z</time>
      </trkpt>
      <trkpt lat="47.27271" lon="-2.31941">
        <ele>7.8000001907349</ele>
        <time>2019-11-17T08:26:18.000Z</time>
      </trkpt>
      <trkpt lat="47.27241" lon="-2.3193">
        <ele>7.8000001907349</ele>
        <time>2019-11-17T08:26:24.000Z</time>
      </trkpt>
      <trkpt lat="47.27231" lon="-2.31926">
        <ele>7.8000001907349</ele>
        <time>2019-11-17T08:26:26.000Z</time>
      </trkpt>
      <trkpt lat="47.27223" lon="-2.31923">
        <ele>7.8000001907349</ele>
        <time>2019-11-17T08:26:28.000Z</time>
      </trkpt>
      <trkpt lat="47.27211" lon="-2.31934">
        <ele>7.8000001907349</ele>
        <time>2019-11-17T08:26:32.000Z</time>
      </trkpt>
      <trkpt lat="47.27208" lon="-2.31939">
        <ele>7.8000001907349</ele>
        <time>2019-11-17T08:26:33.000Z</time>
      </trkpt>
      <trkpt lat="47.27205" lon="-2.31943">
        <ele>7.8000001907349</ele>
        <time>2019-11-17T08:26:34.000Z</time>
      </trkpt>
      <trkpt lat="47.27197" lon="-2.31953">
        <ele>7.8000001907349</ele>
        <time>2019-11-17T08:26:36.000Z</time>
      </trkpt>
      <trkpt lat="47.27178" lon="-2.31973">
        <ele>7.8000001907349</ele>
        <time>2019-11-17T08:26:41.000Z</time>
      </trkpt>
      <trkpt lat="47.27171" lon="-2.31985">
        <ele>7.8000001907349</ele>
        <time>2019-11-17T08:26:44.000Z</time>
      </trkpt>
      <trkpt lat="47.2717" lon="-2.31987">
        <ele>7.8000001907349</ele>
        <time>2019-11-17T08:26:45.000Z</time>
      </trkpt>
      <trkpt lat="47.27167" lon="-2.3199">
        <ele>7.8000001907349</ele>
        <time>2019-11-17T08:26:47.000Z</time>
      </trkpt>
      <trkpt lat="47.27163" lon="-2.31992">
        <ele>7.8000001907349</ele>
        <time>2019-11-17T08:26:49.000Z</time>
      </trkpt>
      <trkpt lat="47.27152" lon="-2.31986">
        <ele>7.8000001907349</ele>
        <time>2019-11-17T08:26:54.000Z</time>
      </trkpt>
      <trkpt lat="47.27135" lon="-2.31971">
        <ele>7.8000001907349</ele>
        <time>2019-11-17T08:26:59.000Z</time>
      </trkpt>
      <trkpt lat="47.27114" lon="-2.3196">
        <ele>7.8000001907349</ele>
        <time>2019-11-17T08:27:04.000Z</time>
      </trkpt>
      <trkpt lat="47.27095" lon="-2.31954">
        <ele>7.8000001907349</ele>
        <time>2019-11-17T08:27:09.000Z</time>
      </trkpt>
      <trkpt lat="47.27088" lon="-2.31954">
        <ele>7.8000001907349</ele>
        <time>2019-11-17T08:27:12.000Z</time>
      </trkpt>
      <trkpt lat="47.27087" lon="-2.31954">
        <ele>7.8000001907349</ele>
        <time>2019-11-17T08:27:13.000Z</time>
      </trkpt>
      <trkpt lat="47.27083" lon="-2.31953">
        <ele>7.8000001907349</ele>
        <time>2019-11-17T08:27:30.000Z</time>
      </trkpt>
      <trkpt lat="47.27082" lon="-2.31951">
        <ele>7.8000001907349</ele>
        <time>2019-11-17T08:27:31.000Z</time>
      </trkpt>
      <trkpt lat="47.27082" lon="-2.3194">
        <ele>7.8000001907349</ele>
        <time>2019-11-17T08:27:35.000Z</time>
      </trkpt>
      <trkpt lat="47.27082" lon="-2.31937">
        <ele>8.1999998092651</ele>
        <time>2019-11-17T08:27:36.000Z</time>
      </trkpt>
      <trkpt lat="47.27081" lon="-2.31935">
        <ele>8.6000003814697</ele>
        <time>2019-11-17T08:27:37.000Z</time>
      </trkpt>
      <trkpt lat="47.27081" lon="-2.31932">
        <ele>9</ele>
        <time>2019-11-17T08:27:38.000Z</time>
      </trkpt>
      <trkpt lat="47.2708" lon="-2.3193">
        <ele>9.3999996185303</ele>
        <time>2019-11-17T08:27:39.000Z</time>
      </trkpt>
      <trkpt lat="47.27079" lon="-2.31927">
        <ele>9.8000001907349</ele>
        <time>2019-11-17T08:27:40.000Z</time>
      </trkpt>
      <trkpt lat="47.27078" lon="-2.31913">
        <ele>9.8000001907349</ele>
        <time>2019-11-17T08:27:44.000Z</time>
      </trkpt>
      <trkpt lat="47.27076" lon="-2.31897">
        <ele>9.8000001907349</ele>
        <time>2019-11-17T08:27:49.000Z</time>
      </trkpt>
      <trkpt lat="47.27075" lon="-2.3188">
        <ele>9.8000001907349</ele>
        <time>2019-11-17T08:27:54.000Z</time>
      </trkpt>
      <trkpt lat="47.27076" lon="-2.31867">
        <ele>9.8000001907349</ele>
        <time>2019-11-17T08:27:58.000Z</time>
      </trkpt>
      <trkpt lat="47.27076" lon="-2.31865">
        <ele>9.8000001907349</ele>
        <time>2019-11-17T08:27:59.000Z</time>
      </trkpt>
      <trkpt lat="47.27066" lon="-2.31858">
        <ele>9.8000001907349</ele>
        <time>2019-11-17T08:28:04.000Z</time>
      </trkpt>
      <trkpt lat="47.27062" lon="-2.31854">
        <ele>10.199999809265</ele>
        <time>2019-11-17T08:28:06.000Z</time>
      </trkpt>
      <trkpt lat="47.27061" lon="-2.31852">
        <ele>10.60000038147</ele>
        <time>2019-11-17T08:28:07.000Z</time>
      </trkpt>
      <trkpt lat="47.27061" lon="-2.3185">
        <ele>11</ele>
        <time>2019-11-17T08:28:08.000Z</time>
      </trkpt>
      <trkpt lat="47.2706" lon="-2.31847">
        <ele>11.39999961853</ele>
        <time>2019-11-17T08:28:09.000Z</time>
      </trkpt>
      <trkpt lat="47.2706" lon="-2.31844">
        <ele>11.800000190735</ele>
        <time>2019-11-17T08:28:10.000Z</time>
      </trkpt>
      <trkpt lat="47.27059" lon="-2.31832">
        <ele>11.800000190735</ele>
        <time>2019-11-17T08:28:14.000Z</time>
      </trkpt>
      <trkpt lat="47.27057" lon="-2.31814">
        <ele>11.800000190735</ele>
        <time>2019-11-17T08:28:19.000Z</time>
      </trkpt>
      <trkpt lat="47.27055" lon="-2.31785">
        <ele>12.39999961853</ele>
        <time>2019-11-17T08:28:26.000Z</time>
      </trkpt>
      <trkpt lat="47.27054" lon="-2.31782">
        <ele>12.800000190735</ele>
        <time>2019-11-17T08:28:27.000Z</time>
      </trkpt>
      <trkpt lat="47.27054" lon="-2.31778">
        <ele>13.199999809265</ele>
        <time>2019-11-17T08:28:28.000Z</time>
      </trkpt>
      <trkpt lat="47.27053" lon="-2.31775">
        <ele>13.60000038147</ele>
        <time>2019-11-17T08:28:29.000Z</time>
      </trkpt>
      <trkpt lat="47.27053" lon="-2.31772">
        <ele>14</ele>
        <time>2019-11-17T08:28:30.000Z</time>
      </trkpt>
      <trkpt lat="47.27053" lon="-2.31768">
        <ele>14</ele>
        <time>2019-11-17T08:28:31.000Z</time>
      </trkpt>
      <trkpt lat="47.27051" lon="-2.31754">
        <ele>14</ele>
        <time>2019-11-17T08:28:36.000Z</time>
      </trkpt>
      <trkpt lat="47.2705" lon="-2.31745">
        <ele>14</ele>
        <time>2019-11-17T08:28:40.000Z</time>
      </trkpt>
      <trkpt lat="47.27051" lon="-2.31744">
        <ele>14</ele>
        <time>2019-11-17T08:28:41.000Z</time>
      </trkpt>
      <trkpt lat="47.27048" lon="-2.31736">
        <ele>14</ele>
        <time>2019-11-17T08:28:45.000Z</time>
      </trkpt>
      <trkpt lat="47.27041" lon="-2.31731">
        <ele>14</ele>
        <time>2019-11-17T08:28:48.000Z</time>
      </trkpt>
      <trkpt lat="47.27036" lon="-2.31727">
        <ele>14</ele>
        <time>2019-11-17T08:28:50.000Z</time>
      </trkpt>
      <trkpt lat="47.27032" lon="-2.31723">
        <ele>14.39999961853</ele>
        <time>2019-11-17T08:28:52.000Z</time>
      </trkpt>
      <trkpt lat="47.27029" lon="-2.3172">
        <ele>14.800000190735</ele>
        <time>2019-11-17T08:28:53.000Z</time>
      </trkpt>
      <trkpt lat="47.27027" lon="-2.31718">
        <ele>15.199999809265</ele>
        <time>2019-11-17T08:28:54.000Z</time>
      </trkpt>
      <trkpt lat="47.27026" lon="-2.31713">
        <ele>15.60000038147</ele>
        <time>2019-11-17T08:28:55.000Z</time>
      </trkpt>
      <trkpt lat="47.27027" lon="-2.31709">
        <ele>16</ele>
        <time>2019-11-17T08:28:56.000Z</time>
      </trkpt>
      <trkpt lat="47.27029" lon="-2.31702">
        <ele>16</ele>
        <time>2019-11-17T08:28:58.000Z</time>
      </trkpt>
      <trkpt lat="47.27032" lon="-2.3168">
        <ele>16</ele>
        <time>2019-11-17T08:29:03.000Z</time>
      </trkpt>
      <trkpt lat="47.27034" lon="-2.31662">
        <ele>16</ele>
        <time>2019-11-17T08:29:07.000Z</time>
      </trkpt>
      <trkpt lat="47.27034" lon="-2.31658">
        <ele>16.799999237061</ele>
        <time>2019-11-17T08:29:08.000Z</time>
      </trkpt>
      <trkpt lat="47.27033" lon="-2.31654">
        <ele>17.200000762939</ele>
        <time>2019-11-17T08:29:09.000Z</time>
      </trkpt>
      <trkpt lat="47.27033" lon="-2.3165">
        <ele>17.60000038147</ele>
        <time>2019-11-17T08:29:10.000Z</time>
      </trkpt>
      <trkpt lat="47.27032" lon="-2.31646">
        <ele>18</ele>
        <time>2019-11-17T08:29:11.000Z</time>
      </trkpt>
      <trkpt lat="47.2703" lon="-2.31618">
        <ele>18</ele>
        <time>2019-11-17T08:29:17.000Z</time>
      </trkpt>
      <trkpt lat="47.27029" lon="-2.31608">
        <ele>18.60000038147</ele>
        <time>2019-11-17T08:29:20.000Z</time>
      </trkpt>
      <trkpt lat="47.27028" lon="-2.31605">
        <ele>19</ele>
        <time>2019-11-17T08:29:21.000Z</time>
      </trkpt>
      <trkpt lat="47.27028" lon="-2.31602">
        <ele>19.39999961853</ele>
        <time>2019-11-17T08:29:22.000Z</time>
      </trkpt>
      <trkpt lat="47.27027" lon="-2.31599">
        <ele>20</ele>
        <time>2019-11-17T08:29:23.000Z</time>
      </trkpt>
      <trkpt lat="47.27025" lon="-2.31597">
        <ele>20.39999961853</ele>
        <time>2019-11-17T08:29:24.000Z</time>
      </trkpt>
      <trkpt lat="47.27021" lon="-2.31587">
        <ele>20.39999961853</ele>
        <time>2019-11-17T08:29:27.000Z</time>
      </trkpt>
      <trkpt lat="47.27017" lon="-2.31576">
        <ele>20.799999237061</ele>
        <time>2019-11-17T08:29:31.000Z</time>
      </trkpt>
      <trkpt lat="47.27016" lon="-2.31572">
        <ele>21.200000762939</ele>
        <time>2019-11-17T08:29:32.000Z</time>
      </trkpt>
      <trkpt lat="47.27015" lon="-2.31568">
        <ele>22.200000762939</ele>
        <time>2019-11-17T08:29:33.000Z</time>
      </trkpt>
      <trkpt lat="47.27014" lon="-2.31563">
        <ele>22.60000038147</ele>
        <time>2019-11-17T08:29:34.000Z</time>
      </trkpt>
      <trkpt lat="47.27009" lon="-2.31545">
        <ele>22.60000038147</ele>
        <time>2019-11-17T08:29:38.000Z</time>
      </trkpt>
      <trkpt lat="47.27007" lon="-2.31537">
        <ele>23</ele>
        <time>2019-11-17T08:29:40.000Z</time>
      </trkpt>
      <trkpt lat="47.27007" lon="-2.31532">
        <ele>23.39999961853</ele>
        <time>2019-11-17T08:29:41.000Z</time>
      </trkpt>
      <trkpt lat="47.27006" lon="-2.31528">
        <ele>23.799999237061</ele>
        <time>2019-11-17T08:29:42.000Z</time>
      </trkpt>
      <trkpt lat="47.27004" lon="-2.31522">
        <ele>24.200000762939</ele>
        <time>2019-11-17T08:29:43.000Z</time>
      </trkpt>
      <trkpt lat="47.27003" lon="-2.31518">
        <ele>24.799999237061</ele>
        <time>2019-11-17T08:29:44.000Z</time>
      </trkpt>
      <trkpt lat="47.26996" lon="-2.31493">
        <ele>24.799999237061</ele>
        <time>2019-11-17T08:29:49.000Z</time>
      </trkpt>
      <trkpt lat="47.26995" lon="-2.31487">
        <ele>25.200000762939</ele>
        <time>2019-11-17T08:29:50.000Z</time>
      </trkpt>
      <trkpt lat="47.26994" lon="-2.31482">
        <ele>25.60000038147</ele>
        <time>2019-11-17T08:29:51.000Z</time>
      </trkpt>
      <trkpt lat="47.26993" lon="-2.31476">
        <ele>26</ele>
        <time>2019-11-17T08:29:52.000Z</time>
      </trkpt>
      <trkpt lat="47.26991" lon="-2.31471">
        <ele>26.39999961853</ele>
        <time>2019-11-17T08:29:53.000Z</time>
      </trkpt>
      <trkpt lat="47.2699" lon="-2.31466">
        <ele>26.799999237061</ele>
        <time>2019-11-17T08:29:54.000Z</time>
      </trkpt>
      <trkpt lat="47.26989" lon="-2.31461">
        <ele>26.799999237061</ele>
        <time>2019-11-17T08:29:55.000Z</time>
      </trkpt>
      <trkpt lat="47.26988" lon="-2.31423">
        <ele>26.799999237061</ele>
        <time>2019-11-17T08:30:02.000Z</time>
      </trkpt>
      <trkpt lat="47.26986" lon="-2.31408">
        <ele>27.200000762939</ele>
        <time>2019-11-17T08:30:05.000Z</time>
      </trkpt>
      <trkpt lat="47.26986" lon="-2.31404">
        <ele>27.60000038147</ele>
        <time>2019-11-17T08:30:06.000Z</time>
      </trkpt>
      <trkpt lat="47.26986" lon="-2.314">
        <ele>28.200000762939</ele>
        <time>2019-11-17T08:30:07.000Z</time>
      </trkpt>
      <trkpt lat="47.26986" lon="-2.31395">
        <ele>28.60000038147</ele>
        <time>2019-11-17T08:30:08.000Z</time>
      </trkpt>
      <trkpt lat="47.26986" lon="-2.31389">
        <ele>29</ele>
        <time>2019-11-17T08:30:09.000Z</time>
      </trkpt>
      <trkpt lat="47.26984" lon="-2.31366">
        <ele>29</ele>
        <time>2019-11-17T08:30:14.000Z</time>
      </trkpt>
      <trkpt lat="47.26983" lon="-2.31357">
        <ele>29.39999961853</ele>
        <time>2019-11-17T08:30:16.000Z</time>
      </trkpt>
      <trkpt lat="47.26983" lon="-2.31352">
        <ele>29.799999237061</ele>
        <time>2019-11-17T08:30:17.000Z</time>
      </trkpt>
      <trkpt lat="47.26982" lon="-2.31347">
        <ele>30.200000762939</ele>
        <time>2019-11-17T08:30:18.000Z</time>
      </trkpt>
      <trkpt lat="47.26981" lon="-2.31341">
        <ele>30.60000038147</ele>
        <time>2019-11-17T08:30:19.000Z</time>
      </trkpt>
      <trkpt lat="47.26981" lon="-2.31336">
        <ele>31</ele>
        <time>2019-11-17T08:30:20.000Z</time>
      </trkpt>
      <trkpt lat="47.26976" lon="-2.313">
        <ele>31</ele>
        <time>2019-11-17T08:30:27.000Z</time>
      </trkpt>
      <trkpt lat="47.26975" lon="-2.3127">
        <ele>31</ele>
        <time>2019-11-17T08:30:32.000Z</time>
      </trkpt>
      <trkpt lat="47.26974" lon="-2.31255">
        <ele>31</ele>
        <time>2019-11-17T08:30:34.000Z</time>
      </trkpt>
      <trkpt lat="47.26975" lon="-2.31234">
        <ele>31</ele>
        <time>2019-11-17T08:30:37.000Z</time>
      </trkpt>
      <trkpt lat="47.26976" lon="-2.31228">
        <ele>31</ele>
        <time>2019-11-17T08:30:38.000Z</time>
      </trkpt>
      <trkpt lat="47.26981" lon="-2.31192">
        <ele>31</ele>
        <time>2019-11-17T08:30:43.000Z</time>
      </trkpt>
      <trkpt lat="47.26988" lon="-2.31132">
        <ele>31</ele>
        <time>2019-11-17T08:30:50.000Z</time>
      </trkpt>
      <trkpt lat="47.26988" lon="-2.31123">
        <ele>30.60000038147</ele>
        <time>2019-11-17T08:30:51.000Z</time>
      </trkpt>
      <trkpt lat="47.26988" lon="-2.31114">
        <ele>30.200000762939</ele>
        <time>2019-11-17T08:30:52.000Z</time>
      </trkpt>
      <trkpt lat="47.26988" lon="-2.31106">
        <ele>29.799999237061</ele>
        <time>2019-11-17T08:30:53.000Z</time>
      </trkpt>
      <trkpt lat="47.26988" lon="-2.311">
        <ele>29.39999961853</ele>
        <time>2019-11-17T08:30:54.000Z</time>
      </trkpt>
      <trkpt lat="47.26987" lon="-2.31094">
        <ele>29</ele>
        <time>2019-11-17T08:30:55.000Z</time>
      </trkpt>
      <trkpt lat="47.26986" lon="-2.31082">
        <ele>28.60000038147</ele>
        <time>2019-11-17T08:30:58.000Z</time>
      </trkpt>
      <trkpt lat="47.26987" lon="-2.31078">
        <ele>28.200000762939</ele>
        <time>2019-11-17T08:30:59.000Z</time>
      </trkpt>
      <trkpt lat="47.2699" lon="-2.31074">
        <ele>27.60000038147</ele>
        <time>2019-11-17T08:31:00.000Z</time>
      </trkpt>
      <trkpt lat="47.26994" lon="-2.3107">
        <ele>27.200000762939</ele>
        <time>2019-11-17T08:31:01.000Z</time>
      </trkpt>
      <trkpt lat="47.26998" lon="-2.31066">
        <ele>26.799999237061</ele>
        <time>2019-11-17T08:31:02.000Z</time>
      </trkpt>
      <trkpt lat="47.27015" lon="-2.31048">
        <ele>26.799999237061</ele>
        <time>2019-11-17T08:31:07.000Z</time>
      </trkpt>
      <trkpt lat="47.27024" lon="-2.31036">
        <ele>26.39999961853</ele>
        <time>2019-11-17T08:31:10.000Z</time>
      </trkpt>
      <trkpt lat="47.27027" lon="-2.31033">
        <ele>26</ele>
        <time>2019-11-17T08:31:11.000Z</time>
      </trkpt>
      <trkpt lat="47.27029" lon="-2.31031">
        <ele>25.60000038147</ele>
        <time>2019-11-17T08:31:12.000Z</time>
      </trkpt>
      <trkpt lat="47.27031" lon="-2.31029">
        <ele>25.200000762939</ele>
        <time>2019-11-17T08:31:13.000Z</time>
      </trkpt>
      <trkpt lat="47.27034" lon="-2.31026">
        <ele>24.799999237061</ele>
        <time>2019-11-17T08:31:14.000Z</time>
      </trkpt>
      <trkpt lat="47.27042" lon="-2.31015">
        <ele>24.799999237061</ele>
        <time>2019-11-17T08:31:17.000Z</time>
      </trkpt>
      <trkpt lat="47.27047" lon="-2.31006">
        <ele>24.799999237061</ele>
        <time>2019-11-17T08:31:19.000Z</time>
      </trkpt>
      <trkpt lat="47.27049" lon="-2.30998">
        <ele>24.799999237061</ele>
        <time>2019-11-17T08:31:21.000Z</time>
      </trkpt>
      <trkpt lat="47.2705" lon="-2.3099">
        <ele>24.799999237061</ele>
        <time>2019-11-17T08:31:23.000Z</time>
      </trkpt>
      <trkpt lat="47.2705" lon="-2.30973">
        <ele>24.799999237061</ele>
        <time>2019-11-17T08:31:27.000Z</time>
      </trkpt>
      <trkpt lat="47.27053" lon="-2.30959">
        <ele>24.799999237061</ele>
        <time>2019-11-17T08:31:30.000Z</time>
      </trkpt>
      <trkpt lat="47.27054" lon="-2.30953">
        <ele>24.799999237061</ele>
        <time>2019-11-17T08:31:32.000Z</time>
      </trkpt>
      <trkpt lat="47.27053" lon="-2.30948">
        <ele>24.799999237061</ele>
        <time>2019-11-17T08:31:34.000Z</time>
      </trkpt>
      <trkpt lat="47.27051" lon="-2.30939">
        <ele>24.799999237061</ele>
        <time>2019-11-17T08:31:39.000Z</time>
      </trkpt>
      <trkpt lat="47.27049" lon="-2.30932">
        <ele>24.799999237061</ele>
        <time>2019-11-17T08:31:43.000Z</time>
      </trkpt>
      <trkpt lat="47.27048" lon="-2.30928">
        <ele>24.799999237061</ele>
        <time>2019-11-17T08:31:45.000Z</time>
      </trkpt>
      <trkpt lat="47.27045" lon="-2.30908">
        <ele>24.799999237061</ele>
        <time>2019-11-17T08:31:50.000Z</time>
      </trkpt>
      <trkpt lat="47.27039" lon="-2.3089">
        <ele>24.799999237061</ele>
        <time>2019-11-17T08:31:56.000Z</time>
      </trkpt>
      <trkpt lat="47.27031" lon="-2.30874">
        <ele>24.799999237061</ele>
        <time>2019-11-17T08:32:00.000Z</time>
      </trkpt>
      <trkpt lat="47.27022" lon="-2.30859">
        <ele>24.799999237061</ele>
        <time>2019-11-17T08:32:04.000Z</time>
      </trkpt>
      <trkpt lat="47.27009" lon="-2.30839">
        <ele>24.799999237061</ele>
        <time>2019-11-17T08:32:09.000Z</time>
      </trkpt>
      <trkpt lat="47.26994" lon="-2.30812">
        <ele>24.799999237061</ele>
        <time>2019-11-17T08:32:15.000Z</time>
      </trkpt>
      <trkpt lat="47.26983" lon="-2.30795">
        <ele>24.799999237061</ele>
        <time>2019-11-17T08:32:19.000Z</time>
      </trkpt>
      <trkpt lat="47.2698" lon="-2.30791">
        <ele>25.200000762939</ele>
        <time>2019-11-17T08:32:20.000Z</time>
      </trkpt>
      <trkpt lat="47.26977" lon="-2.30787">
        <ele>25.60000038147</ele>
        <time>2019-11-17T08:32:21.000Z</time>
      </trkpt>
      <trkpt lat="47.26975" lon="-2.30783">
        <ele>26</ele>
        <time>2019-11-17T08:32:22.000Z</time>
      </trkpt>
      <trkpt lat="47.26972" lon="-2.30779">
        <ele>26.39999961853</ele>
        <time>2019-11-17T08:32:23.000Z</time>
      </trkpt>
      <trkpt lat="47.2697" lon="-2.30775">
        <ele>26.799999237061</ele>
        <time>2019-11-17T08:32:24.000Z</time>
      </trkpt>
      <trkpt lat="47.26964" lon="-2.30767">
        <ele>26.799999237061</ele>
        <time>2019-11-17T08:32:26.000Z</time>
      </trkpt>
      <trkpt lat="47.2695" lon="-2.3075">
        <ele>26.799999237061</ele>
        <time>2019-11-17T08:32:31.000Z</time>
      </trkpt>
      <trkpt lat="47.26947" lon="-2.30745">
        <ele>27.200000762939</ele>
        <time>2019-11-17T08:32:32.000Z</time>
      </trkpt>
      <trkpt lat="47.26945" lon="-2.30741">
        <ele>27.799999237061</ele>
        <time>2019-11-17T08:32:33.000Z</time>
      </trkpt>
      <trkpt lat="47.26942" lon="-2.30737">
        <ele>28.200000762939</ele>
        <time>2019-11-17T08:32:34.000Z</time>
      </trkpt>
      <trkpt lat="47.2694" lon="-2.30733">
        <ele>28.60000038147</ele>
        <time>2019-11-17T08:32:35.000Z</time>
      </trkpt>
      <trkpt lat="47.26938" lon="-2.30729">
        <ele>29</ele>
        <time>2019-11-17T08:32:36.000Z</time>
      </trkpt>
      <trkpt lat="47.26923" lon="-2.30707">
        <ele>29</ele>
        <time>2019-11-17T08:32:42.000Z</time>
      </trkpt>
      <trkpt lat="47.26913" lon="-2.30691">
        <ele>29.39999961853</ele>
        <time>2019-11-17T08:32:46.000Z</time>
      </trkpt>
      <trkpt lat="47.2691" lon="-2.30688">
        <ele>29.799999237061</ele>
        <time>2019-11-17T08:32:47.000Z</time>
      </trkpt>
      <trkpt lat="47.26907" lon="-2.30684">
        <ele>30.200000762939</ele>
        <time>2019-11-17T08:32:48.000Z</time>
      </trkpt>
      <trkpt lat="47.26904" lon="-2.3068">
        <ele>31</ele>
        <time>2019-11-17T08:32:49.000Z</time>
      </trkpt>
      <trkpt lat="47.2689" lon="-2.30671">
        <ele>31</ele>
        <time>2019-11-17T08:32:54.000Z</time>
      </trkpt>
      <trkpt lat="47.26878" lon="-2.30686">
        <ele>31</ele>
        <time>2019-11-17T08:32:58.000Z</time>
      </trkpt>
      <trkpt lat="47.26875" lon="-2.3069">
        <ele>31</ele>
        <time>2019-11-17T08:32:59.000Z</time>
      </trkpt>
      <trkpt lat="47.26863" lon="-2.30711">
        <ele>31</ele>
        <time>2019-11-17T08:33:03.000Z</time>
      </trkpt>
      <trkpt lat="47.26841" lon="-2.30762">
        <ele>31</ele>
        <time>2019-11-17T08:33:12.000Z</time>
      </trkpt>
      <trkpt lat="47.26836" lon="-2.30774">
        <ele>31</ele>
        <time>2019-11-17T08:33:14.000Z</time>
      </trkpt>
      <trkpt lat="47.26827" lon="-2.30791">
        <ele>31</ele>
        <time>2019-11-17T08:33:17.000Z</time>
      </trkpt>
      <trkpt lat="47.26819" lon="-2.30796">
        <ele>31</ele>
        <time>2019-11-17T08:33:19.000Z</time>
      </trkpt>
      <trkpt lat="47.26815" lon="-2.30799">
        <ele>31</ele>
        <time>2019-11-17T08:33:20.000Z</time>
      </trkpt>
      <trkpt lat="47.26795" lon="-2.30819">
        <ele>31</ele>
        <time>2019-11-17T08:33:25.000Z</time>
      </trkpt>
      <trkpt lat="47.26781" lon="-2.30835">
        <ele>31</ele>
        <time>2019-11-17T08:33:28.000Z</time>
      </trkpt>
      <trkpt lat="47.26771" lon="-2.30844">
        <ele>31</ele>
        <time>2019-11-17T08:33:30.000Z</time>
      </trkpt>
      <trkpt lat="47.26761" lon="-2.30853">
        <ele>31</ele>
        <time>2019-11-17T08:33:32.000Z</time>
      </trkpt>
      <trkpt lat="47.26748" lon="-2.30866">
        <ele>31</ele>
        <time>2019-11-17T08:33:35.000Z</time>
      </trkpt>
      <trkpt lat="47.26733" lon="-2.30863">
        <ele>31</ele>
        <time>2019-11-17T08:33:38.000Z</time>
      </trkpt>
      <trkpt lat="47.26723" lon="-2.30845">
        <ele>31</ele>
        <time>2019-11-17T08:33:41.000Z</time>
      </trkpt>
      <trkpt lat="47.2672" lon="-2.30839">
        <ele>31</ele>
        <time>2019-11-17T08:33:42.000Z</time>
      </trkpt>
      <trkpt lat="47.26705" lon="-2.30803">
        <ele>31</ele>
        <time>2019-11-17T08:33:47.000Z</time>
      </trkpt>
      <trkpt lat="47.26686" lon="-2.30758">
        <ele>31</ele>
        <time>2019-11-17T08:33:53.000Z</time>
      </trkpt>
      <trkpt lat="47.26677" lon="-2.30736">
        <ele>31</ele>
        <time>2019-11-17T08:33:56.000Z</time>
      </trkpt>
      <trkpt lat="47.2667" lon="-2.30724">
        <ele>30.60000038147</ele>
        <time>2019-11-17T08:33:58.000Z</time>
      </trkpt>
      <trkpt lat="47.26668" lon="-2.30718">
        <ele>30</ele>
        <time>2019-11-17T08:33:59.000Z</time>
      </trkpt>
      <trkpt lat="47.26665" lon="-2.30712">
        <ele>29.60000038147</ele>
        <time>2019-11-17T08:34:00.000Z</time>
      </trkpt>
      <trkpt lat="47.26663" lon="-2.30706">
        <ele>29</ele>
        <time>2019-11-17T08:34:01.000Z</time>
      </trkpt>
      <trkpt lat="47.26662" lon="-2.30701">
        <ele>28.60000038147</ele>
        <time>2019-11-17T08:34:02.000Z</time>
      </trkpt>
      <trkpt lat="47.2666" lon="-2.30697">
        <ele>28.60000038147</ele>
        <time>2019-11-17T08:34:03.000Z</time>
      </trkpt>
      <trkpt lat="47.26657" lon="-2.30692">
        <ele>28.60000038147</ele>
        <time>2019-11-17T08:34:05.000Z</time>
      </trkpt>
      <trkpt lat="47.26655" lon="-2.30691">
        <ele>28.200000762939</ele>
        <time>2019-11-17T08:34:06.000Z</time>
      </trkpt>
      <trkpt lat="47.26653" lon="-2.30694">
        <ele>27.799999237061</ele>
        <time>2019-11-17T08:34:07.000Z</time>
      </trkpt>
      <trkpt lat="47.26652" lon="-2.30697">
        <ele>27.39999961853</ele>
        <time>2019-11-17T08:34:08.000Z</time>
      </trkpt>
      <trkpt lat="47.2665" lon="-2.30702">
        <ele>27</ele>
        <time>2019-11-17T08:34:09.000Z</time>
      </trkpt>
      <trkpt lat="47.26648" lon="-2.30706">
        <ele>26.60000038147</ele>
        <time>2019-11-17T08:34:10.000Z</time>
      </trkpt>
      <trkpt lat="47.26647" lon="-2.3071">
        <ele>26.60000038147</ele>
        <time>2019-11-17T08:34:11.000Z</time>
      </trkpt>
      <trkpt lat="47.26645" lon="-2.30718">
        <ele>26.60000038147</ele>
        <time>2019-11-17T08:34:13.000Z</time>
      </trkpt>
      <trkpt lat="47.26639" lon="-2.30723">
        <ele>26.60000038147</ele>
        <time>2019-11-17T08:34:15.000Z</time>
      </trkpt>
      <trkpt lat="47.26627" lon="-2.30734">
        <ele>26.60000038147</ele>
        <time>2019-11-17T08:34:19.000Z</time>
      </trkpt>
      <trkpt lat="47.26623" lon="-2.30741">
        <ele>26.60000038147</ele>
        <time>2019-11-17T08:34:21.000Z</time>
      </trkpt>
      <trkpt lat="47.26621" lon="-2.30747">
        <ele>26.60000038147</ele>
        <time>2019-11-17T08:34:23.000Z</time>
      </trkpt>
      <trkpt lat="47.26618" lon="-2.30754">
        <ele>26.60000038147</ele>
        <time>2019-11-17T08:34:26.000Z</time>
      </trkpt>
      <trkpt lat="47.26616" lon="-2.30757">
        <ele>26.60000038147</ele>
        <time>2019-11-17T08:34:27.000Z</time>
      </trkpt>
      <trkpt lat="47.26603" lon="-2.3077">
        <ele>26.200000762939</ele>
        <time>2019-11-17T08:34:31.000Z</time>
      </trkpt>
      <trkpt lat="47.26599" lon="-2.30774">
        <ele>25.799999237061</ele>
        <time>2019-11-17T08:34:32.000Z</time>
      </trkpt>
      <trkpt lat="47.26595" lon="-2.30779">
        <ele>25.200000762939</ele>
        <time>2019-11-17T08:34:33.000Z</time>
      </trkpt>
      <trkpt lat="47.26591" lon="-2.30784">
        <ele>24.799999237061</ele>
        <time>2019-11-17T08:34:34.000Z</time>
      </trkpt>
      <trkpt lat="47.26588" lon="-2.30788">
        <ele>24.39999961853</ele>
        <time>2019-11-17T08:34:35.000Z</time>
      </trkpt>
      <trkpt lat="47.26584" lon="-2.30793">
        <ele>24.39999961853</ele>
        <time>2019-11-17T08:34:36.000Z</time>
      </trkpt>
      <trkpt lat="47.26578" lon="-2.30802">
        <ele>24.39999961853</ele>
        <time>2019-11-17T08:34:38.000Z</time>
      </trkpt>
      <trkpt lat="47.26572" lon="-2.30811">
        <ele>24.39999961853</ele>
        <time>2019-11-17T08:34:40.000Z</time>
      </trkpt>
      <trkpt lat="47.26569" lon="-2.3082">
        <ele>24</ele>
        <time>2019-11-17T08:34:42.000Z</time>
      </trkpt>
      <trkpt lat="47.26566" lon="-2.30823">
        <ele>23.60000038147</ele>
        <time>2019-11-17T08:34:43.000Z</time>
      </trkpt>
      <trkpt lat="47.26564" lon="-2.30825">
        <ele>23.200000762939</ele>
        <time>2019-11-17T08:34:44.000Z</time>
      </trkpt>
      <trkpt lat="47.26562" lon="-2.30827">
        <ele>22.799999237061</ele>
        <time>2019-11-17T08:34:45.000Z</time>
      </trkpt>
      <trkpt lat="47.2656" lon="-2.30829">
        <ele>22.39999961853</ele>
        <time>2019-11-17T08:34:46.000Z</time>
      </trkpt>
      <trkpt lat="47.26556" lon="-2.30833">
        <ele>22.39999961853</ele>
        <time>2019-11-17T08:34:48.000Z</time>
      </trkpt>
      <trkpt lat="47.2655" lon="-2.30846">
        <ele>22.39999961853</ele>
        <time>2019-11-17T08:34:51.000Z</time>
      </trkpt>
      <trkpt lat="47.2654" lon="-2.30859">
        <ele>22.39999961853</ele>
        <time>2019-11-17T08:34:55.000Z</time>
      </trkpt>
      <trkpt lat="47.26534" lon="-2.30862">
        <ele>22</ele>
        <time>2019-11-17T08:34:57.000Z</time>
      </trkpt>
      <trkpt lat="47.26531" lon="-2.30865">
        <ele>21.60000038147</ele>
        <time>2019-11-17T08:34:58.000Z</time>
      </trkpt>
      <trkpt lat="47.26528" lon="-2.30867">
        <ele>21.200000762939</ele>
        <time>2019-11-17T08:34:59.000Z</time>
      </trkpt>
      <trkpt lat="47.26525" lon="-2.3087">
        <ele>20.60000038147</ele>
        <time>2019-11-17T08:35:00.000Z</time>
      </trkpt>
      <trkpt lat="47.26521" lon="-2.30873">
        <ele>20.200000762939</ele>
        <time>2019-11-17T08:35:01.000Z</time>
      </trkpt>
      <trkpt lat="47.26514" lon="-2.30878">
        <ele>20.200000762939</ele>
        <time>2019-11-17T08:35:03.000Z</time>
      </trkpt>
      <trkpt lat="47.26511" lon="-2.30878">
        <ele>20.200000762939</ele>
        <time>2019-11-17T08:35:04.000Z</time>
      </trkpt>
      <trkpt lat="47.26504" lon="-2.3087">
        <ele>20.200000762939</ele>
        <time>2019-11-17T08:35:07.000Z</time>
      </trkpt>
      <trkpt lat="47.26502" lon="-2.30867">
        <ele>20.200000762939</ele>
        <time>2019-11-17T08:35:08.000Z</time>
      </trkpt>
      <trkpt lat="47.26496" lon="-2.30854">
        <ele>20.200000762939</ele>
        <time>2019-11-17T08:35:12.000Z</time>
      </trkpt>
      <trkpt lat="47.26494" lon="-2.30851">
        <ele>20.60000038147</ele>
        <time>2019-11-17T08:35:13.000Z</time>
      </trkpt>
      <trkpt lat="47.26491" lon="-2.30848">
        <ele>21</ele>
        <time>2019-11-17T08:35:14.000Z</time>
      </trkpt>
      <trkpt lat="47.26489" lon="-2.30845">
        <ele>21.60000038147</ele>
        <time>2019-11-17T08:35:15.000Z</time>
      </trkpt>
      <trkpt lat="47.26488" lon="-2.30841">
        <ele>22</ele>
        <time>2019-11-17T08:35:16.000Z</time>
      </trkpt>
      <trkpt lat="47.26486" lon="-2.30837">
        <ele>22.39999961853</ele>
        <time>2019-11-17T08:35:17.000Z</time>
      </trkpt>
      <trkpt lat="47.26484" lon="-2.30833">
        <ele>22.799999237061</ele>
        <time>2019-11-17T08:35:18.000Z</time>
      </trkpt>
      <trkpt lat="47.26483" lon="-2.30827">
        <ele>23.200000762939</ele>
        <time>2019-11-17T08:35:19.000Z</time>
      </trkpt>
      <trkpt lat="47.26482" lon="-2.30822">
        <ele>23.60000038147</ele>
        <time>2019-11-17T08:35:20.000Z</time>
      </trkpt>
      <trkpt lat="47.2648" lon="-2.30818">
        <ele>24</ele>
        <time>2019-11-17T08:35:21.000Z</time>
      </trkpt>
      <trkpt lat="47.26477" lon="-2.30813">
        <ele>24.39999961853</ele>
        <time>2019-11-17T08:35:22.000Z</time>
      </trkpt>
      <trkpt lat="47.26471" lon="-2.30802">
        <ele>24.39999961853</ele>
        <time>2019-11-17T08:35:25.000Z</time>
      </trkpt>
      <trkpt lat="47.26466" lon="-2.30788">
        <ele>24.799999237061</ele>
        <time>2019-11-17T08:35:28.000Z</time>
      </trkpt>
      <trkpt lat="47.26464" lon="-2.30783">
        <ele>25.200000762939</ele>
        <time>2019-11-17T08:35:29.000Z</time>
      </trkpt>
      <trkpt lat="47.26462" lon="-2.3078">
        <ele>25.60000038147</ele>
        <time>2019-11-17T08:35:30.000Z</time>
      </trkpt>
      <trkpt lat="47.26459" lon="-2.30776">
        <ele>26</ele>
        <time>2019-11-17T08:35:31.000Z</time>
      </trkpt>
      <trkpt lat="47.26457" lon="-2.30772">
        <ele>26.39999961853</ele>
        <time>2019-11-17T08:35:32.000Z</time>
      </trkpt>
      <trkpt lat="47.26453" lon="-2.30764">
        <ele>26.39999961853</ele>
        <time>2019-11-17T08:35:34.000Z</time>
      </trkpt>
      <trkpt lat="47.26445" lon="-2.30738">
        <ele>26.39999961853</ele>
        <time>2019-11-17T08:35:40.000Z</time>
      </trkpt>
      <trkpt lat="47.26434" lon="-2.30717">
        <ele>26.39999961853</ele>
        <time>2019-11-17T08:35:45.000Z</time>
      </trkpt>
      <trkpt lat="47.26432" lon="-2.30713">
        <ele>26.799999237061</ele>
        <time>2019-11-17T08:35:46.000Z</time>
      </trkpt>
      <trkpt lat="47.26431" lon="-2.30708">
        <ele>27.200000762939</ele>
        <time>2019-11-17T08:35:47.000Z</time>
      </trkpt>
      <trkpt lat="47.26429" lon="-2.30705">
        <ele>27.60000038147</ele>
        <time>2019-11-17T08:35:48.000Z</time>
      </trkpt>
      <trkpt lat="47.26427" lon="-2.30702">
        <ele>28</ele>
        <time>2019-11-17T08:35:49.000Z</time>
      </trkpt>
      <trkpt lat="47.26426" lon="-2.30698">
        <ele>28.39999961853</ele>
        <time>2019-11-17T08:35:50.000Z</time>
      </trkpt>
      <trkpt lat="47.26417" lon="-2.30686">
        <ele>28.39999961853</ele>
        <time>2019-11-17T08:35:54.000Z</time>
      </trkpt>
      <trkpt lat="47.26414" lon="-2.30684">
        <ele>28.39999961853</ele>
        <time>2019-11-17T08:35:55.000Z</time>
      </trkpt>
      <trkpt lat="47.26403" lon="-2.30676">
        <ele>28.39999961853</ele>
        <time>2019-11-17T08:35:58.000Z</time>
      </trkpt>
      <trkpt lat="47.26395" lon="-2.30673">
        <ele>28.39999961853</ele>
        <time>2019-11-17T08:36:00.000Z</time>
      </trkpt>
      <trkpt lat="47.26378" lon="-2.30654">
        <ele>28.39999961853</ele>
        <time>2019-11-17T08:36:05.000Z</time>
      </trkpt>
      <trkpt lat="47.26366" lon="-2.30632">
        <ele>28.39999961853</ele>
        <time>2019-11-17T08:36:10.000Z</time>
      </trkpt>
      <trkpt lat="47.2635" lon="-2.30601">
        <ele>28.39999961853</ele>
        <time>2019-11-17T08:36:16.000Z</time>
      </trkpt>
      <trkpt lat="47.26346" lon="-2.30581">
        <ele>28.39999961853</ele>
        <time>2019-11-17T08:36:20.000Z</time>
      </trkpt>
      <trkpt lat="47.26345" lon="-2.30558">
        <ele>28.799999237061</ele>
        <time>2019-11-17T08:36:24.000Z</time>
      </trkpt>
      <trkpt lat="47.26345" lon="-2.30552">
        <ele>29.200000762939</ele>
        <time>2019-11-17T08:36:25.000Z</time>
      </trkpt>
      <trkpt lat="47.26344" lon="-2.30546">
        <ele>29.60000038147</ele>
        <time>2019-11-17T08:36:26.000Z</time>
      </trkpt>
      <trkpt lat="47.26343" lon="-2.3054">
        <ele>30.200000762939</ele>
        <time>2019-11-17T08:36:27.000Z</time>
      </trkpt>
      <trkpt lat="47.26342" lon="-2.30535">
        <ele>30.60000038147</ele>
        <time>2019-11-17T08:36:28.000Z</time>
      </trkpt>
      <trkpt lat="47.26341" lon="-2.30529">
        <ele>30.60000038147</ele>
        <time>2019-11-17T08:36:29.000Z</time>
      </trkpt>
      <trkpt lat="47.26334" lon="-2.30497">
        <ele>30.60000038147</ele>
        <time>2019-11-17T08:36:34.000Z</time>
      </trkpt>
      <trkpt lat="47.26326" lon="-2.30459">
        <ele>30.60000038147</ele>
        <time>2019-11-17T08:36:40.000Z</time>
      </trkpt>
      <trkpt lat="47.26325" lon="-2.30452">
        <ele>30.60000038147</ele>
        <time>2019-11-17T08:36:41.000Z</time>
      </trkpt>
      <trkpt lat="47.26322" lon="-2.30438">
        <ele>30.60000038147</ele>
        <time>2019-11-17T08:36:43.000Z</time>
      </trkpt>
      <trkpt lat="47.26321" lon="-2.30432">
        <ele>30.60000038147</ele>
        <time>2019-11-17T08:36:44.000Z</time>
      </trkpt>
      <trkpt lat="47.2631" lon="-2.30383">
        <ele>30.60000038147</ele>
        <time>2019-11-17T08:36:51.000Z</time>
      </trkpt>
      <trkpt lat="47.26302" lon="-2.30335">
        <ele>30.60000038147</ele>
        <time>2019-11-17T08:36:57.000Z</time>
      </trkpt>
      <trkpt lat="47.26301" lon="-2.30327">
        <ele>30.60000038147</ele>
        <time>2019-11-17T08:36:58.000Z</time>
      </trkpt>
      <trkpt lat="47.26291" lon="-2.30301">
        <ele>30.60000038147</ele>
        <time>2019-11-17T08:37:02.000Z</time>
      </trkpt>
      <trkpt lat="47.26283" lon="-2.30271">
        <ele>30.60000038147</ele>
        <time>2019-11-17T08:37:06.000Z</time>
      </trkpt>
      <trkpt lat="47.26282" lon="-2.30263">
        <ele>30.60000038147</ele>
        <time>2019-11-17T08:37:07.000Z</time>
      </trkpt>
      <trkpt lat="47.26274" lon="-2.30217">
        <ele>30.60000038147</ele>
        <time>2019-11-17T08:37:13.000Z</time>
      </trkpt>
      <trkpt lat="47.26272" lon="-2.30196">
        <ele>30.60000038147</ele>
        <time>2019-11-17T08:37:16.000Z</time>
      </trkpt>
      <trkpt lat="47.2627" lon="-2.30183">
        <ele>31</ele>
        <time>2019-11-17T08:37:18.000Z</time>
      </trkpt>
      <trkpt lat="47.26268" lon="-2.30177">
        <ele>31.39999961853</ele>
        <time>2019-11-17T08:37:19.000Z</time>
      </trkpt>
      <trkpt lat="47.26266" lon="-2.3017">
        <ele>31.799999237061</ele>
        <time>2019-11-17T08:37:20.000Z</time>
      </trkpt>
      <trkpt lat="47.26264" lon="-2.30165">
        <ele>32.599998474121</ele>
        <time>2019-11-17T08:37:21.000Z</time>
      </trkpt>
      <trkpt lat="47.2626" lon="-2.30155">
        <ele>32.599998474121</ele>
        <time>2019-11-17T08:37:23.000Z</time>
      </trkpt>
      <trkpt lat="47.26255" lon="-2.30144">
        <ele>32.599998474121</ele>
        <time>2019-11-17T08:37:25.000Z</time>
      </trkpt>
      <trkpt lat="47.26248" lon="-2.30131">
        <ele>32.599998474121</ele>
        <time>2019-11-17T08:37:28.000Z</time>
      </trkpt>
      <trkpt lat="47.26235" lon="-2.30135">
        <ele>32.599998474121</ele>
        <time>2019-11-17T08:37:31.000Z</time>
      </trkpt>
      <trkpt lat="47.2622" lon="-2.30141">
        <ele>32.599998474121</ele>
        <time>2019-11-17T08:37:34.000Z</time>
      </trkpt>
      <trkpt lat="47.2621" lon="-2.30145">
        <ele>32.599998474121</ele>
        <time>2019-11-17T08:37:36.000Z</time>
      </trkpt>
      <trkpt lat="47.2619" lon="-2.30153">
        <ele>32.599998474121</ele>
        <time>2019-11-17T08:37:40.000Z</time>
      </trkpt>
      <trkpt lat="47.26185" lon="-2.30154">
        <ele>32.599998474121</ele>
        <time>2019-11-17T08:37:41.000Z</time>
      </trkpt>
      <trkpt lat="47.26175" lon="-2.30157">
        <ele>32.599998474121</ele>
        <time>2019-11-17T08:37:44.000Z</time>
      </trkpt>
      <trkpt lat="47.26174" lon="-2.30153">
        <ele>32.599998474121</ele>
        <time>2019-11-17T08:37:45.000Z</time>
      </trkpt>
      <trkpt lat="47.26167" lon="-2.30149">
        <ele>32.599998474121</ele>
        <time>2019-11-17T08:37:50.000Z</time>
      </trkpt>
      <trkpt lat="47.26163" lon="-2.3015">
        <ele>32.200000762939</ele>
        <time>2019-11-17T08:37:51.000Z</time>
      </trkpt>
      <trkpt lat="47.26159" lon="-2.30151">
        <ele>31.799999237061</ele>
        <time>2019-11-17T08:37:52.000Z</time>
      </trkpt>
      <trkpt lat="47.26155" lon="-2.30153">
        <ele>31.39999961853</ele>
        <time>2019-11-17T08:37:53.000Z</time>
      </trkpt>
      <trkpt lat="47.26151" lon="-2.30154">
        <ele>31</ele>
        <time>2019-11-17T08:37:54.000Z</time>
      </trkpt>
      <trkpt lat="47.26146" lon="-2.30155">
        <ele>30.60000038147</ele>
        <time>2019-11-17T08:37:55.000Z</time>
      </trkpt>
      <trkpt lat="47.26141" lon="-2.30156">
        <ele>30.60000038147</ele>
        <time>2019-11-17T08:37:56.000Z</time>
      </trkpt>
      <trkpt lat="47.26126" lon="-2.3016">
        <ele>30.60000038147</ele>
        <time>2019-11-17T08:37:59.000Z</time>
      </trkpt>
      <trkpt lat="47.26117" lon="-2.30164">
        <ele>30.200000762939</ele>
        <time>2019-11-17T08:38:01.000Z</time>
      </trkpt>
      <trkpt lat="47.26113" lon="-2.30165">
        <ele>29.799999237061</ele>
        <time>2019-11-17T08:38:02.000Z</time>
      </trkpt>
      <trkpt lat="47.26109" lon="-2.30166">
        <ele>29.39999961853</ele>
        <time>2019-11-17T08:38:03.000Z</time>
      </trkpt>
      <trkpt lat="47.26105" lon="-2.30164">
        <ele>29</ele>
        <time>2019-11-17T08:38:04.000Z</time>
      </trkpt>
      <trkpt lat="47.26104" lon="-2.30162">
        <ele>28.60000038147</ele>
        <time>2019-11-17T08:38:05.000Z</time>
      </trkpt>
      <trkpt lat="47.26102" lon="-2.3016">
        <ele>28.60000038147</ele>
        <time>2019-11-17T08:38:06.000Z</time>
      </trkpt>
      <trkpt lat="47.26101" lon="-2.30157">
        <ele>28.60000038147</ele>
        <time>2019-11-17T08:38:07.000Z</time>
      </trkpt>
      <trkpt lat="47.261" lon="-2.30155">
        <ele>28</ele>
        <time>2019-11-17T08:38:08.000Z</time>
      </trkpt>
      <trkpt lat="47.26098" lon="-2.30154">
        <ele>27.60000038147</ele>
        <time>2019-11-17T08:38:09.000Z</time>
      </trkpt>
      <trkpt lat="47.26095" lon="-2.30153">
        <ele>27.200000762939</ele>
        <time>2019-11-17T08:38:10.000Z</time>
      </trkpt>
      <trkpt lat="47.26092" lon="-2.30154">
        <ele>26.39999961853</ele>
        <time>2019-11-17T08:38:11.000Z</time>
      </trkpt>
      <trkpt lat="47.26076" lon="-2.30157">
        <ele>26.39999961853</ele>
        <time>2019-11-17T08:38:16.000Z</time>
      </trkpt>
      <trkpt lat="47.26066" lon="-2.30147">
        <ele>26.39999961853</ele>
        <time>2019-11-17T08:38:19.000Z</time>
      </trkpt>
      <trkpt lat="47.26064" lon="-2.30145">
        <ele>26.39999961853</ele>
        <time>2019-11-17T08:38:20.000Z</time>
      </trkpt>
      <trkpt lat="47.2606" lon="-2.30144">
        <ele>26</ele>
        <time>2019-11-17T08:38:21.000Z</time>
      </trkpt>
      <trkpt lat="47.26056" lon="-2.30144">
        <ele>25.60000038147</ele>
        <time>2019-11-17T08:38:22.000Z</time>
      </trkpt>
      <trkpt lat="47.26051" lon="-2.30144">
        <ele>25.200000762939</ele>
        <time>2019-11-17T08:38:23.000Z</time>
      </trkpt>
      <trkpt lat="47.26046" lon="-2.30144">
        <ele>24.799999237061</ele>
        <time>2019-11-17T08:38:24.000Z</time>
      </trkpt>
      <trkpt lat="47.2604" lon="-2.30142">
        <ele>24.39999961853</ele>
        <time>2019-11-17T08:38:25.000Z</time>
      </trkpt>
      <trkpt lat="47.26035" lon="-2.3014">
        <ele>24.39999961853</ele>
        <time>2019-11-17T08:38:26.000Z</time>
      </trkpt>
      <trkpt lat="47.26025" lon="-2.30135">
        <ele>24.39999961853</ele>
        <time>2019-11-17T08:38:28.000Z</time>
      </trkpt>
      <trkpt lat="47.26017" lon="-2.30134">
        <ele>24.39999961853</ele>
        <time>2019-11-17T08:38:30.000Z</time>
      </trkpt>
      <trkpt lat="47.26003" lon="-2.30133">
        <ele>23.39999961853</ele>
        <time>2019-11-17T08:38:33.000Z</time>
      </trkpt>
      <trkpt lat="47.25998" lon="-2.30133">
        <ele>23.39999961853</ele>
        <time>2019-11-17T08:38:34.000Z</time>
      </trkpt>
      <trkpt lat="47.25995" lon="-2.30134">
        <ele>22.60000038147</ele>
        <time>2019-11-17T08:38:35.000Z</time>
      </trkpt>
      <trkpt lat="47.25992" lon="-2.30134">
        <ele>22</ele>
        <time>2019-11-17T08:38:36.000Z</time>
      </trkpt>
      <trkpt lat="47.2599" lon="-2.30135">
        <ele>22</ele>
        <time>2019-11-17T08:38:37.000Z</time>
      </trkpt>
      <trkpt lat="47.25986" lon="-2.30134">
        <ele>22</ele>
        <time>2019-11-17T08:38:39.000Z</time>
      </trkpt>
      <trkpt lat="47.25982" lon="-2.30132">
        <ele>22</ele>
        <time>2019-11-17T08:38:41.000Z</time>
      </trkpt>
      <trkpt lat="47.25977" lon="-2.30133">
        <ele>21.60000038147</ele>
        <time>2019-11-17T08:38:43.000Z</time>
      </trkpt>
      <trkpt lat="47.25975" lon="-2.30135">
        <ele>21.200000762939</ele>
        <time>2019-11-17T08:38:44.000Z</time>
      </trkpt>
      <trkpt lat="47.25973" lon="-2.30139">
        <ele>20.799999237061</ele>
        <time>2019-11-17T08:38:45.000Z</time>
      </trkpt>
      <trkpt lat="47.25971" lon="-2.30142">
        <ele>20.200000762939</ele>
        <time>2019-11-17T08:38:46.000Z</time>
      </trkpt>
      <trkpt lat="47.2597" lon="-2.30145">
        <ele>19.799999237061</ele>
        <time>2019-11-17T08:38:47.000Z</time>
      </trkpt>
      <trkpt lat="47.25963" lon="-2.30154">
        <ele>19.799999237061</ele>
        <time>2019-11-17T08:38:50.000Z</time>
      </trkpt>
      <trkpt lat="47.25946" lon="-2.30165">
        <ele>19.799999237061</ele>
        <time>2019-11-17T08:38:55.000Z</time>
      </trkpt>
      <trkpt lat="47.25935" lon="-2.30169">
        <ele>19.799999237061</ele>
        <time>2019-11-17T08:38:58.000Z</time>
      </trkpt>
      <trkpt lat="47.25927" lon="-2.30171">
        <ele>19.799999237061</ele>
        <time>2019-11-17T08:39:00.000Z</time>
      </trkpt>
      <trkpt lat="47.25906" lon="-2.30174">
        <ele>19.799999237061</ele>
        <time>2019-11-17T08:39:07.000Z</time>
      </trkpt>
      <trkpt lat="47.25895" lon="-2.30183">
        <ele>20.200000762939</ele>
        <time>2019-11-17T08:39:12.000Z</time>
      </trkpt>
      <trkpt lat="47.25893" lon="-2.30186">
        <ele>20.60000038147</ele>
        <time>2019-11-17T08:39:13.000Z</time>
      </trkpt>
      <trkpt lat="47.25892" lon="-2.30189">
        <ele>21</ele>
        <time>2019-11-17T08:39:14.000Z</time>
      </trkpt>
      <trkpt lat="47.25891" lon="-2.30192">
        <ele>21.39999961853</ele>
        <time>2019-11-17T08:39:15.000Z</time>
      </trkpt>
      <trkpt lat="47.2589" lon="-2.30196">
        <ele>21.799999237061</ele>
        <time>2019-11-17T08:39:16.000Z</time>
      </trkpt>
      <trkpt lat="47.25891" lon="-2.30204">
        <ele>21.799999237061</ele>
        <time>2019-11-17T08:39:18.000Z</time>
      </trkpt>
      <trkpt lat="47.25892" lon="-2.30212">
        <ele>21.799999237061</ele>
        <time>2019-11-17T08:39:20.000Z</time>
      </trkpt>
      <trkpt lat="47.25895" lon="-2.30234">
        <ele>21.799999237061</ele>
        <time>2019-11-17T08:39:25.000Z</time>
      </trkpt>
      <trkpt lat="47.25895" lon="-2.30267">
        <ele>21.799999237061</ele>
        <time>2019-11-17T08:39:32.000Z</time>
      </trkpt>
      <trkpt lat="47.25896" lon="-2.30277">
        <ele>21.799999237061</ele>
        <time>2019-11-17T08:39:34.000Z</time>
      </trkpt>
      <trkpt lat="47.25898" lon="-2.30287">
        <ele>21.799999237061</ele>
        <time>2019-11-17T08:39:36.000Z</time>
      </trkpt>
      <trkpt lat="47.25895" lon="-2.30304">
        <ele>21.799999237061</ele>
        <time>2019-11-17T08:39:40.000Z</time>
      </trkpt>
      <trkpt lat="47.25884" lon="-2.3031">
        <ele>21.799999237061</ele>
        <time>2019-11-17T08:39:44.000Z</time>
      </trkpt>
      <trkpt lat="47.25872" lon="-2.30301">
        <ele>21.799999237061</ele>
        <time>2019-11-17T08:39:48.000Z</time>
      </trkpt>
      <trkpt lat="47.2586" lon="-2.30286">
        <ele>21.799999237061</ele>
        <time>2019-11-17T08:39:52.000Z</time>
      </trkpt>
      <trkpt lat="47.25856" lon="-2.30283">
        <ele>21.799999237061</ele>
        <time>2019-11-17T08:39:53.000Z</time>
      </trkpt>
      <trkpt lat="47.25852" lon="-2.30282">
        <ele>21.799999237061</ele>
        <time>2019-11-17T08:39:54.000Z</time>
      </trkpt>
      <trkpt lat="47.25844" lon="-2.30278">
        <ele>21.799999237061</ele>
        <time>2019-11-17T08:39:56.000Z</time>
      </trkpt>
      <trkpt lat="47.25818" lon="-2.30265">
        <ele>21.799999237061</ele>
        <time>2019-11-17T08:40:01.000Z</time>
      </trkpt>
      <trkpt lat="47.25812" lon="-2.30264">
        <ele>21.799999237061</ele>
        <time>2019-11-17T08:40:02.000Z</time>
      </trkpt>
      <trkpt lat="47.25794" lon="-2.3026">
        <ele>21.799999237061</ele>
        <time>2019-11-17T08:40:05.000Z</time>
      </trkpt>
      <trkpt lat="47.25783" lon="-2.30255">
        <ele>21.799999237061</ele>
        <time>2019-11-17T08:40:07.000Z</time>
      </trkpt>
      <trkpt lat="47.25773" lon="-2.30248">
        <ele>21.799999237061</ele>
        <time>2019-11-17T08:40:09.000Z</time>
      </trkpt>
      <trkpt lat="47.25739" lon="-2.30229">
        <ele>21.799999237061</ele>
        <time>2019-11-17T08:40:16.000Z</time>
      </trkpt>
      <trkpt lat="47.25721" lon="-2.30222">
        <ele>21.799999237061</ele>
        <time>2019-11-17T08:40:20.000Z</time>
      </trkpt>
      <trkpt lat="47.25712" lon="-2.30224">
        <ele>21.799999237061</ele>
        <time>2019-11-17T08:40:22.000Z</time>
      </trkpt>
      <trkpt lat="47.25698" lon="-2.30237">
        <ele>21.799999237061</ele>
        <time>2019-11-17T08:40:26.000Z</time>
      </trkpt>
      <trkpt lat="47.25696" lon="-2.30241">
        <ele>22.39999961853</ele>
        <time>2019-11-17T08:40:27.000Z</time>
      </trkpt>
      <trkpt lat="47.25694" lon="-2.30247">
        <ele>22.799999237061</ele>
        <time>2019-11-17T08:40:28.000Z</time>
      </trkpt>
      <trkpt lat="47.25693" lon="-2.30252">
        <ele>23.200000762939</ele>
        <time>2019-11-17T08:40:29.000Z</time>
      </trkpt>
      <trkpt lat="47.25692" lon="-2.30256">
        <ele>23.60000038147</ele>
        <time>2019-11-17T08:40:30.000Z</time>
      </trkpt>
      <trkpt lat="47.25691" lon="-2.30261">
        <ele>24</ele>
        <time>2019-11-17T08:40:31.000Z</time>
      </trkpt>
      <trkpt lat="47.2569" lon="-2.30265">
        <ele>24</ele>
        <time>2019-11-17T08:40:32.000Z</time>
      </trkpt>
      <trkpt lat="47.25692" lon="-2.30286">
        <ele>24</ele>
        <time>2019-11-17T08:40:36.000Z</time>
      </trkpt>
      <trkpt lat="47.2569" lon="-2.30305">
        <ele>24</ele>
        <time>2019-11-17T08:40:39.000Z</time>
      </trkpt>
      <trkpt lat="47.25679" lon="-2.30317">
        <ele>24</ele>
        <time>2019-11-17T08:40:42.000Z</time>
      </trkpt>
      <trkpt lat="47.2567" lon="-2.30321">
        <ele>24</ele>
        <time>2019-11-17T08:40:44.000Z</time>
      </trkpt>
      <trkpt lat="47.25662" lon="-2.30326">
        <ele>24</ele>
        <time>2019-11-17T08:40:46.000Z</time>
      </trkpt>
      <trkpt lat="47.25654" lon="-2.30334">
        <ele>24</ele>
        <time>2019-11-17T08:40:48.000Z</time>
      </trkpt>
      <trkpt lat="47.25638" lon="-2.30347">
        <ele>24</ele>
        <time>2019-11-17T08:40:53.000Z</time>
      </trkpt>
      <trkpt lat="47.25631" lon="-2.30337">
        <ele>24</ele>
        <time>2019-11-17T08:40:56.000Z</time>
      </trkpt>
      <trkpt lat="47.25627" lon="-2.30314">
        <ele>24</ele>
        <time>2019-11-17T08:41:00.000Z</time>
      </trkpt>
      <trkpt lat="47.25625" lon="-2.30287">
        <ele>24</ele>
        <time>2019-11-17T08:41:04.000Z</time>
      </trkpt>
      <trkpt lat="47.25624" lon="-2.30279">
        <ele>24</ele>
        <time>2019-11-17T08:41:05.000Z</time>
      </trkpt>
      <trkpt lat="47.25617" lon="-2.30237">
        <ele>24</ele>
        <time>2019-11-17T08:41:11.000Z</time>
      </trkpt>
      <trkpt lat="47.25612" lon="-2.30224">
        <ele>24</ele>
        <time>2019-11-17T08:41:13.000Z</time>
      </trkpt>
      <trkpt lat="47.25607" lon="-2.30212">
        <ele>24</ele>
        <time>2019-11-17T08:41:15.000Z</time>
      </trkpt>
      <trkpt lat="47.25596" lon="-2.30199">
        <ele>24</ele>
        <time>2019-11-17T08:41:18.000Z</time>
      </trkpt>
      <trkpt lat="47.25592" lon="-2.30196">
        <ele>24</ele>
        <time>2019-11-17T08:41:19.000Z</time>
      </trkpt>
      <trkpt lat="47.25576" lon="-2.30185">
        <ele>24</ele>
        <time>2019-11-17T08:41:24.000Z</time>
      </trkpt>
      <trkpt lat="47.25563" lon="-2.30182">
        <ele>24</ele>
        <time>2019-11-17T08:41:28.000Z</time>
      </trkpt>
      <trkpt lat="47.25549" lon="-2.30188">
        <ele>24</ele>
        <time>2019-11-17T08:41:32.000Z</time>
      </trkpt>
      <trkpt lat="47.25545" lon="-2.30191">
        <ele>24</ele>
        <time>2019-11-17T08:41:33.000Z</time>
      </trkpt>
      <trkpt lat="47.25538" lon="-2.30194">
        <ele>24</ele>
        <time>2019-11-17T08:41:35.000Z</time>
      </trkpt>
      <trkpt lat="47.25527" lon="-2.30197">
        <ele>24</ele>
        <time>2019-11-17T08:41:39.000Z</time>
      </trkpt>
      <trkpt lat="47.25525" lon="-2.30197">
        <ele>24</ele>
        <time>2019-11-17T08:41:40.000Z</time>
      </trkpt>
      <trkpt lat="47.25522" lon="-2.30196">
        <ele>24.39999961853</ele>
        <time>2019-11-17T08:41:41.000Z</time>
      </trkpt>
      <trkpt lat="47.25518" lon="-2.30196">
        <ele>24.799999237061</ele>
        <time>2019-11-17T08:41:42.000Z</time>
      </trkpt>
      <trkpt lat="47.25516" lon="-2.30195">
        <ele>25.200000762939</ele>
        <time>2019-11-17T08:41:43.000Z</time>
      </trkpt>
      <trkpt lat="47.25513" lon="-2.30195">
        <ele>25.60000038147</ele>
        <time>2019-11-17T08:41:44.000Z</time>
      </trkpt>
      <trkpt lat="47.2551" lon="-2.30196">
        <ele>26</ele>
        <time>2019-11-17T08:41:45.000Z</time>
      </trkpt>
      <trkpt lat="47.25507" lon="-2.30198">
        <ele>26</ele>
        <time>2019-11-17T08:41:46.000Z</time>
      </trkpt>
      <trkpt lat="47.25502" lon="-2.30203">
        <ele>26</ele>
        <time>2019-11-17T08:41:48.000Z</time>
      </trkpt>
      <trkpt lat="47.25489" lon="-2.30217">
        <ele>26</ele>
        <time>2019-11-17T08:41:52.000Z</time>
      </trkpt>
      <trkpt lat="47.25483" lon="-2.30235">
        <ele>26</ele>
        <time>2019-11-17T08:41:56.000Z</time>
      </trkpt>
      <trkpt lat="47.25478" lon="-2.30244">
        <ele>26</ele>
        <time>2019-11-17T08:41:59.000Z</time>
      </trkpt>
      <trkpt lat="47.25476" lon="-2.30244">
        <ele>26</ele>
        <time>2019-11-17T08:42:00.000Z</time>
      </trkpt>
      <trkpt lat="47.2547" lon="-2.30242">
        <ele>26</ele>
        <time>2019-11-17T08:42:02.000Z</time>
      </trkpt>
      <trkpt lat="47.25467" lon="-2.3024">
        <ele>26</ele>
        <time>2019-11-17T08:42:03.000Z</time>
      </trkpt>
      <trkpt lat="47.25452" lon="-2.30238">
        <ele>26.39999961853</ele>
        <time>2019-11-17T08:42:07.000Z</time>
      </trkpt>
      <trkpt lat="47.25447" lon="-2.30237">
        <ele>26.799999237061</ele>
        <time>2019-11-17T08:42:08.000Z</time>
      </trkpt>
      <trkpt lat="47.25443" lon="-2.30236">
        <ele>27.200000762939</ele>
        <time>2019-11-17T08:42:09.000Z</time>
      </trkpt>
      <trkpt lat="47.25439" lon="-2.30235">
        <ele>27.60000038147</ele>
        <time>2019-11-17T08:42:10.000Z</time>
      </trkpt>
      <trkpt lat="47.25435" lon="-2.30233">
        <ele>28</ele>
        <time>2019-11-17T08:42:11.000Z</time>
      </trkpt>
      <trkpt lat="47.2543" lon="-2.30232">
        <ele>28</ele>
        <time>2019-11-17T08:42:12.000Z</time>
      </trkpt>
      <trkpt lat="47.25417" lon="-2.30229">
        <ele>28</ele>
        <time>2019-11-17T08:42:15.000Z</time>
      </trkpt>
      <trkpt lat="47.25409" lon="-2.30224">
        <ele>28</ele>
        <time>2019-11-17T08:42:17.000Z</time>
      </trkpt>
      <trkpt lat="47.25398" lon="-2.3022">
        <ele>28</ele>
        <time>2019-11-17T08:42:20.000Z</time>
      </trkpt>
      <trkpt lat="47.25392" lon="-2.30218">
        <ele>28</ele>
        <time>2019-11-17T08:42:22.000Z</time>
      </trkpt>
      <trkpt lat="47.25371" lon="-2.30212">
        <ele>28</ele>
        <time>2019-11-17T08:42:28.000Z</time>
      </trkpt>
      <trkpt lat="47.25349" lon="-2.3021">
        <ele>28.39999961853</ele>
        <time>2019-11-17T08:42:33.000Z</time>
      </trkpt>
      <trkpt lat="47.25344" lon="-2.30209">
        <ele>28.799999237061</ele>
        <time>2019-11-17T08:42:34.000Z</time>
      </trkpt>
      <trkpt lat="47.2534" lon="-2.30209">
        <ele>29.200000762939</ele>
        <time>2019-11-17T08:42:35.000Z</time>
      </trkpt>
      <trkpt lat="47.25336" lon="-2.30209">
        <ele>29.799999237061</ele>
        <time>2019-11-17T08:42:36.000Z</time>
      </trkpt>
      <trkpt lat="47.25332" lon="-2.30209">
        <ele>30.200000762939</ele>
        <time>2019-11-17T08:42:37.000Z</time>
      </trkpt>
      <trkpt lat="47.25323" lon="-2.30207">
        <ele>30.200000762939</ele>
        <time>2019-11-17T08:42:39.000Z</time>
      </trkpt>
      <trkpt lat="47.25319" lon="-2.30206">
        <ele>30.200000762939</ele>
        <time>2019-11-17T08:42:40.000Z</time>
      </trkpt>
      <trkpt lat="47.25308" lon="-2.30207">
        <ele>30.200000762939</ele>
        <time>2019-11-17T08:42:44.000Z</time>
      </trkpt>
      <trkpt lat="47.25307" lon="-2.30209">
        <ele>30.200000762939</ele>
        <time>2019-11-17T08:42:45.000Z</time>
      </trkpt>
      <trkpt lat="47.25304" lon="-2.30212">
        <ele>30.200000762939</ele>
        <time>2019-11-17T08:42:47.000Z</time>
      </trkpt>
      <trkpt lat="47.25298" lon="-2.30209">
        <ele>30.200000762939</ele>
        <time>2019-11-17T08:42:49.000Z</time>
      </trkpt>
      <trkpt lat="47.25284" lon="-2.30203">
        <ele>30.200000762939</ele>
        <time>2019-11-17T08:42:53.000Z</time>
      </trkpt>
      <trkpt lat="47.25269" lon="-2.30195">
        <ele>30.200000762939</ele>
        <time>2019-11-17T08:42:57.000Z</time>
      </trkpt>
      <trkpt lat="47.25265" lon="-2.30193">
        <ele>30.60000038147</ele>
        <time>2019-11-17T08:42:58.000Z</time>
      </trkpt>
      <trkpt lat="47.25261" lon="-2.30191">
        <ele>31</ele>
        <time>2019-11-17T08:42:59.000Z</time>
      </trkpt>
      <trkpt lat="47.25258" lon="-2.30189">
        <ele>31.39999961853</ele>
        <time>2019-11-17T08:43:00.000Z</time>
      </trkpt>
      <trkpt lat="47.25254" lon="-2.30188">
        <ele>31.799999237061</ele>
        <time>2019-11-17T08:43:01.000Z</time>
      </trkpt>
      <trkpt lat="47.25249" lon="-2.30185">
        <ele>32.200000762939</ele>
        <time>2019-11-17T08:43:02.000Z</time>
      </trkpt>
      <trkpt lat="47.25246" lon="-2.30184">
        <ele>32.200000762939</ele>
        <time>2019-11-17T08:43:03.000Z</time>
      </trkpt>
      <trkpt lat="47.25235" lon="-2.3018">
        <ele>32.200000762939</ele>
        <time>2019-11-17T08:43:06.000Z</time>
      </trkpt>
      <trkpt lat="47.25228" lon="-2.30178">
        <ele>32.200000762939</ele>
        <time>2019-11-17T08:43:08.000Z</time>
      </trkpt>
      <trkpt lat="47.25214" lon="-2.30166">
        <ele>32.599998474121</ele>
        <time>2019-11-17T08:43:12.000Z</time>
      </trkpt>
      <trkpt lat="47.2521" lon="-2.30161">
        <ele>33</ele>
        <time>2019-11-17T08:43:13.000Z</time>
      </trkpt>
      <trkpt lat="47.25207" lon="-2.30156">
        <ele>33.400001525879</ele>
        <time>2019-11-17T08:43:14.000Z</time>
      </trkpt>
      <trkpt lat="47.25203" lon="-2.30152">
        <ele>33.799999237061</ele>
        <time>2019-11-17T08:43:15.000Z</time>
      </trkpt>
      <trkpt lat="47.25199" lon="-2.30148">
        <ele>34.200000762939</ele>
        <time>2019-11-17T08:43:16.000Z</time>
      </trkpt>
      <trkpt lat="47.25196" lon="-2.30144">
        <ele>34.200000762939</ele>
        <time>2019-11-17T08:43:17.000Z</time>
      </trkpt>
      <trkpt lat="47.25191" lon="-2.30133">
        <ele>34.200000762939</ele>
        <time>2019-11-17T08:43:19.000Z</time>
      </trkpt>
      <trkpt lat="47.25185" lon="-2.30122">
        <ele>34.200000762939</ele>
        <time>2019-11-17T08:43:21.000Z</time>
      </trkpt>
      <trkpt lat="47.25176" lon="-2.3012">
        <ele>34.599998474121</ele>
        <time>2019-11-17T08:43:23.000Z</time>
      </trkpt>
      <trkpt lat="47.25172" lon="-2.30122">
        <ele>35</ele>
        <time>2019-11-17T08:43:24.000Z</time>
      </trkpt>
      <trkpt lat="47.25167" lon="-2.30123">
        <ele>35.400001525879</ele>
        <time>2019-11-17T08:43:25.000Z</time>
      </trkpt>
      <trkpt lat="47.25162" lon="-2.30125">
        <ele>35.799999237061</ele>
        <time>2019-11-17T08:43:26.000Z</time>
      </trkpt>
      <trkpt lat="47.25158" lon="-2.30126">
        <ele>36.200000762939</ele>
        <time>2019-11-17T08:43:27.000Z</time>
      </trkpt>
      <trkpt lat="47.25136" lon="-2.30132">
        <ele>36.200000762939</ele>
        <time>2019-11-17T08:43:32.000Z</time>
      </trkpt>
      <trkpt lat="47.25132" lon="-2.30132">
        <ele>36.200000762939</ele>
        <time>2019-11-17T08:43:33.000Z</time>
      </trkpt>
      <trkpt lat="47.25109" lon="-2.30136">
        <ele>36.200000762939</ele>
        <time>2019-11-17T08:43:39.000Z</time>
      </trkpt>
      <trkpt lat="47.25091" lon="-2.30138">
        <ele>36.200000762939</ele>
        <time>2019-11-17T08:43:43.000Z</time>
      </trkpt>
      <trkpt lat="47.25082" lon="-2.30138">
        <ele>36.200000762939</ele>
        <time>2019-11-17T08:43:45.000Z</time>
      </trkpt>
      <trkpt lat="47.2507" lon="-2.30135">
        <ele>36.200000762939</ele>
        <time>2019-11-17T08:43:48.000Z</time>
      </trkpt>
      <trkpt lat="47.25068" lon="-2.3013">
        <ele>36.200000762939</ele>
        <time>2019-11-17T08:43:49.000Z</time>
      </trkpt>
      <trkpt lat="47.25068" lon="-2.30125">
        <ele>36.200000762939</ele>
        <time>2019-11-17T08:43:50.000Z</time>
      </trkpt>
      <trkpt lat="47.25069" lon="-2.30109">
        <ele>36.200000762939</ele>
        <time>2019-11-17T08:43:53.000Z</time>
      </trkpt>
      <trkpt lat="47.25069" lon="-2.30104">
        <ele>36.200000762939</ele>
        <time>2019-11-17T08:43:54.000Z</time>
      </trkpt>
      <trkpt lat="47.25072" lon="-2.3007">
        <ele>36.200000762939</ele>
        <time>2019-11-17T08:44:01.000Z</time>
      </trkpt>
      <trkpt lat="47.25073" lon="-2.30061">
        <ele>36.200000762939</ele>
        <time>2019-11-17T08:44:05.000Z</time>
      </trkpt>
      <trkpt lat="47.25071" lon="-2.3006">
        <ele>36.200000762939</ele>
        <time>2019-11-17T08:44:06.000Z</time>
      </trkpt>
      <trkpt lat="47.25065" lon="-2.30059">
        <ele>36.200000762939</ele>
        <time>2019-11-17T08:44:09.000Z</time>
      </trkpt>
      <trkpt lat="47.2506" lon="-2.30057">
        <ele>36.200000762939</ele>
        <time>2019-11-17T08:44:11.000Z</time>
      </trkpt>
      <trkpt lat="47.25057" lon="-2.30056">
        <ele>36.599998474121</ele>
        <time>2019-11-17T08:44:12.000Z</time>
      </trkpt>
      <trkpt lat="47.25053" lon="-2.30056">
        <ele>37</ele>
        <time>2019-11-17T08:44:13.000Z</time>
      </trkpt>
      <trkpt lat="47.2505" lon="-2.30056">
        <ele>37.400001525879</ele>
        <time>2019-11-17T08:44:14.000Z</time>
      </trkpt>
      <trkpt lat="47.25046" lon="-2.30056">
        <ele>37.799999237061</ele>
        <time>2019-11-17T08:44:15.000Z</time>
      </trkpt>
      <trkpt lat="47.25043" lon="-2.30056">
        <ele>38.200000762939</ele>
        <time>2019-11-17T08:44:16.000Z</time>
      </trkpt>
      <trkpt lat="47.25021" lon="-2.30054">
        <ele>38.200000762939</ele>
        <time>2019-11-17T08:44:22.000Z</time>
      </trkpt>
      <trkpt lat="47.24998" lon="-2.30053">
        <ele>38.200000762939</ele>
        <time>2019-11-17T08:44:28.000Z</time>
      </trkpt>
      <trkpt lat="47.24979" lon="-2.30056">
        <ele>38.200000762939</ele>
        <time>2019-11-17T08:44:33.000Z</time>
      </trkpt>
      <trkpt lat="47.24975" lon="-2.30056">
        <ele>38.599998474121</ele>
        <time>2019-11-17T08:44:34.000Z</time>
      </trkpt>
      <trkpt lat="47.24972" lon="-2.30056">
        <ele>39.200000762939</ele>
        <time>2019-11-17T08:44:35.000Z</time>
      </trkpt>
      <trkpt lat="47.24968" lon="-2.30056">
        <ele>39.599998474121</ele>
        <time>2019-11-17T08:44:36.000Z</time>
      </trkpt>
      <trkpt lat="47.24964" lon="-2.30056">
        <ele>40</ele>
        <time>2019-11-17T08:44:37.000Z</time>
      </trkpt>
      <trkpt lat="47.2496" lon="-2.30056">
        <ele>40.400001525879</ele>
        <time>2019-11-17T08:44:38.000Z</time>
      </trkpt>
      <trkpt lat="47.24948" lon="-2.30056">
        <ele>40.400001525879</ele>
        <time>2019-11-17T08:44:41.000Z</time>
      </trkpt>
      <trkpt lat="47.24935" lon="-2.30055">
        <ele>40.400001525879</ele>
        <time>2019-11-17T08:44:44.000Z</time>
      </trkpt>
      <trkpt lat="47.24923" lon="-2.30055">
        <ele>40.400001525879</ele>
        <time>2019-11-17T08:44:47.000Z</time>
      </trkpt>
      <trkpt lat="47.2492" lon="-2.30055">
        <ele>40.400001525879</ele>
        <time>2019-11-17T08:44:48.000Z</time>
      </trkpt>
      <trkpt lat="47.24905" lon="-2.30053">
        <ele>40.400001525879</ele>
        <time>2019-11-17T08:44:52.000Z</time>
      </trkpt>
      <trkpt lat="47.24904" lon="-2.30048">
        <ele>40.400001525879</ele>
        <time>2019-11-17T08:44:53.000Z</time>
      </trkpt>
      <trkpt lat="47.24904" lon="-2.3003">
        <ele>40.400001525879</ele>
        <time>2019-11-17T08:44:56.000Z</time>
      </trkpt>
      <trkpt lat="47.24897" lon="-2.3">
        <ele>40.400001525879</ele>
        <time>2019-11-17T08:45:00.000Z</time>
      </trkpt>
      <trkpt lat="47.24896" lon="-2.29993">
        <ele>40.400001525879</ele>
        <time>2019-11-17T08:45:01.000Z</time>
      </trkpt>
      <trkpt lat="47.24893" lon="-2.2998">
        <ele>40.400001525879</ele>
        <time>2019-11-17T08:45:03.000Z</time>
      </trkpt>
      <trkpt lat="47.24886" lon="-2.29957">
        <ele>40.400001525879</ele>
        <time>2019-11-17T08:45:06.000Z</time>
      </trkpt>
      <trkpt lat="47.24882" lon="-2.29942">
        <ele>40.400001525879</ele>
        <time>2019-11-17T08:45:08.000Z</time>
      </trkpt>
      <trkpt lat="47.24881" lon="-2.29934">
        <ele>40.400001525879</ele>
        <time>2019-11-17T08:45:09.000Z</time>
      </trkpt>
      <trkpt lat="47.24878" lon="-2.29919">
        <ele>40.400001525879</ele>
        <time>2019-11-17T08:45:11.000Z</time>
      </trkpt>
      <trkpt lat="47.24877" lon="-2.29912">
        <ele>40.400001525879</ele>
        <time>2019-11-17T08:45:12.000Z</time>
      </trkpt>
      <trkpt lat="47.24877" lon="-2.29904">
        <ele>40.799999237061</ele>
        <time>2019-11-17T08:45:13.000Z</time>
      </trkpt>
      <trkpt lat="47.24877" lon="-2.29896">
        <ele>41.200000762939</ele>
        <time>2019-11-17T08:45:14.000Z</time>
      </trkpt>
      <trkpt lat="47.24876" lon="-2.29888">
        <ele>41.599998474121</ele>
        <time>2019-11-17T08:45:15.000Z</time>
      </trkpt>
      <trkpt lat="47.24875" lon="-2.29881">
        <ele>42</ele>
        <time>2019-11-17T08:45:16.000Z</time>
      </trkpt>
      <trkpt lat="47.24874" lon="-2.29874">
        <ele>42.400001525879</ele>
        <time>2019-11-17T08:45:17.000Z</time>
      </trkpt>
      <trkpt lat="47.24871" lon="-2.29861">
        <ele>42.400001525879</ele>
        <time>2019-11-17T08:45:19.000Z</time>
      </trkpt>
      <trkpt lat="47.24868" lon="-2.29849">
        <ele>42.400001525879</ele>
        <time>2019-11-17T08:45:21.000Z</time>
      </trkpt>
      <trkpt lat="47.24863" lon="-2.29831">
        <ele>42.400001525879</ele>
        <time>2019-11-17T08:45:25.000Z</time>
      </trkpt>
      <trkpt lat="47.2486" lon="-2.29832">
        <ele>42.400001525879</ele>
        <time>2019-11-17T08:45:26.000Z</time>
      </trkpt>
      <trkpt lat="47.24849" lon="-2.29839">
        <ele>42.400001525879</ele>
        <time>2019-11-17T08:45:29.000Z</time>
      </trkpt>
      <trkpt lat="47.24845" lon="-2.29842">
        <ele>42.400001525879</ele>
        <time>2019-11-17T08:45:30.000Z</time>
      </trkpt>
      <trkpt lat="47.24828" lon="-2.29846">
        <ele>42.400001525879</ele>
        <time>2019-11-17T08:45:33.000Z</time>
      </trkpt>
      <trkpt lat="47.24794" lon="-2.29859">
        <ele>42.400001525879</ele>
        <time>2019-11-17T08:45:39.000Z</time>
      </trkpt>
      <trkpt lat="47.2475" lon="-2.29894">
        <ele>42.400001525879</ele>
        <time>2019-11-17T08:45:47.000Z</time>
      </trkpt>
      <trkpt lat="47.24746" lon="-2.2992">
        <ele>42.400001525879</ele>
        <time>2019-11-17T08:45:50.000Z</time>
      </trkpt>
      <trkpt lat="47.24746" lon="-2.2994">
        <ele>42.400001525879</ele>
        <time>2019-11-17T08:45:52.000Z</time>
      </trkpt>
      <trkpt lat="47.24745" lon="-2.29968">
        <ele>42.400001525879</ele>
        <time>2019-11-17T08:45:55.000Z</time>
      </trkpt>
      <trkpt lat="47.24742" lon="-2.29986">
        <ele>42.400001525879</ele>
        <time>2019-11-17T08:45:57.000Z</time>
      </trkpt>
      <trkpt lat="47.24739" lon="-2.29994">
        <ele>42</ele>
        <time>2019-11-17T08:45:58.000Z</time>
      </trkpt>
      <trkpt lat="47.24735" lon="-2.30002">
        <ele>41.200000762939</ele>
        <time>2019-11-17T08:45:59.000Z</time>
      </trkpt>
      <trkpt lat="47.24731" lon="-2.30008">
        <ele>40.799999237061</ele>
        <time>2019-11-17T08:46:00.000Z</time>
      </trkpt>
      <trkpt lat="47.24726" lon="-2.30014">
        <ele>40.400001525879</ele>
        <time>2019-11-17T08:46:01.000Z</time>
      </trkpt>
      <trkpt lat="47.24711" lon="-2.30031">
        <ele>40.400001525879</ele>
        <time>2019-11-17T08:46:04.000Z</time>
      </trkpt>
      <trkpt lat="47.24705" lon="-2.30035">
        <ele>40.400001525879</ele>
        <time>2019-11-17T08:46:05.000Z</time>
      </trkpt>
      <trkpt lat="47.24683" lon="-2.30052">
        <ele>40.400001525879</ele>
        <time>2019-11-17T08:46:09.000Z</time>
      </trkpt>
      <trkpt lat="47.24656" lon="-2.30075">
        <ele>39.799999237061</ele>
        <time>2019-11-17T08:46:14.000Z</time>
      </trkpt>
      <trkpt lat="47.24652" lon="-2.30079">
        <ele>39.400001525879</ele>
        <time>2019-11-17T08:46:15.000Z</time>
      </trkpt>
      <trkpt lat="47.24649" lon="-2.30081">
        <ele>39</ele>
        <time>2019-11-17T08:46:16.000Z</time>
      </trkpt>
      <trkpt lat="47.24647" lon="-2.30083">
        <ele>38.599998474121</ele>
        <time>2019-11-17T08:46:17.000Z</time>
      </trkpt>
      <trkpt lat="47.24645" lon="-2.30085">
        <ele>38</ele>
        <time>2019-11-17T08:46:18.000Z</time>
      </trkpt>
      <trkpt lat="47.24634" lon="-2.30096">
        <ele>37.599998474121</ele>
        <time>2019-11-17T08:46:21.000Z</time>
      </trkpt>
      <trkpt lat="47.24631" lon="-2.30099">
        <ele>37.200000762939</ele>
        <time>2019-11-17T08:46:22.000Z</time>
      </trkpt>
      <trkpt lat="47.24627" lon="-2.30101">
        <ele>36.799999237061</ele>
        <time>2019-11-17T08:46:23.000Z</time>
      </trkpt>
      <trkpt lat="47.24625" lon="-2.30103">
        <ele>36</ele>
        <time>2019-11-17T08:46:24.000Z</time>
      </trkpt>
      <trkpt lat="47.24616" lon="-2.30111">
        <ele>36</ele>
        <time>2019-11-17T08:46:27.000Z</time>
      </trkpt>
      <trkpt lat="47.24594" lon="-2.30135">
        <ele>36</ele>
        <time>2019-11-17T08:46:34.000Z</time>
      </trkpt>
      <trkpt lat="47.24574" lon="-2.30168">
        <ele>36</ele>
        <time>2019-11-17T08:46:41.000Z</time>
      </trkpt>
      <trkpt lat="47.24552" lon="-2.30198">
        <ele>36</ele>
        <time>2019-11-17T08:46:48.000Z</time>
      </trkpt>
      <trkpt lat="47.24533" lon="-2.3022">
        <ele>36</ele>
        <time>2019-11-17T08:46:53.000Z</time>
      </trkpt>
      <trkpt lat="47.24522" lon="-2.30232">
        <ele>36</ele>
        <time>2019-11-17T08:46:56.000Z</time>
      </trkpt>
      <trkpt lat="47.24509" lon="-2.30242">
        <ele>36</ele>
        <time>2019-11-17T08:46:59.000Z</time>
      </trkpt>
      <trkpt lat="47.24503" lon="-2.30246">
        <ele>35.599998474121</ele>
        <time>2019-11-17T08:47:00.000Z</time>
      </trkpt>
      <trkpt lat="47.24498" lon="-2.3025">
        <ele>35.200000762939</ele>
        <time>2019-11-17T08:47:01.000Z</time>
      </trkpt>
      <trkpt lat="47.24493" lon="-2.30255">
        <ele>34.799999237061</ele>
        <time>2019-11-17T08:47:02.000Z</time>
      </trkpt>
      <trkpt lat="47.24488" lon="-2.30261">
        <ele>34.400001525879</ele>
        <time>2019-11-17T08:47:03.000Z</time>
      </trkpt>
      <trkpt lat="47.24483" lon="-2.30267">
        <ele>34</ele>
        <time>2019-11-17T08:47:04.000Z</time>
      </trkpt>
      <trkpt lat="47.24479" lon="-2.30275">
        <ele>34</ele>
        <time>2019-11-17T08:47:05.000Z</time>
      </trkpt>
      <trkpt lat="47.24471" lon="-2.30303">
        <ele>34</ele>
        <time>2019-11-17T08:47:08.000Z</time>
      </trkpt>
      <trkpt lat="47.24469" lon="-2.30323">
        <ele>33.599998474121</ele>
        <time>2019-11-17T08:47:10.000Z</time>
      </trkpt>
      <trkpt lat="47.24468" lon="-2.30333">
        <ele>33.200000762939</ele>
        <time>2019-11-17T08:47:11.000Z</time>
      </trkpt>
      <trkpt lat="47.24467" lon="-2.30344">
        <ele>32.799999237061</ele>
        <time>2019-11-17T08:47:12.000Z</time>
      </trkpt>
      <trkpt lat="47.24466" lon="-2.30355">
        <ele>32.400001525879</ele>
        <time>2019-11-17T08:47:13.000Z</time>
      </trkpt>
      <trkpt lat="47.24466" lon="-2.30366">
        <ele>31.799999237061</ele>
        <time>2019-11-17T08:47:14.000Z</time>
      </trkpt>
      <trkpt lat="47.24464" lon="-2.30388">
        <ele>31.39999961853</ele>
        <time>2019-11-17T08:47:16.000Z</time>
      </trkpt>
      <trkpt lat="47.24464" lon="-2.304">
        <ele>31</ele>
        <time>2019-11-17T08:47:17.000Z</time>
      </trkpt>
      <trkpt lat="47.24463" lon="-2.30411">
        <ele>30.60000038147</ele>
        <time>2019-11-17T08:47:18.000Z</time>
      </trkpt>
      <trkpt lat="47.24463" lon="-2.30423">
        <ele>30.200000762939</ele>
        <time>2019-11-17T08:47:19.000Z</time>
      </trkpt>
      <trkpt lat="47.24463" lon="-2.30435">
        <ele>29.799999237061</ele>
        <time>2019-11-17T08:47:20.000Z</time>
      </trkpt>
      <trkpt lat="47.24464" lon="-2.30447">
        <ele>29.39999961853</ele>
        <time>2019-11-17T08:47:21.000Z</time>
      </trkpt>
      <trkpt lat="47.24466" lon="-2.3046">
        <ele>29</ele>
        <time>2019-11-17T08:47:22.000Z</time>
      </trkpt>
      <trkpt lat="47.2447" lon="-2.30471">
        <ele>28.60000038147</ele>
        <time>2019-11-17T08:47:23.000Z</time>
      </trkpt>
      <trkpt lat="47.24476" lon="-2.30479">
        <ele>28.200000762939</ele>
        <time>2019-11-17T08:47:24.000Z</time>
      </trkpt>
      <trkpt lat="47.2448" lon="-2.30487">
        <ele>27.60000038147</ele>
        <time>2019-11-17T08:47:25.000Z</time>
      </trkpt>
      <trkpt lat="47.24483" lon="-2.30503">
        <ele>27.60000038147</ele>
        <time>2019-11-17T08:47:27.000Z</time>
      </trkpt>
      <trkpt lat="47.2448" lon="-2.30527">
        <ele>27.60000038147</ele>
        <time>2019-11-17T08:47:30.000Z</time>
      </trkpt>
      <trkpt lat="47.24468" lon="-2.30545">
        <ele>27.60000038147</ele>
        <time>2019-11-17T08:47:34.000Z</time>
      </trkpt>
      <trkpt lat="47.2446" lon="-2.30552">
        <ele>27.60000038147</ele>
        <time>2019-11-17T08:47:37.000Z</time>
      </trkpt>
      <trkpt lat="47.24457" lon="-2.30555">
        <ele>27.200000762939</ele>
        <time>2019-11-17T08:47:38.000Z</time>
      </trkpt>
      <trkpt lat="47.24453" lon="-2.30559">
        <ele>26.799999237061</ele>
        <time>2019-11-17T08:47:39.000Z</time>
      </trkpt>
      <trkpt lat="47.24447" lon="-2.30565">
        <ele>26.39999961853</ele>
        <time>2019-11-17T08:47:40.000Z</time>
      </trkpt>
      <trkpt lat="47.24442" lon="-2.30569">
        <ele>26</ele>
        <time>2019-11-17T08:47:41.000Z</time>
      </trkpt>
      <trkpt lat="47.24437" lon="-2.30573">
        <ele>25.60000038147</ele>
        <time>2019-11-17T08:47:42.000Z</time>
      </trkpt>
      <trkpt lat="47.24431" lon="-2.30576">
        <ele>25.60000038147</ele>
        <time>2019-11-17T08:47:43.000Z</time>
      </trkpt>
      <trkpt lat="47.24419" lon="-2.30581">
        <ele>25.60000038147</ele>
        <time>2019-11-17T08:47:45.000Z</time>
      </trkpt>
      <trkpt lat="47.24413" lon="-2.30582">
        <ele>25.200000762939</ele>
        <time>2019-11-17T08:47:46.000Z</time>
      </trkpt>
      <trkpt lat="47.24408" lon="-2.30582">
        <ele>24.799999237061</ele>
        <time>2019-11-17T08:47:47.000Z</time>
      </trkpt>
      <trkpt lat="47.24402" lon="-2.30583">
        <ele>24.39999961853</ele>
        <time>2019-11-17T08:47:48.000Z</time>
      </trkpt>
      <trkpt lat="47.24398" lon="-2.3058">
        <ele>24</ele>
        <time>2019-11-17T08:47:49.000Z</time>
      </trkpt>
      <trkpt lat="47.24393" lon="-2.30578">
        <ele>23.60000038147</ele>
        <time>2019-11-17T08:47:50.000Z</time>
      </trkpt>
      <trkpt lat="47.24374" lon="-2.30564">
        <ele>23.60000038147</ele>
        <time>2019-11-17T08:47:54.000Z</time>
      </trkpt>
      <trkpt lat="47.2437" lon="-2.30559">
        <ele>23.200000762939</ele>
        <time>2019-11-17T08:47:55.000Z</time>
      </trkpt>
      <trkpt lat="47.24368" lon="-2.30554">
        <ele>22.799999237061</ele>
        <time>2019-11-17T08:47:56.000Z</time>
      </trkpt>
      <trkpt lat="47.24367" lon="-2.30548">
        <ele>22.39999961853</ele>
        <time>2019-11-17T08:47:57.000Z</time>
      </trkpt>
      <trkpt lat="47.24366" lon="-2.30541">
        <ele>22</ele>
        <time>2019-11-17T08:47:58.000Z</time>
      </trkpt>
      <trkpt lat="47.24365" lon="-2.30535">
        <ele>21.39999961853</ele>
        <time>2019-11-17T08:47:59.000Z</time>
      </trkpt>
      <trkpt lat="47.24363" lon="-2.30522">
        <ele>21.39999961853</ele>
        <time>2019-11-17T08:48:02.000Z</time>
      </trkpt>
      <trkpt lat="47.24363" lon="-2.30518">
        <ele>21.39999961853</ele>
        <time>2019-11-17T08:48:03.000Z</time>
      </trkpt>
      <trkpt lat="47.24363" lon="-2.30515">
        <ele>22</ele>
        <time>2019-11-17T08:48:04.000Z</time>
      </trkpt>
      <trkpt lat="47.24364" lon="-2.30513">
        <ele>22.39999961853</ele>
        <time>2019-11-17T08:48:05.000Z</time>
      </trkpt>
      <trkpt lat="47.24364" lon="-2.30508">
        <ele>22.799999237061</ele>
        <time>2019-11-17T08:48:06.000Z</time>
      </trkpt>
      <trkpt lat="47.24365" lon="-2.30504">
        <ele>23.200000762939</ele>
        <time>2019-11-17T08:48:07.000Z</time>
      </trkpt>
      <trkpt lat="47.24366" lon="-2.30499">
        <ele>23.60000038147</ele>
        <time>2019-11-17T08:48:08.000Z</time>
      </trkpt>
      <trkpt lat="47.24369" lon="-2.30489">
        <ele>23.60000038147</ele>
        <time>2019-11-17T08:48:10.000Z</time>
      </trkpt>
      <trkpt lat="47.24371" lon="-2.30484">
        <ele>24</ele>
        <time>2019-11-17T08:48:11.000Z</time>
      </trkpt>
      <trkpt lat="47.24373" lon="-2.30478">
        <ele>24.39999961853</ele>
        <time>2019-11-17T08:48:12.000Z</time>
      </trkpt>
      <trkpt lat="47.24375" lon="-2.30472">
        <ele>25</ele>
        <time>2019-11-17T08:48:13.000Z</time>
      </trkpt>
      <trkpt lat="47.24376" lon="-2.30466">
        <ele>25.39999961853</ele>
        <time>2019-11-17T08:48:14.000Z</time>
      </trkpt>
      <trkpt lat="47.24376" lon="-2.30461">
        <ele>25.799999237061</ele>
        <time>2019-11-17T08:48:15.000Z</time>
      </trkpt>
      <trkpt lat="47.24374" lon="-2.30457">
        <ele>25.799999237061</ele>
        <time>2019-11-17T08:48:16.000Z</time>
      </trkpt>
      <trkpt lat="47.24372" lon="-2.30452">
        <ele>25.799999237061</ele>
        <time>2019-11-17T08:48:18.000Z</time>
      </trkpt>
      <trkpt lat="47.24369" lon="-2.30451">
        <ele>26.39999961853</ele>
        <time>2019-11-17T08:48:19.000Z</time>
      </trkpt>
      <trkpt lat="47.24366" lon="-2.30452">
        <ele>26.799999237061</ele>
        <time>2019-11-17T08:48:20.000Z</time>
      </trkpt>
      <trkpt lat="47.24363" lon="-2.30452">
        <ele>27.200000762939</ele>
        <time>2019-11-17T08:48:21.000Z</time>
      </trkpt>
      <trkpt lat="47.2436" lon="-2.30453">
        <ele>27.60000038147</ele>
        <time>2019-11-17T08:48:22.000Z</time>
      </trkpt>
      <trkpt lat="47.24358" lon="-2.30452">
        <ele>28</ele>
        <time>2019-11-17T08:48:23.000Z</time>
      </trkpt>
      <trkpt lat="47.24348" lon="-2.30448">
        <ele>28</ele>
        <time>2019-11-17T08:48:26.000Z</time>
      </trkpt>
      <trkpt lat="47.24331" lon="-2.30437">
        <ele>28</ele>
        <time>2019-11-17T08:48:31.000Z</time>
      </trkpt>
      <trkpt lat="47.24313" lon="-2.30426">
        <ele>28</ele>
        <time>2019-11-17T08:48:36.000Z</time>
      </trkpt>
      <trkpt lat="47.2431" lon="-2.30424">
        <ele>28.39999961853</ele>
        <time>2019-11-17T08:48:37.000Z</time>
      </trkpt>
      <trkpt lat="47.24306" lon="-2.30423">
        <ele>28.799999237061</ele>
        <time>2019-11-17T08:48:38.000Z</time>
      </trkpt>
      <trkpt lat="47.24302" lon="-2.30421">
        <ele>29.200000762939</ele>
        <time>2019-11-17T08:48:39.000Z</time>
      </trkpt>
      <trkpt lat="47.243" lon="-2.30418">
        <ele>29.60000038147</ele>
        <time>2019-11-17T08:48:40.000Z</time>
      </trkpt>
      <trkpt lat="47.24297" lon="-2.30416">
        <ele>30</ele>
        <time>2019-11-17T08:48:41.000Z</time>
      </trkpt>
      <trkpt lat="47.24289" lon="-2.30411">
        <ele>30</ele>
        <time>2019-11-17T08:48:44.000Z</time>
      </trkpt>
      <trkpt lat="47.24275" lon="-2.30393">
        <ele>30</ele>
        <time>2019-11-17T08:48:49.000Z</time>
      </trkpt>
      <trkpt lat="47.24268" lon="-2.30382">
        <ele>30</ele>
        <time>2019-11-17T08:48:51.000Z</time>
      </trkpt>
      <trkpt lat="47.2426" lon="-2.30367">
        <ele>30</ele>
        <time>2019-11-17T08:48:54.000Z</time>
      </trkpt>
      <trkpt lat="47.24245" lon="-2.30339">
        <ele>30</ele>
        <time>2019-11-17T08:49:00.000Z</time>
      </trkpt>
      <trkpt lat="47.24236" lon="-2.30326">
        <ele>30</ele>
        <time>2019-11-17T08:49:03.000Z</time>
      </trkpt>
      <trkpt lat="47.2423" lon="-2.3033">
        <ele>30</ele>
        <time>2019-11-17T08:49:05.000Z</time>
      </trkpt>
      <trkpt lat="47.2422" lon="-2.30335">
        <ele>30</ele>
        <time>2019-11-17T08:49:07.000Z</time>
      </trkpt>
      <trkpt lat="47.24215" lon="-2.30336">
        <ele>30</ele>
        <time>2019-11-17T08:49:08.000Z</time>
      </trkpt>
      <trkpt lat="47.24211" lon="-2.30338">
        <ele>29.60000038147</ele>
        <time>2019-11-17T08:49:09.000Z</time>
      </trkpt>
      <trkpt lat="47.24207" lon="-2.30336">
        <ele>29.200000762939</ele>
        <time>2019-11-17T08:49:10.000Z</time>
      </trkpt>
      <trkpt lat="47.24204" lon="-2.30331">
        <ele>28.799999237061</ele>
        <time>2019-11-17T08:49:11.000Z</time>
      </trkpt>
      <trkpt lat="47.24202" lon="-2.30327">
        <ele>28.39999961853</ele>
        <time>2019-11-17T08:49:12.000Z</time>
      </trkpt>
      <trkpt lat="47.24201" lon="-2.3032">
        <ele>27.799999237061</ele>
        <time>2019-11-17T08:49:13.000Z</time>
      </trkpt>
      <trkpt lat="47.24199" lon="-2.30312">
        <ele>27.200000762939</ele>
        <time>2019-11-17T08:49:14.000Z</time>
      </trkpt>
      <trkpt lat="47.24198" lon="-2.30304">
        <ele>26.799999237061</ele>
        <time>2019-11-17T08:49:15.000Z</time>
      </trkpt>
      <trkpt lat="47.24197" lon="-2.30296">
        <ele>26.200000762939</ele>
        <time>2019-11-17T08:49:16.000Z</time>
      </trkpt>
      <trkpt lat="47.24195" lon="-2.30289">
        <ele>25.60000038147</ele>
        <time>2019-11-17T08:49:17.000Z</time>
      </trkpt>
      <trkpt lat="47.24192" lon="-2.30266">
        <ele>25.60000038147</ele>
        <time>2019-11-17T08:49:20.000Z</time>
      </trkpt>
      <trkpt lat="47.24186" lon="-2.3024">
        <ele>25.60000038147</ele>
        <time>2019-11-17T08:49:25.000Z</time>
      </trkpt>
      <trkpt lat="47.24184" lon="-2.3024">
        <ele>25.60000038147</ele>
        <time>2019-11-17T08:49:26.000Z</time>
      </trkpt>
      <trkpt lat="47.24182" lon="-2.30242">
        <ele>25.200000762939</ele>
        <time>2019-11-17T08:49:27.000Z</time>
      </trkpt>
      <trkpt lat="47.24179" lon="-2.30244">
        <ele>24.799999237061</ele>
        <time>2019-11-17T08:49:28.000Z</time>
      </trkpt>
      <trkpt lat="47.24176" lon="-2.30244">
        <ele>24.39999961853</ele>
        <time>2019-11-17T08:49:29.000Z</time>
      </trkpt>
      <trkpt lat="47.24172" lon="-2.30244">
        <ele>24</ele>
        <time>2019-11-17T08:49:30.000Z</time>
      </trkpt>
      <trkpt lat="47.24169" lon="-2.30247">
        <ele>23.60000038147</ele>
        <time>2019-11-17T08:49:31.000Z</time>
      </trkpt>
      <trkpt lat="47.24166" lon="-2.3025">
        <ele>23.60000038147</ele>
        <time>2019-11-17T08:49:32.000Z</time>
      </trkpt>
      <trkpt lat="47.24155" lon="-2.30253">
        <ele>24</ele>
        <time>2019-11-17T08:49:36.000Z</time>
      </trkpt>
      <trkpt lat="47.24152" lon="-2.30255">
        <ele>24.39999961853</ele>
        <time>2019-11-17T08:49:37.000Z</time>
      </trkpt>
      <trkpt lat="47.24149" lon="-2.30258">
        <ele>25</ele>
        <time>2019-11-17T08:49:38.000Z</time>
      </trkpt>
      <trkpt lat="47.24147" lon="-2.30259">
        <ele>25.39999961853</ele>
        <time>2019-11-17T08:49:39.000Z</time>
      </trkpt>
      <trkpt lat="47.24144" lon="-2.30261">
        <ele>25.799999237061</ele>
        <time>2019-11-17T08:49:40.000Z</time>
      </trkpt>
      <trkpt lat="47.2414" lon="-2.30264">
        <ele>26.39999961853</ele>
        <time>2019-11-17T08:49:41.000Z</time>
      </trkpt>
      <trkpt lat="47.24137" lon="-2.30266">
        <ele>27.39999961853</ele>
        <time>2019-11-17T08:49:42.000Z</time>
      </trkpt>
      <trkpt lat="47.24133" lon="-2.30267">
        <ele>27.799999237061</ele>
        <time>2019-11-17T08:49:43.000Z</time>
      </trkpt>
      <trkpt lat="47.24129" lon="-2.30268">
        <ele>28.39999961853</ele>
        <time>2019-11-17T08:49:44.000Z</time>
      </trkpt>
      <trkpt lat="47.24117" lon="-2.30274">
        <ele>28.799999237061</ele>
        <time>2019-11-17T08:49:47.000Z</time>
      </trkpt>
      <trkpt lat="47.24113" lon="-2.30275">
        <ele>29.200000762939</ele>
        <time>2019-11-17T08:49:48.000Z</time>
      </trkpt>
      <trkpt lat="47.24109" lon="-2.30277">
        <ele>29.60000038147</ele>
        <time>2019-11-17T08:49:49.000Z</time>
      </trkpt>
      <trkpt lat="47.24105" lon="-2.30278">
        <ele>30</ele>
        <time>2019-11-17T08:49:50.000Z</time>
      </trkpt>
      <trkpt lat="47.24101" lon="-2.3028">
        <ele>30.39999961853</ele>
        <time>2019-11-17T08:49:51.000Z</time>
      </trkpt>
      <trkpt lat="47.24081" lon="-2.30288">
        <ele>30.39999961853</ele>
        <time>2019-11-17T08:49:56.000Z</time>
      </trkpt>
      <trkpt lat="47.24055" lon="-2.30298">
        <ele>30.39999961853</ele>
        <time>2019-11-17T08:50:03.000Z</time>
      </trkpt>
      <trkpt lat="47.24036" lon="-2.30299">
        <ele>30.39999961853</ele>
        <time>2019-11-17T08:50:07.000Z</time>
      </trkpt>
      <trkpt lat="47.24031" lon="-2.30295">
        <ele>30.39999961853</ele>
        <time>2019-11-17T08:50:08.000Z</time>
      </trkpt>
      <trkpt lat="47.24028" lon="-2.30277">
        <ele>30.39999961853</ele>
        <time>2019-11-17T08:50:11.000Z</time>
      </trkpt>
      <trkpt lat="47.24033" lon="-2.30251">
        <ele>30.39999961853</ele>
        <time>2019-11-17T08:50:15.000Z</time>
      </trkpt>
      <trkpt lat="47.24035" lon="-2.30233">
        <ele>30.39999961853</ele>
        <time>2019-11-17T08:50:18.000Z</time>
      </trkpt>
      <trkpt lat="47.24035" lon="-2.30221">
        <ele>30.799999237061</ele>
        <time>2019-11-17T08:50:20.000Z</time>
      </trkpt>
      <trkpt lat="47.24036" lon="-2.30214">
        <ele>31.200000762939</ele>
        <time>2019-11-17T08:50:21.000Z</time>
      </trkpt>
      <trkpt lat="47.24036" lon="-2.3021">
        <ele>31.60000038147</ele>
        <time>2019-11-17T08:50:22.000Z</time>
      </trkpt>
      <trkpt lat="47.24036" lon="-2.30205">
        <ele>32.200000762939</ele>
        <time>2019-11-17T08:50:23.000Z</time>
      </trkpt>
      <trkpt lat="47.24037" lon="-2.302">
        <ele>32.599998474121</ele>
        <time>2019-11-17T08:50:24.000Z</time>
      </trkpt>
      <trkpt lat="47.24041" lon="-2.30194">
        <ele>32.599998474121</ele>
        <time>2019-11-17T08:50:26.000Z</time>
      </trkpt>
      <trkpt lat="47.24044" lon="-2.30193">
        <ele>32.599998474121</ele>
        <time>2019-11-17T08:50:27.000Z</time>
      </trkpt>
      <trkpt lat="47.24055" lon="-2.30186">
        <ele>32.599998474121</ele>
        <time>2019-11-17T08:50:31.000Z</time>
      </trkpt>
      <trkpt lat="47.24058" lon="-2.30184">
        <ele>32.599998474121</ele>
        <time>2019-11-17T08:50:32.000Z</time>
      </trkpt>
      <trkpt lat="47.24076" lon="-2.30173">
        <ele>32.599998474121</ele>
        <time>2019-11-17T08:50:37.000Z</time>
      </trkpt>
      <trkpt lat="47.24083" lon="-2.30164">
        <ele>32.599998474121</ele>
        <time>2019-11-17T08:50:40.000Z</time>
      </trkpt>
      <trkpt lat="47.24086" lon="-2.30165">
        <ele>32.599998474121</ele>
        <time>2019-11-17T08:50:41.000Z</time>
      </trkpt>
      <trkpt lat="47.24104" lon="-2.30166">
        <ele>32.599998474121</ele>
        <time>2019-11-17T08:50:46.000Z</time>
      </trkpt>
      <trkpt lat="47.2412" lon="-2.30164">
        <ele>32.599998474121</ele>
        <time>2019-11-17T08:50:51.000Z</time>
      </trkpt>
      <trkpt lat="47.24124" lon="-2.3016">
        <ele>32.200000762939</ele>
        <time>2019-11-17T08:50:53.000Z</time>
      </trkpt>
      <trkpt lat="47.24126" lon="-2.30158">
        <ele>31.60000038147</ele>
        <time>2019-11-17T08:50:54.000Z</time>
      </trkpt>
      <trkpt lat="47.24127" lon="-2.30155">
        <ele>31.200000762939</ele>
        <time>2019-11-17T08:50:55.000Z</time>
      </trkpt>
      <trkpt lat="47.24127" lon="-2.30153">
        <ele>30.39999961853</ele>
        <time>2019-11-17T08:50:56.000Z</time>
      </trkpt>
      <trkpt lat="47.24126" lon="-2.30146">
        <ele>30.39999961853</ele>
        <time>2019-11-17T08:51:00.000Z</time>
      </trkpt>
      <trkpt lat="47.24126" lon="-2.30147">
        <ele>30.39999961853</ele>
        <time>2019-11-17T08:51:01.000Z</time>
      </trkpt>
      <trkpt lat="47.24122" lon="-2.30146">
        <ele>30.39999961853</ele>
        <time>2019-11-17T08:51:04.000Z</time>
      </trkpt>
      <trkpt lat="47.24119" lon="-2.30146">
        <ele>30.39999961853</ele>
        <time>2019-11-17T08:51:07.000Z</time>
      </trkpt>
      <trkpt lat="47.24118" lon="-2.3015">
        <ele>30.39999961853</ele>
        <time>2019-11-17T08:51:10.000Z</time>
      </trkpt>
      <trkpt lat="47.24116" lon="-2.30152">
        <ele>30.39999961853</ele>
        <time>2019-11-17T08:51:11.000Z</time>
      </trkpt>
      <trkpt lat="47.24109" lon="-2.30153">
        <ele>30.799999237061</ele>
        <time>2019-11-17T08:51:14.000Z</time>
      </trkpt>
      <trkpt lat="47.24108" lon="-2.30155">
        <ele>31.200000762939</ele>
        <time>2019-11-17T08:51:15.000Z</time>
      </trkpt>
      <trkpt lat="47.24105" lon="-2.30156">
        <ele>31.60000038147</ele>
        <time>2019-11-17T08:51:16.000Z</time>
      </trkpt>
      <trkpt lat="47.24102" lon="-2.30154">
        <ele>32</ele>
        <time>2019-11-17T08:51:17.000Z</time>
      </trkpt>
      <trkpt lat="47.24101" lon="-2.30152">
        <ele>32.599998474121</ele>
        <time>2019-11-17T08:51:18.000Z</time>
      </trkpt>
      <trkpt lat="47.24099" lon="-2.30151">
        <ele>32.599998474121</ele>
        <time>2019-11-17T08:51:19.000Z</time>
      </trkpt>
      <trkpt lat="47.24093" lon="-2.30148">
        <ele>32.599998474121</ele>
        <time>2019-11-17T08:51:21.000Z</time>
      </trkpt>
      <trkpt lat="47.24089" lon="-2.30142">
        <ele>32.599998474121</ele>
        <time>2019-11-17T08:51:24.000Z</time>
      </trkpt>
      <trkpt lat="47.24089" lon="-2.30141">
        <ele>32.599998474121</ele>
        <time>2019-11-17T08:51:25.000Z</time>
      </trkpt>
      <trkpt lat="47.24091" lon="-2.30132">
        <ele>32.599998474121</ele>
        <time>2019-11-17T08:51:28.000Z</time>
      </trkpt>
      <trkpt lat="47.241" lon="-2.3013">
        <ele>32.599998474121</ele>
        <time>2019-11-17T08:51:32.000Z</time>
      </trkpt>
      <trkpt lat="47.24104" lon="-2.30129">
        <ele>32.599998474121</ele>
        <time>2019-11-17T08:51:33.000Z</time>
      </trkpt>
      <trkpt lat="47.24114" lon="-2.30126">
        <ele>32.599998474121</ele>
        <time>2019-11-17T08:51:36.000Z</time>
      </trkpt>
      <trkpt lat="47.24121" lon="-2.30125">
        <ele>32.599998474121</ele>
        <time>2019-11-17T08:51:39.000Z</time>
      </trkpt>
      <trkpt lat="47.24123" lon="-2.30126">
        <ele>32.599998474121</ele>
        <time>2019-11-17T08:51:40.000Z</time>
      </trkpt>
      <trkpt lat="47.24128" lon="-2.3013">
        <ele>32.599998474121</ele>
        <time>2019-11-17T08:51:43.000Z</time>
      </trkpt>
      <trkpt lat="47.24132" lon="-2.30137">
        <ele>32.200000762939</ele>
        <time>2019-11-17T08:51:45.000Z</time>
      </trkpt>
      <trkpt lat="47.24133" lon="-2.30138">
        <ele>31.60000038147</ele>
        <time>2019-11-17T08:51:46.000Z</time>
      </trkpt>
      <trkpt lat="47.24134" lon="-2.30136">
        <ele>31.200000762939</ele>
        <time>2019-11-17T08:51:47.000Z</time>
      </trkpt>
      <trkpt lat="47.24135" lon="-2.30131">
        <ele>30.799999237061</ele>
        <time>2019-11-17T08:51:48.000Z</time>
      </trkpt>
      <trkpt lat="47.24136" lon="-2.30128">
        <ele>30.39999961853</ele>
        <time>2019-11-17T08:51:49.000Z</time>
      </trkpt>
      <trkpt lat="47.24139" lon="-2.30114">
        <ele>30.39999961853</ele>
        <time>2019-11-17T08:51:53.000Z</time>
      </trkpt>
      <trkpt lat="47.24142" lon="-2.30094">
        <ele>30.39999961853</ele>
        <time>2019-11-17T08:51:59.000Z</time>
      </trkpt>
      <trkpt lat="47.2414" lon="-2.30078">
        <ele>30.799999237061</ele>
        <time>2019-11-17T08:52:06.000Z</time>
      </trkpt>
      <trkpt lat="47.24139" lon="-2.30077">
        <ele>31.200000762939</ele>
        <time>2019-11-17T08:52:07.000Z</time>
      </trkpt>
      <trkpt lat="47.24139" lon="-2.30076">
        <ele>31.799999237061</ele>
        <time>2019-11-17T08:52:08.000Z</time>
      </trkpt>
      <trkpt lat="47.24139" lon="-2.30075">
        <ele>32.200000762939</ele>
        <time>2019-11-17T08:52:09.000Z</time>
      </trkpt>
      <trkpt lat="47.24139" lon="-2.30075">
        <ele>32.599998474121</ele>
        <time>2019-11-17T08:52:10.000Z</time>
      </trkpt>
      <trkpt lat="47.24134" lon="-2.30063">
        <ele>32.599998474121</ele>
        <time>2019-11-17T08:54:06.000Z</time>
      </trkpt>
      <trkpt lat="47.24129" lon="-2.30054">
        <ele>32.599998474121</ele>
        <time>2019-11-17T08:54:10.000Z</time>
      </trkpt>
      <trkpt lat="47.24127" lon="-2.30044">
        <ele>32.599998474121</ele>
        <time>2019-11-17T08:54:14.000Z</time>
      </trkpt>
      <trkpt lat="47.24128" lon="-2.30043">
        <ele>33</ele>
        <time>2019-11-17T08:54:15.000Z</time>
      </trkpt>
      <trkpt lat="47.2413" lon="-2.30042">
        <ele>33.400001525879</ele>
        <time>2019-11-17T08:54:16.000Z</time>
      </trkpt>
      <trkpt lat="47.24133" lon="-2.30039">
        <ele>33.799999237061</ele>
        <time>2019-11-17T08:54:17.000Z</time>
      </trkpt>
      <trkpt lat="47.24136" lon="-2.30037">
        <ele>34.200000762939</ele>
        <time>2019-11-17T08:54:18.000Z</time>
      </trkpt>
      <trkpt lat="47.24137" lon="-2.30033">
        <ele>34.599998474121</ele>
        <time>2019-11-17T08:54:19.000Z</time>
      </trkpt>
      <trkpt lat="47.2414" lon="-2.30023">
        <ele>34.599998474121</ele>
        <time>2019-11-17T08:54:22.000Z</time>
      </trkpt>
      <trkpt lat="47.24141" lon="-2.30018">
        <ele>34.599998474121</ele>
        <time>2019-11-17T08:54:24.000Z</time>
      </trkpt>
      <trkpt lat="47.24138" lon="-2.30001">
        <ele>34.599998474121</ele>
        <time>2019-11-17T08:54:29.000Z</time>
      </trkpt>
      <trkpt lat="47.24135" lon="-2.3">
        <ele>34.599998474121</ele>
        <time>2019-11-17T08:54:30.000Z</time>
      </trkpt>
      <trkpt lat="47.24133" lon="-2.29997">
        <ele>34.599998474121</ele>
        <time>2019-11-17T08:54:32.000Z</time>
      </trkpt>
      <trkpt lat="47.24129" lon="-2.29995">
        <ele>34.599998474121</ele>
        <time>2019-11-17T08:54:34.000Z</time>
      </trkpt>
      <trkpt lat="47.24121" lon="-2.29994">
        <ele>34.599998474121</ele>
        <time>2019-11-17T08:54:38.000Z</time>
      </trkpt>
      <trkpt lat="47.24118" lon="-2.29993">
        <ele>34.599998474121</ele>
        <time>2019-11-17T08:54:40.000Z</time>
      </trkpt>
      <trkpt lat="47.24106" lon="-2.29984">
        <ele>34.599998474121</ele>
        <time>2019-11-17T08:54:46.000Z</time>
      </trkpt>
      <trkpt lat="47.24103" lon="-2.29984">
        <ele>34.599998474121</ele>
        <time>2019-11-17T08:54:48.000Z</time>
      </trkpt>
      <trkpt lat="47.24094" lon="-2.2998">
        <ele>34.599998474121</ele>
        <time>2019-11-17T08:54:52.000Z</time>
      </trkpt>
      <trkpt lat="47.24084" lon="-2.29974">
        <ele>34.599998474121</ele>
        <time>2019-11-17T08:54:58.000Z</time>
      </trkpt>
      <trkpt lat="47.2408" lon="-2.29974">
        <ele>34.599998474121</ele>
        <time>2019-11-17T08:55:01.000Z</time>
      </trkpt>
      <trkpt lat="47.24077" lon="-2.29967">
        <ele>34.599998474121</ele>
        <time>2019-11-17T08:55:03.000Z</time>
      </trkpt>
      <trkpt lat="47.24077" lon="-2.29955">
        <ele>34.599998474121</ele>
        <time>2019-11-17T08:55:06.000Z</time>
      </trkpt>
      <trkpt lat="47.24078" lon="-2.2995">
        <ele>34.599998474121</ele>
        <time>2019-11-17T08:55:07.000Z</time>
      </trkpt>
      <trkpt lat="47.24081" lon="-2.29934">
        <ele>34.599998474121</ele>
        <time>2019-11-17T08:55:13.000Z</time>
      </trkpt>
      <trkpt lat="47.24082" lon="-2.29925">
        <ele>34.599998474121</ele>
        <time>2019-11-17T08:55:19.000Z</time>
      </trkpt>
      <trkpt lat="47.24082" lon="-2.29919">
        <ele>34.599998474121</ele>
        <time>2019-11-17T08:55:22.000Z</time>
      </trkpt>
      <trkpt lat="47.24083" lon="-2.2991">
        <ele>34.599998474121</ele>
        <time>2019-11-17T08:55:25.000Z</time>
      </trkpt>
      <trkpt lat="47.24085" lon="-2.299">
        <ele>35</ele>
        <time>2019-11-17T08:55:29.000Z</time>
      </trkpt>
      <trkpt lat="47.24085" lon="-2.29897">
        <ele>35.400001525879</ele>
        <time>2019-11-17T08:55:30.000Z</time>
      </trkpt>
      <trkpt lat="47.24086" lon="-2.29895">
        <ele>35.799999237061</ele>
        <time>2019-11-17T08:55:31.000Z</time>
      </trkpt>
      <trkpt lat="47.24087" lon="-2.29892">
        <ele>36.200000762939</ele>
        <time>2019-11-17T08:55:32.000Z</time>
      </trkpt>
      <trkpt lat="47.24088" lon="-2.29888">
        <ele>36.599998474121</ele>
        <time>2019-11-17T08:55:33.000Z</time>
      </trkpt>
      <trkpt lat="47.2409" lon="-2.29875">
        <ele>36.599998474121</ele>
        <time>2019-11-17T08:55:37.000Z</time>
      </trkpt>
      <trkpt lat="47.2409" lon="-2.29859">
        <ele>36.599998474121</ele>
        <time>2019-11-17T08:55:43.000Z</time>
      </trkpt>
      <trkpt lat="47.2409" lon="-2.29857">
        <ele>36.599998474121</ele>
        <time>2019-11-17T08:55:44.000Z</time>
      </trkpt>
      <trkpt lat="47.24079" lon="-2.29849">
        <ele>36.599998474121</ele>
        <time>2019-11-17T08:56:57.000Z</time>
      </trkpt>
      <trkpt lat="47.24075" lon="-2.29847">
        <ele>36.599998474121</ele>
        <time>2019-11-17T08:56:59.000Z</time>
      </trkpt>
      <trkpt lat="47.24074" lon="-2.29845">
        <ele>36.599998474121</ele>
        <time>2019-11-17T08:57:00.000Z</time>
      </trkpt>
      <trkpt lat="47.24069" lon="-2.29838">
        <ele>36.599998474121</ele>
        <time>2019-11-17T08:57:03.000Z</time>
      </trkpt>
      <trkpt lat="47.24062" lon="-2.29825">
        <ele>36.599998474121</ele>
        <time>2019-11-17T08:57:08.000Z</time>
      </trkpt>
      <trkpt lat="47.2405" lon="-2.29822">
        <ele>36.599998474121</ele>
        <time>2019-11-17T08:57:12.000Z</time>
      </trkpt>
      <trkpt lat="47.24034" lon="-2.29825">
        <ele>36.599998474121</ele>
        <time>2019-11-17T08:57:18.000Z</time>
      </trkpt>
      <trkpt lat="47.24033" lon="-2.29825">
        <ele>36.599998474121</ele>
        <time>2019-11-17T08:57:19.000Z</time>
      </trkpt>
      <trkpt lat="47.24028" lon="-2.29819">
        <ele>34.599998474121</ele>
        <time>2019-11-17T08:59:24.000Z</time>
      </trkpt>
      <trkpt lat="47.24026" lon="-2.29809">
        <ele>34.599998474121</ele>
        <time>2019-11-17T08:59:26.000Z</time>
      </trkpt>
      <trkpt lat="47.24023" lon="-2.298">
        <ele>34.599998474121</ele>
        <time>2019-11-17T08:59:28.000Z</time>
      </trkpt>
      <trkpt lat="47.24021" lon="-2.29784">
        <ele>34.599998474121</ele>
        <time>2019-11-17T08:59:31.000Z</time>
      </trkpt>
      <trkpt lat="47.24016" lon="-2.29751">
        <ele>34.599998474121</ele>
        <time>2019-11-17T08:59:37.000Z</time>
      </trkpt>
      <trkpt lat="47.24011" lon="-2.29717">
        <ele>34.599998474121</ele>
        <time>2019-11-17T08:59:43.000Z</time>
      </trkpt>
      <trkpt lat="47.24007" lon="-2.29687">
        <ele>34.599998474121</ele>
        <time>2019-11-17T08:59:48.000Z</time>
      </trkpt>
      <trkpt lat="47.24007" lon="-2.2968">
        <ele>34.599998474121</ele>
        <time>2019-11-17T08:59:49.000Z</time>
      </trkpt>
      <trkpt lat="47.24003" lon="-2.2965">
        <ele>34.599998474121</ele>
        <time>2019-11-17T08:59:53.000Z</time>
      </trkpt>
      <trkpt lat="47.23999" lon="-2.29594">
        <ele>34.599998474121</ele>
        <time>2019-11-17T09:00:00.000Z</time>
      </trkpt>
      <trkpt lat="47.23995" lon="-2.29538">
        <ele>34.599998474121</ele>
        <time>2019-11-17T09:00:06.000Z</time>
      </trkpt>
      <trkpt lat="47.23993" lon="-2.2952">
        <ele>34.599998474121</ele>
        <time>2019-11-17T09:00:08.000Z</time>
      </trkpt>
      <trkpt lat="47.23989" lon="-2.29495">
        <ele>34.599998474121</ele>
        <time>2019-11-17T09:00:11.000Z</time>
      </trkpt>
      <trkpt lat="47.23978" lon="-2.29475">
        <ele>34.599998474121</ele>
        <time>2019-11-17T09:00:14.000Z</time>
      </trkpt>
      <trkpt lat="47.23974" lon="-2.29467">
        <ele>34.599998474121</ele>
        <time>2019-11-17T09:00:15.000Z</time>
      </trkpt>
      <trkpt lat="47.23956" lon="-2.29428">
        <ele>34.599998474121</ele>
        <time>2019-11-17T09:00:20.000Z</time>
      </trkpt>
      <trkpt lat="47.2393" lon="-2.29376">
        <ele>34.599998474121</ele>
        <time>2019-11-17T09:00:27.000Z</time>
      </trkpt>
      <trkpt lat="47.23909" lon="-2.29337">
        <ele>34.599998474121</ele>
        <time>2019-11-17T09:00:33.000Z</time>
      </trkpt>
      <trkpt lat="47.23895" lon="-2.29333">
        <ele>34.599998474121</ele>
        <time>2019-11-17T09:00:36.000Z</time>
      </trkpt>
      <trkpt lat="47.23885" lon="-2.29334">
        <ele>34.599998474121</ele>
        <time>2019-11-17T09:00:38.000Z</time>
      </trkpt>
      <trkpt lat="47.23876" lon="-2.29335">
        <ele>34.200000762939</ele>
        <time>2019-11-17T09:00:40.000Z</time>
      </trkpt>
      <trkpt lat="47.23872" lon="-2.29338">
        <ele>33.799999237061</ele>
        <time>2019-11-17T09:00:41.000Z</time>
      </trkpt>
      <trkpt lat="47.23867" lon="-2.29341">
        <ele>33.400001525879</ele>
        <time>2019-11-17T09:00:42.000Z</time>
      </trkpt>
      <trkpt lat="47.23864" lon="-2.29346">
        <ele>33</ele>
        <time>2019-11-17T09:00:43.000Z</time>
      </trkpt>
      <trkpt lat="47.23861" lon="-2.29352">
        <ele>32.599998474121</ele>
        <time>2019-11-17T09:00:44.000Z</time>
      </trkpt>
      <trkpt lat="47.23858" lon="-2.29357">
        <ele>32.599998474121</ele>
        <time>2019-11-17T09:00:45.000Z</time>
      </trkpt>
      <trkpt lat="47.23855" lon="-2.29363">
        <ele>32.599998474121</ele>
        <time>2019-11-17T09:00:46.000Z</time>
      </trkpt>
      <trkpt lat="47.23843" lon="-2.29389">
        <ele>32.599998474121</ele>
        <time>2019-11-17T09:00:50.000Z</time>
      </trkpt>
      <trkpt lat="47.23826" lon="-2.29427">
        <ele>32.599998474121</ele>
        <time>2019-11-17T09:00:56.000Z</time>
      </trkpt>
      <trkpt lat="47.23822" lon="-2.29441">
        <ele>32.599998474121</ele>
        <time>2019-11-17T09:00:58.000Z</time>
      </trkpt>
      <trkpt lat="47.23821" lon="-2.29455">
        <ele>32.599998474121</ele>
        <time>2019-11-17T09:01:00.000Z</time>
      </trkpt>
      <trkpt lat="47.23822" lon="-2.29475">
        <ele>32.599998474121</ele>
        <time>2019-11-17T09:01:03.000Z</time>
      </trkpt>
      <trkpt lat="47.23821" lon="-2.29493">
        <ele>32.599998474121</ele>
        <time>2019-11-17T09:01:06.000Z</time>
      </trkpt>
      <trkpt lat="47.23821" lon="-2.29499">
        <ele>32.599998474121</ele>
        <time>2019-11-17T09:01:07.000Z</time>
      </trkpt>
      <trkpt lat="47.23821" lon="-2.29523">
        <ele>32.599998474121</ele>
        <time>2019-11-17T09:01:11.000Z</time>
      </trkpt>
      <trkpt lat="47.23821" lon="-2.2956">
        <ele>32.599998474121</ele>
        <time>2019-11-17T09:01:17.000Z</time>
      </trkpt>
      <trkpt lat="47.2382" lon="-2.296">
        <ele>32.599998474121</ele>
        <time>2019-11-17T09:01:23.000Z</time>
      </trkpt>
      <trkpt lat="47.2382" lon="-2.29638">
        <ele>32.599998474121</ele>
        <time>2019-11-17T09:01:29.000Z</time>
      </trkpt>
      <trkpt lat="47.23818" lon="-2.29683">
        <ele>32.599998474121</ele>
        <time>2019-11-17T09:01:35.000Z</time>
      </trkpt>
      <trkpt lat="47.23816" lon="-2.29698">
        <ele>32.599998474121</ele>
        <time>2019-11-17T09:01:37.000Z</time>
      </trkpt>
      <trkpt lat="47.23814" lon="-2.29719">
        <ele>32.599998474121</ele>
        <time>2019-11-17T09:01:40.000Z</time>
      </trkpt>
      <trkpt lat="47.23814" lon="-2.29749">
        <ele>32.599998474121</ele>
        <time>2019-11-17T09:01:44.000Z</time>
      </trkpt>
      <trkpt lat="47.23814" lon="-2.29763">
        <ele>32.599998474121</ele>
        <time>2019-11-17T09:01:46.000Z</time>
      </trkpt>
      <trkpt lat="47.23812" lon="-2.29826">
        <ele>32.599998474121</ele>
        <time>2019-11-17T09:01:54.000Z</time>
      </trkpt>
      <trkpt lat="47.23812" lon="-2.29834">
        <ele>32.599998474121</ele>
        <time>2019-11-17T09:01:55.000Z</time>
      </trkpt>
      <trkpt lat="47.23817" lon="-2.29864">
        <ele>32.599998474121</ele>
        <time>2019-11-17T09:01:59.000Z</time>
      </trkpt>
      <trkpt lat="47.23823" lon="-2.29903">
        <ele>32.599998474121</ele>
        <time>2019-11-17T09:02:04.000Z</time>
      </trkpt>
      <trkpt lat="47.23836" lon="-2.29971">
        <ele>32.599998474121</ele>
        <time>2019-11-17T09:02:12.000Z</time>
      </trkpt>
      <trkpt lat="47.23845" lon="-2.30023">
        <ele>32.599998474121</ele>
        <time>2019-11-17T09:02:18.000Z</time>
      </trkpt>
      <trkpt lat="47.23847" lon="-2.30031">
        <ele>32.599998474121</ele>
        <time>2019-11-17T09:02:19.000Z</time>
      </trkpt>
      <trkpt lat="47.23848" lon="-2.30038">
        <ele>32</ele>
        <time>2019-11-17T09:02:20.000Z</time>
      </trkpt>
      <trkpt lat="47.23848" lon="-2.30044">
        <ele>31.60000038147</ele>
        <time>2019-11-17T09:02:21.000Z</time>
      </trkpt>
      <trkpt lat="47.23846" lon="-2.3005">
        <ele>31.200000762939</ele>
        <time>2019-11-17T09:02:22.000Z</time>
      </trkpt>
      <trkpt lat="47.23842" lon="-2.30054">
        <ele>30.60000038147</ele>
        <time>2019-11-17T09:02:23.000Z</time>
      </trkpt>
      <trkpt lat="47.23838" lon="-2.30058">
        <ele>30.200000762939</ele>
        <time>2019-11-17T09:02:24.000Z</time>
      </trkpt>
      <trkpt lat="47.23833" lon="-2.30061">
        <ele>30.200000762939</ele>
        <time>2019-11-17T09:02:25.000Z</time>
      </trkpt>
      <trkpt lat="47.23828" lon="-2.30064">
        <ele>30.200000762939</ele>
        <time>2019-11-17T09:02:26.000Z</time>
      </trkpt>
      <trkpt lat="47.23823" lon="-2.30066">
        <ele>29.799999237061</ele>
        <time>2019-11-17T09:02:27.000Z</time>
      </trkpt>
      <trkpt lat="47.23817" lon="-2.30069">
        <ele>29.39999961853</ele>
        <time>2019-11-17T09:02:28.000Z</time>
      </trkpt>
      <trkpt lat="47.23812" lon="-2.30072">
        <ele>28.799999237061</ele>
        <time>2019-11-17T09:02:29.000Z</time>
      </trkpt>
      <trkpt lat="47.23806" lon="-2.30075">
        <ele>28.39999961853</ele>
        <time>2019-11-17T09:02:30.000Z</time>
      </trkpt>
      <trkpt lat="47.23801" lon="-2.30079">
        <ele>28</ele>
        <time>2019-11-17T09:02:31.000Z</time>
      </trkpt>
      <trkpt lat="47.2379" lon="-2.30086">
        <ele>28</ele>
        <time>2019-11-17T09:02:33.000Z</time>
      </trkpt>
      <trkpt lat="47.23772" lon="-2.30092">
        <ele>28</ele>
        <time>2019-11-17T09:02:36.000Z</time>
      </trkpt>
      <trkpt lat="47.23743" lon="-2.30083">
        <ele>28</ele>
        <time>2019-11-17T09:02:41.000Z</time>
      </trkpt>
      <trkpt lat="47.23737" lon="-2.3008">
        <ele>28</ele>
        <time>2019-11-17T09:02:42.000Z</time>
      </trkpt>
      <trkpt lat="47.23727" lon="-2.30073">
        <ele>27.60000038147</ele>
        <time>2019-11-17T09:02:44.000Z</time>
      </trkpt>
      <trkpt lat="47.23722" lon="-2.30069">
        <ele>27.200000762939</ele>
        <time>2019-11-17T09:02:45.000Z</time>
      </trkpt>
      <trkpt lat="47.23716" lon="-2.30065">
        <ele>26.799999237061</ele>
        <time>2019-11-17T09:02:46.000Z</time>
      </trkpt>
      <trkpt lat="47.23711" lon="-2.30061">
        <ele>26.39999961853</ele>
        <time>2019-11-17T09:02:47.000Z</time>
      </trkpt>
      <trkpt lat="47.23706" lon="-2.30058">
        <ele>26</ele>
        <time>2019-11-17T09:02:48.000Z</time>
      </trkpt>
      <trkpt lat="47.23692" lon="-2.30046">
        <ele>26</ele>
        <time>2019-11-17T09:02:51.000Z</time>
      </trkpt>
      <trkpt lat="47.23684" lon="-2.30038">
        <ele>26</ele>
        <time>2019-11-17T09:02:53.000Z</time>
      </trkpt>
      <trkpt lat="47.23673" lon="-2.30013">
        <ele>26</ele>
        <time>2019-11-17T09:02:57.000Z</time>
      </trkpt>
      <trkpt lat="47.23657" lon="-2.29969">
        <ele>26</ele>
        <time>2019-11-17T09:03:03.000Z</time>
      </trkpt>
      <trkpt lat="47.23649" lon="-2.29947">
        <ele>26.39999961853</ele>
        <time>2019-11-17T09:03:06.000Z</time>
      </trkpt>
      <trkpt lat="47.23646" lon="-2.2994">
        <ele>26.799999237061</ele>
        <time>2019-11-17T09:03:07.000Z</time>
      </trkpt>
      <trkpt lat="47.23643" lon="-2.29933">
        <ele>27.200000762939</ele>
        <time>2019-11-17T09:03:08.000Z</time>
      </trkpt>
      <trkpt lat="47.23641" lon="-2.29926">
        <ele>27.60000038147</ele>
        <time>2019-11-17T09:03:09.000Z</time>
      </trkpt>
      <trkpt lat="47.23638" lon="-2.29919">
        <ele>28</ele>
        <time>2019-11-17T09:03:10.000Z</time>
      </trkpt>
      <trkpt lat="47.23625" lon="-2.29885">
        <ele>28</ele>
        <time>2019-11-17T09:03:15.000Z</time>
      </trkpt>
      <trkpt lat="47.23606" lon="-2.29833">
        <ele>28</ele>
        <time>2019-11-17T09:03:22.000Z</time>
      </trkpt>
      <trkpt lat="47.23598" lon="-2.29809">
        <ele>28</ele>
        <time>2019-11-17T09:03:25.000Z</time>
      </trkpt>
      <trkpt lat="47.2359" lon="-2.298">
        <ele>28</ele>
        <time>2019-11-17T09:03:27.000Z</time>
      </trkpt>
      <trkpt lat="47.23571" lon="-2.29803">
        <ele>28</ele>
        <time>2019-11-17T09:03:31.000Z</time>
      </trkpt>
      <trkpt lat="47.23546" lon="-2.29812">
        <ele>28</ele>
        <time>2019-11-17T09:03:36.000Z</time>
      </trkpt>
      <trkpt lat="47.23523" lon="-2.29821">
        <ele>27.60000038147</ele>
        <time>2019-11-17T09:03:40.000Z</time>
      </trkpt>
      <trkpt lat="47.23517" lon="-2.29824">
        <ele>27.200000762939</ele>
        <time>2019-11-17T09:03:41.000Z</time>
      </trkpt>
      <trkpt lat="47.23512" lon="-2.29826">
        <ele>26.60000038147</ele>
        <time>2019-11-17T09:03:42.000Z</time>
      </trkpt>
      <trkpt lat="47.23506" lon="-2.29828">
        <ele>26.200000762939</ele>
        <time>2019-11-17T09:03:43.000Z</time>
      </trkpt>
      <trkpt lat="47.23502" lon="-2.29829">
        <ele>25.799999237061</ele>
        <time>2019-11-17T09:03:44.000Z</time>
      </trkpt>
      <trkpt lat="47.23498" lon="-2.29831">
        <ele>25.799999237061</ele>
        <time>2019-11-17T09:03:45.000Z</time>
      </trkpt>
      <trkpt lat="47.23489" lon="-2.29835">
        <ele>25.39999961853</ele>
        <time>2019-11-17T09:03:48.000Z</time>
      </trkpt>
      <trkpt lat="47.23487" lon="-2.29836">
        <ele>25</ele>
        <time>2019-11-17T09:03:49.000Z</time>
      </trkpt>
      <trkpt lat="47.23486" lon="-2.29838">
        <ele>24.60000038147</ele>
        <time>2019-11-17T09:03:50.000Z</time>
      </trkpt>
      <trkpt lat="47.23485" lon="-2.29839">
        <ele>24.200000762939</ele>
        <time>2019-11-17T09:03:51.000Z</time>
      </trkpt>
      <trkpt lat="47.23484" lon="-2.2984">
        <ele>23.799999237061</ele>
        <time>2019-11-17T09:03:52.000Z</time>
      </trkpt>
      <trkpt lat="47.23482" lon="-2.29841">
        <ele>23.799999237061</ele>
        <time>2019-11-17T09:03:54.000Z</time>
      </trkpt>
      <trkpt lat="47.23482" lon="-2.29841">
        <ele>23.799999237061</ele>
        <time>2019-11-17T09:03:57.000Z</time>
      </trkpt>
      <trkpt lat="47.23477" lon="-2.2984">
        <ele>23.799999237061</ele>
        <time>2019-11-17T09:04:08.000Z</time>
      </trkpt>
      <trkpt lat="47.23475" lon="-2.29837">
        <ele>23.799999237061</ele>
        <time>2019-11-17T09:04:09.000Z</time>
      </trkpt>
      <trkpt lat="47.2347" lon="-2.29812">
        <ele>23.799999237061</ele>
        <time>2019-11-17T09:04:15.000Z</time>
      </trkpt>
      <trkpt lat="47.23476" lon="-2.29797">
        <ele>23.799999237061</ele>
        <time>2019-11-17T09:04:19.000Z</time>
      </trkpt>
      <trkpt lat="47.23486" lon="-2.29777">
        <ele>23.799999237061</ele>
        <time>2019-11-17T09:04:24.000Z</time>
      </trkpt>
      <trkpt lat="47.23488" lon="-2.29766">
        <ele>23.799999237061</ele>
        <time>2019-11-17T09:04:26.000Z</time>
      </trkpt>
      <trkpt lat="47.23489" lon="-2.29755">
        <ele>23.799999237061</ele>
        <time>2019-11-17T09:04:28.000Z</time>
      </trkpt>
      <trkpt lat="47.23491" lon="-2.29749">
        <ele>22.799999237061</ele>
        <time>2019-11-17T09:04:29.000Z</time>
      </trkpt>
      <trkpt lat="47.23494" lon="-2.29744">
        <ele>22.39999961853</ele>
        <time>2019-11-17T09:04:30.000Z</time>
      </trkpt>
      <trkpt lat="47.23498" lon="-2.29739">
        <ele>22</ele>
        <time>2019-11-17T09:04:31.000Z</time>
      </trkpt>
      <trkpt lat="47.23502" lon="-2.29734">
        <ele>21.60000038147</ele>
        <time>2019-11-17T09:04:32.000Z</time>
      </trkpt>
      <trkpt lat="47.23512" lon="-2.29712">
        <ele>21.60000038147</ele>
        <time>2019-11-17T09:04:36.000Z</time>
      </trkpt>
      <trkpt lat="47.23513" lon="-2.297">
        <ele>21.200000762939</ele>
        <time>2019-11-17T09:04:38.000Z</time>
      </trkpt>
      <trkpt lat="47.23513" lon="-2.29694">
        <ele>20.799999237061</ele>
        <time>2019-11-17T09:04:39.000Z</time>
      </trkpt>
      <trkpt lat="47.23512" lon="-2.29689">
        <ele>20.39999961853</ele>
        <time>2019-11-17T09:04:40.000Z</time>
      </trkpt>
      <trkpt lat="47.23512" lon="-2.29684">
        <ele>20</ele>
        <time>2019-11-17T09:04:41.000Z</time>
      </trkpt>
      <trkpt lat="47.23511" lon="-2.2968">
        <ele>19.60000038147</ele>
        <time>2019-11-17T09:04:42.000Z</time>
      </trkpt>
      <trkpt lat="47.2351" lon="-2.29672">
        <ele>19.60000038147</ele>
        <time>2019-11-17T09:04:45.000Z</time>
      </trkpt>
      <trkpt lat="47.23507" lon="-2.29661">
        <ele>19.60000038147</ele>
        <time>2019-11-17T09:04:49.000Z</time>
      </trkpt>
      <trkpt lat="47.23502" lon="-2.29641">
        <ele>19.60000038147</ele>
        <time>2019-11-17T09:04:53.000Z</time>
      </trkpt>
      <trkpt lat="47.23501" lon="-2.29636">
        <ele>19</ele>
        <time>2019-11-17T09:04:54.000Z</time>
      </trkpt>
      <trkpt lat="47.235" lon="-2.29631">
        <ele>18.60000038147</ele>
        <time>2019-11-17T09:04:55.000Z</time>
      </trkpt>
      <trkpt lat="47.235" lon="-2.29626">
        <ele>18.200000762939</ele>
        <time>2019-11-17T09:04:56.000Z</time>
      </trkpt>
      <trkpt lat="47.235" lon="-2.2962">
        <ele>17.799999237061</ele>
        <time>2019-11-17T09:04:57.000Z</time>
      </trkpt>
      <trkpt lat="47.23502" lon="-2.29615">
        <ele>17.39999961853</ele>
        <time>2019-11-17T09:04:58.000Z</time>
      </trkpt>
      <trkpt lat="47.23513" lon="-2.296">
        <ele>17.39999961853</ele>
        <time>2019-11-17T09:05:02.000Z</time>
      </trkpt>
      <trkpt lat="47.23518" lon="-2.29598">
        <ele>17.39999961853</ele>
        <time>2019-11-17T09:05:03.000Z</time>
      </trkpt>
      <trkpt lat="47.23522" lon="-2.29596">
        <ele>17.39999961853</ele>
        <time>2019-11-17T09:05:04.000Z</time>
      </trkpt>
      <trkpt lat="47.23541" lon="-2.2959">
        <ele>17.39999961853</ele>
        <time>2019-11-17T09:05:08.000Z</time>
      </trkpt>
      <trkpt lat="47.23552" lon="-2.29597">
        <ele>17.39999961853</ele>
        <time>2019-11-17T09:05:11.000Z</time>
      </trkpt>
      <trkpt lat="47.23555" lon="-2.29599">
        <ele>17.39999961853</ele>
        <time>2019-11-17T09:05:12.000Z</time>
      </trkpt>
      <trkpt lat="47.23567" lon="-2.29606">
        <ele>17.39999961853</ele>
        <time>2019-11-17T09:05:16.000Z</time>
      </trkpt>
      <trkpt lat="47.23579" lon="-2.29605">
        <ele>17.799999237061</ele>
        <time>2019-11-17T09:05:20.000Z</time>
      </trkpt>
      <trkpt lat="47.23581" lon="-2.29601">
        <ele>18.200000762939</ele>
        <time>2019-11-17T09:05:21.000Z</time>
      </trkpt>
      <trkpt lat="47.23581" lon="-2.29596">
        <ele>18.799999237061</ele>
        <time>2019-11-17T09:05:22.000Z</time>
      </trkpt>
      <trkpt lat="47.23582" lon="-2.2959">
        <ele>19.200000762939</ele>
        <time>2019-11-17T09:05:23.000Z</time>
      </trkpt>
      <trkpt lat="47.23583" lon="-2.29584">
        <ele>19.60000038147</ele>
        <time>2019-11-17T09:05:24.000Z</time>
      </trkpt>
      <trkpt lat="47.23583" lon="-2.29577">
        <ele>19.60000038147</ele>
        <time>2019-11-17T09:05:25.000Z</time>
      </trkpt>
      <trkpt lat="47.23584" lon="-2.29561">
        <ele>19.60000038147</ele>
        <time>2019-11-17T09:05:27.000Z</time>
      </trkpt>
      <trkpt lat="47.23586" lon="-2.29515">
        <ele>19.60000038147</ele>
        <time>2019-11-17T09:05:33.000Z</time>
      </trkpt>
      <trkpt lat="47.23588" lon="-2.29485">
        <ele>20</ele>
        <time>2019-11-17T09:05:37.000Z</time>
      </trkpt>
      <trkpt lat="47.23588" lon="-2.29478">
        <ele>20.39999961853</ele>
        <time>2019-11-17T09:05:38.000Z</time>
      </trkpt>
      <trkpt lat="47.23588" lon="-2.2947">
        <ele>21</ele>
        <time>2019-11-17T09:05:39.000Z</time>
      </trkpt>
      <trkpt lat="47.23589" lon="-2.29463">
        <ele>21.39999961853</ele>
        <time>2019-11-17T09:05:40.000Z</time>
      </trkpt>
      <trkpt lat="47.23589" lon="-2.29456">
        <ele>21.799999237061</ele>
        <time>2019-11-17T09:05:41.000Z</time>
      </trkpt>
      <trkpt lat="47.2359" lon="-2.29413">
        <ele>21.799999237061</ele>
        <time>2019-11-17T09:05:47.000Z</time>
      </trkpt>
      <trkpt lat="47.23589" lon="-2.29382">
        <ele>21.799999237061</ele>
        <time>2019-11-17T09:05:51.000Z</time>
      </trkpt>
      <trkpt lat="47.23589" lon="-2.29374">
        <ele>21.799999237061</ele>
        <time>2019-11-17T09:05:52.000Z</time>
      </trkpt>
      <trkpt lat="47.23586" lon="-2.29329">
        <ele>21.799999237061</ele>
        <time>2019-11-17T09:05:57.000Z</time>
      </trkpt>
      <trkpt lat="47.23584" lon="-2.29273">
        <ele>21.799999237061</ele>
        <time>2019-11-17T09:06:02.000Z</time>
      </trkpt>
      <trkpt lat="47.23585" lon="-2.29263">
        <ele>21.799999237061</ele>
        <time>2019-11-17T09:06:03.000Z</time>
      </trkpt>
      <trkpt lat="47.23589" lon="-2.29239">
        <ele>21.799999237061</ele>
        <time>2019-11-17T09:06:06.000Z</time>
      </trkpt>
      <trkpt lat="47.23601" lon="-2.29219">
        <ele>21.799999237061</ele>
        <time>2019-11-17T09:06:10.000Z</time>
      </trkpt>
      <trkpt lat="47.23615" lon="-2.29214">
        <ele>22.200000762939</ele>
        <time>2019-11-17T09:06:13.000Z</time>
      </trkpt>
      <trkpt lat="47.2362" lon="-2.29212">
        <ele>22.60000038147</ele>
        <time>2019-11-17T09:06:14.000Z</time>
      </trkpt>
      <trkpt lat="47.23625" lon="-2.29211">
        <ele>23</ele>
        <time>2019-11-17T09:06:15.000Z</time>
      </trkpt>
      <trkpt lat="47.23631" lon="-2.29209">
        <ele>23.39999961853</ele>
        <time>2019-11-17T09:06:16.000Z</time>
      </trkpt>
      <trkpt lat="47.23637" lon="-2.29207">
        <ele>23.799999237061</ele>
        <time>2019-11-17T09:06:17.000Z</time>
      </trkpt>
      <trkpt lat="47.23653" lon="-2.29201">
        <ele>23.799999237061</ele>
        <time>2019-11-17T09:06:20.000Z</time>
      </trkpt>
      <trkpt lat="47.23664" lon="-2.29198">
        <ele>24.200000762939</ele>
        <time>2019-11-17T09:06:22.000Z</time>
      </trkpt>
      <trkpt lat="47.23669" lon="-2.29196">
        <ele>24.60000038147</ele>
        <time>2019-11-17T09:06:23.000Z</time>
      </trkpt>
      <trkpt lat="47.23675" lon="-2.29195">
        <ele>25</ele>
        <time>2019-11-17T09:06:24.000Z</time>
      </trkpt>
      <trkpt lat="47.2368" lon="-2.29192">
        <ele>25.60000038147</ele>
        <time>2019-11-17T09:06:25.000Z</time>
      </trkpt>
      <trkpt lat="47.23686" lon="-2.29189">
        <ele>26</ele>
        <time>2019-11-17T09:06:26.000Z</time>
      </trkpt>
      <trkpt lat="47.23713" lon="-2.2918">
        <ele>26</ele>
        <time>2019-11-17T09:06:31.000Z</time>
      </trkpt>
      <trkpt lat="47.23728" lon="-2.29174">
        <ele>26.39999961853</ele>
        <time>2019-11-17T09:06:34.000Z</time>
      </trkpt>
      <trkpt lat="47.23732" lon="-2.29171">
        <ele>26.799999237061</ele>
        <time>2019-11-17T09:06:35.000Z</time>
      </trkpt>
      <trkpt lat="47.23737" lon="-2.29168">
        <ele>27.200000762939</ele>
        <time>2019-11-17T09:06:36.000Z</time>
      </trkpt>
      <trkpt lat="47.23742" lon="-2.29166">
        <ele>27.60000038147</ele>
        <time>2019-11-17T09:06:37.000Z</time>
      </trkpt>
      <trkpt lat="47.23746" lon="-2.29164">
        <ele>28</ele>
        <time>2019-11-17T09:06:38.000Z</time>
      </trkpt>
      <trkpt lat="47.23762" lon="-2.29155">
        <ele>28</ele>
        <time>2019-11-17T09:06:42.000Z</time>
      </trkpt>
      <trkpt lat="47.23771" lon="-2.29148">
        <ele>28</ele>
        <time>2019-11-17T09:06:44.000Z</time>
      </trkpt>
      <trkpt lat="47.23782" lon="-2.2913">
        <ele>28</ele>
        <time>2019-11-17T09:06:47.000Z</time>
      </trkpt>
      <trkpt lat="47.23785" lon="-2.29123">
        <ele>28.39999961853</ele>
        <time>2019-11-17T09:06:48.000Z</time>
      </trkpt>
      <trkpt lat="47.23787" lon="-2.29116">
        <ele>28.799999237061</ele>
        <time>2019-11-17T09:06:49.000Z</time>
      </trkpt>
      <trkpt lat="47.23788" lon="-2.29108">
        <ele>29.200000762939</ele>
        <time>2019-11-17T09:06:50.000Z</time>
      </trkpt>
      <trkpt lat="47.2379" lon="-2.291">
        <ele>29.60000038147</ele>
        <time>2019-11-17T09:06:51.000Z</time>
      </trkpt>
      <trkpt lat="47.23791" lon="-2.29091">
        <ele>30.200000762939</ele>
        <time>2019-11-17T09:06:52.000Z</time>
      </trkpt>
      <trkpt lat="47.23792" lon="-2.29083">
        <ele>30.200000762939</ele>
        <time>2019-11-17T09:06:53.000Z</time>
      </trkpt>
      <trkpt lat="47.23795" lon="-2.29057">
        <ele>30.200000762939</ele>
        <time>2019-11-17T09:06:56.000Z</time>
      </trkpt>
      <trkpt lat="47.23804" lon="-2.28989">
        <ele>30.200000762939</ele>
        <time>2019-11-17T09:07:03.000Z</time>
      </trkpt>
      <trkpt lat="47.23806" lon="-2.2898">
        <ele>30.200000762939</ele>
        <time>2019-11-17T09:07:04.000Z</time>
      </trkpt>
      <trkpt lat="47.2381" lon="-2.28974">
        <ele>29.60000038147</ele>
        <time>2019-11-17T09:07:05.000Z</time>
      </trkpt>
      <trkpt lat="47.23816" lon="-2.2897">
        <ele>29.200000762939</ele>
        <time>2019-11-17T09:07:06.000Z</time>
      </trkpt>
      <trkpt lat="47.23822" lon="-2.28968">
        <ele>28.799999237061</ele>
        <time>2019-11-17T09:07:07.000Z</time>
      </trkpt>
      <trkpt lat="47.23827" lon="-2.28965">
        <ele>28.39999961853</ele>
        <time>2019-11-17T09:07:08.000Z</time>
      </trkpt>
      <trkpt lat="47.23834" lon="-2.28963">
        <ele>27.799999237061</ele>
        <time>2019-11-17T09:07:09.000Z</time>
      </trkpt>
      <trkpt lat="47.23839" lon="-2.2896">
        <ele>27.799999237061</ele>
        <time>2019-11-17T09:07:10.000Z</time>
      </trkpt>
      <trkpt lat="47.23871" lon="-2.28943">
        <ele>27.799999237061</ele>
        <time>2019-11-17T09:07:16.000Z</time>
      </trkpt>
      <trkpt lat="47.23901" lon="-2.28929">
        <ele>27.799999237061</ele>
        <time>2019-11-17T09:07:21.000Z</time>
      </trkpt>
      <trkpt lat="47.23947" lon="-2.28909">
        <ele>27.799999237061</ele>
        <time>2019-11-17T09:07:28.000Z</time>
      </trkpt>
      <trkpt lat="47.23983" lon="-2.28891">
        <ele>27.39999961853</ele>
        <time>2019-11-17T09:07:33.000Z</time>
      </trkpt>
      <trkpt lat="47.2399" lon="-2.28887">
        <ele>27</ele>
        <time>2019-11-17T09:07:34.000Z</time>
      </trkpt>
      <trkpt lat="47.23998" lon="-2.28882">
        <ele>26.39999961853</ele>
        <time>2019-11-17T09:07:35.000Z</time>
      </trkpt>
      <trkpt lat="47.24006" lon="-2.28878">
        <ele>26</ele>
        <time>2019-11-17T09:07:36.000Z</time>
      </trkpt>
      <trkpt lat="47.24014" lon="-2.28874">
        <ele>25.60000038147</ele>
        <time>2019-11-17T09:07:37.000Z</time>
      </trkpt>
      <trkpt lat="47.24021" lon="-2.28869">
        <ele>25.200000762939</ele>
        <time>2019-11-17T09:07:38.000Z</time>
      </trkpt>
      <trkpt lat="47.2403" lon="-2.28865">
        <ele>24.799999237061</ele>
        <time>2019-11-17T09:07:39.000Z</time>
      </trkpt>
      <trkpt lat="47.24038" lon="-2.28861">
        <ele>24.39999961853</ele>
        <time>2019-11-17T09:07:40.000Z</time>
      </trkpt>
      <trkpt lat="47.24046" lon="-2.28856">
        <ele>23.799999237061</ele>
        <time>2019-11-17T09:07:41.000Z</time>
      </trkpt>
      <trkpt lat="47.24053" lon="-2.28852">
        <ele>23.39999961853</ele>
        <time>2019-11-17T09:07:42.000Z</time>
      </trkpt>
      <trkpt lat="47.24068" lon="-2.28843">
        <ele>23.39999961853</ele>
        <time>2019-11-17T09:07:44.000Z</time>
      </trkpt>
      <trkpt lat="47.24083" lon="-2.28834">
        <ele>22.60000038147</ele>
        <time>2019-11-17T09:07:46.000Z</time>
      </trkpt>
      <trkpt lat="47.2409" lon="-2.2883">
        <ele>22.200000762939</ele>
        <time>2019-11-17T09:07:47.000Z</time>
      </trkpt>
      <trkpt lat="47.24097" lon="-2.28824">
        <ele>21.60000038147</ele>
        <time>2019-11-17T09:07:48.000Z</time>
      </trkpt>
      <trkpt lat="47.24103" lon="-2.28819">
        <ele>21.200000762939</ele>
        <time>2019-11-17T09:07:49.000Z</time>
      </trkpt>
      <trkpt lat="47.24133" lon="-2.28788">
        <ele>21.200000762939</ele>
        <time>2019-11-17T09:07:54.000Z</time>
      </trkpt>
      <trkpt lat="47.24139" lon="-2.28782">
        <ele>21.200000762939</ele>
        <time>2019-11-17T09:07:55.000Z</time>
      </trkpt>
      <trkpt lat="47.2416" lon="-2.28757">
        <ele>21.200000762939</ele>
        <time>2019-11-17T09:07:59.000Z</time>
      </trkpt>
      <trkpt lat="47.24178" lon="-2.28736">
        <ele>20.799999237061</ele>
        <time>2019-11-17T09:08:03.000Z</time>
      </trkpt>
      <trkpt lat="47.24182" lon="-2.28731">
        <ele>20.39999961853</ele>
        <time>2019-11-17T09:08:04.000Z</time>
      </trkpt>
      <trkpt lat="47.24186" lon="-2.28726">
        <ele>19.799999237061</ele>
        <time>2019-11-17T09:08:05.000Z</time>
      </trkpt>
      <trkpt lat="47.2419" lon="-2.28721">
        <ele>19.39999961853</ele>
        <time>2019-11-17T09:08:06.000Z</time>
      </trkpt>
      <trkpt lat="47.24194" lon="-2.28716">
        <ele>19</ele>
        <time>2019-11-17T09:08:07.000Z</time>
      </trkpt>
      <trkpt lat="47.24205" lon="-2.28701">
        <ele>19</ele>
        <time>2019-11-17T09:08:10.000Z</time>
      </trkpt>
      <trkpt lat="47.24226" lon="-2.28679">
        <ele>19</ele>
        <time>2019-11-17T09:08:15.000Z</time>
      </trkpt>
      <trkpt lat="47.24244" lon="-2.28677">
        <ele>19</ele>
        <time>2019-11-17T09:08:18.000Z</time>
      </trkpt>
      <trkpt lat="47.24278" lon="-2.28674">
        <ele>19</ele>
        <time>2019-11-17T09:08:24.000Z</time>
      </trkpt>
      <trkpt lat="47.24283" lon="-2.28673">
        <ele>19</ele>
        <time>2019-11-17T09:08:25.000Z</time>
      </trkpt>
      <trkpt lat="47.24288" lon="-2.28672">
        <ele>19.39999961853</ele>
        <time>2019-11-17T09:08:26.000Z</time>
      </trkpt>
      <trkpt lat="47.24292" lon="-2.2867">
        <ele>19.799999237061</ele>
        <time>2019-11-17T09:08:27.000Z</time>
      </trkpt>
      <trkpt lat="47.24297" lon="-2.28668">
        <ele>20.200000762939</ele>
        <time>2019-11-17T09:08:28.000Z</time>
      </trkpt>
      <trkpt lat="47.24302" lon="-2.28666">
        <ele>20.60000038147</ele>
        <time>2019-11-17T09:08:29.000Z</time>
      </trkpt>
      <trkpt lat="47.24307" lon="-2.28665">
        <ele>21</ele>
        <time>2019-11-17T09:08:30.000Z</time>
      </trkpt>
      <trkpt lat="47.24313" lon="-2.28662">
        <ele>21</ele>
        <time>2019-11-17T09:08:31.000Z</time>
      </trkpt>
      <trkpt lat="47.24327" lon="-2.28654">
        <ele>21</ele>
        <time>2019-11-17T09:08:34.000Z</time>
      </trkpt>
      <trkpt lat="47.24332" lon="-2.28652">
        <ele>21.39999961853</ele>
        <time>2019-11-17T09:08:35.000Z</time>
      </trkpt>
      <trkpt lat="47.24337" lon="-2.28651">
        <ele>21.799999237061</ele>
        <time>2019-11-17T09:08:36.000Z</time>
      </trkpt>
      <trkpt lat="47.24341" lon="-2.28648">
        <ele>22.200000762939</ele>
        <time>2019-11-17T09:08:37.000Z</time>
      </trkpt>
      <trkpt lat="47.24345" lon="-2.28645">
        <ele>22.799999237061</ele>
        <time>2019-11-17T09:08:38.000Z</time>
      </trkpt>
      <trkpt lat="47.24348" lon="-2.28643">
        <ele>23.200000762939</ele>
        <time>2019-11-17T09:08:39.000Z</time>
      </trkpt>
      <trkpt lat="47.24355" lon="-2.28638">
        <ele>23.200000762939</ele>
        <time>2019-11-17T09:08:41.000Z</time>
      </trkpt>
      <trkpt lat="47.24367" lon="-2.2863">
        <ele>23.200000762939</ele>
        <time>2019-11-17T09:08:44.000Z</time>
      </trkpt>
      <trkpt lat="47.24384" lon="-2.28622">
        <ele>23.60000038147</ele>
        <time>2019-11-17T09:08:48.000Z</time>
      </trkpt>
      <trkpt lat="47.24388" lon="-2.2862">
        <ele>24</ele>
        <time>2019-11-17T09:08:49.000Z</time>
      </trkpt>
      <trkpt lat="47.24392" lon="-2.28618">
        <ele>24.39999961853</ele>
        <time>2019-11-17T09:08:50.000Z</time>
      </trkpt>
      <trkpt lat="47.24396" lon="-2.28616">
        <ele>24.799999237061</ele>
        <time>2019-11-17T09:08:51.000Z</time>
      </trkpt>
      <trkpt lat="47.244" lon="-2.28614">
        <ele>25.200000762939</ele>
        <time>2019-11-17T09:08:52.000Z</time>
      </trkpt>
      <trkpt lat="47.24414" lon="-2.28607">
        <ele>25.200000762939</ele>
        <time>2019-11-17T09:08:56.000Z</time>
      </trkpt>
      <trkpt lat="47.24425" lon="-2.28602">
        <ele>25.60000038147</ele>
        <time>2019-11-17T09:08:59.000Z</time>
      </trkpt>
      <trkpt lat="47.24429" lon="-2.286">
        <ele>26.39999961853</ele>
        <time>2019-11-17T09:09:00.000Z</time>
      </trkpt>
      <trkpt lat="47.24434" lon="-2.28598">
        <ele>26.799999237061</ele>
        <time>2019-11-17T09:09:01.000Z</time>
      </trkpt>
      <trkpt lat="47.24439" lon="-2.28596">
        <ele>27.200000762939</ele>
        <time>2019-11-17T09:09:02.000Z</time>
      </trkpt>
      <trkpt lat="47.24453" lon="-2.28591">
        <ele>27.200000762939</ele>
        <time>2019-11-17T09:09:05.000Z</time>
      </trkpt>
      <trkpt lat="47.24463" lon="-2.28594">
        <ele>27.200000762939</ele>
        <time>2019-11-17T09:09:07.000Z</time>
      </trkpt>
      <trkpt lat="47.24481" lon="-2.28611">
        <ele>27.200000762939</ele>
        <time>2019-11-17T09:09:11.000Z</time>
      </trkpt>
      <trkpt lat="47.24489" lon="-2.28622">
        <ele>27.200000762939</ele>
        <time>2019-11-17T09:09:13.000Z</time>
      </trkpt>
      <trkpt lat="47.24502" lon="-2.28637">
        <ele>27.200000762939</ele>
        <time>2019-11-17T09:09:16.000Z</time>
      </trkpt>
      <trkpt lat="47.24506" lon="-2.28641">
        <ele>27.60000038147</ele>
        <time>2019-11-17T09:09:17.000Z</time>
      </trkpt>
      <trkpt lat="47.24511" lon="-2.28644">
        <ele>28</ele>
        <time>2019-11-17T09:09:18.000Z</time>
      </trkpt>
      <trkpt lat="47.24516" lon="-2.28645">
        <ele>28.39999961853</ele>
        <time>2019-11-17T09:09:19.000Z</time>
      </trkpt>
      <trkpt lat="47.24521" lon="-2.28644">
        <ele>28.799999237061</ele>
        <time>2019-11-17T09:09:20.000Z</time>
      </trkpt>
      <trkpt lat="47.24525" lon="-2.28643">
        <ele>29.200000762939</ele>
        <time>2019-11-17T09:09:21.000Z</time>
      </trkpt>
      <trkpt lat="47.24539" lon="-2.28635">
        <ele>29.200000762939</ele>
        <time>2019-11-17T09:09:24.000Z</time>
      </trkpt>
      <trkpt lat="47.24542" lon="-2.28631">
        <ele>29.200000762939</ele>
        <time>2019-11-17T09:09:25.000Z</time>
      </trkpt>
      <trkpt lat="47.24548" lon="-2.28616">
        <ele>29.200000762939</ele>
        <time>2019-11-17T09:09:28.000Z</time>
      </trkpt>
      <trkpt lat="47.24553" lon="-2.28606">
        <ele>29.60000038147</ele>
        <time>2019-11-17T09:09:30.000Z</time>
      </trkpt>
      <trkpt lat="47.24557" lon="-2.28602">
        <ele>30</ele>
        <time>2019-11-17T09:09:31.000Z</time>
      </trkpt>
      <trkpt lat="47.24561" lon="-2.286">
        <ele>30.39999961853</ele>
        <time>2019-11-17T09:09:32.000Z</time>
      </trkpt>
      <trkpt lat="47.24566" lon="-2.28597">
        <ele>30.799999237061</ele>
        <time>2019-11-17T09:09:33.000Z</time>
      </trkpt>
      <trkpt lat="47.2457" lon="-2.28595">
        <ele>31.200000762939</ele>
        <time>2019-11-17T09:09:34.000Z</time>
      </trkpt>
      <trkpt lat="47.24575" lon="-2.28592">
        <ele>31.200000762939</ele>
        <time>2019-11-17T09:09:35.000Z</time>
      </trkpt>
      <trkpt lat="47.24583" lon="-2.28585">
        <ele>31.200000762939</ele>
        <time>2019-11-17T09:09:37.000Z</time>
      </trkpt>
      <trkpt lat="47.24612" lon="-2.28563">
        <ele>31.200000762939</ele>
        <time>2019-11-17T09:09:44.000Z</time>
      </trkpt>
      <trkpt lat="47.24637" lon="-2.28543">
        <ele>31.200000762939</ele>
        <time>2019-11-17T09:09:50.000Z</time>
      </trkpt>
      <trkpt lat="47.24641" lon="-2.2854">
        <ele>31.60000038147</ele>
        <time>2019-11-17T09:09:51.000Z</time>
      </trkpt>
      <trkpt lat="47.24645" lon="-2.28537">
        <ele>32.200000762939</ele>
        <time>2019-11-17T09:09:52.000Z</time>
      </trkpt>
      <trkpt lat="47.24649" lon="-2.28535">
        <ele>32.599998474121</ele>
        <time>2019-11-17T09:09:53.000Z</time>
      </trkpt>
      <trkpt lat="47.24653" lon="-2.28534">
        <ele>33</ele>
        <time>2019-11-17T09:09:54.000Z</time>
      </trkpt>
      <trkpt lat="47.24657" lon="-2.28533">
        <ele>33.400001525879</ele>
        <time>2019-11-17T09:09:55.000Z</time>
      </trkpt>
      <trkpt lat="47.24662" lon="-2.28533">
        <ele>33.400001525879</ele>
        <time>2019-11-17T09:09:56.000Z</time>
      </trkpt>
      <trkpt lat="47.2468" lon="-2.28539">
        <ele>33.400001525879</ele>
        <time>2019-11-17T09:10:00.000Z</time>
      </trkpt>
      <trkpt lat="47.24684" lon="-2.28543">
        <ele>33.400001525879</ele>
        <time>2019-11-17T09:10:01.000Z</time>
      </trkpt>
      <trkpt lat="47.24712" lon="-2.28565">
        <ele>33.400001525879</ele>
        <time>2019-11-17T09:10:07.000Z</time>
      </trkpt>
      <trkpt lat="47.24721" lon="-2.28571">
        <ele>33.799999237061</ele>
        <time>2019-11-17T09:10:09.000Z</time>
      </trkpt>
      <trkpt lat="47.24726" lon="-2.28574">
        <ele>34.200000762939</ele>
        <time>2019-11-17T09:10:10.000Z</time>
      </trkpt>
      <trkpt lat="47.2473" lon="-2.28576">
        <ele>34.799999237061</ele>
        <time>2019-11-17T09:10:11.000Z</time>
      </trkpt>
      <trkpt lat="47.24735" lon="-2.28577">
        <ele>35.200000762939</ele>
        <time>2019-11-17T09:10:12.000Z</time>
      </trkpt>
      <trkpt lat="47.2474" lon="-2.28575">
        <ele>35.599998474121</ele>
        <time>2019-11-17T09:10:13.000Z</time>
      </trkpt>
      <trkpt lat="47.24748" lon="-2.28567">
        <ele>35.599998474121</ele>
        <time>2019-11-17T09:10:15.000Z</time>
      </trkpt>
      <trkpt lat="47.24765" lon="-2.28547">
        <ele>35.599998474121</ele>
        <time>2019-11-17T09:10:19.000Z</time>
      </trkpt>
      <trkpt lat="47.2477" lon="-2.28542">
        <ele>35.599998474121</ele>
        <time>2019-11-17T09:10:20.000Z</time>
      </trkpt>
      <trkpt lat="47.24798" lon="-2.28516">
        <ele>35.599998474121</ele>
        <time>2019-11-17T09:10:26.000Z</time>
      </trkpt>
      <trkpt lat="47.24825" lon="-2.28497">
        <ele>35.599998474121</ele>
        <time>2019-11-17T09:10:31.000Z</time>
      </trkpt>
      <trkpt lat="47.24857" lon="-2.2847">
        <ele>35.599998474121</ele>
        <time>2019-11-17T09:10:37.000Z</time>
      </trkpt>
      <trkpt lat="47.24882" lon="-2.2844">
        <ele>35.599998474121</ele>
        <time>2019-11-17T09:10:42.000Z</time>
      </trkpt>
      <trkpt lat="47.249" lon="-2.28426">
        <ele>35.599998474121</ele>
        <time>2019-11-17T09:10:45.000Z</time>
      </trkpt>
      <trkpt lat="47.24914" lon="-2.2842">
        <ele>35.599998474121</ele>
        <time>2019-11-17T09:10:47.000Z</time>
      </trkpt>
      <trkpt lat="47.2492" lon="-2.28418">
        <ele>35</ele>
        <time>2019-11-17T09:10:48.000Z</time>
      </trkpt>
      <trkpt lat="47.24927" lon="-2.28415">
        <ele>34.599998474121</ele>
        <time>2019-11-17T09:10:49.000Z</time>
      </trkpt>
      <trkpt lat="47.24934" lon="-2.28413">
        <ele>34.200000762939</ele>
        <time>2019-11-17T09:10:50.000Z</time>
      </trkpt>
      <trkpt lat="47.2494" lon="-2.28411">
        <ele>33.599998474121</ele>
        <time>2019-11-17T09:10:51.000Z</time>
      </trkpt>
      <trkpt lat="47.24947" lon="-2.28408">
        <ele>33.200000762939</ele>
        <time>2019-11-17T09:10:52.000Z</time>
      </trkpt>
      <trkpt lat="47.24961" lon="-2.284">
        <ele>32.799999237061</ele>
        <time>2019-11-17T09:10:54.000Z</time>
      </trkpt>
      <trkpt lat="47.24969" lon="-2.28395">
        <ele>32.200000762939</ele>
        <time>2019-11-17T09:10:55.000Z</time>
      </trkpt>
      <trkpt lat="47.24975" lon="-2.28387">
        <ele>31.799999237061</ele>
        <time>2019-11-17T09:10:56.000Z</time>
      </trkpt>
      <trkpt lat="47.24981" lon="-2.28379">
        <ele>31.39999961853</ele>
        <time>2019-11-17T09:10:57.000Z</time>
      </trkpt>
      <trkpt lat="47.24986" lon="-2.28369">
        <ele>30.799999237061</ele>
        <time>2019-11-17T09:10:58.000Z</time>
      </trkpt>
      <trkpt lat="47.24991" lon="-2.28361">
        <ele>30.799999237061</ele>
        <time>2019-11-17T09:10:59.000Z</time>
      </trkpt>
      <trkpt lat="47.24999" lon="-2.28347">
        <ele>30.39999961853</ele>
        <time>2019-11-17T09:11:01.000Z</time>
      </trkpt>
      <trkpt lat="47.25004" lon="-2.28341">
        <ele>30</ele>
        <time>2019-11-17T09:11:02.000Z</time>
      </trkpt>
      <trkpt lat="47.2501" lon="-2.28335">
        <ele>29.39999961853</ele>
        <time>2019-11-17T09:11:03.000Z</time>
      </trkpt>
      <trkpt lat="47.25015" lon="-2.28331">
        <ele>29</ele>
        <time>2019-11-17T09:11:04.000Z</time>
      </trkpt>
      <trkpt lat="47.25021" lon="-2.28325">
        <ele>28.60000038147</ele>
        <time>2019-11-17T09:11:05.000Z</time>
      </trkpt>
      <trkpt lat="47.25024" lon="-2.28319">
        <ele>28.60000038147</ele>
        <time>2019-11-17T09:11:06.000Z</time>
      </trkpt>
      <trkpt lat="47.25026" lon="-2.28312">
        <ele>28.60000038147</ele>
        <time>2019-11-17T09:11:07.000Z</time>
      </trkpt>
      <trkpt lat="47.25026" lon="-2.28305">
        <ele>29</ele>
        <time>2019-11-17T09:11:08.000Z</time>
      </trkpt>
      <trkpt lat="47.25026" lon="-2.28298">
        <ele>29.39999961853</ele>
        <time>2019-11-17T09:11:09.000Z</time>
      </trkpt>
      <trkpt lat="47.25027" lon="-2.28289">
        <ele>29.799999237061</ele>
        <time>2019-11-17T09:11:10.000Z</time>
      </trkpt>
      <trkpt lat="47.25028" lon="-2.28281">
        <ele>30.200000762939</ele>
        <time>2019-11-17T09:11:11.000Z</time>
      </trkpt>
      <trkpt lat="47.25029" lon="-2.28273">
        <ele>30.60000038147</ele>
        <time>2019-11-17T09:11:12.000Z</time>
      </trkpt>
      <trkpt lat="47.25035" lon="-2.28238">
        <ele>31</ele>
        <time>2019-11-17T09:11:16.000Z</time>
      </trkpt>
      <trkpt lat="47.25038" lon="-2.28229">
        <ele>31.39999961853</ele>
        <time>2019-11-17T09:11:17.000Z</time>
      </trkpt>
      <trkpt lat="47.2504" lon="-2.28221">
        <ele>31.799999237061</ele>
        <time>2019-11-17T09:11:18.000Z</time>
      </trkpt>
      <trkpt lat="47.25042" lon="-2.28212">
        <ele>32.200000762939</ele>
        <time>2019-11-17T09:11:19.000Z</time>
      </trkpt>
      <trkpt lat="47.25044" lon="-2.28202">
        <ele>32.599998474121</ele>
        <time>2019-11-17T09:11:20.000Z</time>
      </trkpt>
      <trkpt lat="47.25054" lon="-2.28167">
        <ele>32.599998474121</ele>
        <time>2019-11-17T09:11:24.000Z</time>
      </trkpt>
      <trkpt lat="47.25069" lon="-2.28121">
        <ele>32.599998474121</ele>
        <time>2019-11-17T09:11:30.000Z</time>
      </trkpt>
      <trkpt lat="47.2507" lon="-2.28114">
        <ele>32.599998474121</ele>
        <time>2019-11-17T09:11:31.000Z</time>
      </trkpt>
      <trkpt lat="47.25074" lon="-2.28091">
        <ele>32.599998474121</ele>
        <time>2019-11-17T09:11:34.000Z</time>
      </trkpt>
      <trkpt lat="47.25076" lon="-2.28083">
        <ele>32.599998474121</ele>
        <time>2019-11-17T09:11:35.000Z</time>
      </trkpt>
      <trkpt lat="47.25085" lon="-2.28061">
        <ele>32.599998474121</ele>
        <time>2019-11-17T09:11:38.000Z</time>
      </trkpt>
      <trkpt lat="47.25098" lon="-2.28027">
        <ele>32.599998474121</ele>
        <time>2019-11-17T09:11:43.000Z</time>
      </trkpt>
      <trkpt lat="47.25117" lon="-2.27991">
        <ele>32.599998474121</ele>
        <time>2019-11-17T09:11:49.000Z</time>
      </trkpt>
      <trkpt lat="47.25131" lon="-2.2797">
        <ele>32.599998474121</ele>
        <time>2019-11-17T09:11:53.000Z</time>
      </trkpt>
      <trkpt lat="47.25138" lon="-2.27961">
        <ele>32.599998474121</ele>
        <time>2019-11-17T09:11:55.000Z</time>
      </trkpt>
      <trkpt lat="47.25143" lon="-2.27956">
        <ele>32.599998474121</ele>
        <time>2019-11-17T09:11:56.000Z</time>
      </trkpt>
      <trkpt lat="47.25157" lon="-2.27945">
        <ele>33</ele>
        <time>2019-11-17T09:11:59.000Z</time>
      </trkpt>
      <trkpt lat="47.25162" lon="-2.27942">
        <ele>33.400001525879</ele>
        <time>2019-11-17T09:12:00.000Z</time>
      </trkpt>
      <trkpt lat="47.25167" lon="-2.27939">
        <ele>34</ele>
        <time>2019-11-17T09:12:01.000Z</time>
      </trkpt>
      <trkpt lat="47.25171" lon="-2.27936">
        <ele>34.400001525879</ele>
        <time>2019-11-17T09:12:02.000Z</time>
      </trkpt>
      <trkpt lat="47.25176" lon="-2.27933">
        <ele>34.799999237061</ele>
        <time>2019-11-17T09:12:03.000Z</time>
      </trkpt>
      <trkpt lat="47.25185" lon="-2.27926">
        <ele>34.799999237061</ele>
        <time>2019-11-17T09:12:05.000Z</time>
      </trkpt>
      <trkpt lat="47.25209" lon="-2.2791">
        <ele>34.799999237061</ele>
        <time>2019-11-17T09:12:10.000Z</time>
      </trkpt>
      <trkpt lat="47.2524" lon="-2.27892">
        <ele>34.799999237061</ele>
        <time>2019-11-17T09:12:16.000Z</time>
      </trkpt>
      <trkpt lat="47.25245" lon="-2.2789">
        <ele>34.799999237061</ele>
        <time>2019-11-17T09:12:17.000Z</time>
      </trkpt>
      <trkpt lat="47.25262" lon="-2.27883">
        <ele>35.200000762939</ele>
        <time>2019-11-17T09:12:20.000Z</time>
      </trkpt>
      <trkpt lat="47.25267" lon="-2.27881">
        <ele>35.599998474121</ele>
        <time>2019-11-17T09:12:21.000Z</time>
      </trkpt>
      <trkpt lat="47.25273" lon="-2.27879">
        <ele>36</ele>
        <time>2019-11-17T09:12:22.000Z</time>
      </trkpt>
      <trkpt lat="47.25279" lon="-2.27877">
        <ele>36.400001525879</ele>
        <time>2019-11-17T09:12:23.000Z</time>
      </trkpt>
      <trkpt lat="47.25285" lon="-2.27876">
        <ele>36.799999237061</ele>
        <time>2019-11-17T09:12:24.000Z</time>
      </trkpt>
      <trkpt lat="47.25308" lon="-2.27871">
        <ele>36.799999237061</ele>
        <time>2019-11-17T09:12:28.000Z</time>
      </trkpt>
      <trkpt lat="47.25348" lon="-2.27864">
        <ele>36.799999237061</ele>
        <time>2019-11-17T09:12:35.000Z</time>
      </trkpt>
      <trkpt lat="47.25353" lon="-2.27863">
        <ele>36.799999237061</ele>
        <time>2019-11-17T09:12:36.000Z</time>
      </trkpt>
      <trkpt lat="47.25359" lon="-2.27861">
        <ele>37.200000762939</ele>
        <time>2019-11-17T09:12:37.000Z</time>
      </trkpt>
      <trkpt lat="47.25364" lon="-2.27859">
        <ele>37.599998474121</ele>
        <time>2019-11-17T09:12:38.000Z</time>
      </trkpt>
      <trkpt lat="47.2537" lon="-2.27857">
        <ele>38</ele>
        <time>2019-11-17T09:12:39.000Z</time>
      </trkpt>
      <trkpt lat="47.25375" lon="-2.27856">
        <ele>38.599998474121</ele>
        <time>2019-11-17T09:12:40.000Z</time>
      </trkpt>
      <trkpt lat="47.25381" lon="-2.27854">
        <ele>39</ele>
        <time>2019-11-17T09:12:41.000Z</time>
      </trkpt>
      <trkpt lat="47.25392" lon="-2.27851">
        <ele>39</ele>
        <time>2019-11-17T09:12:43.000Z</time>
      </trkpt>
      <trkpt lat="47.25402" lon="-2.27846">
        <ele>39</ele>
        <time>2019-11-17T09:12:45.000Z</time>
      </trkpt>
      <trkpt lat="47.25407" lon="-2.27844">
        <ele>39</ele>
        <time>2019-11-17T09:12:46.000Z</time>
      </trkpt>
      <trkpt lat="47.25433" lon="-2.27825">
        <ele>39</ele>
        <time>2019-11-17T09:12:51.000Z</time>
      </trkpt>
      <trkpt lat="47.25439" lon="-2.2782">
        <ele>39</ele>
        <time>2019-11-17T09:12:52.000Z</time>
      </trkpt>
      <trkpt lat="47.25443" lon="-2.27815">
        <ele>39.400001525879</ele>
        <time>2019-11-17T09:12:53.000Z</time>
      </trkpt>
      <trkpt lat="47.25448" lon="-2.2781">
        <ele>39.799999237061</ele>
        <time>2019-11-17T09:12:54.000Z</time>
      </trkpt>
      <trkpt lat="47.25452" lon="-2.27805">
        <ele>40.200000762939</ele>
        <time>2019-11-17T09:12:55.000Z</time>
      </trkpt>
      <trkpt lat="47.25455" lon="-2.278">
        <ele>40.599998474121</ele>
        <time>2019-11-17T09:12:56.000Z</time>
      </trkpt>
      <trkpt lat="47.25459" lon="-2.27795">
        <ele>41</ele>
        <time>2019-11-17T09:12:57.000Z</time>
      </trkpt>
      <trkpt lat="47.25467" lon="-2.27786">
        <ele>41</ele>
        <time>2019-11-17T09:12:59.000Z</time>
      </trkpt>
      <trkpt lat="47.25475" lon="-2.27778">
        <ele>41</ele>
        <time>2019-11-17T09:13:01.000Z</time>
      </trkpt>
      <trkpt lat="47.25479" lon="-2.27773">
        <ele>41</ele>
        <time>2019-11-17T09:13:02.000Z</time>
      </trkpt>
      <trkpt lat="47.25495" lon="-2.27758">
        <ele>41</ele>
        <time>2019-11-17T09:13:06.000Z</time>
      </trkpt>
      <trkpt lat="47.25504" lon="-2.27759">
        <ele>41</ele>
        <time>2019-11-17T09:13:08.000Z</time>
      </trkpt>
      <trkpt lat="47.25511" lon="-2.27768">
        <ele>41.400001525879</ele>
        <time>2019-11-17T09:13:10.000Z</time>
      </trkpt>
      <trkpt lat="47.25515" lon="-2.27773">
        <ele>41.799999237061</ele>
        <time>2019-11-17T09:13:11.000Z</time>
      </trkpt>
      <trkpt lat="47.25518" lon="-2.27778">
        <ele>42.200000762939</ele>
        <time>2019-11-17T09:13:12.000Z</time>
      </trkpt>
      <trkpt lat="47.25522" lon="-2.27784">
        <ele>42.599998474121</ele>
        <time>2019-11-17T09:13:13.000Z</time>
      </trkpt>
      <trkpt lat="47.25525" lon="-2.27789">
        <ele>43</ele>
        <time>2019-11-17T09:13:14.000Z</time>
      </trkpt>
      <trkpt lat="47.2554" lon="-2.27812">
        <ele>43</ele>
        <time>2019-11-17T09:13:18.000Z</time>
      </trkpt>
      <trkpt lat="47.25561" lon="-2.27838">
        <ele>43</ele>
        <time>2019-11-17T09:13:23.000Z</time>
      </trkpt>
      <trkpt lat="47.25566" lon="-2.27843">
        <ele>43</ele>
        <time>2019-11-17T09:13:24.000Z</time>
      </trkpt>
      <trkpt lat="47.25583" lon="-2.27862">
        <ele>43.400001525879</ele>
        <time>2019-11-17T09:13:28.000Z</time>
      </trkpt>
      <trkpt lat="47.25587" lon="-2.27867">
        <ele>43.799999237061</ele>
        <time>2019-11-17T09:13:29.000Z</time>
      </trkpt>
      <trkpt lat="47.25591" lon="-2.27872">
        <ele>44.200000762939</ele>
        <time>2019-11-17T09:13:30.000Z</time>
      </trkpt>
      <trkpt lat="47.25596" lon="-2.27876">
        <ele>44.599998474121</ele>
        <time>2019-11-17T09:13:31.000Z</time>
      </trkpt>
      <trkpt lat="47.256" lon="-2.27881">
        <ele>45</ele>
        <time>2019-11-17T09:13:32.000Z</time>
      </trkpt>
      <trkpt lat="47.25628" lon="-2.27906">
        <ele>45</ele>
        <time>2019-11-17T09:13:39.000Z</time>
      </trkpt>
      <trkpt lat="47.25646" lon="-2.27923">
        <ele>45</ele>
        <time>2019-11-17T09:13:43.000Z</time>
      </trkpt>
      <trkpt lat="47.2565" lon="-2.27929">
        <ele>45</ele>
        <time>2019-11-17T09:13:44.000Z</time>
      </trkpt>
      <trkpt lat="47.25665" lon="-2.2796">
        <ele>45</ele>
        <time>2019-11-17T09:13:49.000Z</time>
      </trkpt>
      <trkpt lat="47.25676" lon="-2.27984">
        <ele>45</ele>
        <time>2019-11-17T09:13:53.000Z</time>
      </trkpt>
      <trkpt lat="47.2568" lon="-2.27986">
        <ele>45</ele>
        <time>2019-11-17T09:13:54.000Z</time>
      </trkpt>
      <trkpt lat="47.25688" lon="-2.27986">
        <ele>45.400001525879</ele>
        <time>2019-11-17T09:13:56.000Z</time>
      </trkpt>
      <trkpt lat="47.25691" lon="-2.27982">
        <ele>45.799999237061</ele>
        <time>2019-11-17T09:13:57.000Z</time>
      </trkpt>
      <trkpt lat="47.25694" lon="-2.27977">
        <ele>46.200000762939</ele>
        <time>2019-11-17T09:13:58.000Z</time>
      </trkpt>
      <trkpt lat="47.25697" lon="-2.27972">
        <ele>47</ele>
        <time>2019-11-17T09:13:59.000Z</time>
      </trkpt>
      <trkpt lat="47.25701" lon="-2.27968">
        <ele>47</ele>
        <time>2019-11-17T09:14:00.000Z</time>
      </trkpt>
      <trkpt lat="47.25708" lon="-2.27958">
        <ele>47</ele>
        <time>2019-11-17T09:14:02.000Z</time>
      </trkpt>
      <trkpt lat="47.25732" lon="-2.27926">
        <ele>47</ele>
        <time>2019-11-17T09:14:08.000Z</time>
      </trkpt>
      <trkpt lat="47.25768" lon="-2.27884">
        <ele>47</ele>
        <time>2019-11-17T09:14:16.000Z</time>
      </trkpt>
      <trkpt lat="47.25797" lon="-2.2785">
        <ele>47</ele>
        <time>2019-11-17T09:14:22.000Z</time>
      </trkpt>
      <trkpt lat="47.25824" lon="-2.27814">
        <ele>47</ele>
        <time>2019-11-17T09:14:28.000Z</time>
      </trkpt>
      <trkpt lat="47.25856" lon="-2.27768">
        <ele>47</ele>
        <time>2019-11-17T09:14:35.000Z</time>
      </trkpt>
      <trkpt lat="47.25858" lon="-2.27759">
        <ele>47</ele>
        <time>2019-11-17T09:14:36.000Z</time>
      </trkpt>
      <trkpt lat="47.25858" lon="-2.27733">
        <ele>47</ele>
        <time>2019-11-17T09:14:39.000Z</time>
      </trkpt>
      <trkpt lat="47.25863" lon="-2.27714">
        <ele>47</ele>
        <time>2019-11-17T09:14:42.000Z</time>
      </trkpt>
      <trkpt lat="47.25872" lon="-2.27713">
        <ele>47</ele>
        <time>2019-11-17T09:14:45.000Z</time>
      </trkpt>
      <trkpt lat="47.25873" lon="-2.27727">
        <ele>47</ele>
        <time>2019-11-17T09:14:48.000Z</time>
      </trkpt>
      <trkpt lat="47.25874" lon="-2.27731">
        <ele>47</ele>
        <time>2019-11-17T09:14:49.000Z</time>
      </trkpt>
      <trkpt lat="47.25877" lon="-2.27752">
        <ele>47</ele>
        <time>2019-11-17T09:14:54.000Z</time>
      </trkpt>
      <trkpt lat="47.25879" lon="-2.27755">
        <ele>47</ele>
        <time>2019-11-17T09:14:55.000Z</time>
      </trkpt>
      <trkpt lat="47.25892" lon="-2.27757">
        <ele>47</ele>
        <time>2019-11-17T09:15:00.000Z</time>
      </trkpt>
      <trkpt lat="47.25893" lon="-2.27742">
        <ele>47</ele>
        <time>2019-11-17T09:15:03.000Z</time>
      </trkpt>
      <trkpt lat="47.25892" lon="-2.2773">
        <ele>47</ele>
        <time>2019-11-17T09:15:05.000Z</time>
      </trkpt>
      <trkpt lat="47.2589" lon="-2.27704">
        <ele>47</ele>
        <time>2019-11-17T09:15:09.000Z</time>
      </trkpt>
      <trkpt lat="47.2589" lon="-2.27698">
        <ele>47</ele>
        <time>2019-11-17T09:15:10.000Z</time>
      </trkpt>
      <trkpt lat="47.25888" lon="-2.2767">
        <ele>47</ele>
        <time>2019-11-17T09:15:14.000Z</time>
      </trkpt>
      <trkpt lat="47.25894" lon="-2.27655">
        <ele>47</ele>
        <time>2019-11-17T09:15:17.000Z</time>
      </trkpt>
      <trkpt lat="47.259" lon="-2.27646">
        <ele>47</ele>
        <time>2019-11-17T09:15:19.000Z</time>
      </trkpt>
      <trkpt lat="47.25913" lon="-2.2763">
        <ele>47</ele>
        <time>2019-11-17T09:15:23.000Z</time>
      </trkpt>
      <trkpt lat="47.25935" lon="-2.27603">
        <ele>47</ele>
        <time>2019-11-17T09:15:29.000Z</time>
      </trkpt>
      <trkpt lat="47.2596" lon="-2.27579">
        <ele>46.599998474121</ele>
        <time>2019-11-17T09:15:35.000Z</time>
      </trkpt>
      <trkpt lat="47.25965" lon="-2.27576">
        <ele>46.200000762939</ele>
        <time>2019-11-17T09:15:36.000Z</time>
      </trkpt>
      <trkpt lat="47.25969" lon="-2.27572">
        <ele>45.400001525879</ele>
        <time>2019-11-17T09:15:37.000Z</time>
      </trkpt>
      <trkpt lat="47.25973" lon="-2.27568">
        <ele>45</ele>
        <time>2019-11-17T09:15:38.000Z</time>
      </trkpt>
      <trkpt lat="47.25982" lon="-2.27561">
        <ele>45</ele>
        <time>2019-11-17T09:15:40.000Z</time>
      </trkpt>
      <trkpt lat="47.25991" lon="-2.27554">
        <ele>45</ele>
        <time>2019-11-17T09:15:42.000Z</time>
      </trkpt>
      <trkpt lat="47.26002" lon="-2.27544">
        <ele>45</ele>
        <time>2019-11-17T09:15:45.000Z</time>
      </trkpt>
      <trkpt lat="47.26011" lon="-2.27525">
        <ele>45</ele>
        <time>2019-11-17T09:15:49.000Z</time>
      </trkpt>
      <trkpt lat="47.2602" lon="-2.27505">
        <ele>45</ele>
        <time>2019-11-17T09:15:53.000Z</time>
      </trkpt>
      <trkpt lat="47.26028" lon="-2.27483">
        <ele>45</ele>
        <time>2019-11-17T09:15:56.000Z</time>
      </trkpt>
      <trkpt lat="47.26033" lon="-2.27469">
        <ele>45</ele>
        <time>2019-11-17T09:15:58.000Z</time>
      </trkpt>
      <trkpt lat="47.26047" lon="-2.27437">
        <ele>45</ele>
        <time>2019-11-17T09:16:03.000Z</time>
      </trkpt>
      <trkpt lat="47.2607" lon="-2.27398">
        <ele>45</ele>
        <time>2019-11-17T09:16:08.000Z</time>
      </trkpt>
      <trkpt lat="47.26083" lon="-2.27381">
        <ele>44.599998474121</ele>
        <time>2019-11-17T09:16:11.000Z</time>
      </trkpt>
      <trkpt lat="47.26088" lon="-2.27374">
        <ele>44.200000762939</ele>
        <time>2019-11-17T09:16:12.000Z</time>
      </trkpt>
      <trkpt lat="47.26094" lon="-2.27368">
        <ele>43.799999237061</ele>
        <time>2019-11-17T09:16:13.000Z</time>
      </trkpt>
      <trkpt lat="47.26099" lon="-2.27362">
        <ele>43.400001525879</ele>
        <time>2019-11-17T09:16:14.000Z</time>
      </trkpt>
      <trkpt lat="47.26105" lon="-2.27355">
        <ele>43</ele>
        <time>2019-11-17T09:16:15.000Z</time>
      </trkpt>
      <trkpt lat="47.26116" lon="-2.27343">
        <ele>43</ele>
        <time>2019-11-17T09:16:17.000Z</time>
      </trkpt>
      <trkpt lat="47.26138" lon="-2.27325">
        <ele>43</ele>
        <time>2019-11-17T09:16:21.000Z</time>
      </trkpt>
      <trkpt lat="47.26144" lon="-2.27325">
        <ele>43</ele>
        <time>2019-11-17T09:16:22.000Z</time>
      </trkpt>
      <trkpt lat="47.26164" lon="-2.27326">
        <ele>43</ele>
        <time>2019-11-17T09:16:25.000Z</time>
      </trkpt>
      <trkpt lat="47.2617" lon="-2.27324">
        <ele>43</ele>
        <time>2019-11-17T09:16:26.000Z</time>
      </trkpt>
      <trkpt lat="47.26195" lon="-2.27318">
        <ele>43</ele>
        <time>2019-11-17T09:16:30.000Z</time>
      </trkpt>
      <trkpt lat="47.26201" lon="-2.27318">
        <ele>43</ele>
        <time>2019-11-17T09:16:31.000Z</time>
      </trkpt>
      <trkpt lat="47.26239" lon="-2.27324">
        <ele>43</ele>
        <time>2019-11-17T09:16:37.000Z</time>
      </trkpt>
      <trkpt lat="47.26251" lon="-2.27326">
        <ele>43</ele>
        <time>2019-11-17T09:16:39.000Z</time>
      </trkpt>
      <trkpt lat="47.26271" lon="-2.27327">
        <ele>43</ele>
        <time>2019-11-17T09:16:42.000Z</time>
      </trkpt>
      <trkpt lat="47.2631" lon="-2.27331">
        <ele>43</ele>
        <time>2019-11-17T09:16:48.000Z</time>
      </trkpt>
      <trkpt lat="47.26317" lon="-2.27331">
        <ele>43</ele>
        <time>2019-11-17T09:16:49.000Z</time>
      </trkpt>
      <trkpt lat="47.26342" lon="-2.27333">
        <ele>43</ele>
        <time>2019-11-17T09:16:53.000Z</time>
      </trkpt>
      <trkpt lat="47.26358" lon="-2.27334">
        <ele>42.599998474121</ele>
        <time>2019-11-17T09:16:56.000Z</time>
      </trkpt>
      <trkpt lat="47.26364" lon="-2.27334">
        <ele>42.200000762939</ele>
        <time>2019-11-17T09:16:57.000Z</time>
      </trkpt>
      <trkpt lat="47.26369" lon="-2.27333">
        <ele>41.799999237061</ele>
        <time>2019-11-17T09:16:58.000Z</time>
      </trkpt>
      <trkpt lat="47.26376" lon="-2.27333">
        <ele>41.400001525879</ele>
        <time>2019-11-17T09:16:59.000Z</time>
      </trkpt>
      <trkpt lat="47.26382" lon="-2.27333">
        <ele>40.799999237061</ele>
        <time>2019-11-17T09:17:00.000Z</time>
      </trkpt>
      <trkpt lat="47.26402" lon="-2.27333">
        <ele>40.799999237061</ele>
        <time>2019-11-17T09:17:03.000Z</time>
      </trkpt>
      <trkpt lat="47.26408" lon="-2.27335">
        <ele>40.799999237061</ele>
        <time>2019-11-17T09:17:04.000Z</time>
      </trkpt>
      <trkpt lat="47.26424" lon="-2.27343">
        <ele>40.799999237061</ele>
        <time>2019-11-17T09:17:07.000Z</time>
      </trkpt>
      <trkpt lat="47.2643" lon="-2.27354">
        <ele>40.799999237061</ele>
        <time>2019-11-17T09:17:09.000Z</time>
      </trkpt>
      <trkpt lat="47.26436" lon="-2.27367">
        <ele>40.799999237061</ele>
        <time>2019-11-17T09:17:11.000Z</time>
      </trkpt>
      <trkpt lat="47.26438" lon="-2.27375">
        <ele>40.400001525879</ele>
        <time>2019-11-17T09:17:12.000Z</time>
      </trkpt>
      <trkpt lat="47.26441" lon="-2.27382">
        <ele>40</ele>
        <time>2019-11-17T09:17:13.000Z</time>
      </trkpt>
      <trkpt lat="47.26443" lon="-2.27389">
        <ele>39.599998474121</ele>
        <time>2019-11-17T09:17:14.000Z</time>
      </trkpt>
      <trkpt lat="47.26446" lon="-2.27395">
        <ele>39.200000762939</ele>
        <time>2019-11-17T09:17:15.000Z</time>
      </trkpt>
      <trkpt lat="47.26449" lon="-2.27402">
        <ele>38.799999237061</ele>
        <time>2019-11-17T09:17:16.000Z</time>
      </trkpt>
      <trkpt lat="47.2645" lon="-2.27408">
        <ele>38.799999237061</ele>
        <time>2019-11-17T09:17:17.000Z</time>
      </trkpt>
      <trkpt lat="47.26453" lon="-2.27422">
        <ele>38.799999237061</ele>
        <time>2019-11-17T09:17:19.000Z</time>
      </trkpt>
      <trkpt lat="47.26458" lon="-2.27437">
        <ele>38.400001525879</ele>
        <time>2019-11-17T09:17:22.000Z</time>
      </trkpt>
      <trkpt lat="47.26459" lon="-2.27442">
        <ele>38</ele>
        <time>2019-11-17T09:17:23.000Z</time>
      </trkpt>
      <trkpt lat="47.26461" lon="-2.27448">
        <ele>37.599998474121</ele>
        <time>2019-11-17T09:17:24.000Z</time>
      </trkpt>
      <trkpt lat="47.26463" lon="-2.27454">
        <ele>37.200000762939</ele>
        <time>2019-11-17T09:17:25.000Z</time>
      </trkpt>
      <trkpt lat="47.26465" lon="-2.27459">
        <ele>36.799999237061</ele>
        <time>2019-11-17T09:17:26.000Z</time>
      </trkpt>
      <trkpt lat="47.26477" lon="-2.27497">
        <ele>36.799999237061</ele>
        <time>2019-11-17T09:17:32.000Z</time>
      </trkpt>
      <trkpt lat="47.26486" lon="-2.27545">
        <ele>36.799999237061</ele>
        <time>2019-11-17T09:17:38.000Z</time>
      </trkpt>
      <trkpt lat="47.26492" lon="-2.27569">
        <ele>36.400001525879</ele>
        <time>2019-11-17T09:17:41.000Z</time>
      </trkpt>
      <trkpt lat="47.26495" lon="-2.27575">
        <ele>36</ele>
        <time>2019-11-17T09:17:42.000Z</time>
      </trkpt>
      <trkpt lat="47.26499" lon="-2.27578">
        <ele>35.599998474121</ele>
        <time>2019-11-17T09:17:43.000Z</time>
      </trkpt>
      <trkpt lat="47.26503" lon="-2.27579">
        <ele>35.200000762939</ele>
        <time>2019-11-17T09:17:44.000Z</time>
      </trkpt>
      <trkpt lat="47.26507" lon="-2.27577">
        <ele>34.599998474121</ele>
        <time>2019-11-17T09:17:45.000Z</time>
      </trkpt>
      <trkpt lat="47.26511" lon="-2.27574">
        <ele>34.599998474121</ele>
        <time>2019-11-17T09:17:46.000Z</time>
      </trkpt>
      <trkpt lat="47.26533" lon="-2.27563">
        <ele>34.599998474121</ele>
        <time>2019-11-17T09:17:50.000Z</time>
      </trkpt>
      <trkpt lat="47.26538" lon="-2.27558">
        <ele>34.599998474121</ele>
        <time>2019-11-17T09:17:51.000Z</time>
      </trkpt>
      <trkpt lat="47.26556" lon="-2.27538">
        <ele>34.599998474121</ele>
        <time>2019-11-17T09:17:55.000Z</time>
      </trkpt>
      <trkpt lat="47.26563" lon="-2.27526">
        <ele>34.599998474121</ele>
        <time>2019-11-17T09:17:57.000Z</time>
      </trkpt>
      <trkpt lat="47.26569" lon="-2.27512">
        <ele>34.599998474121</ele>
        <time>2019-11-17T09:17:59.000Z</time>
      </trkpt>
      <trkpt lat="47.26581" lon="-2.27483">
        <ele>34.599998474121</ele>
        <time>2019-11-17T09:18:03.000Z</time>
      </trkpt>
      <trkpt lat="47.26589" lon="-2.27472">
        <ele>35.400001525879</ele>
        <time>2019-11-17T09:18:05.000Z</time>
      </trkpt>
      <trkpt lat="47.26593" lon="-2.27466">
        <ele>36</ele>
        <time>2019-11-17T09:18:06.000Z</time>
      </trkpt>
      <trkpt lat="47.26597" lon="-2.27462">
        <ele>36.400001525879</ele>
        <time>2019-11-17T09:18:07.000Z</time>
      </trkpt>
      <trkpt lat="47.26601" lon="-2.27457">
        <ele>36.799999237061</ele>
        <time>2019-11-17T09:18:08.000Z</time>
      </trkpt>
      <trkpt lat="47.26639" lon="-2.27417">
        <ele>36.799999237061</ele>
        <time>2019-11-17T09:18:16.000Z</time>
      </trkpt>
      <trkpt lat="47.26673" lon="-2.27385">
        <ele>36.799999237061</ele>
        <time>2019-11-17T09:18:22.000Z</time>
      </trkpt>
      <trkpt lat="47.26691" lon="-2.27372">
        <ele>36.799999237061</ele>
        <time>2019-11-17T09:18:25.000Z</time>
      </trkpt>
      <trkpt lat="47.26704" lon="-2.27366">
        <ele>36.799999237061</ele>
        <time>2019-11-17T09:18:27.000Z</time>
      </trkpt>
      <trkpt lat="47.26727" lon="-2.27359">
        <ele>36.799999237061</ele>
        <time>2019-11-17T09:18:31.000Z</time>
      </trkpt>
      <trkpt lat="47.26732" lon="-2.27354">
        <ele>36.799999237061</ele>
        <time>2019-11-17T09:18:32.000Z</time>
      </trkpt>
      <trkpt lat="47.26737" lon="-2.27332">
        <ele>36.799999237061</ele>
        <time>2019-11-17T09:18:35.000Z</time>
      </trkpt>
      <trkpt lat="47.26733" lon="-2.27301">
        <ele>36.799999237061</ele>
        <time>2019-11-17T09:18:39.000Z</time>
      </trkpt>
      <trkpt lat="47.26728" lon="-2.27269">
        <ele>36.799999237061</ele>
        <time>2019-11-17T09:18:43.000Z</time>
      </trkpt>
      <trkpt lat="47.26728" lon="-2.27254">
        <ele>36.799999237061</ele>
        <time>2019-11-17T09:18:45.000Z</time>
      </trkpt>
      <trkpt lat="47.26726" lon="-2.2724">
        <ele>36.799999237061</ele>
        <time>2019-11-17T09:18:47.000Z</time>
      </trkpt>
      <trkpt lat="47.26725" lon="-2.27233">
        <ele>36.799999237061</ele>
        <time>2019-11-17T09:18:48.000Z</time>
      </trkpt>
      <trkpt lat="47.26725" lon="-2.27226">
        <ele>36.799999237061</ele>
        <time>2019-11-17T09:18:49.000Z</time>
      </trkpt>
      <trkpt lat="47.26722" lon="-2.27213">
        <ele>36.799999237061</ele>
        <time>2019-11-17T09:18:51.000Z</time>
      </trkpt>
      <trkpt lat="47.2672" lon="-2.27205">
        <ele>36.799999237061</ele>
        <time>2019-11-17T09:18:53.000Z</time>
      </trkpt>
      <trkpt lat="47.26724" lon="-2.27192">
        <ele>36.799999237061</ele>
        <time>2019-11-17T09:18:57.000Z</time>
      </trkpt>
      <trkpt lat="47.26742" lon="-2.27171">
        <ele>36.799999237061</ele>
        <time>2019-11-17T09:19:02.000Z</time>
      </trkpt>
      <trkpt lat="47.26764" lon="-2.27151">
        <ele>36.799999237061</ele>
        <time>2019-11-17T09:19:07.000Z</time>
      </trkpt>
      <trkpt lat="47.26768" lon="-2.27149">
        <ele>36.799999237061</ele>
        <time>2019-11-17T09:19:08.000Z</time>
      </trkpt>
      <trkpt lat="47.26788" lon="-2.2714">
        <ele>36.200000762939</ele>
        <time>2019-11-17T09:19:12.000Z</time>
      </trkpt>
      <trkpt lat="47.26794" lon="-2.27138">
        <ele>35.799999237061</ele>
        <time>2019-11-17T09:19:13.000Z</time>
      </trkpt>
      <trkpt lat="47.26799" lon="-2.27136">
        <ele>35.400001525879</ele>
        <time>2019-11-17T09:19:14.000Z</time>
      </trkpt>
      <trkpt lat="47.26805" lon="-2.27134">
        <ele>35</ele>
        <time>2019-11-17T09:19:15.000Z</time>
      </trkpt>
      <trkpt lat="47.26811" lon="-2.27132">
        <ele>34.400001525879</ele>
        <time>2019-11-17T09:19:16.000Z</time>
      </trkpt>
      <trkpt lat="47.26824" lon="-2.2713">
        <ele>34.400001525879</ele>
        <time>2019-11-17T09:19:18.000Z</time>
      </trkpt>
      <trkpt lat="47.2683" lon="-2.27127">
        <ele>34.400001525879</ele>
        <time>2019-11-17T09:19:19.000Z</time>
      </trkpt>
      <trkpt lat="47.26848" lon="-2.2712">
        <ele>34.400001525879</ele>
        <time>2019-11-17T09:19:22.000Z</time>
      </trkpt>
      <trkpt lat="47.26854" lon="-2.27116">
        <ele>34.400001525879</ele>
        <time>2019-11-17T09:19:23.000Z</time>
      </trkpt>
      <trkpt lat="47.26868" lon="-2.27102">
        <ele>34.400001525879</ele>
        <time>2019-11-17T09:19:26.000Z</time>
      </trkpt>
      <trkpt lat="47.26877" lon="-2.27091">
        <ele>34.400001525879</ele>
        <time>2019-11-17T09:19:28.000Z</time>
      </trkpt>
      <trkpt lat="47.26882" lon="-2.27084">
        <ele>34</ele>
        <time>2019-11-17T09:19:29.000Z</time>
      </trkpt>
      <trkpt lat="47.26887" lon="-2.27077">
        <ele>33.599998474121</ele>
        <time>2019-11-17T09:19:30.000Z</time>
      </trkpt>
      <trkpt lat="47.26892" lon="-2.2707">
        <ele>33.200000762939</ele>
        <time>2019-11-17T09:19:31.000Z</time>
      </trkpt>
      <trkpt lat="47.26898" lon="-2.27063">
        <ele>32.799999237061</ele>
        <time>2019-11-17T09:19:32.000Z</time>
      </trkpt>
      <trkpt lat="47.26904" lon="-2.27056">
        <ele>32.400001525879</ele>
        <time>2019-11-17T09:19:33.000Z</time>
      </trkpt>
      <trkpt lat="47.26915" lon="-2.27041">
        <ele>32</ele>
        <time>2019-11-17T09:19:35.000Z</time>
      </trkpt>
      <trkpt lat="47.2692" lon="-2.27033">
        <ele>31.60000038147</ele>
        <time>2019-11-17T09:19:36.000Z</time>
      </trkpt>
      <trkpt lat="47.26926" lon="-2.27025">
        <ele>31.200000762939</ele>
        <time>2019-11-17T09:19:37.000Z</time>
      </trkpt>
      <trkpt lat="47.2693" lon="-2.27018">
        <ele>30.60000038147</ele>
        <time>2019-11-17T09:19:38.000Z</time>
      </trkpt>
      <trkpt lat="47.26933" lon="-2.27011">
        <ele>30</ele>
        <time>2019-11-17T09:19:39.000Z</time>
      </trkpt>
      <trkpt lat="47.26936" lon="-2.27006">
        <ele>29.60000038147</ele>
        <time>2019-11-17T09:19:40.000Z</time>
      </trkpt>
      <trkpt lat="47.26939" lon="-2.27003">
        <ele>29</ele>
        <time>2019-11-17T09:19:41.000Z</time>
      </trkpt>
      <trkpt lat="47.26942" lon="-2.27">
        <ele>28.39999961853</ele>
        <time>2019-11-17T09:19:42.000Z</time>
      </trkpt>
      <trkpt lat="47.26945" lon="-2.26999">
        <ele>27.799999237061</ele>
        <time>2019-11-17T09:19:43.000Z</time>
      </trkpt>
      <trkpt lat="47.26952" lon="-2.27001">
        <ele>27.799999237061</ele>
        <time>2019-11-17T09:19:46.000Z</time>
      </trkpt>
      <trkpt lat="47.26954" lon="-2.27003">
        <ele>27.799999237061</ele>
        <time>2019-11-17T09:19:47.000Z</time>
      </trkpt>
      <trkpt lat="47.26968" lon="-2.27024">
        <ele>27.799999237061</ele>
        <time>2019-11-17T09:19:52.000Z</time>
      </trkpt>
      <trkpt lat="47.26988" lon="-2.27047">
        <ele>27.799999237061</ele>
        <time>2019-11-17T09:19:57.000Z</time>
      </trkpt>
      <trkpt lat="47.26993" lon="-2.27055">
        <ele>27.799999237061</ele>
        <time>2019-11-17T09:19:58.000Z</time>
      </trkpt>
      <trkpt lat="47.26998" lon="-2.27063">
        <ele>27.799999237061</ele>
        <time>2019-11-17T09:19:59.000Z</time>
      </trkpt>
      <trkpt lat="47.2701" lon="-2.27094">
        <ele>27.799999237061</ele>
        <time>2019-11-17T09:20:03.000Z</time>
      </trkpt>
      <trkpt lat="47.27023" lon="-2.27122">
        <ele>27.799999237061</ele>
        <time>2019-11-17T09:20:08.000Z</time>
      </trkpt>
      <trkpt lat="47.27029" lon="-2.27132">
        <ele>27.39999961853</ele>
        <time>2019-11-17T09:20:12.000Z</time>
      </trkpt>
      <trkpt lat="47.27029" lon="-2.27135">
        <ele>27</ele>
        <time>2019-11-17T09:20:13.000Z</time>
      </trkpt>
      <trkpt lat="47.27028" lon="-2.27138">
        <ele>26.60000038147</ele>
        <time>2019-11-17T09:20:14.000Z</time>
      </trkpt>
      <trkpt lat="47.27028" lon="-2.27141">
        <ele>26</ele>
        <time>2019-11-17T09:20:15.000Z</time>
      </trkpt>
      <trkpt lat="47.27028" lon="-2.27144">
        <ele>25.60000038147</ele>
        <time>2019-11-17T09:20:16.000Z</time>
      </trkpt>
      <trkpt lat="47.27025" lon="-2.27148">
        <ele>25.60000038147</ele>
        <time>2019-11-17T09:20:19.000Z</time>
      </trkpt>
      <trkpt lat="47.27023" lon="-2.2715">
        <ele>25.60000038147</ele>
        <time>2019-11-17T09:20:21.000Z</time>
      </trkpt>
      <trkpt lat="47.27022" lon="-2.27152">
        <ele>25.60000038147</ele>
        <time>2019-11-17T09:20:25.000Z</time>
      </trkpt>
      <trkpt lat="47.27012" lon="-2.27162">
        <ele>27.60000038147</ele>
        <time>2019-11-17T09:21:04.000Z</time>
      </trkpt>
      <trkpt lat="47.27006" lon="-2.27169">
        <ele>27.60000038147</ele>
        <time>2019-11-17T09:21:09.000Z</time>
      </trkpt>
      <trkpt lat="47.27001" lon="-2.27168">
        <ele>28</ele>
        <time>2019-11-17T09:21:13.000Z</time>
      </trkpt>
      <trkpt lat="47.26999" lon="-2.27168">
        <ele>28.39999961853</ele>
        <time>2019-11-17T09:21:14.000Z</time>
      </trkpt>
      <trkpt lat="47.26997" lon="-2.27167">
        <ele>29</ele>
        <time>2019-11-17T09:21:15.000Z</time>
      </trkpt>
      <trkpt lat="47.26995" lon="-2.27168">
        <ele>29.39999961853</ele>
        <time>2019-11-17T09:21:16.000Z</time>
      </trkpt>
      <trkpt lat="47.26995" lon="-2.27171">
        <ele>29.799999237061</ele>
        <time>2019-11-17T09:21:17.000Z</time>
      </trkpt>
      <trkpt lat="47.26994" lon="-2.27173">
        <ele>29.799999237061</ele>
        <time>2019-11-17T09:21:18.000Z</time>
      </trkpt>
      <trkpt lat="47.26992" lon="-2.27177">
        <ele>29.799999237061</ele>
        <time>2019-11-17T09:21:20.000Z</time>
      </trkpt>
      <trkpt lat="47.26993" lon="-2.2718">
        <ele>29.799999237061</ele>
        <time>2019-11-17T09:21:22.000Z</time>
      </trkpt>
      <trkpt lat="47.26992" lon="-2.27181">
        <ele>29.799999237061</ele>
        <time>2019-11-17T09:21:23.000Z</time>
      </trkpt>
      <trkpt lat="47.2699" lon="-2.27183">
        <ele>29.799999237061</ele>
        <time>2019-11-17T09:21:26.000Z</time>
      </trkpt>
      <trkpt lat="47.26986" lon="-2.27185">
        <ele>29.799999237061</ele>
        <time>2019-11-17T09:21:28.000Z</time>
      </trkpt>
      <trkpt lat="47.26985" lon="-2.27189">
        <ele>29.799999237061</ele>
        <time>2019-11-17T09:21:30.000Z</time>
      </trkpt>
      <trkpt lat="47.26988" lon="-2.27193">
        <ele>29.799999237061</ele>
        <time>2019-11-17T09:21:32.000Z</time>
      </trkpt>
      <trkpt lat="47.26991" lon="-2.27206">
        <ele>29.799999237061</ele>
        <time>2019-11-17T09:21:35.000Z</time>
      </trkpt>
      <trkpt lat="47.26985" lon="-2.27218">
        <ele>29.799999237061</ele>
        <time>2019-11-17T09:21:39.000Z</time>
      </trkpt>
      <trkpt lat="47.26977" lon="-2.27234">
        <ele>29.39999961853</ele>
        <time>2019-11-17T09:21:44.000Z</time>
      </trkpt>
      <trkpt lat="47.26975" lon="-2.27235">
        <ele>29</ele>
        <time>2019-11-17T09:21:45.000Z</time>
      </trkpt>
      <trkpt lat="47.26974" lon="-2.27236">
        <ele>28.60000038147</ele>
        <time>2019-11-17T09:21:46.000Z</time>
      </trkpt>
      <trkpt lat="47.26972" lon="-2.27237">
        <ele>28.200000762939</ele>
        <time>2019-11-17T09:21:47.000Z</time>
      </trkpt>
      <trkpt lat="47.26969" lon="-2.27238">
        <ele>27.799999237061</ele>
        <time>2019-11-17T09:21:48.000Z</time>
      </trkpt>
      <trkpt lat="47.2696" lon="-2.27243">
        <ele>27.799999237061</ele>
        <time>2019-11-17T09:21:52.000Z</time>
      </trkpt>
      <trkpt lat="47.26955" lon="-2.27253">
        <ele>28.200000762939</ele>
        <time>2019-11-17T09:21:56.000Z</time>
      </trkpt>
      <trkpt lat="47.26954" lon="-2.27255">
        <ele>28.60000038147</ele>
        <time>2019-11-17T09:21:57.000Z</time>
      </trkpt>
      <trkpt lat="47.26952" lon="-2.27257">
        <ele>29</ele>
        <time>2019-11-17T09:21:58.000Z</time>
      </trkpt>
      <trkpt lat="47.26951" lon="-2.27259">
        <ele>29.39999961853</ele>
        <time>2019-11-17T09:21:59.000Z</time>
      </trkpt>
      <trkpt lat="47.2695" lon="-2.27262">
        <ele>29.799999237061</ele>
        <time>2019-11-17T09:22:00.000Z</time>
      </trkpt>
      <trkpt lat="47.26949" lon="-2.27265">
        <ele>29.799999237061</ele>
        <time>2019-11-17T09:22:01.000Z</time>
      </trkpt>
      <trkpt lat="47.26949" lon="-2.27266">
        <ele>29.799999237061</ele>
        <time>2019-11-17T09:22:02.000Z</time>
      </trkpt>
      <trkpt lat="47.26951" lon="-2.27269">
        <ele>29.799999237061</ele>
        <time>2019-11-17T09:22:04.000Z</time>
      </trkpt>
      <trkpt lat="47.26952" lon="-2.27271">
        <ele>29.799999237061</ele>
        <time>2019-11-17T09:22:05.000Z</time>
      </trkpt>
      <trkpt lat="47.26952" lon="-2.27277">
        <ele>29.799999237061</ele>
        <time>2019-11-17T09:22:07.000Z</time>
      </trkpt>
      <trkpt lat="47.2695" lon="-2.27285">
        <ele>29.799999237061</ele>
        <time>2019-11-17T09:22:10.000Z</time>
      </trkpt>
      <trkpt lat="47.26949" lon="-2.27289">
        <ele>29.799999237061</ele>
        <time>2019-11-17T09:22:12.000Z</time>
      </trkpt>
      <trkpt lat="47.26945" lon="-2.27299">
        <ele>29.799999237061</ele>
        <time>2019-11-17T09:22:16.000Z</time>
      </trkpt>
      <trkpt lat="47.26938" lon="-2.27324">
        <ele>29.799999237061</ele>
        <time>2019-11-17T09:22:21.000Z</time>
      </trkpt>
      <trkpt lat="47.26933" lon="-2.27345">
        <ele>29.799999237061</ele>
        <time>2019-11-17T09:22:26.000Z</time>
      </trkpt>
      <trkpt lat="47.26932" lon="-2.27348">
        <ele>29.799999237061</ele>
        <time>2019-11-17T09:22:27.000Z</time>
      </trkpt>
      <trkpt lat="47.26923" lon="-2.27359">
        <ele>29.799999237061</ele>
        <time>2019-11-17T09:22:31.000Z</time>
      </trkpt>
      <trkpt lat="47.26904" lon="-2.27373">
        <ele>29.799999237061</ele>
        <time>2019-11-17T09:22:38.000Z</time>
      </trkpt>
      <trkpt lat="47.26897" lon="-2.27378">
        <ele>29.799999237061</ele>
        <time>2019-11-17T09:22:43.000Z</time>
      </trkpt>
      <trkpt lat="47.26885" lon="-2.27387">
        <ele>29.799999237061</ele>
        <time>2019-11-17T09:22:51.000Z</time>
      </trkpt>
      <trkpt lat="47.26873" lon="-2.27393">
        <ele>29.799999237061</ele>
        <time>2019-11-17T09:22:56.000Z</time>
      </trkpt>
      <trkpt lat="47.2686" lon="-2.27397">
        <ele>29.799999237061</ele>
        <time>2019-11-17T09:23:00.000Z</time>
      </trkpt>
      <trkpt lat="47.26849" lon="-2.274">
        <ele>30.200000762939</ele>
        <time>2019-11-17T09:23:04.000Z</time>
      </trkpt>
      <trkpt lat="47.26846" lon="-2.27401">
        <ele>30.60000038147</ele>
        <time>2019-11-17T09:23:05.000Z</time>
      </trkpt>
      <trkpt lat="47.26843" lon="-2.27401">
        <ele>31</ele>
        <time>2019-11-17T09:23:06.000Z</time>
      </trkpt>
      <trkpt lat="47.2684" lon="-2.27402">
        <ele>31.39999961853</ele>
        <time>2019-11-17T09:23:07.000Z</time>
      </trkpt>
      <trkpt lat="47.26837" lon="-2.27402">
        <ele>31.799999237061</ele>
        <time>2019-11-17T09:23:08.000Z</time>
      </trkpt>
      <trkpt lat="47.26818" lon="-2.27404">
        <ele>31.799999237061</ele>
        <time>2019-11-17T09:23:13.000Z</time>
      </trkpt>
      <trkpt lat="47.26793" lon="-2.27405">
        <ele>31.799999237061</ele>
        <time>2019-11-17T09:23:19.000Z</time>
      </trkpt>
      <trkpt lat="47.26782" lon="-2.27407">
        <ele>31.799999237061</ele>
        <time>2019-11-17T09:23:24.000Z</time>
      </trkpt>
      <trkpt lat="47.26776" lon="-2.27409">
        <ele>31.799999237061</ele>
        <time>2019-11-17T09:23:28.000Z</time>
      </trkpt>
      <trkpt lat="47.26757" lon="-2.27419">
        <ele>29.799999237061</ele>
        <time>2019-11-17T09:28:34.000Z</time>
      </trkpt>
      <trkpt lat="47.26756" lon="-2.2743">
        <ele>29.799999237061</ele>
        <time>2019-11-17T09:28:38.000Z</time>
      </trkpt>
      <trkpt lat="47.26756" lon="-2.27458">
        <ele>29.799999237061</ele>
        <time>2019-11-17T09:28:45.000Z</time>
      </trkpt>
      <trkpt lat="47.26757" lon="-2.27489">
        <ele>29.799999237061</ele>
        <time>2019-11-17T09:28:52.000Z</time>
      </trkpt>
      <trkpt lat="47.26757" lon="-2.27499">
        <ele>29.799999237061</ele>
        <time>2019-11-17T09:28:55.000Z</time>
      </trkpt>
      <trkpt lat="47.26756" lon="-2.27504">
        <ele>29.799999237061</ele>
        <time>2019-11-17T09:28:56.000Z</time>
      </trkpt>
      <trkpt lat="47.26756" lon="-2.27531">
        <ele>29.799999237061</ele>
        <time>2019-11-17T09:29:01.000Z</time>
      </trkpt>
      <trkpt lat="47.26757" lon="-2.27568">
        <ele>29.799999237061</ele>
        <time>2019-11-17T09:29:07.000Z</time>
      </trkpt>
      <trkpt lat="47.26758" lon="-2.2758">
        <ele>29.799999237061</ele>
        <time>2019-11-17T09:29:09.000Z</time>
      </trkpt>
      <trkpt lat="47.26758" lon="-2.27586">
        <ele>29.39999961853</ele>
        <time>2019-11-17T09:29:10.000Z</time>
      </trkpt>
      <trkpt lat="47.26759" lon="-2.27592">
        <ele>29</ele>
        <time>2019-11-17T09:29:11.000Z</time>
      </trkpt>
      <trkpt lat="47.26759" lon="-2.27599">
        <ele>28</ele>
        <time>2019-11-17T09:29:12.000Z</time>
      </trkpt>
      <trkpt lat="47.2676" lon="-2.27606">
        <ele>27.60000038147</ele>
        <time>2019-11-17T09:29:13.000Z</time>
      </trkpt>
      <trkpt lat="47.2677" lon="-2.2766">
        <ele>27.60000038147</ele>
        <time>2019-11-17T09:29:21.000Z</time>
      </trkpt>
      <trkpt lat="47.26779" lon="-2.27706">
        <ele>27.60000038147</ele>
        <time>2019-11-17T09:29:28.000Z</time>
      </trkpt>
      <trkpt lat="47.26782" lon="-2.27718">
        <ele>27.60000038147</ele>
        <time>2019-11-17T09:29:30.000Z</time>
      </trkpt>
      <trkpt lat="47.26786" lon="-2.27741">
        <ele>27.60000038147</ele>
        <time>2019-11-17T09:29:34.000Z</time>
      </trkpt>
      <trkpt lat="47.26793" lon="-2.27776">
        <ele>27.60000038147</ele>
        <time>2019-11-17T09:29:41.000Z</time>
      </trkpt>
      <trkpt lat="47.26801" lon="-2.278">
        <ele>27.60000038147</ele>
        <time>2019-11-17T09:29:47.000Z</time>
      </trkpt>
      <trkpt lat="47.26812" lon="-2.27803">
        <ele>27.60000038147</ele>
        <time>2019-11-17T09:29:51.000Z</time>
      </trkpt>
      <trkpt lat="47.2683" lon="-2.27795">
        <ele>27.60000038147</ele>
        <time>2019-11-17T09:29:56.000Z</time>
      </trkpt>
      <trkpt lat="47.26845" lon="-2.27786">
        <ele>27.60000038147</ele>
        <time>2019-11-17T09:30:01.000Z</time>
      </trkpt>
      <trkpt lat="47.26863" lon="-2.27776">
        <ele>28</ele>
        <time>2019-11-17T09:30:07.000Z</time>
      </trkpt>
      <trkpt lat="47.26866" lon="-2.27774">
        <ele>28.39999961853</ele>
        <time>2019-11-17T09:30:08.000Z</time>
      </trkpt>
      <trkpt lat="47.26869" lon="-2.27772">
        <ele>29</ele>
        <time>2019-11-17T09:30:09.000Z</time>
      </trkpt>
      <trkpt lat="47.26873" lon="-2.2777">
        <ele>29.39999961853</ele>
        <time>2019-11-17T09:30:10.000Z</time>
      </trkpt>
      <trkpt lat="47.26876" lon="-2.27768">
        <ele>29.799999237061</ele>
        <time>2019-11-17T09:30:11.000Z</time>
      </trkpt>
      <trkpt lat="47.26886" lon="-2.27762">
        <ele>29.799999237061</ele>
        <time>2019-11-17T09:30:14.000Z</time>
      </trkpt>
      <trkpt lat="47.26907" lon="-2.27753">
        <ele>29.799999237061</ele>
        <time>2019-11-17T09:30:19.000Z</time>
      </trkpt>
      <trkpt lat="47.26924" lon="-2.27747">
        <ele>29.799999237061</ele>
        <time>2019-11-17T09:30:23.000Z</time>
      </trkpt>
      <trkpt lat="47.26932" lon="-2.27744">
        <ele>29.799999237061</ele>
        <time>2019-11-17T09:30:25.000Z</time>
      </trkpt>
      <trkpt lat="47.26967" lon="-2.27732">
        <ele>29.799999237061</ele>
        <time>2019-11-17T09:30:34.000Z</time>
      </trkpt>
      <trkpt lat="47.26994" lon="-2.27723">
        <ele>29.799999237061</ele>
        <time>2019-11-17T09:30:41.000Z</time>
      </trkpt>
      <trkpt lat="47.27007" lon="-2.2772">
        <ele>29.799999237061</ele>
        <time>2019-11-17T09:30:46.000Z</time>
      </trkpt>
      <trkpt lat="47.27009" lon="-2.2772">
        <ele>29.799999237061</ele>
        <time>2019-11-17T09:30:48.000Z</time>
      </trkpt>
      <trkpt lat="47.27012" lon="-2.27721">
        <ele>29.799999237061</ele>
        <time>2019-11-17T09:30:51.000Z</time>
      </trkpt>
      <trkpt lat="47.27022" lon="-2.27725">
        <ele>29.799999237061</ele>
        <time>2019-11-17T09:30:57.000Z</time>
      </trkpt>
      <trkpt lat="47.27026" lon="-2.27727">
        <ele>29.799999237061</ele>
        <time>2019-11-17T09:30:58.000Z</time>
      </trkpt>
      <trkpt lat="47.27036" lon="-2.27732">
        <ele>29.799999237061</ele>
        <time>2019-11-17T09:31:01.000Z</time>
      </trkpt>
      <trkpt lat="47.27056" lon="-2.27741">
        <ele>29.799999237061</ele>
        <time>2019-11-17T09:31:07.000Z</time>
      </trkpt>
      <trkpt lat="47.27077" lon="-2.27749">
        <ele>29.799999237061</ele>
        <time>2019-11-17T09:31:13.000Z</time>
      </trkpt>
      <trkpt lat="47.27097" lon="-2.27764">
        <ele>29.799999237061</ele>
        <time>2019-11-17T09:31:20.000Z</time>
      </trkpt>
      <trkpt lat="47.27105" lon="-2.27772">
        <ele>29.799999237061</ele>
        <time>2019-11-17T09:31:25.000Z</time>
      </trkpt>
      <trkpt lat="47.27116" lon="-2.27787">
        <ele>30.200000762939</ele>
        <time>2019-11-17T09:31:33.000Z</time>
      </trkpt>
      <trkpt lat="47.27118" lon="-2.27788">
        <ele>30.60000038147</ele>
        <time>2019-11-17T09:31:34.000Z</time>
      </trkpt>
      <trkpt lat="47.27119" lon="-2.2779">
        <ele>31</ele>
        <time>2019-11-17T09:31:35.000Z</time>
      </trkpt>
      <trkpt lat="47.2712" lon="-2.27792">
        <ele>31.39999961853</ele>
        <time>2019-11-17T09:31:36.000Z</time>
      </trkpt>
      <trkpt lat="47.27121" lon="-2.27793">
        <ele>31.799999237061</ele>
        <time>2019-11-17T09:31:37.000Z</time>
      </trkpt>
      <trkpt lat="47.2712" lon="-2.27793">
        <ele>31.799999237061</ele>
        <time>2019-11-17T09:31:39.000Z</time>
      </trkpt>
      <trkpt lat="47.27118" lon="-2.27797">
        <ele>31.799999237061</ele>
        <time>2019-11-17T09:36:31.000Z</time>
      </trkpt>
      <trkpt lat="47.27117" lon="-2.27801">
        <ele>31.799999237061</ele>
        <time>2019-11-17T09:36:33.000Z</time>
      </trkpt>
      <trkpt lat="47.27115" lon="-2.27811">
        <ele>31.799999237061</ele>
        <time>2019-11-17T09:36:37.000Z</time>
      </trkpt>
      <trkpt lat="47.27115" lon="-2.27813">
        <ele>31.799999237061</ele>
        <time>2019-11-17T09:36:38.000Z</time>
      </trkpt>
      <trkpt lat="47.2711" lon="-2.27834">
        <ele>31.799999237061</ele>
        <time>2019-11-17T09:36:43.000Z</time>
      </trkpt>
      <trkpt lat="47.27109" lon="-2.27839">
        <ele>32.200000762939</ele>
        <time>2019-11-17T09:36:44.000Z</time>
      </trkpt>
      <trkpt lat="47.27108" lon="-2.27844">
        <ele>32.799999237061</ele>
        <time>2019-11-17T09:36:45.000Z</time>
      </trkpt>
      <trkpt lat="47.27106" lon="-2.27849">
        <ele>33.200000762939</ele>
        <time>2019-11-17T09:36:46.000Z</time>
      </trkpt>
      <trkpt lat="47.27104" lon="-2.27854">
        <ele>33.599998474121</ele>
        <time>2019-11-17T09:36:47.000Z</time>
      </trkpt>
      <trkpt lat="47.27103" lon="-2.27859">
        <ele>34</ele>
        <time>2019-11-17T09:36:48.000Z</time>
      </trkpt>
      <trkpt lat="47.27102" lon="-2.27865">
        <ele>34</ele>
        <time>2019-11-17T09:36:49.000Z</time>
      </trkpt>
      <trkpt lat="47.27092" lon="-2.27887">
        <ele>34.400001525879</ele>
        <time>2019-11-17T09:36:54.000Z</time>
      </trkpt>
      <trkpt lat="47.27088" lon="-2.2789">
        <ele>34.799999237061</ele>
        <time>2019-11-17T09:36:55.000Z</time>
      </trkpt>
      <trkpt lat="47.27084" lon="-2.27894">
        <ele>35.200000762939</ele>
        <time>2019-11-17T09:36:56.000Z</time>
      </trkpt>
      <trkpt lat="47.27081" lon="-2.27898">
        <ele>35.599998474121</ele>
        <time>2019-11-17T09:36:57.000Z</time>
      </trkpt>
      <trkpt lat="47.27079" lon="-2.27903">
        <ele>36</ele>
        <time>2019-11-17T09:36:58.000Z</time>
      </trkpt>
      <trkpt lat="47.27074" lon="-2.27913">
        <ele>36</ele>
        <time>2019-11-17T09:37:00.000Z</time>
      </trkpt>
      <trkpt lat="47.27072" lon="-2.27919">
        <ele>36</ele>
        <time>2019-11-17T09:37:01.000Z</time>
      </trkpt>
      <trkpt lat="47.27069" lon="-2.27931">
        <ele>36</ele>
        <time>2019-11-17T09:37:03.000Z</time>
      </trkpt>
      <trkpt lat="47.27068" lon="-2.27937">
        <ele>36.599998474121</ele>
        <time>2019-11-17T09:37:04.000Z</time>
      </trkpt>
      <trkpt lat="47.27068" lon="-2.27942">
        <ele>37</ele>
        <time>2019-11-17T09:37:05.000Z</time>
      </trkpt>
      <trkpt lat="47.27069" lon="-2.27948">
        <ele>37.400001525879</ele>
        <time>2019-11-17T09:37:06.000Z</time>
      </trkpt>
      <trkpt lat="47.2707" lon="-2.27954">
        <ele>37.799999237061</ele>
        <time>2019-11-17T09:37:07.000Z</time>
      </trkpt>
      <trkpt lat="47.27071" lon="-2.27959">
        <ele>38.200000762939</ele>
        <time>2019-11-17T09:37:08.000Z</time>
      </trkpt>
      <trkpt lat="47.27073" lon="-2.27965">
        <ele>38.200000762939</ele>
        <time>2019-11-17T09:37:09.000Z</time>
      </trkpt>
      <trkpt lat="47.27085" lon="-2.27981">
        <ele>38.200000762939</ele>
        <time>2019-11-17T09:37:13.000Z</time>
      </trkpt>
      <trkpt lat="47.27089" lon="-2.27984">
        <ele>38.200000762939</ele>
        <time>2019-11-17T09:37:14.000Z</time>
      </trkpt>
      <trkpt lat="47.27093" lon="-2.27987">
        <ele>38.200000762939</ele>
        <time>2019-11-17T09:37:15.000Z</time>
      </trkpt>
      <trkpt lat="47.27108" lon="-2.27994">
        <ele>38.200000762939</ele>
        <time>2019-11-17T09:37:18.000Z</time>
      </trkpt>
      <trkpt lat="47.27117" lon="-2.28013">
        <ele>38.200000762939</ele>
        <time>2019-11-17T09:37:21.000Z</time>
      </trkpt>
      <trkpt lat="47.2712" lon="-2.28028">
        <ele>38.200000762939</ele>
        <time>2019-11-17T09:37:23.000Z</time>
      </trkpt>
      <trkpt lat="47.27123" lon="-2.28059">
        <ele>38.200000762939</ele>
        <time>2019-11-17T09:37:27.000Z</time>
      </trkpt>
      <trkpt lat="47.27125" lon="-2.28121">
        <ele>38.200000762939</ele>
        <time>2019-11-17T09:37:34.000Z</time>
      </trkpt>
      <trkpt lat="47.27127" lon="-2.28139">
        <ele>37.799999237061</ele>
        <time>2019-11-17T09:37:36.000Z</time>
      </trkpt>
      <trkpt lat="47.27128" lon="-2.28147">
        <ele>37.200000762939</ele>
        <time>2019-11-17T09:37:37.000Z</time>
      </trkpt>
      <trkpt lat="47.27128" lon="-2.28154">
        <ele>36.799999237061</ele>
        <time>2019-11-17T09:37:38.000Z</time>
      </trkpt>
      <trkpt lat="47.27128" lon="-2.28163">
        <ele>36.400001525879</ele>
        <time>2019-11-17T09:37:39.000Z</time>
      </trkpt>
      <trkpt lat="47.27127" lon="-2.28172">
        <ele>36</ele>
        <time>2019-11-17T09:37:40.000Z</time>
      </trkpt>
      <trkpt lat="47.27126" lon="-2.2818">
        <ele>36</ele>
        <time>2019-11-17T09:37:41.000Z</time>
      </trkpt>
      <trkpt lat="47.27121" lon="-2.28215">
        <ele>36</ele>
        <time>2019-11-17T09:37:45.000Z</time>
      </trkpt>
      <trkpt lat="47.27119" lon="-2.28233">
        <ele>36</ele>
        <time>2019-11-17T09:37:47.000Z</time>
      </trkpt>
      <trkpt lat="47.2712" lon="-2.28248">
        <ele>36</ele>
        <time>2019-11-17T09:37:49.000Z</time>
      </trkpt>
      <trkpt lat="47.27126" lon="-2.28268">
        <ele>35.599998474121</ele>
        <time>2019-11-17T09:37:52.000Z</time>
      </trkpt>
      <trkpt lat="47.27128" lon="-2.28275">
        <ele>35.200000762939</ele>
        <time>2019-11-17T09:37:53.000Z</time>
      </trkpt>
      <trkpt lat="47.2713" lon="-2.28282">
        <ele>34.799999237061</ele>
        <time>2019-11-17T09:37:54.000Z</time>
      </trkpt>
      <trkpt lat="47.27132" lon="-2.2829">
        <ele>34.400001525879</ele>
        <time>2019-11-17T09:37:55.000Z</time>
      </trkpt>
      <trkpt lat="47.27134" lon="-2.28297">
        <ele>34</ele>
        <time>2019-11-17T09:37:56.000Z</time>
      </trkpt>
      <trkpt lat="47.27141" lon="-2.28319">
        <ele>34</ele>
        <time>2019-11-17T09:37:59.000Z</time>
      </trkpt>
      <trkpt lat="47.27143" lon="-2.28327">
        <ele>34</ele>
        <time>2019-11-17T09:38:00.000Z</time>
      </trkpt>
      <trkpt lat="47.27147" lon="-2.2836">
        <ele>34</ele>
        <time>2019-11-17T09:38:04.000Z</time>
      </trkpt>
      <trkpt lat="47.27148" lon="-2.28385">
        <ele>34</ele>
        <time>2019-11-17T09:38:07.000Z</time>
      </trkpt>
      <trkpt lat="47.2715" lon="-2.28408">
        <ele>34</ele>
        <time>2019-11-17T09:38:10.000Z</time>
      </trkpt>
      <trkpt lat="47.27156" lon="-2.28468">
        <ele>34</ele>
        <time>2019-11-17T09:38:17.000Z</time>
      </trkpt>
      <trkpt lat="47.27159" lon="-2.28487">
        <ele>34</ele>
        <time>2019-11-17T09:38:19.000Z</time>
      </trkpt>
      <trkpt lat="47.27167" lon="-2.28532">
        <ele>34</ele>
        <time>2019-11-17T09:38:24.000Z</time>
      </trkpt>
      <trkpt lat="47.27181" lon="-2.28586">
        <ele>33.599998474121</ele>
        <time>2019-11-17T09:38:30.000Z</time>
      </trkpt>
      <trkpt lat="47.27183" lon="-2.28594">
        <ele>33.200000762939</ele>
        <time>2019-11-17T09:38:31.000Z</time>
      </trkpt>
      <trkpt lat="47.27185" lon="-2.28602">
        <ele>32.599998474121</ele>
        <time>2019-11-17T09:38:32.000Z</time>
      </trkpt>
      <trkpt lat="47.27187" lon="-2.2861">
        <ele>32.200000762939</ele>
        <time>2019-11-17T09:38:33.000Z</time>
      </trkpt>
      <trkpt lat="47.27187" lon="-2.28618">
        <ele>31.799999237061</ele>
        <time>2019-11-17T09:38:34.000Z</time>
      </trkpt>
      <trkpt lat="47.27187" lon="-2.28627">
        <ele>31.799999237061</ele>
        <time>2019-11-17T09:38:35.000Z</time>
      </trkpt>
      <trkpt lat="47.27186" lon="-2.28638">
        <ele>31.799999237061</ele>
        <time>2019-11-17T09:38:36.000Z</time>
      </trkpt>
      <trkpt lat="47.27186" lon="-2.28648">
        <ele>31.799999237061</ele>
        <time>2019-11-17T09:38:37.000Z</time>
      </trkpt>
      <trkpt lat="47.27185" lon="-2.28678">
        <ele>31.799999237061</ele>
        <time>2019-11-17T09:38:40.000Z</time>
      </trkpt>
      <trkpt lat="47.27187" lon="-2.28737">
        <ele>31.799999237061</ele>
        <time>2019-11-17T09:38:46.000Z</time>
      </trkpt>
      <trkpt lat="47.27188" lon="-2.28757">
        <ele>31.799999237061</ele>
        <time>2019-11-17T09:38:48.000Z</time>
      </trkpt>
      <trkpt lat="47.27187" lon="-2.28767">
        <ele>31.39999961853</ele>
        <time>2019-11-17T09:38:49.000Z</time>
      </trkpt>
      <trkpt lat="47.27187" lon="-2.28777">
        <ele>31</ele>
        <time>2019-11-17T09:38:50.000Z</time>
      </trkpt>
      <trkpt lat="47.27186" lon="-2.28787">
        <ele>30.60000038147</ele>
        <time>2019-11-17T09:38:51.000Z</time>
      </trkpt>
      <trkpt lat="47.27185" lon="-2.28797">
        <ele>30.200000762939</ele>
        <time>2019-11-17T09:38:52.000Z</time>
      </trkpt>
      <trkpt lat="47.27185" lon="-2.28807">
        <ele>29.799999237061</ele>
        <time>2019-11-17T09:38:53.000Z</time>
      </trkpt>
      <trkpt lat="47.27182" lon="-2.28845">
        <ele>29.799999237061</ele>
        <time>2019-11-17T09:38:57.000Z</time>
      </trkpt>
      <trkpt lat="47.27179" lon="-2.28899">
        <ele>29.799999237061</ele>
        <time>2019-11-17T09:39:03.000Z</time>
      </trkpt>
      <trkpt lat="47.27178" lon="-2.28941">
        <ele>29.799999237061</ele>
        <time>2019-11-17T09:39:07.000Z</time>
      </trkpt>
      <trkpt lat="47.27183" lon="-2.2898">
        <ele>29.799999237061</ele>
        <time>2019-11-17T09:39:11.000Z</time>
      </trkpt>
      <trkpt lat="47.27192" lon="-2.29046">
        <ele>29.799999237061</ele>
        <time>2019-11-17T09:39:18.000Z</time>
      </trkpt>
      <trkpt lat="47.27199" lon="-2.29095">
        <ele>29.799999237061</ele>
        <time>2019-11-17T09:39:24.000Z</time>
      </trkpt>
      <trkpt lat="47.27198" lon="-2.29102">
        <ele>29.799999237061</ele>
        <time>2019-11-17T09:39:25.000Z</time>
      </trkpt>
      <trkpt lat="47.27194" lon="-2.29107">
        <ele>29.39999961853</ele>
        <time>2019-11-17T09:39:26.000Z</time>
      </trkpt>
      <trkpt lat="47.2719" lon="-2.29112">
        <ele>29</ele>
        <time>2019-11-17T09:39:27.000Z</time>
      </trkpt>
      <trkpt lat="47.27186" lon="-2.29116">
        <ele>28.60000038147</ele>
        <time>2019-11-17T09:39:28.000Z</time>
      </trkpt>
      <trkpt lat="47.27182" lon="-2.2912">
        <ele>28.200000762939</ele>
        <time>2019-11-17T09:39:29.000Z</time>
      </trkpt>
      <trkpt lat="47.27179" lon="-2.29124">
        <ele>27.799999237061</ele>
        <time>2019-11-17T09:39:30.000Z</time>
      </trkpt>
      <trkpt lat="47.27163" lon="-2.29141">
        <ele>27.799999237061</ele>
        <time>2019-11-17T09:39:35.000Z</time>
      </trkpt>
      <trkpt lat="47.27158" lon="-2.29156">
        <ele>27.799999237061</ele>
        <time>2019-11-17T09:39:39.000Z</time>
      </trkpt>
      <trkpt lat="47.27156" lon="-2.29165">
        <ele>27.799999237061</ele>
        <time>2019-11-17T09:39:41.000Z</time>
      </trkpt>
      <trkpt lat="47.27157" lon="-2.29175">
        <ele>27.799999237061</ele>
        <time>2019-11-17T09:39:43.000Z</time>
      </trkpt>
      <trkpt lat="47.27159" lon="-2.29188">
        <ele>27.799999237061</ele>
        <time>2019-11-17T09:39:46.000Z</time>
      </trkpt>
      <trkpt lat="47.27162" lon="-2.29196">
        <ele>27.799999237061</ele>
        <time>2019-11-17T09:39:49.000Z</time>
      </trkpt>
      <trkpt lat="47.27163" lon="-2.292">
        <ele>27.799999237061</ele>
        <time>2019-11-17T09:39:51.000Z</time>
      </trkpt>
      <trkpt lat="47.27164" lon="-2.29203">
        <ele>27.799999237061</ele>
        <time>2019-11-17T09:39:53.000Z</time>
      </trkpt>
      <trkpt lat="47.27166" lon="-2.292">
        <ele>27.799999237061</ele>
        <time>2019-11-17T09:40:21.000Z</time>
      </trkpt>
      <trkpt lat="47.27168" lon="-2.292">
        <ele>27.799999237061</ele>
        <time>2019-11-17T09:40:23.000Z</time>
      </trkpt>
      <trkpt lat="47.27165" lon="-2.29205">
        <ele>29.799999237061</ele>
        <time>2019-11-17T09:49:22.000Z</time>
      </trkpt>
      <trkpt lat="47.27164" lon="-2.29206">
        <ele>29.799999237061</ele>
        <time>2019-11-17T09:49:23.000Z</time>
      </trkpt>
      <trkpt lat="47.27168" lon="-2.29219">
        <ele>29.799999237061</ele>
        <time>2019-11-17T09:49:27.000Z</time>
      </trkpt>
      <trkpt lat="47.2717" lon="-2.29222">
        <ele>29.799999237061</ele>
        <time>2019-11-17T09:49:28.000Z</time>
      </trkpt>
      <trkpt lat="47.27175" lon="-2.29243">
        <ele>29.799999237061</ele>
        <time>2019-11-17T09:49:33.000Z</time>
      </trkpt>
      <trkpt lat="47.27173" lon="-2.29248">
        <ele>29.799999237061</ele>
        <time>2019-11-17T09:49:34.000Z</time>
      </trkpt>
      <trkpt lat="47.27167" lon="-2.29264">
        <ele>29.799999237061</ele>
        <time>2019-11-17T09:49:37.000Z</time>
      </trkpt>
      <trkpt lat="47.27157" lon="-2.29289">
        <ele>29.799999237061</ele>
        <time>2019-11-17T09:49:42.000Z</time>
      </trkpt>
      <trkpt lat="47.27153" lon="-2.29311">
        <ele>29.799999237061</ele>
        <time>2019-11-17T09:49:47.000Z</time>
      </trkpt>
      <trkpt lat="47.27162" lon="-2.29326">
        <ele>29.799999237061</ele>
        <time>2019-11-17T09:49:51.000Z</time>
      </trkpt>
      <trkpt lat="47.27175" lon="-2.29342">
        <ele>29.799999237061</ele>
        <time>2019-11-17T09:49:55.000Z</time>
      </trkpt>
      <trkpt lat="47.27179" lon="-2.29348">
        <ele>29.799999237061</ele>
        <time>2019-11-17T09:49:57.000Z</time>
      </trkpt>
      <trkpt lat="47.27183" lon="-2.29355">
        <ele>29.799999237061</ele>
        <time>2019-11-17T09:49:58.000Z</time>
      </trkpt>
      <trkpt lat="47.2719" lon="-2.29368">
        <ele>29.799999237061</ele>
        <time>2019-11-17T09:50:00.000Z</time>
      </trkpt>
      <trkpt lat="47.27193" lon="-2.29375">
        <ele>29.799999237061</ele>
        <time>2019-11-17T09:50:01.000Z</time>
      </trkpt>
      <trkpt lat="47.27203" lon="-2.29404">
        <ele>29.799999237061</ele>
        <time>2019-11-17T09:50:06.000Z</time>
      </trkpt>
      <trkpt lat="47.27205" lon="-2.2941">
        <ele>29.799999237061</ele>
        <time>2019-11-17T09:50:07.000Z</time>
      </trkpt>
      <trkpt lat="47.27208" lon="-2.29422">
        <ele>29.799999237061</ele>
        <time>2019-11-17T09:50:09.000Z</time>
      </trkpt>
      <trkpt lat="47.27216" lon="-2.2944">
        <ele>30.200000762939</ele>
        <time>2019-11-17T09:50:12.000Z</time>
      </trkpt>
      <trkpt lat="47.27218" lon="-2.29446">
        <ele>30.60000038147</ele>
        <time>2019-11-17T09:50:13.000Z</time>
      </trkpt>
      <trkpt lat="47.2722" lon="-2.29452">
        <ele>31</ele>
        <time>2019-11-17T09:50:14.000Z</time>
      </trkpt>
      <trkpt lat="47.27222" lon="-2.29459">
        <ele>31.39999961853</ele>
        <time>2019-11-17T09:50:15.000Z</time>
      </trkpt>
      <trkpt lat="47.27223" lon="-2.29466">
        <ele>31.799999237061</ele>
        <time>2019-11-17T09:50:16.000Z</time>
      </trkpt>
      <trkpt lat="47.27229" lon="-2.29483">
        <ele>31.799999237061</ele>
        <time>2019-11-17T09:50:19.000Z</time>
      </trkpt>
      <trkpt lat="47.27239" lon="-2.29508">
        <ele>31.799999237061</ele>
        <time>2019-11-17T09:50:25.000Z</time>
      </trkpt>
      <trkpt lat="47.27248" lon="-2.29531">
        <ele>31.799999237061</ele>
        <time>2019-11-17T09:50:30.000Z</time>
      </trkpt>
      <trkpt lat="47.27253" lon="-2.29554">
        <ele>31.799999237061</ele>
        <time>2019-11-17T09:50:35.000Z</time>
      </trkpt>
      <trkpt lat="47.27256" lon="-2.29571">
        <ele>31.799999237061</ele>
        <time>2019-11-17T09:50:40.000Z</time>
      </trkpt>
      <trkpt lat="47.27259" lon="-2.29594">
        <ele>31.799999237061</ele>
        <time>2019-11-17T09:50:44.000Z</time>
      </trkpt>
      <trkpt lat="47.2726" lon="-2.29601">
        <ele>31.799999237061</ele>
        <time>2019-11-17T09:50:45.000Z</time>
      </trkpt>
      <trkpt lat="47.27269" lon="-2.29633">
        <ele>31.799999237061</ele>
        <time>2019-11-17T09:50:51.000Z</time>
      </trkpt>
      <trkpt lat="47.27279" lon="-2.29634">
        <ele>31.799999237061</ele>
        <time>2019-11-17T09:50:54.000Z</time>
      </trkpt>
      <trkpt lat="47.27308" lon="-2.29634">
        <ele>31.799999237061</ele>
        <time>2019-11-17T09:51:00.000Z</time>
      </trkpt>
      <trkpt lat="47.27351" lon="-2.29629">
        <ele>31.799999237061</ele>
        <time>2019-11-17T09:51:08.000Z</time>
      </trkpt>
      <trkpt lat="47.27381" lon="-2.29625">
        <ele>31.799999237061</ele>
        <time>2019-11-17T09:51:14.000Z</time>
      </trkpt>
      <trkpt lat="47.27421" lon="-2.29616">
        <ele>31.799999237061</ele>
        <time>2019-11-17T09:51:22.000Z</time>
      </trkpt>
      <trkpt lat="47.27458" lon="-2.29606">
        <ele>31.799999237061</ele>
        <time>2019-11-17T09:51:29.000Z</time>
      </trkpt>
      <trkpt lat="47.27485" lon="-2.29599">
        <ele>31.799999237061</ele>
        <time>2019-11-17T09:51:34.000Z</time>
      </trkpt>
      <trkpt lat="47.27491" lon="-2.29598">
        <ele>31.799999237061</ele>
        <time>2019-11-17T09:51:35.000Z</time>
      </trkpt>
      <trkpt lat="47.27538" lon="-2.29591">
        <ele>31.799999237061</ele>
        <time>2019-11-17T09:51:43.000Z</time>
      </trkpt>
      <trkpt lat="47.27575" lon="-2.29591">
        <ele>31.799999237061</ele>
        <time>2019-11-17T09:51:49.000Z</time>
      </trkpt>
      <trkpt lat="47.27616" lon="-2.29591">
        <ele>31.799999237061</ele>
        <time>2019-11-17T09:51:56.000Z</time>
      </trkpt>
      <trkpt lat="47.27652" lon="-2.2959">
        <ele>31.799999237061</ele>
        <time>2019-11-17T09:52:02.000Z</time>
      </trkpt>
      <trkpt lat="47.27708" lon="-2.29591">
        <ele>31.799999237061</ele>
        <time>2019-11-17T09:52:11.000Z</time>
      </trkpt>
      <trkpt lat="47.27751" lon="-2.29589">
        <ele>31.799999237061</ele>
        <time>2019-11-17T09:52:18.000Z</time>
      </trkpt>
      <trkpt lat="47.27792" lon="-2.29589">
        <ele>31.799999237061</ele>
        <time>2019-11-17T09:52:25.000Z</time>
      </trkpt>
      <trkpt lat="47.27822" lon="-2.29589">
        <ele>31.799999237061</ele>
        <time>2019-11-17T09:52:31.000Z</time>
      </trkpt>
      <trkpt lat="47.27843" lon="-2.29587">
        <ele>31.799999237061</ele>
        <time>2019-11-17T09:52:37.000Z</time>
      </trkpt>
      <trkpt lat="47.2785" lon="-2.29587">
        <ele>31.799999237061</ele>
        <time>2019-11-17T09:52:41.000Z</time>
      </trkpt>
      <trkpt lat="47.27866" lon="-2.2959">
        <ele>31.799999237061</ele>
        <time>2019-11-17T09:52:46.000Z</time>
      </trkpt>
      <trkpt lat="47.27888" lon="-2.29591">
        <ele>31.799999237061</ele>
        <time>2019-11-17T09:52:51.000Z</time>
      </trkpt>
      <trkpt lat="47.27893" lon="-2.29591">
        <ele>31.799999237061</ele>
        <time>2019-11-17T09:52:52.000Z</time>
      </trkpt>
      <trkpt lat="47.27923" lon="-2.29593">
        <ele>31.799999237061</ele>
        <time>2019-11-17T09:52:59.000Z</time>
      </trkpt>
      <trkpt lat="47.27945" lon="-2.29596">
        <ele>32.200000762939</ele>
        <time>2019-11-17T09:53:04.000Z</time>
      </trkpt>
      <trkpt lat="47.27949" lon="-2.29596">
        <ele>32.599998474121</ele>
        <time>2019-11-17T09:53:05.000Z</time>
      </trkpt>
      <trkpt lat="47.27954" lon="-2.29595">
        <ele>33</ele>
        <time>2019-11-17T09:53:06.000Z</time>
      </trkpt>
      <trkpt lat="47.27958" lon="-2.29594">
        <ele>33.400001525879</ele>
        <time>2019-11-17T09:53:07.000Z</time>
      </trkpt>
      <trkpt lat="47.27963" lon="-2.29592">
        <ele>33.799999237061</ele>
        <time>2019-11-17T09:53:08.000Z</time>
      </trkpt>
      <trkpt lat="47.27981" lon="-2.29589">
        <ele>33.799999237061</ele>
        <time>2019-11-17T09:53:12.000Z</time>
      </trkpt>
      <trkpt lat="47.27996" lon="-2.29584">
        <ele>33.799999237061</ele>
        <time>2019-11-17T09:53:15.000Z</time>
      </trkpt>
      <trkpt lat="47.28013" lon="-2.29578">
        <ele>33.799999237061</ele>
        <time>2019-11-17T09:53:18.000Z</time>
      </trkpt>
      <trkpt lat="47.28053" lon="-2.29561">
        <ele>33.799999237061</ele>
        <time>2019-11-17T09:53:26.000Z</time>
      </trkpt>
      <trkpt lat="47.28074" lon="-2.2955">
        <ele>33.799999237061</ele>
        <time>2019-11-17T09:53:30.000Z</time>
      </trkpt>
      <trkpt lat="47.28085" lon="-2.29545">
        <ele>33.799999237061</ele>
        <time>2019-11-17T09:53:32.000Z</time>
      </trkpt>
      <trkpt lat="47.28129" lon="-2.29527">
        <ele>33.799999237061</ele>
        <time>2019-11-17T09:53:40.000Z</time>
      </trkpt>
      <trkpt lat="47.28161" lon="-2.29514">
        <ele>33.799999237061</ele>
        <time>2019-11-17T09:53:45.000Z</time>
      </trkpt>
      <trkpt lat="47.2818" lon="-2.29507">
        <ele>33.799999237061</ele>
        <time>2019-11-17T09:53:48.000Z</time>
      </trkpt>
      <trkpt lat="47.28193" lon="-2.29501">
        <ele>33.799999237061</ele>
        <time>2019-11-17T09:53:50.000Z</time>
      </trkpt>
      <trkpt lat="47.28226" lon="-2.29487">
        <ele>33.400001525879</ele>
        <time>2019-11-17T09:53:55.000Z</time>
      </trkpt>
      <trkpt lat="47.28232" lon="-2.29483">
        <ele>33</ele>
        <time>2019-11-17T09:53:56.000Z</time>
      </trkpt>
      <trkpt lat="47.28238" lon="-2.29479">
        <ele>32.599998474121</ele>
        <time>2019-11-17T09:53:57.000Z</time>
      </trkpt>
      <trkpt lat="47.28244" lon="-2.29475">
        <ele>32.200000762939</ele>
        <time>2019-11-17T09:53:58.000Z</time>
      </trkpt>
      <trkpt lat="47.2825" lon="-2.29472">
        <ele>31.799999237061</ele>
        <time>2019-11-17T09:53:59.000Z</time>
      </trkpt>
      <trkpt lat="47.28281" lon="-2.29453">
        <ele>31.39999961853</ele>
        <time>2019-11-17T09:54:04.000Z</time>
      </trkpt>
      <trkpt lat="47.28288" lon="-2.29448">
        <ele>31</ele>
        <time>2019-11-17T09:54:05.000Z</time>
      </trkpt>
      <trkpt lat="47.28294" lon="-2.29444">
        <ele>30.60000038147</ele>
        <time>2019-11-17T09:54:06.000Z</time>
      </trkpt>
      <trkpt lat="47.283" lon="-2.29439">
        <ele>30.200000762939</ele>
        <time>2019-11-17T09:54:07.000Z</time>
      </trkpt>
      <trkpt lat="47.28306" lon="-2.29434">
        <ele>29.799999237061</ele>
        <time>2019-11-17T09:54:08.000Z</time>
      </trkpt>
      <trkpt lat="47.28326" lon="-2.29413">
        <ele>29.799999237061</ele>
        <time>2019-11-17T09:54:12.000Z</time>
      </trkpt>
      <trkpt lat="47.28357" lon="-2.29377">
        <ele>29.799999237061</ele>
        <time>2019-11-17T09:54:19.000Z</time>
      </trkpt>
      <trkpt lat="47.28366" lon="-2.29369">
        <ele>29.799999237061</ele>
        <time>2019-11-17T09:54:21.000Z</time>
      </trkpt>
      <trkpt lat="47.28386" lon="-2.29356">
        <ele>29.799999237061</ele>
        <time>2019-11-17T09:54:25.000Z</time>
      </trkpt>
      <trkpt lat="47.28422" lon="-2.29336">
        <ele>29.799999237061</ele>
        <time>2019-11-17T09:54:32.000Z</time>
      </trkpt>
      <trkpt lat="47.28467" lon="-2.29319">
        <ele>29.799999237061</ele>
        <time>2019-11-17T09:54:40.000Z</time>
      </trkpt>
      <trkpt lat="47.28477" lon="-2.29314">
        <ele>29.200000762939</ele>
        <time>2019-11-17T09:54:42.000Z</time>
      </trkpt>
      <trkpt lat="47.28483" lon="-2.29311">
        <ele>28.799999237061</ele>
        <time>2019-11-17T09:54:43.000Z</time>
      </trkpt>
      <trkpt lat="47.28489" lon="-2.29308">
        <ele>28.39999961853</ele>
        <time>2019-11-17T09:54:44.000Z</time>
      </trkpt>
      <trkpt lat="47.28494" lon="-2.29305">
        <ele>27.799999237061</ele>
        <time>2019-11-17T09:54:45.000Z</time>
      </trkpt>
      <trkpt lat="47.28501" lon="-2.29301">
        <ele>27.39999961853</ele>
        <time>2019-11-17T09:54:46.000Z</time>
      </trkpt>
      <trkpt lat="47.28523" lon="-2.29288">
        <ele>27.39999961853</ele>
        <time>2019-11-17T09:54:51.000Z</time>
      </trkpt>
      <trkpt lat="47.28524" lon="-2.29284">
        <ele>27</ele>
        <time>2019-11-17T09:54:52.000Z</time>
      </trkpt>
      <trkpt lat="47.28524" lon="-2.29279">
        <ele>26.39999961853</ele>
        <time>2019-11-17T09:54:53.000Z</time>
      </trkpt>
      <trkpt lat="47.28523" lon="-2.29274">
        <ele>26</ele>
        <time>2019-11-17T09:54:54.000Z</time>
      </trkpt>
      <trkpt lat="47.28522" lon="-2.29268">
        <ele>25.39999961853</ele>
        <time>2019-11-17T09:54:55.000Z</time>
      </trkpt>
      <trkpt lat="47.28522" lon="-2.29261">
        <ele>25</ele>
        <time>2019-11-17T09:54:56.000Z</time>
      </trkpt>
      <trkpt lat="47.28522" lon="-2.29238">
        <ele>25</ele>
        <time>2019-11-17T09:54:59.000Z</time>
      </trkpt>
      <trkpt lat="47.28523" lon="-2.29206">
        <ele>25</ele>
        <time>2019-11-17T09:55:03.000Z</time>
      </trkpt>
      <trkpt lat="47.28529" lon="-2.29196">
        <ele>25</ele>
        <time>2019-11-17T09:55:05.000Z</time>
      </trkpt>
      <trkpt lat="47.28537" lon="-2.29189">
        <ele>25</ele>
        <time>2019-11-17T09:55:07.000Z</time>
      </trkpt>
      <trkpt lat="47.28552" lon="-2.29177">
        <ele>25</ele>
        <time>2019-11-17T09:55:10.000Z</time>
      </trkpt>
      <trkpt lat="47.28571" lon="-2.2916">
        <ele>25</ele>
        <time>2019-11-17T09:55:14.000Z</time>
      </trkpt>
      <trkpt lat="47.28579" lon="-2.29146">
        <ele>25</ele>
        <time>2019-11-17T09:55:16.000Z</time>
      </trkpt>
      <trkpt lat="47.28595" lon="-2.29109">
        <ele>25</ele>
        <time>2019-11-17T09:55:22.000Z</time>
      </trkpt>
      <trkpt lat="47.28606" lon="-2.29073">
        <ele>25</ele>
        <time>2019-11-17T09:55:28.000Z</time>
      </trkpt>
      <trkpt lat="47.28607" lon="-2.29053">
        <ele>25</ele>
        <time>2019-11-17T09:55:32.000Z</time>
      </trkpt>
      <trkpt lat="47.28597" lon="-2.29046">
        <ele>25</ele>
        <time>2019-11-17T09:55:36.000Z</time>
      </trkpt>
      <trkpt lat="47.28591" lon="-2.29043">
        <ele>25</ele>
        <time>2019-11-17T09:55:39.000Z</time>
      </trkpt>
      <trkpt lat="47.28588" lon="-2.29042">
        <ele>25</ele>
        <time>2019-11-17T09:55:40.000Z</time>
      </trkpt>
      <trkpt lat="47.28576" lon="-2.29042">
        <ele>25</ele>
        <time>2019-11-17T09:55:45.000Z</time>
      </trkpt>
      <trkpt lat="47.2856" lon="-2.29038">
        <ele>25</ele>
        <time>2019-11-17T09:55:51.000Z</time>
      </trkpt>
      <trkpt lat="47.28543" lon="-2.29033">
        <ele>25</ele>
        <time>2019-11-17T09:55:57.000Z</time>
      </trkpt>
      <trkpt lat="47.28524" lon="-2.29026">
        <ele>25</ele>
        <time>2019-11-17T09:56:03.000Z</time>
      </trkpt>
      <trkpt lat="47.28508" lon="-2.29018">
        <ele>25</ele>
        <time>2019-11-17T09:56:08.000Z</time>
      </trkpt>
      <trkpt lat="47.28495" lon="-2.29014">
        <ele>25</ele>
        <time>2019-11-17T09:56:12.000Z</time>
      </trkpt>
      <trkpt lat="47.28472" lon="-2.29008">
        <ele>25</ele>
        <time>2019-11-17T09:56:19.000Z</time>
      </trkpt>
      <trkpt lat="47.28468" lon="-2.29006">
        <ele>25.799999237061</ele>
        <time>2019-11-17T09:56:20.000Z</time>
      </trkpt>
      <trkpt lat="47.28465" lon="-2.29006">
        <ele>26.200000762939</ele>
        <time>2019-11-17T09:56:21.000Z</time>
      </trkpt>
      <trkpt lat="47.28462" lon="-2.29006">
        <ele>26.60000038147</ele>
        <time>2019-11-17T09:56:22.000Z</time>
      </trkpt>
      <trkpt lat="47.28458" lon="-2.29005">
        <ele>27</ele>
        <time>2019-11-17T09:56:23.000Z</time>
      </trkpt>
      <trkpt lat="47.28441" lon="-2.29002">
        <ele>27</ele>
        <time>2019-11-17T09:56:28.000Z</time>
      </trkpt>
      <trkpt lat="47.28421" lon="-2.28999">
        <ele>27.39999961853</ele>
        <time>2019-11-17T09:56:33.000Z</time>
      </trkpt>
      <trkpt lat="47.28417" lon="-2.28998">
        <ele>27.799999237061</ele>
        <time>2019-11-17T09:56:34.000Z</time>
      </trkpt>
      <trkpt lat="47.28414" lon="-2.28997">
        <ele>28.200000762939</ele>
        <time>2019-11-17T09:56:35.000Z</time>
      </trkpt>
      <trkpt lat="47.28411" lon="-2.28995">
        <ele>28.60000038147</ele>
        <time>2019-11-17T09:56:36.000Z</time>
      </trkpt>
      <trkpt lat="47.28407" lon="-2.28992">
        <ele>29.200000762939</ele>
        <time>2019-11-17T09:56:37.000Z</time>
      </trkpt>
      <trkpt lat="47.28404" lon="-2.28991">
        <ele>29.200000762939</ele>
        <time>2019-11-17T09:56:38.000Z</time>
      </trkpt>
      <trkpt lat="47.28398" lon="-2.28986">
        <ele>29.200000762939</ele>
        <time>2019-11-17T09:56:41.000Z</time>
      </trkpt>
      <trkpt lat="47.28398" lon="-2.28982">
        <ele>29.60000038147</ele>
        <time>2019-11-17T09:56:42.000Z</time>
      </trkpt>
      <trkpt lat="47.28398" lon="-2.28978">
        <ele>30</ele>
        <time>2019-11-17T09:56:43.000Z</time>
      </trkpt>
      <trkpt lat="47.28397" lon="-2.28973">
        <ele>30.39999961853</ele>
        <time>2019-11-17T09:56:44.000Z</time>
      </trkpt>
      <trkpt lat="47.28397" lon="-2.28968">
        <ele>31.39999961853</ele>
        <time>2019-11-17T09:56:45.000Z</time>
      </trkpt>
      <trkpt lat="47.28396" lon="-2.28952">
        <ele>31.39999961853</ele>
        <time>2019-11-17T09:56:48.000Z</time>
      </trkpt>
      <trkpt lat="47.28393" lon="-2.28907">
        <ele>31.39999961853</ele>
        <time>2019-11-17T09:56:55.000Z</time>
      </trkpt>
      <trkpt lat="47.28391" lon="-2.28863">
        <ele>31.39999961853</ele>
        <time>2019-11-17T09:57:01.000Z</time>
      </trkpt>
      <trkpt lat="47.28391" lon="-2.28856">
        <ele>31.39999961853</ele>
        <time>2019-11-17T09:57:02.000Z</time>
      </trkpt>
      <trkpt lat="47.28391" lon="-2.28821">
        <ele>31.39999961853</ele>
        <time>2019-11-17T09:57:07.000Z</time>
      </trkpt>
      <trkpt lat="47.28388" lon="-2.28755">
        <ele>31.39999961853</ele>
        <time>2019-11-17T09:57:16.000Z</time>
      </trkpt>
      <trkpt lat="47.28385" lon="-2.28704">
        <ele>31.39999961853</ele>
        <time>2019-11-17T09:57:23.000Z</time>
      </trkpt>
      <trkpt lat="47.28385" lon="-2.28689">
        <ele>31.799999237061</ele>
        <time>2019-11-17T09:57:25.000Z</time>
      </trkpt>
      <trkpt lat="47.28384" lon="-2.28682">
        <ele>32.200000762939</ele>
        <time>2019-11-17T09:57:26.000Z</time>
      </trkpt>
      <trkpt lat="47.28384" lon="-2.28674">
        <ele>32.599998474121</ele>
        <time>2019-11-17T09:57:27.000Z</time>
      </trkpt>
      <trkpt lat="47.28383" lon="-2.28666">
        <ele>33</ele>
        <time>2019-11-17T09:57:28.000Z</time>
      </trkpt>
      <trkpt lat="47.28383" lon="-2.28658">
        <ele>33.400001525879</ele>
        <time>2019-11-17T09:57:29.000Z</time>
      </trkpt>
      <trkpt lat="47.28383" lon="-2.28649">
        <ele>33.400001525879</ele>
        <time>2019-11-17T09:57:30.000Z</time>
      </trkpt>
      <trkpt lat="47.28381" lon="-2.2858">
        <ele>33.400001525879</ele>
        <time>2019-11-17T09:57:38.000Z</time>
      </trkpt>
      <trkpt lat="47.2838" lon="-2.28571">
        <ele>33.400001525879</ele>
        <time>2019-11-17T09:57:39.000Z</time>
      </trkpt>
      <trkpt lat="47.28379" lon="-2.28537">
        <ele>33.400001525879</ele>
        <time>2019-11-17T09:57:43.000Z</time>
      </trkpt>
      <trkpt lat="47.28377" lon="-2.28487">
        <ele>33.400001525879</ele>
        <time>2019-11-17T09:57:49.000Z</time>
      </trkpt>
      <trkpt lat="47.28375" lon="-2.28432">
        <ele>33.400001525879</ele>
        <time>2019-11-17T09:57:56.000Z</time>
      </trkpt>
      <trkpt lat="47.28373" lon="-2.28392">
        <ele>33.400001525879</ele>
        <time>2019-11-17T09:58:01.000Z</time>
      </trkpt>
      <trkpt lat="47.28372" lon="-2.28384">
        <ele>33.400001525879</ele>
        <time>2019-11-17T09:58:02.000Z</time>
      </trkpt>
      <trkpt lat="47.28371" lon="-2.28363">
        <ele>33.400001525879</ele>
        <time>2019-11-17T09:58:05.000Z</time>
      </trkpt>
      <trkpt lat="47.28372" lon="-2.2834">
        <ele>33.400001525879</ele>
        <time>2019-11-17T09:58:08.000Z</time>
      </trkpt>
      <trkpt lat="47.28371" lon="-2.28281">
        <ele>33.400001525879</ele>
        <time>2019-11-17T09:58:16.000Z</time>
      </trkpt>
      <trkpt lat="47.2837" lon="-2.28235">
        <ele>33.400001525879</ele>
        <time>2019-11-17T09:58:22.000Z</time>
      </trkpt>
      <trkpt lat="47.2837" lon="-2.28227">
        <ele>33</ele>
        <time>2019-11-17T09:58:23.000Z</time>
      </trkpt>
      <trkpt lat="47.2837" lon="-2.28219">
        <ele>32</ele>
        <time>2019-11-17T09:58:24.000Z</time>
      </trkpt>
      <trkpt lat="47.2837" lon="-2.28211">
        <ele>31.60000038147</ele>
        <time>2019-11-17T09:58:25.000Z</time>
      </trkpt>
      <trkpt lat="47.2837" lon="-2.28203">
        <ele>31.200000762939</ele>
        <time>2019-11-17T09:58:26.000Z</time>
      </trkpt>
      <trkpt lat="47.2837" lon="-2.28186">
        <ele>31.200000762939</ele>
        <time>2019-11-17T09:58:28.000Z</time>
      </trkpt>
      <trkpt lat="47.2837" lon="-2.28168">
        <ele>30.799999237061</ele>
        <time>2019-11-17T09:58:30.000Z</time>
      </trkpt>
      <trkpt lat="47.2837" lon="-2.28159">
        <ele>30.39999961853</ele>
        <time>2019-11-17T09:58:31.000Z</time>
      </trkpt>
      <trkpt lat="47.2837" lon="-2.28149">
        <ele>30</ele>
        <time>2019-11-17T09:58:32.000Z</time>
      </trkpt>
      <trkpt lat="47.28369" lon="-2.28139">
        <ele>29.60000038147</ele>
        <time>2019-11-17T09:58:33.000Z</time>
      </trkpt>
      <trkpt lat="47.28368" lon="-2.28129">
        <ele>29</ele>
        <time>2019-11-17T09:58:34.000Z</time>
      </trkpt>
      <trkpt lat="47.28368" lon="-2.28119">
        <ele>28.60000038147</ele>
        <time>2019-11-17T09:58:35.000Z</time>
      </trkpt>
      <trkpt lat="47.28368" lon="-2.2811">
        <ele>28</ele>
        <time>2019-11-17T09:58:36.000Z</time>
      </trkpt>
      <trkpt lat="47.28367" lon="-2.28101">
        <ele>27.39999961853</ele>
        <time>2019-11-17T09:58:37.000Z</time>
      </trkpt>
      <trkpt lat="47.28366" lon="-2.28096">
        <ele>27</ele>
        <time>2019-11-17T09:58:38.000Z</time>
      </trkpt>
      <trkpt lat="47.28365" lon="-2.2809">
        <ele>26.39999961853</ele>
        <time>2019-11-17T09:58:39.000Z</time>
      </trkpt>
      <trkpt lat="47.28366" lon="-2.28085">
        <ele>26</ele>
        <time>2019-11-17T09:58:40.000Z</time>
      </trkpt>
      <trkpt lat="47.28368" lon="-2.28082">
        <ele>25.39999961853</ele>
        <time>2019-11-17T09:58:41.000Z</time>
      </trkpt>
      <trkpt lat="47.28369" lon="-2.28079">
        <ele>24.799999237061</ele>
        <time>2019-11-17T09:58:42.000Z</time>
      </trkpt>
      <trkpt lat="47.2837" lon="-2.28077">
        <ele>24.39999961853</ele>
        <time>2019-11-17T09:58:43.000Z</time>
      </trkpt>
      <trkpt lat="47.28371" lon="-2.28069">
        <ele>24.39999961853</ele>
        <time>2019-11-17T09:58:46.000Z</time>
      </trkpt>
      <trkpt lat="47.28371" lon="-2.28059">
        <ele>24.39999961853</ele>
        <time>2019-11-17T09:58:53.000Z</time>
      </trkpt>
      <trkpt lat="47.28372" lon="-2.28057">
        <ele>24.39999961853</ele>
        <time>2019-11-17T09:58:54.000Z</time>
      </trkpt>
      <trkpt lat="47.28374" lon="-2.28054">
        <ele>24.799999237061</ele>
        <time>2019-11-17T09:58:57.000Z</time>
      </trkpt>
      <trkpt lat="47.28374" lon="-2.28054">
        <ele>25.200000762939</ele>
        <time>2019-11-17T09:58:58.000Z</time>
      </trkpt>
      <trkpt lat="47.28374" lon="-2.28061">
        <ele>26.39999961853</ele>
        <time>2019-11-17T09:59:03.000Z</time>
      </trkpt>
      <trkpt lat="47.28374" lon="-2.28067">
        <ele>26.39999961853</ele>
        <time>2019-11-17T09:59:05.000Z</time>
      </trkpt>
      <trkpt lat="47.28375" lon="-2.2807">
        <ele>26.39999961853</ele>
        <time>2019-11-17T09:59:07.000Z</time>
      </trkpt>
      <trkpt lat="47.28376" lon="-2.28071">
        <ele>26.39999961853</ele>
        <time>2019-11-17T09:59:08.000Z</time>
      </trkpt>
      <trkpt lat="47.28377" lon="-2.28071">
        <ele>26</ele>
        <time>2019-11-17T09:59:09.000Z</time>
      </trkpt>
      <trkpt lat="47.28379" lon="-2.28071">
        <ele>25.60000038147</ele>
        <time>2019-11-17T09:59:10.000Z</time>
      </trkpt>
      <trkpt lat="47.2838" lon="-2.28071">
        <ele>25</ele>
        <time>2019-11-17T09:59:11.000Z</time>
      </trkpt>
      <trkpt lat="47.28382" lon="-2.28071">
        <ele>24.60000038147</ele>
        <time>2019-11-17T09:59:12.000Z</time>
      </trkpt>
      <trkpt lat="47.28384" lon="-2.28072">
        <ele>24.200000762939</ele>
        <time>2019-11-17T09:59:13.000Z</time>
      </trkpt>
      <trkpt lat="47.2839" lon="-2.28072">
        <ele>24.200000762939</ele>
        <time>2019-11-17T09:59:16.000Z</time>
      </trkpt>
      <trkpt lat="47.28392" lon="-2.28071">
        <ele>24.200000762939</ele>
        <time>2019-11-17T09:59:17.000Z</time>
      </trkpt>
      <trkpt lat="47.28396" lon="-2.28073">
        <ele>24.200000762939</ele>
        <time>2019-11-17T09:59:19.000Z</time>
      </trkpt>
      <trkpt lat="47.28402" lon="-2.28076">
        <ele>24.200000762939</ele>
        <time>2019-11-17T09:59:21.000Z</time>
      </trkpt>
      <trkpt lat="47.28412" lon="-2.2808">
        <ele>24.200000762939</ele>
        <time>2019-11-17T09:59:25.000Z</time>
      </trkpt>
      <trkpt lat="47.28419" lon="-2.28077">
        <ele>24.200000762939</ele>
        <time>2019-11-17T09:59:28.000Z</time>
      </trkpt>
      <trkpt lat="47.28421" lon="-2.28077">
        <ele>24.200000762939</ele>
        <time>2019-11-17T09:59:30.000Z</time>
      </trkpt>
      <trkpt lat="47.28425" lon="-2.28078">
        <ele>24.200000762939</ele>
        <time>2019-11-17T09:59:32.000Z</time>
      </trkpt>
      <trkpt lat="47.2843" lon="-2.28078">
        <ele>24.200000762939</ele>
        <time>2019-11-17T09:59:35.000Z</time>
      </trkpt>
      <trkpt lat="47.28435" lon="-2.2808">
        <ele>24.200000762939</ele>
        <time>2019-11-17T09:59:37.000Z</time>
      </trkpt>
      <trkpt lat="47.28444" lon="-2.28082">
        <ele>24.200000762939</ele>
        <time>2019-11-17T09:59:40.000Z</time>
      </trkpt>
      <trkpt lat="47.28449" lon="-2.28087">
        <ele>24.200000762939</ele>
        <time>2019-11-17T09:59:42.000Z</time>
      </trkpt>
      <trkpt lat="47.28459" lon="-2.28091">
        <ele>24.200000762939</ele>
        <time>2019-11-17T09:59:45.000Z</time>
      </trkpt>
      <trkpt lat="47.28462" lon="-2.28091">
        <ele>24.200000762939</ele>
        <time>2019-11-17T09:59:46.000Z</time>
      </trkpt>
      <trkpt lat="47.28475" lon="-2.28081">
        <ele>24.200000762939</ele>
        <time>2019-11-17T09:59:50.000Z</time>
      </trkpt>
      <trkpt lat="47.28478" lon="-2.28081">
        <ele>24.200000762939</ele>
        <time>2019-11-17T09:59:51.000Z</time>
      </trkpt>
      <trkpt lat="47.28485" lon="-2.28076">
        <ele>24.200000762939</ele>
        <time>2019-11-17T09:59:53.000Z</time>
      </trkpt>
      <trkpt lat="47.28485" lon="-2.28073">
        <ele>24.60000038147</ele>
        <time>2019-11-17T09:59:54.000Z</time>
      </trkpt>
      <trkpt lat="47.28485" lon="-2.28072">
        <ele>25</ele>
        <time>2019-11-17T09:59:55.000Z</time>
      </trkpt>
      <trkpt lat="47.28484" lon="-2.28071">
        <ele>25.39999961853</ele>
        <time>2019-11-17T09:59:56.000Z</time>
      </trkpt>
      <trkpt lat="47.28483" lon="-2.2807">
        <ele>25.799999237061</ele>
        <time>2019-11-17T09:59:57.000Z</time>
      </trkpt>
      <trkpt lat="47.28481" lon="-2.28068">
        <ele>26.39999961853</ele>
        <time>2019-11-17T09:59:58.000Z</time>
      </trkpt>
      <trkpt lat="47.28481" lon="-2.28058">
        <ele>26.39999961853</ele>
        <time>2019-11-17T10:00:01.000Z</time>
      </trkpt>
      <trkpt lat="47.28481" lon="-2.28049">
        <ele>27.200000762939</ele>
        <time>2019-11-17T10:00:03.000Z</time>
      </trkpt>
      <trkpt lat="47.28482" lon="-2.28046">
        <ele>27.60000038147</ele>
        <time>2019-11-17T10:00:04.000Z</time>
      </trkpt>
      <trkpt lat="47.28484" lon="-2.28045">
        <ele>28</ele>
        <time>2019-11-17T10:00:05.000Z</time>
      </trkpt>
      <trkpt lat="47.28486" lon="-2.28043">
        <ele>28.39999961853</ele>
        <time>2019-11-17T10:00:06.000Z</time>
      </trkpt>
      <trkpt lat="47.28498" lon="-2.2804">
        <ele>28.39999961853</ele>
        <time>2019-11-17T10:00:10.000Z</time>
      </trkpt>
      <trkpt lat="47.28501" lon="-2.28042">
        <ele>28.39999961853</ele>
        <time>2019-11-17T10:00:11.000Z</time>
      </trkpt>
      <trkpt lat="47.28513" lon="-2.28049">
        <ele>28.39999961853</ele>
        <time>2019-11-17T10:00:15.000Z</time>
      </trkpt>
      <trkpt lat="47.28521" lon="-2.2805">
        <ele>28</ele>
        <time>2019-11-17T10:00:17.000Z</time>
      </trkpt>
      <trkpt lat="47.28526" lon="-2.28048">
        <ele>27.60000038147</ele>
        <time>2019-11-17T10:00:18.000Z</time>
      </trkpt>
      <trkpt lat="47.2853" lon="-2.28048">
        <ele>27.200000762939</ele>
        <time>2019-11-17T10:00:19.000Z</time>
      </trkpt>
      <trkpt lat="47.28534" lon="-2.28048">
        <ele>26.60000038147</ele>
        <time>2019-11-17T10:00:20.000Z</time>
      </trkpt>
      <trkpt lat="47.28538" lon="-2.28047">
        <ele>26.200000762939</ele>
        <time>2019-11-17T10:00:21.000Z</time>
      </trkpt>
      <trkpt lat="47.28542" lon="-2.28047">
        <ele>25.799999237061</ele>
        <time>2019-11-17T10:00:22.000Z</time>
      </trkpt>
      <trkpt lat="47.28546" lon="-2.28048">
        <ele>25.200000762939</ele>
        <time>2019-11-17T10:00:23.000Z</time>
      </trkpt>
      <trkpt lat="47.28549" lon="-2.2805">
        <ele>24.60000038147</ele>
        <time>2019-11-17T10:00:24.000Z</time>
      </trkpt>
      <trkpt lat="47.28553" lon="-2.28052">
        <ele>24.200000762939</ele>
        <time>2019-11-17T10:00:25.000Z</time>
      </trkpt>
      <trkpt lat="47.28557" lon="-2.28052">
        <ele>23.60000038147</ele>
        <time>2019-11-17T10:00:26.000Z</time>
      </trkpt>
      <trkpt lat="47.28561" lon="-2.28051">
        <ele>22.799999237061</ele>
        <time>2019-11-17T10:00:27.000Z</time>
      </trkpt>
      <trkpt lat="47.28564" lon="-2.28049">
        <ele>22.39999961853</ele>
        <time>2019-11-17T10:00:28.000Z</time>
      </trkpt>
      <trkpt lat="47.28567" lon="-2.28047">
        <ele>21.799999237061</ele>
        <time>2019-11-17T10:00:29.000Z</time>
      </trkpt>
      <trkpt lat="47.2857" lon="-2.28047">
        <ele>21.39999961853</ele>
        <time>2019-11-17T10:00:30.000Z</time>
      </trkpt>
      <trkpt lat="47.28579" lon="-2.28037">
        <ele>21.39999961853</ele>
        <time>2019-11-17T10:00:33.000Z</time>
      </trkpt>
      <trkpt lat="47.28598" lon="-2.28012">
        <ele>21.39999961853</ele>
        <time>2019-11-17T10:00:39.000Z</time>
      </trkpt>
      <trkpt lat="47.28601" lon="-2.28006">
        <ele>21.39999961853</ele>
        <time>2019-11-17T10:00:40.000Z</time>
      </trkpt>
      <trkpt lat="47.28607" lon="-2.27986">
        <ele>21.39999961853</ele>
        <time>2019-11-17T10:00:43.000Z</time>
      </trkpt>
      <trkpt lat="47.28612" lon="-2.27965">
        <ele>21.39999961853</ele>
        <time>2019-11-17T10:00:46.000Z</time>
      </trkpt>
      <trkpt lat="47.28618" lon="-2.27952">
        <ele>21.39999961853</ele>
        <time>2019-11-17T10:00:48.000Z</time>
      </trkpt>
      <trkpt lat="47.28628" lon="-2.27935">
        <ele>21.39999961853</ele>
        <time>2019-11-17T10:00:51.000Z</time>
      </trkpt>
      <trkpt lat="47.2863" lon="-2.27912">
        <ele>21.39999961853</ele>
        <time>2019-11-17T10:00:54.000Z</time>
      </trkpt>
      <trkpt lat="47.28631" lon="-2.27905">
        <ele>21.39999961853</ele>
        <time>2019-11-17T10:00:55.000Z</time>
      </trkpt>
      <trkpt lat="47.28632" lon="-2.27896">
        <ele>21.39999961853</ele>
        <time>2019-11-17T10:00:56.000Z</time>
      </trkpt>
      <trkpt lat="47.28636" lon="-2.27865">
        <ele>21.39999961853</ele>
        <time>2019-11-17T10:00:59.000Z</time>
      </trkpt>
      <trkpt lat="47.28643" lon="-2.27826">
        <ele>21.39999961853</ele>
        <time>2019-11-17T10:01:03.000Z</time>
      </trkpt>
      <trkpt lat="47.28649" lon="-2.27799">
        <ele>21.39999961853</ele>
        <time>2019-11-17T10:01:06.000Z</time>
      </trkpt>
      <trkpt lat="47.28667" lon="-2.27749">
        <ele>21.39999961853</ele>
        <time>2019-11-17T10:01:12.000Z</time>
      </trkpt>
      <trkpt lat="47.28687" lon="-2.2771">
        <ele>21.39999961853</ele>
        <time>2019-11-17T10:01:17.000Z</time>
      </trkpt>
      <trkpt lat="47.287" lon="-2.27688">
        <ele>21</ele>
        <time>2019-11-17T10:01:20.000Z</time>
      </trkpt>
      <trkpt lat="47.28704" lon="-2.2768">
        <ele>20.60000038147</ele>
        <time>2019-11-17T10:01:21.000Z</time>
      </trkpt>
      <trkpt lat="47.28708" lon="-2.27673">
        <ele>20.200000762939</ele>
        <time>2019-11-17T10:01:22.000Z</time>
      </trkpt>
      <trkpt lat="47.28712" lon="-2.27667">
        <ele>19.799999237061</ele>
        <time>2019-11-17T10:01:23.000Z</time>
      </trkpt>
      <trkpt lat="47.28716" lon="-2.2766">
        <ele>19.39999961853</ele>
        <time>2019-11-17T10:01:24.000Z</time>
      </trkpt>
      <trkpt lat="47.28737" lon="-2.27627">
        <ele>19.39999961853</ele>
        <time>2019-11-17T10:01:29.000Z</time>
      </trkpt>
      <trkpt lat="47.28762" lon="-2.27591">
        <ele>19.39999961853</ele>
        <time>2019-11-17T10:01:35.000Z</time>
      </trkpt>
      <trkpt lat="47.28779" lon="-2.2757">
        <ele>19.39999961853</ele>
        <time>2019-11-17T10:01:39.000Z</time>
      </trkpt>
      <trkpt lat="47.28783" lon="-2.27565">
        <ele>19.39999961853</ele>
        <time>2019-11-17T10:01:40.000Z</time>
      </trkpt>
      <trkpt lat="47.288" lon="-2.27542">
        <ele>19.39999961853</ele>
        <time>2019-11-17T10:01:44.000Z</time>
      </trkpt>
      <trkpt lat="47.28805" lon="-2.27539">
        <ele>19.39999961853</ele>
        <time>2019-11-17T10:01:45.000Z</time>
      </trkpt>
      <trkpt lat="47.28817" lon="-2.27536">
        <ele>19</ele>
        <time>2019-11-17T10:01:47.000Z</time>
      </trkpt>
      <trkpt lat="47.28823" lon="-2.27536">
        <ele>18.39999961853</ele>
        <time>2019-11-17T10:01:48.000Z</time>
      </trkpt>
      <trkpt lat="47.28828" lon="-2.27535">
        <ele>18</ele>
        <time>2019-11-17T10:01:49.000Z</time>
      </trkpt>
      <trkpt lat="47.28833" lon="-2.27534">
        <ele>17.60000038147</ele>
        <time>2019-11-17T10:01:50.000Z</time>
      </trkpt>
      <trkpt lat="47.28839" lon="-2.27533">
        <ele>17.200000762939</ele>
        <time>2019-11-17T10:01:51.000Z</time>
      </trkpt>
      <trkpt lat="47.28854" lon="-2.27533">
        <ele>17.200000762939</ele>
        <time>2019-11-17T10:01:54.000Z</time>
      </trkpt>
      <trkpt lat="47.28881" lon="-2.27528">
        <ele>17.200000762939</ele>
        <time>2019-11-17T10:01:59.000Z</time>
      </trkpt>
      <trkpt lat="47.28915" lon="-2.27522">
        <ele>17.200000762939</ele>
        <time>2019-11-17T10:02:05.000Z</time>
      </trkpt>
      <trkpt lat="47.28942" lon="-2.27521">
        <ele>17.200000762939</ele>
        <time>2019-11-17T10:02:10.000Z</time>
      </trkpt>
      <trkpt lat="47.28968" lon="-2.2752">
        <ele>17.200000762939</ele>
        <time>2019-11-17T10:02:15.000Z</time>
      </trkpt>
      <trkpt lat="47.28977" lon="-2.27519">
        <ele>17.200000762939</ele>
        <time>2019-11-17T10:02:17.000Z</time>
      </trkpt>
      <trkpt lat="47.29016" lon="-2.27519">
        <ele>17.200000762939</ele>
        <time>2019-11-17T10:02:24.000Z</time>
      </trkpt>
      <trkpt lat="47.29066" lon="-2.27524">
        <ele>17.200000762939</ele>
        <time>2019-11-17T10:02:33.000Z</time>
      </trkpt>
      <trkpt lat="47.29098" lon="-2.2753">
        <ele>17.200000762939</ele>
        <time>2019-11-17T10:02:40.000Z</time>
      </trkpt>
      <trkpt lat="47.29107" lon="-2.2753">
        <ele>17.200000762939</ele>
        <time>2019-11-17T10:02:42.000Z</time>
      </trkpt>
      <trkpt lat="47.29122" lon="-2.27529">
        <ele>17.200000762939</ele>
        <time>2019-11-17T10:02:45.000Z</time>
      </trkpt>
      <trkpt lat="47.29154" lon="-2.2753">
        <ele>17.200000762939</ele>
        <time>2019-11-17T10:02:51.000Z</time>
      </trkpt>
      <trkpt lat="47.29194" lon="-2.2753">
        <ele>17.200000762939</ele>
        <time>2019-11-17T10:02:58.000Z</time>
      </trkpt>
      <trkpt lat="47.29226" lon="-2.27528">
        <ele>17.200000762939</ele>
        <time>2019-11-17T10:03:04.000Z</time>
      </trkpt>
      <trkpt lat="47.29253" lon="-2.27526">
        <ele>17.200000762939</ele>
        <time>2019-11-17T10:03:10.000Z</time>
      </trkpt>
      <trkpt lat="47.29266" lon="-2.27517">
        <ele>17.200000762939</ele>
        <time>2019-11-17T10:03:16.000Z</time>
      </trkpt>
      <trkpt lat="47.29279" lon="-2.27516">
        <ele>17.200000762939</ele>
        <time>2019-11-17T10:03:20.000Z</time>
      </trkpt>
      <trkpt lat="47.29282" lon="-2.27519">
        <ele>17.200000762939</ele>
        <time>2019-11-17T10:03:21.000Z</time>
      </trkpt>
      <trkpt lat="47.29289" lon="-2.27526">
        <ele>17.200000762939</ele>
        <time>2019-11-17T10:03:23.000Z</time>
      </trkpt>
      <trkpt lat="47.29298" lon="-2.2753">
        <ele>17.200000762939</ele>
        <time>2019-11-17T10:03:25.000Z</time>
      </trkpt>
      <trkpt lat="47.29315" lon="-2.27534">
        <ele>17.200000762939</ele>
        <time>2019-11-17T10:03:28.000Z</time>
      </trkpt>
      <trkpt lat="47.29326" lon="-2.27534">
        <ele>17.200000762939</ele>
        <time>2019-11-17T10:03:30.000Z</time>
      </trkpt>
      <trkpt lat="47.29356" lon="-2.2753">
        <ele>17.200000762939</ele>
        <time>2019-11-17T10:03:36.000Z</time>
      </trkpt>
      <trkpt lat="47.2936" lon="-2.27529">
        <ele>17.200000762939</ele>
        <time>2019-11-17T10:03:37.000Z</time>
      </trkpt>
      <trkpt lat="47.29378" lon="-2.27523">
        <ele>17.200000762939</ele>
        <time>2019-11-17T10:03:41.000Z</time>
      </trkpt>
      <trkpt lat="47.29417" lon="-2.27512">
        <ele>17.200000762939</ele>
        <time>2019-11-17T10:03:48.000Z</time>
      </trkpt>
      <trkpt lat="47.29453" lon="-2.27514">
        <ele>17.200000762939</ele>
        <time>2019-11-17T10:03:54.000Z</time>
      </trkpt>
      <trkpt lat="47.29492" lon="-2.27524">
        <ele>17.200000762939</ele>
        <time>2019-11-17T10:04:01.000Z</time>
      </trkpt>
      <trkpt lat="47.2952" lon="-2.27533">
        <ele>17.200000762939</ele>
        <time>2019-11-17T10:04:06.000Z</time>
      </trkpt>
      <trkpt lat="47.29564" lon="-2.27547">
        <ele>17.200000762939</ele>
        <time>2019-11-17T10:04:13.000Z</time>
      </trkpt>
      <trkpt lat="47.29599" lon="-2.27565">
        <ele>17.200000762939</ele>
        <time>2019-11-17T10:04:19.000Z</time>
      </trkpt>
      <trkpt lat="47.29635" lon="-2.27589">
        <ele>16.799999237061</ele>
        <time>2019-11-17T10:04:25.000Z</time>
      </trkpt>
      <trkpt lat="47.29641" lon="-2.27594">
        <ele>16.39999961853</ele>
        <time>2019-11-17T10:04:26.000Z</time>
      </trkpt>
      <trkpt lat="47.29647" lon="-2.27598">
        <ele>15.800000190735</ele>
        <time>2019-11-17T10:04:27.000Z</time>
      </trkpt>
      <trkpt lat="47.29654" lon="-2.27602">
        <ele>15.39999961853</ele>
        <time>2019-11-17T10:04:28.000Z</time>
      </trkpt>
      <trkpt lat="47.2966" lon="-2.27605">
        <ele>15</ele>
        <time>2019-11-17T10:04:29.000Z</time>
      </trkpt>
      <trkpt lat="47.29674" lon="-2.27611">
        <ele>15</ele>
        <time>2019-11-17T10:04:31.000Z</time>
      </trkpt>
      <trkpt lat="47.29681" lon="-2.27612">
        <ele>15</ele>
        <time>2019-11-17T10:04:32.000Z</time>
      </trkpt>
      <trkpt lat="47.29695" lon="-2.27614">
        <ele>14.60000038147</ele>
        <time>2019-11-17T10:04:34.000Z</time>
      </trkpt>
      <trkpt lat="47.29702" lon="-2.27615">
        <ele>14.199999809265</ele>
        <time>2019-11-17T10:04:35.000Z</time>
      </trkpt>
      <trkpt lat="47.29708" lon="-2.27614">
        <ele>13.60000038147</ele>
        <time>2019-11-17T10:04:36.000Z</time>
      </trkpt>
      <trkpt lat="47.29715" lon="-2.27613">
        <ele>13.199999809265</ele>
        <time>2019-11-17T10:04:37.000Z</time>
      </trkpt>
      <trkpt lat="47.29721" lon="-2.27612">
        <ele>12.800000190735</ele>
        <time>2019-11-17T10:04:38.000Z</time>
      </trkpt>
      <trkpt lat="47.29727" lon="-2.2761">
        <ele>12.800000190735</ele>
        <time>2019-11-17T10:04:39.000Z</time>
      </trkpt>
      <trkpt lat="47.29733" lon="-2.27608">
        <ele>12.800000190735</ele>
        <time>2019-11-17T10:04:40.000Z</time>
      </trkpt>
      <trkpt lat="47.29758" lon="-2.27596">
        <ele>12.800000190735</ele>
        <time>2019-11-17T10:04:45.000Z</time>
      </trkpt>
      <trkpt lat="47.29776" lon="-2.2759">
        <ele>12.800000190735</ele>
        <time>2019-11-17T10:04:48.000Z</time>
      </trkpt>
      <trkpt lat="47.29788" lon="-2.27591">
        <ele>12.800000190735</ele>
        <time>2019-11-17T10:04:50.000Z</time>
      </trkpt>
      <trkpt lat="47.29808" lon="-2.27597">
        <ele>12.800000190735</ele>
        <time>2019-11-17T10:04:53.000Z</time>
      </trkpt>
      <trkpt lat="47.2982" lon="-2.27604">
        <ele>12.800000190735</ele>
        <time>2019-11-17T10:04:55.000Z</time>
      </trkpt>
      <trkpt lat="47.29849" lon="-2.27619">
        <ele>12.800000190735</ele>
        <time>2019-11-17T10:05:00.000Z</time>
      </trkpt>
      <trkpt lat="47.29855" lon="-2.2762">
        <ele>12.800000190735</ele>
        <time>2019-11-17T10:05:01.000Z</time>
      </trkpt>
      <trkpt lat="47.29879" lon="-2.27616">
        <ele>12.800000190735</ele>
        <time>2019-11-17T10:05:05.000Z</time>
      </trkpt>
      <trkpt lat="47.29885" lon="-2.27613">
        <ele>12.800000190735</ele>
        <time>2019-11-17T10:05:06.000Z</time>
      </trkpt>
      <trkpt lat="47.29914" lon="-2.27598">
        <ele>12.800000190735</ele>
        <time>2019-11-17T10:05:11.000Z</time>
      </trkpt>
      <trkpt lat="47.29937" lon="-2.27597">
        <ele>12.800000190735</ele>
        <time>2019-11-17T10:05:15.000Z</time>
      </trkpt>
      <trkpt lat="47.29943" lon="-2.27599">
        <ele>12.800000190735</ele>
        <time>2019-11-17T10:05:16.000Z</time>
      </trkpt>
      <trkpt lat="47.29952" lon="-2.27608">
        <ele>12.800000190735</ele>
        <time>2019-11-17T10:05:18.000Z</time>
      </trkpt>
      <trkpt lat="47.29958" lon="-2.27631">
        <ele>12.800000190735</ele>
        <time>2019-11-17T10:05:21.000Z</time>
      </trkpt>
      <trkpt lat="47.29957" lon="-2.27664">
        <ele>12.800000190735</ele>
        <time>2019-11-17T10:05:25.000Z</time>
      </trkpt>
      <trkpt lat="47.29957" lon="-2.27673">
        <ele>12.800000190735</ele>
        <time>2019-11-17T10:05:26.000Z</time>
      </trkpt>
      <trkpt lat="47.29951" lon="-2.27743">
        <ele>12.800000190735</ele>
        <time>2019-11-17T10:05:34.000Z</time>
      </trkpt>
      <trkpt lat="47.29946" lon="-2.27806">
        <ele>12.800000190735</ele>
        <time>2019-11-17T10:05:42.000Z</time>
      </trkpt>
      <trkpt lat="47.29941" lon="-2.27871">
        <ele>12.800000190735</ele>
        <time>2019-11-17T10:05:50.000Z</time>
      </trkpt>
      <trkpt lat="47.29941" lon="-2.27879">
        <ele>12.800000190735</ele>
        <time>2019-11-17T10:05:51.000Z</time>
      </trkpt>
      <trkpt lat="47.29937" lon="-2.27922">
        <ele>12.800000190735</ele>
        <time>2019-11-17T10:05:56.000Z</time>
      </trkpt>
      <trkpt lat="47.29934" lon="-2.27957">
        <ele>12.800000190735</ele>
        <time>2019-11-17T10:06:00.000Z</time>
      </trkpt>
      <trkpt lat="47.29933" lon="-2.27974">
        <ele>12.800000190735</ele>
        <time>2019-11-17T10:06:02.000Z</time>
      </trkpt>
      <trkpt lat="47.29938" lon="-2.28015">
        <ele>12.800000190735</ele>
        <time>2019-11-17T10:06:07.000Z</time>
      </trkpt>
      <trkpt lat="47.29941" lon="-2.2803">
        <ele>12.800000190735</ele>
        <time>2019-11-17T10:06:09.000Z</time>
      </trkpt>
      <trkpt lat="47.29948" lon="-2.28042">
        <ele>12.800000190735</ele>
        <time>2019-11-17T10:06:11.000Z</time>
      </trkpt>
      <trkpt lat="47.29963" lon="-2.28048">
        <ele>12.800000190735</ele>
        <time>2019-11-17T10:06:14.000Z</time>
      </trkpt>
      <trkpt lat="47.29977" lon="-2.28039">
        <ele>12.800000190735</ele>
        <time>2019-11-17T10:06:17.000Z</time>
      </trkpt>
      <trkpt lat="47.29981" lon="-2.28036">
        <ele>12.800000190735</ele>
        <time>2019-11-17T10:06:18.000Z</time>
      </trkpt>
      <trkpt lat="47.29991" lon="-2.28034">
        <ele>12.800000190735</ele>
        <time>2019-11-17T10:06:21.000Z</time>
      </trkpt>
      <trkpt lat="47.29992" lon="-2.28045">
        <ele>12.800000190735</ele>
        <time>2019-11-17T10:06:24.000Z</time>
      </trkpt>
      <trkpt lat="47.29987" lon="-2.28058">
        <ele>12.800000190735</ele>
        <time>2019-11-17T10:06:27.000Z</time>
      </trkpt>
      <trkpt lat="47.29985" lon="-2.28064">
        <ele>12.800000190735</ele>
        <time>2019-11-17T10:06:28.000Z</time>
      </trkpt>
      <trkpt lat="47.29975" lon="-2.28105">
        <ele>12.800000190735</ele>
        <time>2019-11-17T10:06:34.000Z</time>
      </trkpt>
      <trkpt lat="47.29963" lon="-2.28149">
        <ele>12.800000190735</ele>
        <time>2019-11-17T10:06:40.000Z</time>
      </trkpt>
      <trkpt lat="47.29961" lon="-2.28155">
        <ele>12.800000190735</ele>
        <time>2019-11-17T10:06:41.000Z</time>
      </trkpt>
      <trkpt lat="47.29959" lon="-2.28162">
        <ele>12.800000190735</ele>
        <time>2019-11-17T10:06:42.000Z</time>
      </trkpt>
      <trkpt lat="47.29951" lon="-2.28189">
        <ele>12.800000190735</ele>
        <time>2019-11-17T10:06:46.000Z</time>
      </trkpt>
      <trkpt lat="47.29949" lon="-2.28203">
        <ele>12.800000190735</ele>
        <time>2019-11-17T10:06:48.000Z</time>
      </trkpt>
      <trkpt lat="47.29948" lon="-2.28209">
        <ele>12.800000190735</ele>
        <time>2019-11-17T10:06:49.000Z</time>
      </trkpt>
      <trkpt lat="47.29949" lon="-2.28216">
        <ele>12.800000190735</ele>
        <time>2019-11-17T10:06:50.000Z</time>
      </trkpt>
      <trkpt lat="47.29951" lon="-2.28231">
        <ele>12.800000190735</ele>
        <time>2019-11-17T10:06:52.000Z</time>
      </trkpt>
      <trkpt lat="47.29955" lon="-2.2829">
        <ele>12.800000190735</ele>
        <time>2019-11-17T10:06:59.000Z</time>
      </trkpt>
      <trkpt lat="47.29953" lon="-2.28325">
        <ele>12.800000190735</ele>
        <time>2019-11-17T10:07:03.000Z</time>
      </trkpt>
      <trkpt lat="47.2995" lon="-2.28358">
        <ele>12.800000190735</ele>
        <time>2019-11-17T10:07:07.000Z</time>
      </trkpt>
      <trkpt lat="47.2995" lon="-2.28384">
        <ele>12.800000190735</ele>
        <time>2019-11-17T10:07:10.000Z</time>
      </trkpt>
      <trkpt lat="47.29951" lon="-2.284">
        <ele>12.800000190735</ele>
        <time>2019-11-17T10:07:12.000Z</time>
      </trkpt>
      <trkpt lat="47.29949" lon="-2.28422">
        <ele>12.800000190735</ele>
        <time>2019-11-17T10:07:15.000Z</time>
      </trkpt>
      <trkpt lat="47.29939" lon="-2.28445">
        <ele>12.800000190735</ele>
        <time>2019-11-17T10:07:19.000Z</time>
      </trkpt>
      <trkpt lat="47.29939" lon="-2.28462">
        <ele>12.800000190735</ele>
        <time>2019-11-17T10:07:21.000Z</time>
      </trkpt>
      <trkpt lat="47.29939" lon="-2.28469">
        <ele>12.800000190735</ele>
        <time>2019-11-17T10:07:22.000Z</time>
      </trkpt>
      <trkpt lat="47.2994" lon="-2.28476">
        <ele>12.800000190735</ele>
        <time>2019-11-17T10:07:23.000Z</time>
      </trkpt>
      <trkpt lat="47.29938" lon="-2.285">
        <ele>12.800000190735</ele>
        <time>2019-11-17T10:07:27.000Z</time>
      </trkpt>
      <trkpt lat="47.29932" lon="-2.28522">
        <ele>12.800000190735</ele>
        <time>2019-11-17T10:07:30.000Z</time>
      </trkpt>
      <trkpt lat="47.29929" lon="-2.28536">
        <ele>12.800000190735</ele>
        <time>2019-11-17T10:07:32.000Z</time>
      </trkpt>
      <trkpt lat="47.29935" lon="-2.28557">
        <ele>12.800000190735</ele>
        <time>2019-11-17T10:07:35.000Z</time>
      </trkpt>
      <trkpt lat="47.29942" lon="-2.28579">
        <ele>12.800000190735</ele>
        <time>2019-11-17T10:07:39.000Z</time>
      </trkpt>
      <trkpt lat="47.29937" lon="-2.28607">
        <ele>12.800000190735</ele>
        <time>2019-11-17T10:07:43.000Z</time>
      </trkpt>
      <trkpt lat="47.29935" lon="-2.28621">
        <ele>12.800000190735</ele>
        <time>2019-11-17T10:07:45.000Z</time>
      </trkpt>
      <trkpt lat="47.29933" lon="-2.28637">
        <ele>12.800000190735</ele>
        <time>2019-11-17T10:07:47.000Z</time>
      </trkpt>
      <trkpt lat="47.29931" lon="-2.28645">
        <ele>12.800000190735</ele>
        <time>2019-11-17T10:07:48.000Z</time>
      </trkpt>
      <trkpt lat="47.29926" lon="-2.2867">
        <ele>12.800000190735</ele>
        <time>2019-11-17T10:07:51.000Z</time>
      </trkpt>
      <trkpt lat="47.29923" lon="-2.28685">
        <ele>12.800000190735</ele>
        <time>2019-11-17T10:07:53.000Z</time>
      </trkpt>
      <trkpt lat="47.29918" lon="-2.28707">
        <ele>12.39999961853</ele>
        <time>2019-11-17T10:07:56.000Z</time>
      </trkpt>
      <trkpt lat="47.29916" lon="-2.28715">
        <ele>12</ele>
        <time>2019-11-17T10:07:57.000Z</time>
      </trkpt>
      <trkpt lat="47.29914" lon="-2.28723">
        <ele>11.60000038147</ele>
        <time>2019-11-17T10:07:58.000Z</time>
      </trkpt>
      <trkpt lat="47.29912" lon="-2.28732">
        <ele>11.199999809265</ele>
        <time>2019-11-17T10:07:59.000Z</time>
      </trkpt>
      <trkpt lat="47.2991" lon="-2.2874">
        <ele>10.800000190735</ele>
        <time>2019-11-17T10:08:00.000Z</time>
      </trkpt>
      <trkpt lat="47.29905" lon="-2.28771">
        <ele>10.800000190735</ele>
        <time>2019-11-17T10:08:04.000Z</time>
      </trkpt>
      <trkpt lat="47.29901" lon="-2.28798">
        <ele>10.800000190735</ele>
        <time>2019-11-17T10:08:08.000Z</time>
      </trkpt>
      <trkpt lat="47.29898" lon="-2.28812">
        <ele>10.800000190735</ele>
        <time>2019-11-17T10:08:10.000Z</time>
      </trkpt>
      <trkpt lat="47.29889" lon="-2.2886">
        <ele>10.800000190735</ele>
        <time>2019-11-17T10:08:16.000Z</time>
      </trkpt>
      <trkpt lat="47.29885" lon="-2.28884">
        <ele>10.800000190735</ele>
        <time>2019-11-17T10:08:19.000Z</time>
      </trkpt>
      <trkpt lat="47.29879" lon="-2.28896">
        <ele>10.800000190735</ele>
        <time>2019-11-17T10:08:21.000Z</time>
      </trkpt>
      <trkpt lat="47.29876" lon="-2.28918">
        <ele>10.800000190735</ele>
        <time>2019-11-17T10:08:24.000Z</time>
      </trkpt>
      <trkpt lat="47.29881" lon="-2.28938">
        <ele>10.800000190735</ele>
        <time>2019-11-17T10:08:27.000Z</time>
      </trkpt>
      <trkpt lat="47.29895" lon="-2.28942">
        <ele>10.800000190735</ele>
        <time>2019-11-17T10:08:30.000Z</time>
      </trkpt>
      <trkpt lat="47.299" lon="-2.28944">
        <ele>10.800000190735</ele>
        <time>2019-11-17T10:08:31.000Z</time>
      </trkpt>
      <trkpt lat="47.29904" lon="-2.28946">
        <ele>10.800000190735</ele>
        <time>2019-11-17T10:08:32.000Z</time>
      </trkpt>
      <trkpt lat="47.29919" lon="-2.28949">
        <ele>10.800000190735</ele>
        <time>2019-11-17T10:08:35.000Z</time>
      </trkpt>
      <trkpt lat="47.29929" lon="-2.28961">
        <ele>10.800000190735</ele>
        <time>2019-11-17T10:08:38.000Z</time>
      </trkpt>
      <trkpt lat="47.29935" lon="-2.28972">
        <ele>10.199999809265</ele>
        <time>2019-11-17T10:08:40.000Z</time>
      </trkpt>
      <trkpt lat="47.29938" lon="-2.28977">
        <ele>9.8000001907349</ele>
        <time>2019-11-17T10:08:41.000Z</time>
      </trkpt>
      <trkpt lat="47.29941" lon="-2.28983">
        <ele>9</ele>
        <time>2019-11-17T10:08:42.000Z</time>
      </trkpt>
      <trkpt lat="47.29944" lon="-2.28989">
        <ele>8.6000003814697</ele>
        <time>2019-11-17T10:08:43.000Z</time>
      </trkpt>
      <trkpt lat="47.29969" lon="-2.29033">
        <ele>8.6000003814697</ele>
        <time>2019-11-17T10:08:50.000Z</time>
      </trkpt>
      <trkpt lat="47.2999" lon="-2.29075">
        <ele>8.6000003814697</ele>
        <time>2019-11-17T10:08:56.000Z</time>
      </trkpt>
      <trkpt lat="47.29993" lon="-2.29082">
        <ele>8.6000003814697</ele>
        <time>2019-11-17T10:08:57.000Z</time>
      </trkpt>
      <trkpt lat="47.30008" lon="-2.29099">
        <ele>8.6000003814697</ele>
        <time>2019-11-17T10:09:00.000Z</time>
      </trkpt>
      <trkpt lat="47.30043" lon="-2.29125">
        <ele>8.6000003814697</ele>
        <time>2019-11-17T10:09:06.000Z</time>
      </trkpt>
      <trkpt lat="47.30048" lon="-2.29129">
        <ele>8.6000003814697</ele>
        <time>2019-11-17T10:09:07.000Z</time>
      </trkpt>
      <trkpt lat="47.30064" lon="-2.29146">
        <ele>8.6000003814697</ele>
        <time>2019-11-17T10:09:10.000Z</time>
      </trkpt>
      <trkpt lat="47.30074" lon="-2.29162">
        <ele>8.6000003814697</ele>
        <time>2019-11-17T10:09:12.000Z</time>
      </trkpt>
      <trkpt lat="47.30091" lon="-2.29187">
        <ele>8.6000003814697</ele>
        <time>2019-11-17T10:09:15.000Z</time>
      </trkpt>
      <trkpt lat="47.30128" lon="-2.29246">
        <ele>8.6000003814697</ele>
        <time>2019-11-17T10:09:22.000Z</time>
      </trkpt>
      <trkpt lat="47.30142" lon="-2.29269">
        <ele>8</ele>
        <time>2019-11-17T10:09:25.000Z</time>
      </trkpt>
      <trkpt lat="47.30147" lon="-2.29276">
        <ele>7.5999999046326</ele>
        <time>2019-11-17T10:09:26.000Z</time>
      </trkpt>
      <trkpt lat="47.30151" lon="-2.29283">
        <ele>7.1999998092651</ele>
        <time>2019-11-17T10:09:27.000Z</time>
      </trkpt>
      <trkpt lat="47.30156" lon="-2.2929">
        <ele>6.8000001907349</ele>
        <time>2019-11-17T10:09:28.000Z</time>
      </trkpt>
      <trkpt lat="47.30161" lon="-2.29296">
        <ele>6.4000000953674</ele>
        <time>2019-11-17T10:09:29.000Z</time>
      </trkpt>
      <trkpt lat="47.30184" lon="-2.29335">
        <ele>6.4000000953674</ele>
        <time>2019-11-17T10:09:35.000Z</time>
      </trkpt>
      <trkpt lat="47.30196" lon="-2.29352">
        <ele>6.4000000953674</ele>
        <time>2019-11-17T10:09:38.000Z</time>
      </trkpt>
      <trkpt lat="47.30206" lon="-2.29361">
        <ele>6.4000000953674</ele>
        <time>2019-11-17T10:09:40.000Z</time>
      </trkpt>
      <trkpt lat="47.3023" lon="-2.29369">
        <ele>6.4000000953674</ele>
        <time>2019-11-17T10:09:44.000Z</time>
      </trkpt>
      <trkpt lat="47.30247" lon="-2.29364">
        <ele>6.4000000953674</ele>
        <time>2019-11-17T10:09:47.000Z</time>
      </trkpt>
      <trkpt lat="47.30253" lon="-2.29361">
        <ele>6.4000000953674</ele>
        <time>2019-11-17T10:09:48.000Z</time>
      </trkpt>
      <trkpt lat="47.30277" lon="-2.29341">
        <ele>6.4000000953674</ele>
        <time>2019-11-17T10:09:52.000Z</time>
      </trkpt>
      <trkpt lat="47.30282" lon="-2.29335">
        <ele>6.4000000953674</ele>
        <time>2019-11-17T10:09:53.000Z</time>
      </trkpt>
      <trkpt lat="47.30315" lon="-2.29303">
        <ele>6.4000000953674</ele>
        <time>2019-11-17T10:09:59.000Z</time>
      </trkpt>
      <trkpt lat="47.30321" lon="-2.29299">
        <ele>6.4000000953674</ele>
        <time>2019-11-17T10:10:00.000Z</time>
      </trkpt>
      <trkpt lat="47.30341" lon="-2.29293">
        <ele>6.4000000953674</ele>
        <time>2019-11-17T10:10:03.000Z</time>
      </trkpt>
      <trkpt lat="47.30348" lon="-2.29292">
        <ele>6.4000000953674</ele>
        <time>2019-11-17T10:10:04.000Z</time>
      </trkpt>
      <trkpt lat="47.30374" lon="-2.29289">
        <ele>6.4000000953674</ele>
        <time>2019-11-17T10:10:08.000Z</time>
      </trkpt>
      <trkpt lat="47.30387" lon="-2.29283">
        <ele>6.4000000953674</ele>
        <time>2019-11-17T10:10:10.000Z</time>
      </trkpt>
      <trkpt lat="47.30393" lon="-2.2928">
        <ele>6.4000000953674</ele>
        <time>2019-11-17T10:10:11.000Z</time>
      </trkpt>
      <trkpt lat="47.30405" lon="-2.2927">
        <ele>6</ele>
        <time>2019-11-17T10:10:13.000Z</time>
      </trkpt>
      <trkpt lat="47.3041" lon="-2.29263">
        <ele>5.5999999046326</ele>
        <time>2019-11-17T10:10:14.000Z</time>
      </trkpt>
      <trkpt lat="47.30415" lon="-2.29257">
        <ele>5</ele>
        <time>2019-11-17T10:10:15.000Z</time>
      </trkpt>
      <trkpt lat="47.3042" lon="-2.29251">
        <ele>4.5999999046326</ele>
        <time>2019-11-17T10:10:16.000Z</time>
      </trkpt>
      <trkpt lat="47.30424" lon="-2.29244">
        <ele>4.1999998092651</ele>
        <time>2019-11-17T10:10:17.000Z</time>
      </trkpt>
      <trkpt lat="47.30433" lon="-2.2923">
        <ele>4.1999998092651</ele>
        <time>2019-11-17T10:10:19.000Z</time>
      </trkpt>
      <trkpt lat="47.30461" lon="-2.29192">
        <ele>4.1999998092651</ele>
        <time>2019-11-17T10:10:25.000Z</time>
      </trkpt>
      <trkpt lat="47.30484" lon="-2.2916">
        <ele>4.1999998092651</ele>
        <time>2019-11-17T10:10:30.000Z</time>
      </trkpt>
      <trkpt lat="47.30487" lon="-2.29153">
        <ele>4.1999998092651</ele>
        <time>2019-11-17T10:10:31.000Z</time>
      </trkpt>
      <trkpt lat="47.30504" lon="-2.29109">
        <ele>4.1999998092651</ele>
        <time>2019-11-17T10:10:37.000Z</time>
      </trkpt>
      <trkpt lat="47.30507" lon="-2.29082">
        <ele>4.1999998092651</ele>
        <time>2019-11-17T10:10:40.000Z</time>
      </trkpt>
      <trkpt lat="47.30506" lon="-2.29073">
        <ele>4.1999998092651</ele>
        <time>2019-11-17T10:10:41.000Z</time>
      </trkpt>
      <trkpt lat="47.30502" lon="-2.29048">
        <ele>4.1999998092651</ele>
        <time>2019-11-17T10:10:44.000Z</time>
      </trkpt>
      <trkpt lat="47.30501" lon="-2.2904">
        <ele>4.1999998092651</ele>
        <time>2019-11-17T10:10:45.000Z</time>
      </trkpt>
      <trkpt lat="47.30498" lon="-2.29026">
        <ele>4.1999998092651</ele>
        <time>2019-11-17T10:10:47.000Z</time>
      </trkpt>
      <trkpt lat="47.30494" lon="-2.29005">
        <ele>4.1999998092651</ele>
        <time>2019-11-17T10:10:50.000Z</time>
      </trkpt>
      <trkpt lat="47.30503" lon="-2.28986">
        <ele>4.1999998092651</ele>
        <time>2019-11-17T10:10:53.000Z</time>
      </trkpt>
      <trkpt lat="47.30507" lon="-2.28981">
        <ele>4.1999998092651</ele>
        <time>2019-11-17T10:10:54.000Z</time>
      </trkpt>
      <trkpt lat="47.30526" lon="-2.28964">
        <ele>4.1999998092651</ele>
        <time>2019-11-17T10:10:58.000Z</time>
      </trkpt>
      <trkpt lat="47.30532" lon="-2.28961">
        <ele>4.1999998092651</ele>
        <time>2019-11-17T10:10:59.000Z</time>
      </trkpt>
      <trkpt lat="47.30566" lon="-2.28936">
        <ele>4.1999998092651</ele>
        <time>2019-11-17T10:11:05.000Z</time>
      </trkpt>
      <trkpt lat="47.30587" lon="-2.28918">
        <ele>4.1999998092651</ele>
        <time>2019-11-17T10:11:09.000Z</time>
      </trkpt>
      <trkpt lat="47.30597" lon="-2.28911">
        <ele>4.1999998092651</ele>
        <time>2019-11-17T10:11:11.000Z</time>
      </trkpt>
      <trkpt lat="47.30607" lon="-2.28904">
        <ele>4.5999999046326</ele>
        <time>2019-11-17T10:11:13.000Z</time>
      </trkpt>
      <trkpt lat="47.30612" lon="-2.289">
        <ele>5</ele>
        <time>2019-11-17T10:11:14.000Z</time>
      </trkpt>
      <trkpt lat="47.30617" lon="-2.28897">
        <ele>5.4000000953674</ele>
        <time>2019-11-17T10:11:15.000Z</time>
      </trkpt>
      <trkpt lat="47.30623" lon="-2.28894">
        <ele>5.8000001907349</ele>
        <time>2019-11-17T10:11:16.000Z</time>
      </trkpt>
      <trkpt lat="47.30628" lon="-2.28891">
        <ele>6.1999998092651</ele>
        <time>2019-11-17T10:11:17.000Z</time>
      </trkpt>
      <trkpt lat="47.30656" lon="-2.28874">
        <ele>6.1999998092651</ele>
        <time>2019-11-17T10:11:23.000Z</time>
      </trkpt>
      <trkpt lat="47.30671" lon="-2.28864">
        <ele>6.5999999046326</ele>
        <time>2019-11-17T10:11:26.000Z</time>
      </trkpt>
      <trkpt lat="47.30676" lon="-2.28861">
        <ele>7</ele>
        <time>2019-11-17T10:11:27.000Z</time>
      </trkpt>
      <trkpt lat="47.3068" lon="-2.28858">
        <ele>7.4000000953674</ele>
        <time>2019-11-17T10:11:28.000Z</time>
      </trkpt>
      <trkpt lat="47.30684" lon="-2.28854">
        <ele>7.8000001907349</ele>
        <time>2019-11-17T10:11:29.000Z</time>
      </trkpt>
      <trkpt lat="47.30689" lon="-2.2885">
        <ele>8.1999998092651</ele>
        <time>2019-11-17T10:11:30.000Z</time>
      </trkpt>
      <trkpt lat="47.30711" lon="-2.28835">
        <ele>8.1999998092651</ele>
        <time>2019-11-17T10:11:35.000Z</time>
      </trkpt>
      <trkpt lat="47.30722" lon="-2.28831">
        <ele>8.1999998092651</ele>
        <time>2019-11-17T10:11:37.000Z</time>
      </trkpt>
      <trkpt lat="47.3074" lon="-2.28826">
        <ele>8.1999998092651</ele>
        <time>2019-11-17T10:11:40.000Z</time>
      </trkpt>
      <trkpt lat="47.30788" lon="-2.28818">
        <ele>8.1999998092651</ele>
        <time>2019-11-17T10:11:47.000Z</time>
      </trkpt>
      <trkpt lat="47.30834" lon="-2.28817">
        <ele>8.1999998092651</ele>
        <time>2019-11-17T10:11:53.000Z</time>
      </trkpt>
      <trkpt lat="47.30843" lon="-2.28818">
        <ele>8.1999998092651</ele>
        <time>2019-11-17T10:11:54.000Z</time>
      </trkpt>
      <trkpt lat="47.30867" lon="-2.2882">
        <ele>8.1999998092651</ele>
        <time>2019-11-17T10:11:57.000Z</time>
      </trkpt>
      <trkpt lat="47.30884" lon="-2.2882">
        <ele>7.8000001907349</ele>
        <time>2019-11-17T10:11:59.000Z</time>
      </trkpt>
      <trkpt lat="47.30892" lon="-2.28819">
        <ele>7.4000000953674</ele>
        <time>2019-11-17T10:12:00.000Z</time>
      </trkpt>
      <trkpt lat="47.309" lon="-2.28819">
        <ele>6.5999999046326</ele>
        <time>2019-11-17T10:12:01.000Z</time>
      </trkpt>
      <trkpt lat="47.30908" lon="-2.28818">
        <ele>6.1999998092651</ele>
        <time>2019-11-17T10:12:02.000Z</time>
      </trkpt>
      <trkpt lat="47.30923" lon="-2.28818">
        <ele>6.1999998092651</ele>
        <time>2019-11-17T10:12:04.000Z</time>
      </trkpt>
      <trkpt lat="47.30956" lon="-2.2882">
        <ele>6.1999998092651</ele>
        <time>2019-11-17T10:12:09.000Z</time>
      </trkpt>
      <trkpt lat="47.3096" lon="-2.28818">
        <ele>6.1999998092651</ele>
        <time>2019-11-17T10:12:10.000Z</time>
      </trkpt>
      <trkpt lat="47.30974" lon="-2.28813">
        <ele>6.1999998092651</ele>
        <time>2019-11-17T10:12:13.000Z</time>
      </trkpt>
      <trkpt lat="47.30978" lon="-2.28811">
        <ele>6.5999999046326</ele>
        <time>2019-11-17T10:12:14.000Z</time>
      </trkpt>
      <trkpt lat="47.30983" lon="-2.2881">
        <ele>7</ele>
        <time>2019-11-17T10:12:15.000Z</time>
      </trkpt>
      <trkpt lat="47.30989" lon="-2.28808">
        <ele>7.5999999046326</ele>
        <time>2019-11-17T10:12:16.000Z</time>
      </trkpt>
      <trkpt lat="47.30994" lon="-2.28807">
        <ele>8</ele>
        <time>2019-11-17T10:12:17.000Z</time>
      </trkpt>
      <trkpt lat="47.30999" lon="-2.28806">
        <ele>8.3999996185303</ele>
        <time>2019-11-17T10:12:18.000Z</time>
      </trkpt>
      <trkpt lat="47.31004" lon="-2.28807">
        <ele>8.3999996185303</ele>
        <time>2019-11-17T10:12:19.000Z</time>
      </trkpt>
      <trkpt lat="47.31015" lon="-2.28813">
        <ele>8.8000001907349</ele>
        <time>2019-11-17T10:12:21.000Z</time>
      </trkpt>
      <trkpt lat="47.31019" lon="-2.28817">
        <ele>9.1999998092651</ele>
        <time>2019-11-17T10:12:22.000Z</time>
      </trkpt>
      <trkpt lat="47.31025" lon="-2.28821">
        <ele>9.6000003814697</ele>
        <time>2019-11-17T10:12:23.000Z</time>
      </trkpt>
      <trkpt lat="47.3103" lon="-2.28824">
        <ele>10</ele>
        <time>2019-11-17T10:12:24.000Z</time>
      </trkpt>
      <trkpt lat="47.31035" lon="-2.28829">
        <ele>10.39999961853</ele>
        <time>2019-11-17T10:12:25.000Z</time>
      </trkpt>
      <trkpt lat="47.31046" lon="-2.28837">
        <ele>10.39999961853</ele>
        <time>2019-11-17T10:12:27.000Z</time>
      </trkpt>
      <trkpt lat="47.31087" lon="-2.28867">
        <ele>10.39999961853</ele>
        <time>2019-11-17T10:12:34.000Z</time>
      </trkpt>
      <trkpt lat="47.311" lon="-2.28877">
        <ele>10</ele>
        <time>2019-11-17T10:12:36.000Z</time>
      </trkpt>
      <trkpt lat="47.31106" lon="-2.28883">
        <ele>9.6000003814697</ele>
        <time>2019-11-17T10:12:37.000Z</time>
      </trkpt>
      <trkpt lat="47.31113" lon="-2.28889">
        <ele>9.1999998092651</ele>
        <time>2019-11-17T10:12:38.000Z</time>
      </trkpt>
      <trkpt lat="47.31119" lon="-2.28895">
        <ele>8.8000001907349</ele>
        <time>2019-11-17T10:12:39.000Z</time>
      </trkpt>
      <trkpt lat="47.31125" lon="-2.28901">
        <ele>8.3999996185303</ele>
        <time>2019-11-17T10:12:40.000Z</time>
      </trkpt>
      <trkpt lat="47.31145" lon="-2.28902">
        <ele>8.3999996185303</ele>
        <time>2019-11-17T10:12:43.000Z</time>
      </trkpt>
      <trkpt lat="47.31158" lon="-2.28897">
        <ele>8.3999996185303</ele>
        <time>2019-11-17T10:12:45.000Z</time>
      </trkpt>
      <trkpt lat="47.31163" lon="-2.28895">
        <ele>8.3999996185303</ele>
        <time>2019-11-17T10:12:46.000Z</time>
      </trkpt>
      <trkpt lat="47.31169" lon="-2.28894">
        <ele>8.3999996185303</ele>
        <time>2019-11-17T10:12:47.000Z</time>
      </trkpt>
      <trkpt lat="47.31173" lon="-2.28896">
        <ele>8</ele>
        <time>2019-11-17T10:12:48.000Z</time>
      </trkpt>
      <trkpt lat="47.31177" lon="-2.289">
        <ele>7.5999999046326</ele>
        <time>2019-11-17T10:12:49.000Z</time>
      </trkpt>
      <trkpt lat="47.3118" lon="-2.28906">
        <ele>7</ele>
        <time>2019-11-17T10:12:50.000Z</time>
      </trkpt>
      <trkpt lat="47.31182" lon="-2.28913">
        <ele>6.1999998092651</ele>
        <time>2019-11-17T10:12:51.000Z</time>
      </trkpt>
      <trkpt lat="47.31188" lon="-2.28938">
        <ele>6.1999998092651</ele>
        <time>2019-11-17T10:12:54.000Z</time>
      </trkpt>
      <trkpt lat="47.31195" lon="-2.28983">
        <ele>6.1999998092651</ele>
        <time>2019-11-17T10:12:59.000Z</time>
      </trkpt>
      <trkpt lat="47.31203" lon="-2.29056">
        <ele>6.1999998092651</ele>
        <time>2019-11-17T10:13:07.000Z</time>
      </trkpt>
      <trkpt lat="47.31206" lon="-2.29082">
        <ele>6.5999999046326</ele>
        <time>2019-11-17T10:13:10.000Z</time>
      </trkpt>
      <trkpt lat="47.31207" lon="-2.2909">
        <ele>7</ele>
        <time>2019-11-17T10:13:11.000Z</time>
      </trkpt>
      <trkpt lat="47.31208" lon="-2.29099">
        <ele>7.4000000953674</ele>
        <time>2019-11-17T10:13:12.000Z</time>
      </trkpt>
      <trkpt lat="47.31209" lon="-2.29108">
        <ele>7.8000001907349</ele>
        <time>2019-11-17T10:13:13.000Z</time>
      </trkpt>
      <trkpt lat="47.3121" lon="-2.29117">
        <ele>8.1999998092651</ele>
        <time>2019-11-17T10:13:14.000Z</time>
      </trkpt>
      <trkpt lat="47.31212" lon="-2.29126">
        <ele>8.1999998092651</ele>
        <time>2019-11-17T10:13:15.000Z</time>
      </trkpt>
      <trkpt lat="47.31218" lon="-2.29155">
        <ele>8.1999998092651</ele>
        <time>2019-11-17T10:13:18.000Z</time>
      </trkpt>
      <trkpt lat="47.3123" lon="-2.29212">
        <ele>8.1999998092651</ele>
        <time>2019-11-17T10:13:24.000Z</time>
      </trkpt>
      <trkpt lat="47.31242" lon="-2.29265">
        <ele>8.1999998092651</ele>
        <time>2019-11-17T10:13:30.000Z</time>
      </trkpt>
      <trkpt lat="47.31248" lon="-2.29288">
        <ele>8.1999998092651</ele>
        <time>2019-11-17T10:13:33.000Z</time>
      </trkpt>
      <trkpt lat="47.31252" lon="-2.29302">
        <ele>8.1999998092651</ele>
        <time>2019-11-17T10:13:35.000Z</time>
      </trkpt>
      <trkpt lat="47.3126" lon="-2.29331">
        <ele>8.1999998092651</ele>
        <time>2019-11-17T10:13:40.000Z</time>
      </trkpt>
      <trkpt lat="47.31267" lon="-2.29346">
        <ele>8.1999998092651</ele>
        <time>2019-11-17T10:13:44.000Z</time>
      </trkpt>
      <trkpt lat="47.31274" lon="-2.29339">
        <ele>8.1999998092651</ele>
        <time>2019-11-17T10:13:48.000Z</time>
      </trkpt>
      <trkpt lat="47.31279" lon="-2.29329">
        <ele>8.1999998092651</ele>
        <time>2019-11-17T10:13:52.000Z</time>
      </trkpt>
      <trkpt lat="47.31283" lon="-2.29322">
        <ele>8.1999998092651</ele>
        <time>2019-11-17T10:13:54.000Z</time>
      </trkpt>
      <trkpt lat="47.31289" lon="-2.29311">
        <ele>8.1999998092651</ele>
        <time>2019-11-17T10:13:57.000Z</time>
      </trkpt>
      <trkpt lat="47.31298" lon="-2.293">
        <ele>8.1999998092651</ele>
        <time>2019-11-17T10:14:00.000Z</time>
      </trkpt>
      <trkpt lat="47.31302" lon="-2.29298">
        <ele>8.1999998092651</ele>
        <time>2019-11-17T10:14:01.000Z</time>
      </trkpt>
      <trkpt lat="47.31311" lon="-2.29296">
        <ele>8.1999998092651</ele>
        <time>2019-11-17T10:14:03.000Z</time>
      </trkpt>
      <trkpt lat="47.31325" lon="-2.29297">
        <ele>8.1999998092651</ele>
        <time>2019-11-17T10:14:06.000Z</time>
      </trkpt>
      <trkpt lat="47.31344" lon="-2.29304">
        <ele>8.1999998092651</ele>
        <time>2019-11-17T10:14:10.000Z</time>
      </trkpt>
      <trkpt lat="47.31354" lon="-2.29308">
        <ele>8.1999998092651</ele>
        <time>2019-11-17T10:14:12.000Z</time>
      </trkpt>
      <trkpt lat="47.31376" lon="-2.29317">
        <ele>8.1999998092651</ele>
        <time>2019-11-17T10:14:17.000Z</time>
      </trkpt>
      <trkpt lat="47.31395" lon="-2.29327">
        <ele>8.1999998092651</ele>
        <time>2019-11-17T10:14:21.000Z</time>
      </trkpt>
      <trkpt lat="47.31405" lon="-2.29333">
        <ele>8.6000003814697</ele>
        <time>2019-11-17T10:14:23.000Z</time>
      </trkpt>
      <trkpt lat="47.31409" lon="-2.29337">
        <ele>9</ele>
        <time>2019-11-17T10:14:24.000Z</time>
      </trkpt>
      <trkpt lat="47.31413" lon="-2.29341">
        <ele>9.3999996185303</ele>
        <time>2019-11-17T10:14:25.000Z</time>
      </trkpt>
      <trkpt lat="47.31417" lon="-2.29345">
        <ele>9.8000001907349</ele>
        <time>2019-11-17T10:14:26.000Z</time>
      </trkpt>
      <trkpt lat="47.31421" lon="-2.29349">
        <ele>10.199999809265</ele>
        <time>2019-11-17T10:14:27.000Z</time>
      </trkpt>
      <trkpt lat="47.31424" lon="-2.29353">
        <ele>10.199999809265</ele>
        <time>2019-11-17T10:14:28.000Z</time>
      </trkpt>
      <trkpt lat="47.31427" lon="-2.29358">
        <ele>10.199999809265</ele>
        <time>2019-11-17T10:14:29.000Z</time>
      </trkpt>
      <trkpt lat="47.3144" lon="-2.29377">
        <ele>10.199999809265</ele>
        <time>2019-11-17T10:14:33.000Z</time>
      </trkpt>
      <trkpt lat="47.31445" lon="-2.29387">
        <ele>10.199999809265</ele>
        <time>2019-11-17T10:14:35.000Z</time>
      </trkpt>
      <trkpt lat="47.31449" lon="-2.29391">
        <ele>10.199999809265</ele>
        <time>2019-11-17T10:14:36.000Z</time>
      </trkpt>
      <trkpt lat="47.31453" lon="-2.29394">
        <ele>10.199999809265</ele>
        <time>2019-11-17T10:14:37.000Z</time>
      </trkpt>
      <trkpt lat="47.31467" lon="-2.29396">
        <ele>10.60000038147</ele>
        <time>2019-11-17T10:14:40.000Z</time>
      </trkpt>
      <trkpt lat="47.31471" lon="-2.29395">
        <ele>11.199999809265</ele>
        <time>2019-11-17T10:14:41.000Z</time>
      </trkpt>
      <trkpt lat="47.31475" lon="-2.29393">
        <ele>11.60000038147</ele>
        <time>2019-11-17T10:14:42.000Z</time>
      </trkpt>
      <trkpt lat="47.31479" lon="-2.29392">
        <ele>12</ele>
        <time>2019-11-17T10:14:43.000Z</time>
      </trkpt>
      <trkpt lat="47.31484" lon="-2.29391">
        <ele>12.39999961853</ele>
        <time>2019-11-17T10:14:44.000Z</time>
      </trkpt>
      <trkpt lat="47.31496" lon="-2.29391">
        <ele>12.39999961853</ele>
        <time>2019-11-17T10:14:47.000Z</time>
      </trkpt>
      <trkpt lat="47.315" lon="-2.29396">
        <ele>12.39999961853</ele>
        <time>2019-11-17T10:14:48.000Z</time>
      </trkpt>
      <trkpt lat="47.31507" lon="-2.29406">
        <ele>12.39999961853</ele>
        <time>2019-11-17T10:14:50.000Z</time>
      </trkpt>
      <trkpt lat="47.31513" lon="-2.29416">
        <ele>12.39999961853</ele>
        <time>2019-11-17T10:14:52.000Z</time>
      </trkpt>
      <trkpt lat="47.31526" lon="-2.29436">
        <ele>12.39999961853</ele>
        <time>2019-11-17T10:14:56.000Z</time>
      </trkpt>
      <trkpt lat="47.31531" lon="-2.29446">
        <ele>12.39999961853</ele>
        <time>2019-11-17T10:14:58.000Z</time>
      </trkpt>
      <trkpt lat="47.31538" lon="-2.29464">
        <ele>12.39999961853</ele>
        <time>2019-11-17T10:15:01.000Z</time>
      </trkpt>
      <trkpt lat="47.31539" lon="-2.29471">
        <ele>12.39999961853</ele>
        <time>2019-11-17T10:15:02.000Z</time>
      </trkpt>
      <trkpt lat="47.3154" lon="-2.29478">
        <ele>12.800000190735</ele>
        <time>2019-11-17T10:15:03.000Z</time>
      </trkpt>
      <trkpt lat="47.31542" lon="-2.29484">
        <ele>13.199999809265</ele>
        <time>2019-11-17T10:15:04.000Z</time>
      </trkpt>
      <trkpt lat="47.31542" lon="-2.29489">
        <ele>13.800000190735</ele>
        <time>2019-11-17T10:15:05.000Z</time>
      </trkpt>
      <trkpt lat="47.31542" lon="-2.29495">
        <ele>14.199999809265</ele>
        <time>2019-11-17T10:15:06.000Z</time>
      </trkpt>
      <trkpt lat="47.31543" lon="-2.295">
        <ele>14.60000038147</ele>
        <time>2019-11-17T10:15:07.000Z</time>
      </trkpt>
      <trkpt lat="47.31548" lon="-2.29523">
        <ele>14.60000038147</ele>
        <time>2019-11-17T10:15:11.000Z</time>
      </trkpt>
      <trkpt lat="47.31552" lon="-2.29535">
        <ele>14.60000038147</ele>
        <time>2019-11-17T10:15:13.000Z</time>
      </trkpt>
      <trkpt lat="47.31561" lon="-2.2955">
        <ele>14.60000038147</ele>
        <time>2019-11-17T10:15:16.000Z</time>
      </trkpt>
      <trkpt lat="47.3158" lon="-2.29577">
        <ele>14.60000038147</ele>
        <time>2019-11-17T10:15:22.000Z</time>
      </trkpt>
      <trkpt lat="47.31591" lon="-2.29589">
        <ele>14.60000038147</ele>
        <time>2019-11-17T10:15:25.000Z</time>
      </trkpt>
      <trkpt lat="47.31599" lon="-2.29596">
        <ele>14.60000038147</ele>
        <time>2019-11-17T10:15:27.000Z</time>
      </trkpt>
      <trkpt lat="47.31607" lon="-2.29603">
        <ele>14.60000038147</ele>
        <time>2019-11-17T10:15:29.000Z</time>
      </trkpt>
      <trkpt lat="47.31611" lon="-2.29608">
        <ele>15</ele>
        <time>2019-11-17T10:15:30.000Z</time>
      </trkpt>
      <trkpt lat="47.31614" lon="-2.29612">
        <ele>15.39999961853</ele>
        <time>2019-11-17T10:15:31.000Z</time>
      </trkpt>
      <trkpt lat="47.31617" lon="-2.29618">
        <ele>15.800000190735</ele>
        <time>2019-11-17T10:15:32.000Z</time>
      </trkpt>
      <trkpt lat="47.31619" lon="-2.29623">
        <ele>16.200000762939</ele>
        <time>2019-11-17T10:15:33.000Z</time>
      </trkpt>
      <trkpt lat="47.31622" lon="-2.29628">
        <ele>16.60000038147</ele>
        <time>2019-11-17T10:15:34.000Z</time>
      </trkpt>
      <trkpt lat="47.31634" lon="-2.29649">
        <ele>16.60000038147</ele>
        <time>2019-11-17T10:15:38.000Z</time>
      </trkpt>
      <trkpt lat="47.31645" lon="-2.2968">
        <ele>16.60000038147</ele>
        <time>2019-11-17T10:15:43.000Z</time>
      </trkpt>
      <trkpt lat="47.31655" lon="-2.29703">
        <ele>16.60000038147</ele>
        <time>2019-11-17T10:15:47.000Z</time>
      </trkpt>
      <trkpt lat="47.31659" lon="-2.29714">
        <ele>16.60000038147</ele>
        <time>2019-11-17T10:15:49.000Z</time>
      </trkpt>
      <trkpt lat="47.31665" lon="-2.29725">
        <ele>16.60000038147</ele>
        <time>2019-11-17T10:15:51.000Z</time>
      </trkpt>
      <trkpt lat="47.31674" lon="-2.29734">
        <ele>16.60000038147</ele>
        <time>2019-11-17T10:15:53.000Z</time>
      </trkpt>
      <trkpt lat="47.31688" lon="-2.29735">
        <ele>16.60000038147</ele>
        <time>2019-11-17T10:15:56.000Z</time>
      </trkpt>
      <trkpt lat="47.31692" lon="-2.29734">
        <ele>16.60000038147</ele>
        <time>2019-11-17T10:15:57.000Z</time>
      </trkpt>
      <trkpt lat="47.31697" lon="-2.29734">
        <ele>16.60000038147</ele>
        <time>2019-11-17T10:15:58.000Z</time>
      </trkpt>
      <trkpt lat="47.31709" lon="-2.29742">
        <ele>16.60000038147</ele>
        <time>2019-11-17T10:16:01.000Z</time>
      </trkpt>
      <trkpt lat="47.31713" lon="-2.29753">
        <ele>16.60000038147</ele>
        <time>2019-11-17T10:16:03.000Z</time>
      </trkpt>
      <trkpt lat="47.31718" lon="-2.29766">
        <ele>16.60000038147</ele>
        <time>2019-11-17T10:16:05.000Z</time>
      </trkpt>
      <trkpt lat="47.31729" lon="-2.29797">
        <ele>16.60000038147</ele>
        <time>2019-11-17T10:16:10.000Z</time>
      </trkpt>
      <trkpt lat="47.31732" lon="-2.29804">
        <ele>16.60000038147</ele>
        <time>2019-11-17T10:16:11.000Z</time>
      </trkpt>
      <trkpt lat="47.31734" lon="-2.29811">
        <ele>16.60000038147</ele>
        <time>2019-11-17T10:16:12.000Z</time>
      </trkpt>
      <trkpt lat="47.31736" lon="-2.29835">
        <ele>16.60000038147</ele>
        <time>2019-11-17T10:16:15.000Z</time>
      </trkpt>
      <trkpt lat="47.31735" lon="-2.29843">
        <ele>16.60000038147</ele>
        <time>2019-11-17T10:16:16.000Z</time>
      </trkpt>
      <trkpt lat="47.31731" lon="-2.29867">
        <ele>16.60000038147</ele>
        <time>2019-11-17T10:16:19.000Z</time>
      </trkpt>
      <trkpt lat="47.31722" lon="-2.29916">
        <ele>16.60000038147</ele>
        <time>2019-11-17T10:16:25.000Z</time>
      </trkpt>
      <trkpt lat="47.31715" lon="-2.29951">
        <ele>17</ele>
        <time>2019-11-17T10:16:29.000Z</time>
      </trkpt>
      <trkpt lat="47.31713" lon="-2.2996">
        <ele>17.60000038147</ele>
        <time>2019-11-17T10:16:30.000Z</time>
      </trkpt>
      <trkpt lat="47.31711" lon="-2.29968">
        <ele>18</ele>
        <time>2019-11-17T10:16:31.000Z</time>
      </trkpt>
      <trkpt lat="47.3171" lon="-2.29976">
        <ele>18.39999961853</ele>
        <time>2019-11-17T10:16:32.000Z</time>
      </trkpt>
      <trkpt lat="47.31709" lon="-2.29984">
        <ele>18.799999237061</ele>
        <time>2019-11-17T10:16:33.000Z</time>
      </trkpt>
      <trkpt lat="47.31705" lon="-2.30001">
        <ele>18.799999237061</ele>
        <time>2019-11-17T10:16:35.000Z</time>
      </trkpt>
      <trkpt lat="47.31699" lon="-2.30031">
        <ele>18.799999237061</ele>
        <time>2019-11-17T10:16:40.000Z</time>
      </trkpt>
      <trkpt lat="47.31699" lon="-2.30032">
        <ele>18.799999237061</ele>
        <time>2019-11-17T10:16:41.000Z</time>
      </trkpt>
      <trkpt lat="47.31701" lon="-2.30039">
        <ele>18.799999237061</ele>
        <time>2019-11-17T10:16:45.000Z</time>
      </trkpt>
      <trkpt lat="47.31701" lon="-2.30043">
        <ele>18.799999237061</ele>
        <time>2019-11-17T10:16:47.000Z</time>
      </trkpt>
      <trkpt lat="47.31698" lon="-2.30049">
        <ele>18.799999237061</ele>
        <time>2019-11-17T10:16:50.000Z</time>
      </trkpt>
      <trkpt lat="47.31696" lon="-2.30051">
        <ele>18.799999237061</ele>
        <time>2019-11-17T10:16:51.000Z</time>
      </trkpt>
      <trkpt lat="47.3169" lon="-2.30064">
        <ele>18.799999237061</ele>
        <time>2019-11-17T10:16:56.000Z</time>
      </trkpt>
      <trkpt lat="47.31677" lon="-2.30078">
        <ele>18.799999237061</ele>
        <time>2019-11-17T10:17:02.000Z</time>
      </trkpt>
      <trkpt lat="47.3166" lon="-2.30102">
        <ele>18.799999237061</ele>
        <time>2019-11-17T10:17:07.000Z</time>
      </trkpt>
      <trkpt lat="47.31636" lon="-2.30138">
        <ele>18.799999237061</ele>
        <time>2019-11-17T10:17:13.000Z</time>
      </trkpt>
      <trkpt lat="47.31625" lon="-2.30162">
        <ele>18.799999237061</ele>
        <time>2019-11-17T10:17:16.000Z</time>
      </trkpt>
      <trkpt lat="47.31619" lon="-2.30179">
        <ele>18.799999237061</ele>
        <time>2019-11-17T10:17:18.000Z</time>
      </trkpt>
      <trkpt lat="47.31615" lon="-2.30198">
        <ele>18.799999237061</ele>
        <time>2019-11-17T10:17:20.000Z</time>
      </trkpt>
      <trkpt lat="47.3161" lon="-2.30237">
        <ele>18.799999237061</ele>
        <time>2019-11-17T10:17:24.000Z</time>
      </trkpt>
      <trkpt lat="47.3161" lon="-2.30247">
        <ele>18.799999237061</ele>
        <time>2019-11-17T10:17:25.000Z</time>
      </trkpt>
      <trkpt lat="47.31614" lon="-2.30268">
        <ele>18.799999237061</ele>
        <time>2019-11-17T10:17:27.000Z</time>
      </trkpt>
      <trkpt lat="47.31622" lon="-2.30285">
        <ele>18.799999237061</ele>
        <time>2019-11-17T10:17:29.000Z</time>
      </trkpt>
      <trkpt lat="47.31634" lon="-2.30309">
        <ele>18.799999237061</ele>
        <time>2019-11-17T10:17:32.000Z</time>
      </trkpt>
      <trkpt lat="47.31658" lon="-2.3036">
        <ele>18.799999237061</ele>
        <time>2019-11-17T10:17:38.000Z</time>
      </trkpt>
      <trkpt lat="47.31679" lon="-2.30389">
        <ele>18.799999237061</ele>
        <time>2019-11-17T10:17:42.000Z</time>
      </trkpt>
      <trkpt lat="47.31684" lon="-2.30395">
        <ele>18.799999237061</ele>
        <time>2019-11-17T10:17:43.000Z</time>
      </trkpt>
      <trkpt lat="47.31712" lon="-2.30419">
        <ele>18.799999237061</ele>
        <time>2019-11-17T10:17:48.000Z</time>
      </trkpt>
      <trkpt lat="47.31731" lon="-2.30427">
        <ele>18.799999237061</ele>
        <time>2019-11-17T10:17:51.000Z</time>
      </trkpt>
      <trkpt lat="47.31744" lon="-2.30447">
        <ele>18.39999961853</ele>
        <time>2019-11-17T10:17:54.000Z</time>
      </trkpt>
      <trkpt lat="47.31749" lon="-2.30455">
        <ele>18</ele>
        <time>2019-11-17T10:17:55.000Z</time>
      </trkpt>
      <trkpt lat="47.31753" lon="-2.30462">
        <ele>17.60000038147</ele>
        <time>2019-11-17T10:17:56.000Z</time>
      </trkpt>
      <trkpt lat="47.31757" lon="-2.3047">
        <ele>17.200000762939</ele>
        <time>2019-11-17T10:17:57.000Z</time>
      </trkpt>
      <trkpt lat="47.31761" lon="-2.30477">
        <ele>16.799999237061</ele>
        <time>2019-11-17T10:17:58.000Z</time>
      </trkpt>
      <trkpt lat="47.3177" lon="-2.30496">
        <ele>16.799999237061</ele>
        <time>2019-11-17T10:18:02.000Z</time>
      </trkpt>
      <trkpt lat="47.31773" lon="-2.30511">
        <ele>17.200000762939</ele>
        <time>2019-11-17T10:18:06.000Z</time>
      </trkpt>
      <trkpt lat="47.31773" lon="-2.30515">
        <ele>17.60000038147</ele>
        <time>2019-11-17T10:18:07.000Z</time>
      </trkpt>
      <trkpt lat="47.31772" lon="-2.30518">
        <ele>18</ele>
        <time>2019-11-17T10:18:08.000Z</time>
      </trkpt>
      <trkpt lat="47.31771" lon="-2.30522">
        <ele>18.39999961853</ele>
        <time>2019-11-17T10:18:09.000Z</time>
      </trkpt>
      <trkpt lat="47.31769" lon="-2.30527">
        <ele>18.799999237061</ele>
        <time>2019-11-17T10:18:10.000Z</time>
      </trkpt>
      <trkpt lat="47.31767" lon="-2.30531">
        <ele>18.799999237061</ele>
        <time>2019-11-17T10:18:11.000Z</time>
      </trkpt>
      <trkpt lat="47.31753" lon="-2.30551">
        <ele>18.799999237061</ele>
        <time>2019-11-17T10:18:17.000Z</time>
      </trkpt>
      <trkpt lat="47.31739" lon="-2.30562">
        <ele>18.799999237061</ele>
        <time>2019-11-17T10:18:23.000Z</time>
      </trkpt>
      <trkpt lat="47.31729" lon="-2.30561">
        <ele>18.799999237061</ele>
        <time>2019-11-17T10:18:28.000Z</time>
      </trkpt>
      <trkpt lat="47.31724" lon="-2.30554">
        <ele>18.799999237061</ele>
        <time>2019-11-17T10:18:31.000Z</time>
      </trkpt>
      <trkpt lat="47.31726" lon="-2.30547">
        <ele>18.799999237061</ele>
        <time>2019-11-17T10:18:33.000Z</time>
      </trkpt>
      <trkpt lat="47.31729" lon="-2.30542">
        <ele>18.799999237061</ele>
        <time>2019-11-17T10:18:35.000Z</time>
      </trkpt>
      <trkpt lat="47.31732" lon="-2.3054">
        <ele>18.799999237061</ele>
        <time>2019-11-17T10:18:36.000Z</time>
      </trkpt>
      <trkpt lat="47.31735" lon="-2.3054">
        <ele>18.799999237061</ele>
        <time>2019-11-17T10:18:37.000Z</time>
      </trkpt>
      <trkpt lat="47.31749" lon="-2.3055">
        <ele>18.799999237061</ele>
        <time>2019-11-17T10:18:42.000Z</time>
      </trkpt>
      <trkpt lat="47.31743" lon="-2.30563">
        <ele>18.799999237061</ele>
        <time>2019-11-17T10:18:45.000Z</time>
      </trkpt>
      <trkpt lat="47.31739" lon="-2.30567">
        <ele>18.799999237061</ele>
        <time>2019-11-17T10:18:46.000Z</time>
      </trkpt>
      <trkpt lat="47.31736" lon="-2.30571">
        <ele>18.799999237061</ele>
        <time>2019-11-17T10:18:47.000Z</time>
      </trkpt>
      <trkpt lat="47.31724" lon="-2.30579">
        <ele>18.799999237061</ele>
        <time>2019-11-17T10:18:50.000Z</time>
      </trkpt>
      <trkpt lat="47.31712" lon="-2.30589">
        <ele>18.799999237061</ele>
        <time>2019-11-17T10:18:54.000Z</time>
      </trkpt>
      <trkpt lat="47.31714" lon="-2.30606">
        <ele>18.799999237061</ele>
        <time>2019-11-17T10:18:57.000Z</time>
      </trkpt>
      <trkpt lat="47.31715" lon="-2.30624">
        <ele>18.799999237061</ele>
        <time>2019-11-17T10:19:00.000Z</time>
      </trkpt>
      <trkpt lat="47.31716" lon="-2.30642">
        <ele>18.799999237061</ele>
        <time>2019-11-17T10:19:03.000Z</time>
      </trkpt>
      <trkpt lat="47.31717" lon="-2.30647">
        <ele>18.799999237061</ele>
        <time>2019-11-17T10:19:04.000Z</time>
      </trkpt>
      <trkpt lat="47.31717" lon="-2.30671">
        <ele>18.799999237061</ele>
        <time>2019-11-17T10:19:08.000Z</time>
      </trkpt>
      <trkpt lat="47.31718" lon="-2.30678">
        <ele>18.799999237061</ele>
        <time>2019-11-17T10:19:09.000Z</time>
      </trkpt>
      <trkpt lat="47.31719" lon="-2.30706">
        <ele>18.799999237061</ele>
        <time>2019-11-17T10:19:13.000Z</time>
      </trkpt>
      <trkpt lat="47.31721" lon="-2.30731">
        <ele>18.799999237061</ele>
        <time>2019-11-17T10:19:17.000Z</time>
      </trkpt>
      <trkpt lat="47.31721" lon="-2.30751">
        <ele>18.799999237061</ele>
        <time>2019-11-17T10:19:20.000Z</time>
      </trkpt>
      <trkpt lat="47.31723" lon="-2.30781">
        <ele>18.799999237061</ele>
        <time>2019-11-17T10:19:26.000Z</time>
      </trkpt>
      <trkpt lat="47.31722" lon="-2.30813">
        <ele>18.799999237061</ele>
        <time>2019-11-17T10:19:32.000Z</time>
      </trkpt>
      <trkpt lat="47.31721" lon="-2.30837">
        <ele>18.799999237061</ele>
        <time>2019-11-17T10:19:36.000Z</time>
      </trkpt>
      <trkpt lat="47.31722" lon="-2.3085">
        <ele>18.799999237061</ele>
        <time>2019-11-17T10:19:38.000Z</time>
      </trkpt>
      <trkpt lat="47.31725" lon="-2.30887">
        <ele>18.799999237061</ele>
        <time>2019-11-17T10:19:44.000Z</time>
      </trkpt>
      <trkpt lat="47.31727" lon="-2.30892">
        <ele>18.799999237061</ele>
        <time>2019-11-17T10:19:45.000Z</time>
      </trkpt>
      <trkpt lat="47.31734" lon="-2.30903">
        <ele>18.799999237061</ele>
        <time>2019-11-17T10:19:48.000Z</time>
      </trkpt>
      <trkpt lat="47.31728" lon="-2.30919">
        <ele>18.799999237061</ele>
        <time>2019-11-17T10:19:51.000Z</time>
      </trkpt>
      <trkpt lat="47.31722" lon="-2.30949">
        <ele>18.799999237061</ele>
        <time>2019-11-17T10:19:56.000Z</time>
      </trkpt>
      <trkpt lat="47.3172" lon="-2.30956">
        <ele>18.799999237061</ele>
        <time>2019-11-17T10:19:57.000Z</time>
      </trkpt>
      <trkpt lat="47.31714" lon="-2.3099">
        <ele>18.799999237061</ele>
        <time>2019-11-17T10:20:02.000Z</time>
      </trkpt>
      <trkpt lat="47.31702" lon="-2.31044">
        <ele>18.799999237061</ele>
        <time>2019-11-17T10:20:11.000Z</time>
      </trkpt>
      <trkpt lat="47.3169" lon="-2.31098">
        <ele>18.799999237061</ele>
        <time>2019-11-17T10:20:19.000Z</time>
      </trkpt>
      <trkpt lat="47.31687" lon="-2.31111">
        <ele>18.799999237061</ele>
        <time>2019-11-17T10:20:21.000Z</time>
      </trkpt>
      <trkpt lat="47.31681" lon="-2.31132">
        <ele>18.799999237061</ele>
        <time>2019-11-17T10:20:25.000Z</time>
      </trkpt>
      <trkpt lat="47.31672" lon="-2.31136">
        <ele>18.799999237061</ele>
        <time>2019-11-17T10:20:28.000Z</time>
      </trkpt>
      <trkpt lat="47.31669" lon="-2.31134">
        <ele>19.200000762939</ele>
        <time>2019-11-17T10:20:29.000Z</time>
      </trkpt>
      <trkpt lat="47.31665" lon="-2.31131">
        <ele>19.60000038147</ele>
        <time>2019-11-17T10:20:30.000Z</time>
      </trkpt>
      <trkpt lat="47.31662" lon="-2.31127">
        <ele>20</ele>
        <time>2019-11-17T10:20:31.000Z</time>
      </trkpt>
      <trkpt lat="47.31658" lon="-2.31123">
        <ele>20.39999961853</ele>
        <time>2019-11-17T10:20:32.000Z</time>
      </trkpt>
      <trkpt lat="47.31655" lon="-2.31119">
        <ele>20.799999237061</ele>
        <time>2019-11-17T10:20:33.000Z</time>
      </trkpt>
      <trkpt lat="47.31626" lon="-2.31092">
        <ele>20.799999237061</ele>
        <time>2019-11-17T10:20:40.000Z</time>
      </trkpt>
      <trkpt lat="47.31606" lon="-2.31087">
        <ele>20.799999237061</ele>
        <time>2019-11-17T10:20:44.000Z</time>
      </trkpt>
      <trkpt lat="47.31601" lon="-2.31086">
        <ele>20.799999237061</ele>
        <time>2019-11-17T10:20:45.000Z</time>
      </trkpt>
      <trkpt lat="47.31569" lon="-2.31086">
        <ele>20.799999237061</ele>
        <time>2019-11-17T10:20:51.000Z</time>
      </trkpt>
      <trkpt lat="47.31548" lon="-2.31094">
        <ele>20.799999237061</ele>
        <time>2019-11-17T10:20:55.000Z</time>
      </trkpt>
      <trkpt lat="47.31543" lon="-2.31097">
        <ele>20.799999237061</ele>
        <time>2019-11-17T10:20:56.000Z</time>
      </trkpt>
      <trkpt lat="47.31509" lon="-2.3112">
        <ele>20.799999237061</ele>
        <time>2019-11-17T10:21:03.000Z</time>
      </trkpt>
      <trkpt lat="47.31504" lon="-2.31122">
        <ele>20.799999237061</ele>
        <time>2019-11-17T10:21:04.000Z</time>
      </trkpt>
      <trkpt lat="47.31475" lon="-2.31142">
        <ele>20.799999237061</ele>
        <time>2019-11-17T10:21:10.000Z</time>
      </trkpt>
      <trkpt lat="47.31442" lon="-2.3116">
        <ele>20.799999237061</ele>
        <time>2019-11-17T10:21:17.000Z</time>
      </trkpt>
      <trkpt lat="47.31412" lon="-2.3117">
        <ele>20.799999237061</ele>
        <time>2019-11-17T10:21:23.000Z</time>
      </trkpt>
      <trkpt lat="47.31388" lon="-2.31177">
        <ele>20.799999237061</ele>
        <time>2019-11-17T10:21:29.000Z</time>
      </trkpt>
      <trkpt lat="47.31386" lon="-2.31181">
        <ele>20.799999237061</ele>
        <time>2019-11-17T10:21:30.000Z</time>
      </trkpt>
      <trkpt lat="47.31387" lon="-2.3119">
        <ele>20.799999237061</ele>
        <time>2019-11-17T10:21:32.000Z</time>
      </trkpt>
      <trkpt lat="47.31391" lon="-2.31205">
        <ele>21.200000762939</ele>
        <time>2019-11-17T10:21:35.000Z</time>
      </trkpt>
      <trkpt lat="47.31393" lon="-2.3121">
        <ele>21.60000038147</ele>
        <time>2019-11-17T10:21:36.000Z</time>
      </trkpt>
      <trkpt lat="47.31395" lon="-2.31216">
        <ele>22</ele>
        <time>2019-11-17T10:21:37.000Z</time>
      </trkpt>
      <trkpt lat="47.31395" lon="-2.31221">
        <ele>22.60000038147</ele>
        <time>2019-11-17T10:21:38.000Z</time>
      </trkpt>
      <trkpt lat="47.31393" lon="-2.31227">
        <ele>23</ele>
        <time>2019-11-17T10:21:39.000Z</time>
      </trkpt>
      <trkpt lat="47.31385" lon="-2.31245">
        <ele>23</ele>
        <time>2019-11-17T10:21:42.000Z</time>
      </trkpt>
      <trkpt lat="47.31377" lon="-2.31264">
        <ele>23</ele>
        <time>2019-11-17T10:21:45.000Z</time>
      </trkpt>
      <trkpt lat="47.31372" lon="-2.31277">
        <ele>23</ele>
        <time>2019-11-17T10:21:47.000Z</time>
      </trkpt>
      <trkpt lat="47.31369" lon="-2.31291">
        <ele>23</ele>
        <time>2019-11-17T10:21:49.000Z</time>
      </trkpt>
      <trkpt lat="47.31369" lon="-2.31308">
        <ele>23</ele>
        <time>2019-11-17T10:21:51.000Z</time>
      </trkpt>
      <trkpt lat="47.31372" lon="-2.31342">
        <ele>23</ele>
        <time>2019-11-17T10:21:55.000Z</time>
      </trkpt>
      <trkpt lat="47.31374" lon="-2.3135">
        <ele>23</ele>
        <time>2019-11-17T10:21:56.000Z</time>
      </trkpt>
      <trkpt lat="47.31384" lon="-2.31389">
        <ele>23</ele>
        <time>2019-11-17T10:22:01.000Z</time>
      </trkpt>
      <trkpt lat="47.3139" lon="-2.31404">
        <ele>23</ele>
        <time>2019-11-17T10:22:03.000Z</time>
      </trkpt>
      <trkpt lat="47.31407" lon="-2.31437">
        <ele>23</ele>
        <time>2019-11-17T10:22:08.000Z</time>
      </trkpt>
      <trkpt lat="47.3141" lon="-2.31444">
        <ele>23</ele>
        <time>2019-11-17T10:22:09.000Z</time>
      </trkpt>
      <trkpt lat="47.31414" lon="-2.3147">
        <ele>23</ele>
        <time>2019-11-17T10:22:12.000Z</time>
      </trkpt>
      <trkpt lat="47.31418" lon="-2.31486">
        <ele>23.39999961853</ele>
        <time>2019-11-17T10:22:14.000Z</time>
      </trkpt>
      <trkpt lat="47.31419" lon="-2.31495">
        <ele>23.799999237061</ele>
        <time>2019-11-17T10:22:15.000Z</time>
      </trkpt>
      <trkpt lat="47.3142" lon="-2.31503">
        <ele>24.200000762939</ele>
        <time>2019-11-17T10:22:16.000Z</time>
      </trkpt>
      <trkpt lat="47.31422" lon="-2.31512">
        <ele>24.60000038147</ele>
        <time>2019-11-17T10:22:17.000Z</time>
      </trkpt>
      <trkpt lat="47.31423" lon="-2.31521">
        <ele>25</ele>
        <time>2019-11-17T10:22:18.000Z</time>
      </trkpt>
      <trkpt lat="47.31427" lon="-2.31547">
        <ele>25</ele>
        <time>2019-11-17T10:22:21.000Z</time>
      </trkpt>
      <trkpt lat="47.31428" lon="-2.31556">
        <ele>25</ele>
        <time>2019-11-17T10:22:22.000Z</time>
      </trkpt>
      <trkpt lat="47.3143" lon="-2.31573">
        <ele>25</ele>
        <time>2019-11-17T10:22:24.000Z</time>
      </trkpt>
      <trkpt lat="47.31432" lon="-2.3159">
        <ele>25</ele>
        <time>2019-11-17T10:22:26.000Z</time>
      </trkpt>
      <trkpt lat="47.31433" lon="-2.31598">
        <ele>25</ele>
        <time>2019-11-17T10:22:27.000Z</time>
      </trkpt>
      <trkpt lat="47.31443" lon="-2.31645">
        <ele>25</ele>
        <time>2019-11-17T10:22:33.000Z</time>
      </trkpt>
      <trkpt lat="47.31454" lon="-2.31696">
        <ele>25</ele>
        <time>2019-11-17T10:22:39.000Z</time>
      </trkpt>
      <trkpt lat="47.31464" lon="-2.31744">
        <ele>25</ele>
        <time>2019-11-17T10:22:45.000Z</time>
      </trkpt>
      <trkpt lat="47.31467" lon="-2.31765">
        <ele>25</ele>
        <time>2019-11-17T10:22:48.000Z</time>
      </trkpt>
      <trkpt lat="47.31465" lon="-2.31779">
        <ele>25</ele>
        <time>2019-11-17T10:22:50.000Z</time>
      </trkpt>
      <trkpt lat="47.31456" lon="-2.31799">
        <ele>25</ele>
        <time>2019-11-17T10:22:53.000Z</time>
      </trkpt>
      <trkpt lat="47.31452" lon="-2.31806">
        <ele>25.60000038147</ele>
        <time>2019-11-17T10:22:54.000Z</time>
      </trkpt>
      <trkpt lat="47.31449" lon="-2.31813">
        <ele>26</ele>
        <time>2019-11-17T10:22:55.000Z</time>
      </trkpt>
      <trkpt lat="47.31445" lon="-2.31821">
        <ele>26.39999961853</ele>
        <time>2019-11-17T10:22:56.000Z</time>
      </trkpt>
      <trkpt lat="47.31441" lon="-2.31828">
        <ele>26.799999237061</ele>
        <time>2019-11-17T10:22:57.000Z</time>
      </trkpt>
      <trkpt lat="47.31438" lon="-2.31835">
        <ele>27.200000762939</ele>
        <time>2019-11-17T10:22:58.000Z</time>
      </trkpt>
      <trkpt lat="47.31435" lon="-2.31842">
        <ele>27.200000762939</ele>
        <time>2019-11-17T10:22:59.000Z</time>
      </trkpt>
      <trkpt lat="47.31429" lon="-2.31857">
        <ele>27.200000762939</ele>
        <time>2019-11-17T10:23:01.000Z</time>
      </trkpt>
      <trkpt lat="47.31422" lon="-2.31882">
        <ele>27.200000762939</ele>
        <time>2019-11-17T10:23:04.000Z</time>
      </trkpt>
      <trkpt lat="47.3142" lon="-2.31891">
        <ele>27.200000762939</ele>
        <time>2019-11-17T10:23:05.000Z</time>
      </trkpt>
      <trkpt lat="47.31417" lon="-2.31928">
        <ele>27.200000762939</ele>
        <time>2019-11-17T10:23:09.000Z</time>
      </trkpt>
      <trkpt lat="47.31418" lon="-2.31945">
        <ele>27.200000762939</ele>
        <time>2019-11-17T10:23:11.000Z</time>
      </trkpt>
      <trkpt lat="47.31422" lon="-2.3197">
        <ele>27.200000762939</ele>
        <time>2019-11-17T10:23:14.000Z</time>
      </trkpt>
      <trkpt lat="47.31427" lon="-2.31987">
        <ele>27.200000762939</ele>
        <time>2019-11-17T10:23:16.000Z</time>
      </trkpt>
      <trkpt lat="47.31438" lon="-2.3202">
        <ele>27.200000762939</ele>
        <time>2019-11-17T10:23:20.000Z</time>
      </trkpt>
      <trkpt lat="47.31448" lon="-2.32048">
        <ele>26.799999237061</ele>
        <time>2019-11-17T10:23:23.000Z</time>
      </trkpt>
      <trkpt lat="47.31451" lon="-2.32057">
        <ele>26.39999961853</ele>
        <time>2019-11-17T10:23:24.000Z</time>
      </trkpt>
      <trkpt lat="47.31455" lon="-2.32067">
        <ele>26</ele>
        <time>2019-11-17T10:23:25.000Z</time>
      </trkpt>
      <trkpt lat="47.31458" lon="-2.32077">
        <ele>25.60000038147</ele>
        <time>2019-11-17T10:23:26.000Z</time>
      </trkpt>
      <trkpt lat="47.31462" lon="-2.32087">
        <ele>25.200000762939</ele>
        <time>2019-11-17T10:23:27.000Z</time>
      </trkpt>
      <trkpt lat="47.31481" lon="-2.32129">
        <ele>25.200000762939</ele>
        <time>2019-11-17T10:23:32.000Z</time>
      </trkpt>
      <trkpt lat="47.315" lon="-2.32165">
        <ele>25.200000762939</ele>
        <time>2019-11-17T10:23:38.000Z</time>
      </trkpt>
      <trkpt lat="47.31503" lon="-2.32169">
        <ele>25.60000038147</ele>
        <time>2019-11-17T10:23:39.000Z</time>
      </trkpt>
      <trkpt lat="47.31506" lon="-2.32172">
        <ele>26</ele>
        <time>2019-11-17T10:23:40.000Z</time>
      </trkpt>
      <trkpt lat="47.31508" lon="-2.32176">
        <ele>26.39999961853</ele>
        <time>2019-11-17T10:23:41.000Z</time>
      </trkpt>
      <trkpt lat="47.3151" lon="-2.32179">
        <ele>26.799999237061</ele>
        <time>2019-11-17T10:23:42.000Z</time>
      </trkpt>
      <trkpt lat="47.3151" lon="-2.32182">
        <ele>27.200000762939</ele>
        <time>2019-11-17T10:23:43.000Z</time>
      </trkpt>
      <trkpt lat="47.31506" lon="-2.32183">
        <ele>27.200000762939</ele>
        <time>2019-11-17T10:23:46.000Z</time>
      </trkpt>
      <trkpt lat="47.31501" lon="-2.32178">
        <ele>27.200000762939</ele>
        <time>2019-11-17T10:23:48.000Z</time>
      </trkpt>
      <trkpt lat="47.31495" lon="-2.32174">
        <ele>27.200000762939</ele>
        <time>2019-11-17T10:23:50.000Z</time>
      </trkpt>
      <trkpt lat="47.31491" lon="-2.32175">
        <ele>27.200000762939</ele>
        <time>2019-11-17T10:23:51.000Z</time>
      </trkpt>
      <trkpt lat="47.31484" lon="-2.32183">
        <ele>27.200000762939</ele>
        <time>2019-11-17T10:23:53.000Z</time>
      </trkpt>
      <trkpt lat="47.31477" lon="-2.32201">
        <ele>27.200000762939</ele>
        <time>2019-11-17T10:23:56.000Z</time>
      </trkpt>
      <trkpt lat="47.31473" lon="-2.32214">
        <ele>27.200000762939</ele>
        <time>2019-11-17T10:23:58.000Z</time>
      </trkpt>
      <trkpt lat="47.3147" lon="-2.32221">
        <ele>27.200000762939</ele>
        <time>2019-11-17T10:23:59.000Z</time>
      </trkpt>
      <trkpt lat="47.31465" lon="-2.32235">
        <ele>27.200000762939</ele>
        <time>2019-11-17T10:24:01.000Z</time>
      </trkpt>
      <trkpt lat="47.31456" lon="-2.32256">
        <ele>27.200000762939</ele>
        <time>2019-11-17T10:24:04.000Z</time>
      </trkpt>
      <trkpt lat="47.31446" lon="-2.32266">
        <ele>27.200000762939</ele>
        <time>2019-11-17T10:24:06.000Z</time>
      </trkpt>
      <trkpt lat="47.31434" lon="-2.32272">
        <ele>27.200000762939</ele>
        <time>2019-11-17T10:24:08.000Z</time>
      </trkpt>
      <trkpt lat="47.31428" lon="-2.32273">
        <ele>27.200000762939</ele>
        <time>2019-11-17T10:24:09.000Z</time>
      </trkpt>
      <trkpt lat="47.31421" lon="-2.32274">
        <ele>27.200000762939</ele>
        <time>2019-11-17T10:24:10.000Z</time>
      </trkpt>
      <trkpt lat="47.31381" lon="-2.32288">
        <ele>27.200000762939</ele>
        <time>2019-11-17T10:24:16.000Z</time>
      </trkpt>
      <trkpt lat="47.31368" lon="-2.32295">
        <ele>27.200000762939</ele>
        <time>2019-11-17T10:24:18.000Z</time>
      </trkpt>
      <trkpt lat="47.31346" lon="-2.32308">
        <ele>27.200000762939</ele>
        <time>2019-11-17T10:24:21.000Z</time>
      </trkpt>
      <trkpt lat="47.31313" lon="-2.3234">
        <ele>27.200000762939</ele>
        <time>2019-11-17T10:24:26.000Z</time>
      </trkpt>
      <trkpt lat="47.31286" lon="-2.32367">
        <ele>27.200000762939</ele>
        <time>2019-11-17T10:24:31.000Z</time>
      </trkpt>
      <trkpt lat="47.31272" lon="-2.32381">
        <ele>27.200000762939</ele>
        <time>2019-11-17T10:24:34.000Z</time>
      </trkpt>
      <trkpt lat="47.31262" lon="-2.32389">
        <ele>27.200000762939</ele>
        <time>2019-11-17T10:24:36.000Z</time>
      </trkpt>
      <trkpt lat="47.31237" lon="-2.32407">
        <ele>27.200000762939</ele>
        <time>2019-11-17T10:24:41.000Z</time>
      </trkpt>
      <trkpt lat="47.312" lon="-2.32432">
        <ele>27.200000762939</ele>
        <time>2019-11-17T10:24:48.000Z</time>
      </trkpt>
      <trkpt lat="47.31189" lon="-2.32439">
        <ele>27.200000762939</ele>
        <time>2019-11-17T10:24:50.000Z</time>
      </trkpt>
      <trkpt lat="47.31182" lon="-2.32453">
        <ele>27.200000762939</ele>
        <time>2019-11-17T10:24:52.000Z</time>
      </trkpt>
      <trkpt lat="47.3118" lon="-2.32475">
        <ele>27.200000762939</ele>
        <time>2019-11-17T10:24:55.000Z</time>
      </trkpt>
      <trkpt lat="47.31179" lon="-2.32486">
        <ele>27.200000762939</ele>
        <time>2019-11-17T10:24:58.000Z</time>
      </trkpt>
      <trkpt lat="47.31179" lon="-2.32515">
        <ele>27.200000762939</ele>
        <time>2019-11-17T10:25:03.000Z</time>
      </trkpt>
      <trkpt lat="47.31178" lon="-2.32546">
        <ele>27.200000762939</ele>
        <time>2019-11-17T10:25:07.000Z</time>
      </trkpt>
      <trkpt lat="47.31178" lon="-2.32554">
        <ele>27.200000762939</ele>
        <time>2019-11-17T10:25:08.000Z</time>
      </trkpt>
      <trkpt lat="47.31177" lon="-2.32578">
        <ele>27.200000762939</ele>
        <time>2019-11-17T10:25:11.000Z</time>
      </trkpt>
      <trkpt lat="47.31177" lon="-2.32585">
        <ele>27.60000038147</ele>
        <time>2019-11-17T10:25:12.000Z</time>
      </trkpt>
      <trkpt lat="47.31177" lon="-2.32594">
        <ele>28</ele>
        <time>2019-11-17T10:25:13.000Z</time>
      </trkpt>
      <trkpt lat="47.31177" lon="-2.32601">
        <ele>28.39999961853</ele>
        <time>2019-11-17T10:25:14.000Z</time>
      </trkpt>
      <trkpt lat="47.31178" lon="-2.32609">
        <ele>28.799999237061</ele>
        <time>2019-11-17T10:25:15.000Z</time>
      </trkpt>
      <trkpt lat="47.31178" lon="-2.32617">
        <ele>29.200000762939</ele>
        <time>2019-11-17T10:25:16.000Z</time>
      </trkpt>
      <trkpt lat="47.31181" lon="-2.32633">
        <ele>29.200000762939</ele>
        <time>2019-11-17T10:25:18.000Z</time>
      </trkpt>
      <trkpt lat="47.31185" lon="-2.32648">
        <ele>29.200000762939</ele>
        <time>2019-11-17T10:25:20.000Z</time>
      </trkpt>
      <trkpt lat="47.31195" lon="-2.32679">
        <ele>29.200000762939</ele>
        <time>2019-11-17T10:25:25.000Z</time>
      </trkpt>
      <trkpt lat="47.31205" lon="-2.32714">
        <ele>29.200000762939</ele>
        <time>2019-11-17T10:25:30.000Z</time>
      </trkpt>
      <trkpt lat="47.31206" lon="-2.3272">
        <ele>29.200000762939</ele>
        <time>2019-11-17T10:25:31.000Z</time>
      </trkpt>
      <trkpt lat="47.31209" lon="-2.32724">
        <ele>29.200000762939</ele>
        <time>2019-11-17T10:25:32.000Z</time>
      </trkpt>
      <trkpt lat="47.31216" lon="-2.32732">
        <ele>29.200000762939</ele>
        <time>2019-11-17T10:25:34.000Z</time>
      </trkpt>
      <trkpt lat="47.31237" lon="-2.32747">
        <ele>29.200000762939</ele>
        <time>2019-11-17T10:25:38.000Z</time>
      </trkpt>
      <trkpt lat="47.31243" lon="-2.32752">
        <ele>29.200000762939</ele>
        <time>2019-11-17T10:25:39.000Z</time>
      </trkpt>
      <trkpt lat="47.3127" lon="-2.3277">
        <ele>29.200000762939</ele>
        <time>2019-11-17T10:25:43.000Z</time>
      </trkpt>
      <trkpt lat="47.31281" lon="-2.3278">
        <ele>29.200000762939</ele>
        <time>2019-11-17T10:25:45.000Z</time>
      </trkpt>
      <trkpt lat="47.31289" lon="-2.32793">
        <ele>29.200000762939</ele>
        <time>2019-11-17T10:25:47.000Z</time>
      </trkpt>
      <trkpt lat="47.31313" lon="-2.32829">
        <ele>29.200000762939</ele>
        <time>2019-11-17T10:25:52.000Z</time>
      </trkpt>
      <trkpt lat="47.31318" lon="-2.32836">
        <ele>29.200000762939</ele>
        <time>2019-11-17T10:25:53.000Z</time>
      </trkpt>
      <trkpt lat="47.31337" lon="-2.32862">
        <ele>29.200000762939</ele>
        <time>2019-11-17T10:25:57.000Z</time>
      </trkpt>
      <trkpt lat="47.3135" lon="-2.3288">
        <ele>29.200000762939</ele>
        <time>2019-11-17T10:26:00.000Z</time>
      </trkpt>
      <trkpt lat="47.31353" lon="-2.32894">
        <ele>29.200000762939</ele>
        <time>2019-11-17T10:26:02.000Z</time>
      </trkpt>
      <trkpt lat="47.31348" lon="-2.32912">
        <ele>29.200000762939</ele>
        <time>2019-11-17T10:26:05.000Z</time>
      </trkpt>
      <trkpt lat="47.31341" lon="-2.32925">
        <ele>29.200000762939</ele>
        <time>2019-11-17T10:26:07.000Z</time>
      </trkpt>
      <trkpt lat="47.31333" lon="-2.3294">
        <ele>29.200000762939</ele>
        <time>2019-11-17T10:26:09.000Z</time>
      </trkpt>
      <trkpt lat="47.31325" lon="-2.32956">
        <ele>29.200000762939</ele>
        <time>2019-11-17T10:26:11.000Z</time>
      </trkpt>
      <trkpt lat="47.31314" lon="-2.3298">
        <ele>29.200000762939</ele>
        <time>2019-11-17T10:26:14.000Z</time>
      </trkpt>
      <trkpt lat="47.31307" lon="-2.32995">
        <ele>29.200000762939</ele>
        <time>2019-11-17T10:26:16.000Z</time>
      </trkpt>
      <trkpt lat="47.31299" lon="-2.3301">
        <ele>29.200000762939</ele>
        <time>2019-11-17T10:26:18.000Z</time>
      </trkpt>
      <trkpt lat="47.31295" lon="-2.33017">
        <ele>29.200000762939</ele>
        <time>2019-11-17T10:26:19.000Z</time>
      </trkpt>
      <trkpt lat="47.31274" lon="-2.33047">
        <ele>29.200000762939</ele>
        <time>2019-11-17T10:26:24.000Z</time>
      </trkpt>
      <trkpt lat="47.31249" lon="-2.33096">
        <ele>29.200000762939</ele>
        <time>2019-11-17T10:26:31.000Z</time>
      </trkpt>
      <trkpt lat="47.31231" lon="-2.33132">
        <ele>29.200000762939</ele>
        <time>2019-11-17T10:26:37.000Z</time>
      </trkpt>
      <trkpt lat="47.31226" lon="-2.33142">
        <ele>29.200000762939</ele>
        <time>2019-11-17T10:26:39.000Z</time>
      </trkpt>
      <trkpt lat="47.31216" lon="-2.3315">
        <ele>29.200000762939</ele>
        <time>2019-11-17T10:26:41.000Z</time>
      </trkpt>
      <trkpt lat="47.31205" lon="-2.33154">
        <ele>29.200000762939</ele>
        <time>2019-11-17T10:26:43.000Z</time>
      </trkpt>
      <trkpt lat="47.31188" lon="-2.33163">
        <ele>29.200000762939</ele>
        <time>2019-11-17T10:26:46.000Z</time>
      </trkpt>
      <trkpt lat="47.31152" lon="-2.33189">
        <ele>29.200000762939</ele>
        <time>2019-11-17T10:26:53.000Z</time>
      </trkpt>
      <trkpt lat="47.31133" lon="-2.33199">
        <ele>29.200000762939</ele>
        <time>2019-11-17T10:26:57.000Z</time>
      </trkpt>
      <trkpt lat="47.31128" lon="-2.33202">
        <ele>29.200000762939</ele>
        <time>2019-11-17T10:26:58.000Z</time>
      </trkpt>
      <trkpt lat="47.31118" lon="-2.33209">
        <ele>29.60000038147</ele>
        <time>2019-11-17T10:27:00.000Z</time>
      </trkpt>
      <trkpt lat="47.31113" lon="-2.33214">
        <ele>30</ele>
        <time>2019-11-17T10:27:01.000Z</time>
      </trkpt>
      <trkpt lat="47.3111" lon="-2.33221">
        <ele>30.39999961853</ele>
        <time>2019-11-17T10:27:02.000Z</time>
      </trkpt>
      <trkpt lat="47.31107" lon="-2.33228">
        <ele>30.799999237061</ele>
        <time>2019-11-17T10:27:03.000Z</time>
      </trkpt>
      <trkpt lat="47.31105" lon="-2.33237">
        <ele>31.200000762939</ele>
        <time>2019-11-17T10:27:04.000Z</time>
      </trkpt>
      <trkpt lat="47.31104" lon="-2.33255">
        <ele>31.200000762939</ele>
        <time>2019-11-17T10:27:06.000Z</time>
      </trkpt>
      <trkpt lat="47.31103" lon="-2.33274">
        <ele>31.200000762939</ele>
        <time>2019-11-17T10:27:08.000Z</time>
      </trkpt>
      <trkpt lat="47.311" lon="-2.33331">
        <ele>31.200000762939</ele>
        <time>2019-11-17T10:27:14.000Z</time>
      </trkpt>
      <trkpt lat="47.31098" lon="-2.33387">
        <ele>31.200000762939</ele>
        <time>2019-11-17T10:27:20.000Z</time>
      </trkpt>
      <trkpt lat="47.31098" lon="-2.3344">
        <ele>31.60000038147</ele>
        <time>2019-11-17T10:27:26.000Z</time>
      </trkpt>
      <trkpt lat="47.31098" lon="-2.33448">
        <ele>32</ele>
        <time>2019-11-17T10:27:27.000Z</time>
      </trkpt>
      <trkpt lat="47.31098" lon="-2.33456">
        <ele>32.400001525879</ele>
        <time>2019-11-17T10:27:28.000Z</time>
      </trkpt>
      <trkpt lat="47.31099" lon="-2.33465">
        <ele>32.799999237061</ele>
        <time>2019-11-17T10:27:29.000Z</time>
      </trkpt>
      <trkpt lat="47.31099" lon="-2.33474">
        <ele>33.200000762939</ele>
        <time>2019-11-17T10:27:30.000Z</time>
      </trkpt>
      <trkpt lat="47.31102" lon="-2.33497">
        <ele>33.200000762939</ele>
        <time>2019-11-17T10:27:33.000Z</time>
      </trkpt>
      <trkpt lat="47.31112" lon="-2.33551">
        <ele>33.200000762939</ele>
        <time>2019-11-17T10:27:40.000Z</time>
      </trkpt>
      <trkpt lat="47.31113" lon="-2.33576">
        <ele>33.799999237061</ele>
        <time>2019-11-17T10:27:43.000Z</time>
      </trkpt>
      <trkpt lat="47.31113" lon="-2.33585">
        <ele>34.200000762939</ele>
        <time>2019-11-17T10:27:44.000Z</time>
      </trkpt>
      <trkpt lat="47.31113" lon="-2.33595">
        <ele>34.599998474121</ele>
        <time>2019-11-17T10:27:45.000Z</time>
      </trkpt>
      <trkpt lat="47.31112" lon="-2.33605">
        <ele>35</ele>
        <time>2019-11-17T10:27:46.000Z</time>
      </trkpt>
      <trkpt lat="47.31112" lon="-2.33614">
        <ele>35.400001525879</ele>
        <time>2019-11-17T10:27:47.000Z</time>
      </trkpt>
      <trkpt lat="47.31106" lon="-2.33664">
        <ele>35.400001525879</ele>
        <time>2019-11-17T10:27:52.000Z</time>
      </trkpt>
      <trkpt lat="47.31096" lon="-2.33735">
        <ele>35.400001525879</ele>
        <time>2019-11-17T10:27:59.000Z</time>
      </trkpt>
      <trkpt lat="47.31089" lon="-2.33763">
        <ele>35.400001525879</ele>
        <time>2019-11-17T10:28:02.000Z</time>
      </trkpt>
      <trkpt lat="47.31082" lon="-2.3378">
        <ele>35.400001525879</ele>
        <time>2019-11-17T10:28:04.000Z</time>
      </trkpt>
      <trkpt lat="47.31072" lon="-2.33805">
        <ele>35.400001525879</ele>
        <time>2019-11-17T10:28:07.000Z</time>
      </trkpt>
      <trkpt lat="47.31068" lon="-2.33824">
        <ele>35.400001525879</ele>
        <time>2019-11-17T10:28:09.000Z</time>
      </trkpt>
      <trkpt lat="47.31067" lon="-2.33843">
        <ele>35.400001525879</ele>
        <time>2019-11-17T10:28:11.000Z</time>
      </trkpt>
      <trkpt lat="47.31065" lon="-2.33879">
        <ele>35.400001525879</ele>
        <time>2019-11-17T10:28:15.000Z</time>
      </trkpt>
      <trkpt lat="47.31063" lon="-2.33921">
        <ele>35.400001525879</ele>
        <time>2019-11-17T10:28:20.000Z</time>
      </trkpt>
      <trkpt lat="47.31063" lon="-2.3393">
        <ele>35.400001525879</ele>
        <time>2019-11-17T10:28:21.000Z</time>
      </trkpt>
      <trkpt lat="47.31064" lon="-2.33969">
        <ele>35.400001525879</ele>
        <time>2019-11-17T10:28:25.000Z</time>
      </trkpt>
      <trkpt lat="47.31069" lon="-2.34048">
        <ele>35.400001525879</ele>
        <time>2019-11-17T10:28:33.000Z</time>
      </trkpt>
      <trkpt lat="47.31076" lon="-2.34079">
        <ele>35.400001525879</ele>
        <time>2019-11-17T10:28:36.000Z</time>
      </trkpt>
      <trkpt lat="47.31083" lon="-2.341">
        <ele>35.400001525879</ele>
        <time>2019-11-17T10:28:38.000Z</time>
      </trkpt>
      <trkpt lat="47.31087" lon="-2.3411">
        <ele>35.400001525879</ele>
        <time>2019-11-17T10:28:39.000Z</time>
      </trkpt>
      <trkpt lat="47.31103" lon="-2.3414">
        <ele>35.400001525879</ele>
        <time>2019-11-17T10:28:42.000Z</time>
      </trkpt>
      <trkpt lat="47.3112" lon="-2.34173">
        <ele>35</ele>
        <time>2019-11-17T10:28:45.000Z</time>
      </trkpt>
      <trkpt lat="47.31127" lon="-2.34185">
        <ele>34.599998474121</ele>
        <time>2019-11-17T10:28:46.000Z</time>
      </trkpt>
      <trkpt lat="47.31133" lon="-2.34197">
        <ele>34.200000762939</ele>
        <time>2019-11-17T10:28:47.000Z</time>
      </trkpt>
      <trkpt lat="47.31139" lon="-2.34208">
        <ele>33.599998474121</ele>
        <time>2019-11-17T10:28:48.000Z</time>
      </trkpt>
      <trkpt lat="47.31145" lon="-2.3422">
        <ele>33.200000762939</ele>
        <time>2019-11-17T10:28:49.000Z</time>
      </trkpt>
      <trkpt lat="47.31151" lon="-2.34232">
        <ele>32.799999237061</ele>
        <time>2019-11-17T10:28:50.000Z</time>
      </trkpt>
      <trkpt lat="47.31157" lon="-2.34244">
        <ele>32.200000762939</ele>
        <time>2019-11-17T10:28:51.000Z</time>
      </trkpt>
      <trkpt lat="47.31164" lon="-2.34256">
        <ele>31.799999237061</ele>
        <time>2019-11-17T10:28:52.000Z</time>
      </trkpt>
      <trkpt lat="47.31169" lon="-2.34268">
        <ele>30.799999237061</ele>
        <time>2019-11-17T10:28:53.000Z</time>
      </trkpt>
      <trkpt lat="47.31185" lon="-2.34302">
        <ele>30.39999961853</ele>
        <time>2019-11-17T10:28:56.000Z</time>
      </trkpt>
      <trkpt lat="47.3119" lon="-2.34313">
        <ele>30</ele>
        <time>2019-11-17T10:28:57.000Z</time>
      </trkpt>
      <trkpt lat="47.31196" lon="-2.34323">
        <ele>29.60000038147</ele>
        <time>2019-11-17T10:28:58.000Z</time>
      </trkpt>
      <trkpt lat="47.31203" lon="-2.34331">
        <ele>29</ele>
        <time>2019-11-17T10:28:59.000Z</time>
      </trkpt>
      <trkpt lat="47.31211" lon="-2.34338">
        <ele>28.60000038147</ele>
        <time>2019-11-17T10:29:00.000Z</time>
      </trkpt>
      <trkpt lat="47.31228" lon="-2.34346">
        <ele>28.60000038147</ele>
        <time>2019-11-17T10:29:02.000Z</time>
      </trkpt>
      <trkpt lat="47.31236" lon="-2.34349">
        <ele>28.60000038147</ele>
        <time>2019-11-17T10:29:03.000Z</time>
      </trkpt>
      <trkpt lat="47.31256" lon="-2.34361">
        <ele>28.60000038147</ele>
        <time>2019-11-17T10:29:06.000Z</time>
      </trkpt>
      <trkpt lat="47.31261" lon="-2.34369">
        <ele>28.60000038147</ele>
        <time>2019-11-17T10:29:07.000Z</time>
      </trkpt>
      <trkpt lat="47.31269" lon="-2.34397">
        <ele>28.60000038147</ele>
        <time>2019-11-17T10:29:10.000Z</time>
      </trkpt>
      <trkpt lat="47.3127" lon="-2.34407">
        <ele>28.60000038147</ele>
        <time>2019-11-17T10:29:11.000Z</time>
      </trkpt>
      <trkpt lat="47.31276" lon="-2.34455">
        <ele>28.60000038147</ele>
        <time>2019-11-17T10:29:16.000Z</time>
      </trkpt>
      <trkpt lat="47.3128" lon="-2.34483">
        <ele>28.60000038147</ele>
        <time>2019-11-17T10:29:19.000Z</time>
      </trkpt>
      <trkpt lat="47.3128" lon="-2.34492">
        <ele>29</ele>
        <time>2019-11-17T10:29:20.000Z</time>
      </trkpt>
      <trkpt lat="47.3128" lon="-2.34502">
        <ele>29.60000038147</ele>
        <time>2019-11-17T10:29:21.000Z</time>
      </trkpt>
      <trkpt lat="47.31282" lon="-2.34511">
        <ele>30</ele>
        <time>2019-11-17T10:29:22.000Z</time>
      </trkpt>
      <trkpt lat="47.31282" lon="-2.34521">
        <ele>30.39999961853</ele>
        <time>2019-11-17T10:29:23.000Z</time>
      </trkpt>
      <trkpt lat="47.31284" lon="-2.34531">
        <ele>31</ele>
        <time>2019-11-17T10:29:24.000Z</time>
      </trkpt>
      <trkpt lat="47.31287" lon="-2.34559">
        <ele>31</ele>
        <time>2019-11-17T10:29:27.000Z</time>
      </trkpt>
      <trkpt lat="47.31291" lon="-2.34604">
        <ele>31.39999961853</ele>
        <time>2019-11-17T10:29:32.000Z</time>
      </trkpt>
      <trkpt lat="47.31293" lon="-2.34612">
        <ele>31.799999237061</ele>
        <time>2019-11-17T10:29:33.000Z</time>
      </trkpt>
      <trkpt lat="47.31293" lon="-2.3462">
        <ele>32.200000762939</ele>
        <time>2019-11-17T10:29:34.000Z</time>
      </trkpt>
      <trkpt lat="47.31294" lon="-2.34629">
        <ele>32.599998474121</ele>
        <time>2019-11-17T10:29:35.000Z</time>
      </trkpt>
      <trkpt lat="47.31294" lon="-2.34637">
        <ele>33</ele>
        <time>2019-11-17T10:29:36.000Z</time>
      </trkpt>
      <trkpt lat="47.31295" lon="-2.34644">
        <ele>33</ele>
        <time>2019-11-17T10:29:37.000Z</time>
      </trkpt>
      <trkpt lat="47.31296" lon="-2.3465">
        <ele>33</ele>
        <time>2019-11-17T10:29:38.000Z</time>
      </trkpt>
      <trkpt lat="47.31296" lon="-2.34662">
        <ele>33.599998474121</ele>
        <time>2019-11-17T10:29:40.000Z</time>
      </trkpt>
      <trkpt lat="47.31296" lon="-2.34667">
        <ele>34</ele>
        <time>2019-11-17T10:29:41.000Z</time>
      </trkpt>
      <trkpt lat="47.31295" lon="-2.34673">
        <ele>34.400001525879</ele>
        <time>2019-11-17T10:29:42.000Z</time>
      </trkpt>
      <trkpt lat="47.31292" lon="-2.34678">
        <ele>35.200000762939</ele>
        <time>2019-11-17T10:29:43.000Z</time>
      </trkpt>
      <trkpt lat="47.31285" lon="-2.34688">
        <ele>35.200000762939</ele>
        <time>2019-11-17T10:29:45.000Z</time>
      </trkpt>
      <trkpt lat="47.31277" lon="-2.34706">
        <ele>35.200000762939</ele>
        <time>2019-11-17T10:29:49.000Z</time>
      </trkpt>
      <trkpt lat="47.31279" lon="-2.34726">
        <ele>35.200000762939</ele>
        <time>2019-11-17T10:29:54.000Z</time>
      </trkpt>
      <trkpt lat="47.31281" lon="-2.34741">
        <ele>35.200000762939</ele>
        <time>2019-11-17T10:29:59.000Z</time>
      </trkpt>
      <trkpt lat="47.31285" lon="-2.34753">
        <ele>35.200000762939</ele>
        <time>2019-11-17T10:30:05.000Z</time>
      </trkpt>
      <trkpt lat="47.31286" lon="-2.34762">
        <ele>35.200000762939</ele>
        <time>2019-11-17T10:30:09.000Z</time>
      </trkpt>
      <trkpt lat="47.31286" lon="-2.34765">
        <ele>35.200000762939</ele>
        <time>2019-11-17T10:30:10.000Z</time>
      </trkpt>
      <trkpt lat="47.31289" lon="-2.34784">
        <ele>35.200000762939</ele>
        <time>2019-11-17T10:30:17.000Z</time>
      </trkpt>
      <trkpt lat="47.31292" lon="-2.348">
        <ele>35.200000762939</ele>
        <time>2019-11-17T10:30:23.000Z</time>
      </trkpt>
      <trkpt lat="47.31292" lon="-2.34801">
        <ele>35.200000762939</ele>
        <time>2019-11-17T10:30:26.000Z</time>
      </trkpt>
      <trkpt lat="47.31293" lon="-2.34804">
        <ele>35.200000762939</ele>
        <time>2019-11-17T10:30:44.000Z</time>
      </trkpt>
      <trkpt lat="47.31294" lon="-2.3481">
        <ele>35.200000762939</ele>
        <time>2019-11-17T10:30:47.000Z</time>
      </trkpt>
      <trkpt lat="47.31297" lon="-2.34831">
        <ele>35.200000762939</ele>
        <time>2019-11-17T10:30:52.000Z</time>
      </trkpt>
      <trkpt lat="47.31303" lon="-2.34853">
        <ele>35.599998474121</ele>
        <time>2019-11-17T10:30:56.000Z</time>
      </trkpt>
      <trkpt lat="47.31304" lon="-2.34859">
        <ele>36.400001525879</ele>
        <time>2019-11-17T10:30:57.000Z</time>
      </trkpt>
      <trkpt lat="47.31306" lon="-2.34866">
        <ele>36.799999237061</ele>
        <time>2019-11-17T10:30:58.000Z</time>
      </trkpt>
      <trkpt lat="47.31308" lon="-2.34872">
        <ele>37.200000762939</ele>
        <time>2019-11-17T10:30:59.000Z</time>
      </trkpt>
      <trkpt lat="47.31318" lon="-2.34906">
        <ele>37.200000762939</ele>
        <time>2019-11-17T10:31:04.000Z</time>
      </trkpt>
      <trkpt lat="47.31334" lon="-2.34965">
        <ele>37.200000762939</ele>
        <time>2019-11-17T10:31:11.000Z</time>
      </trkpt>
      <trkpt lat="47.31343" lon="-2.35011">
        <ele>37.200000762939</ele>
        <time>2019-11-17T10:31:16.000Z</time>
      </trkpt>
      <trkpt lat="47.31344" lon="-2.3502">
        <ele>37.200000762939</ele>
        <time>2019-11-17T10:31:17.000Z</time>
      </trkpt>
      <trkpt lat="47.31344" lon="-2.35078">
        <ele>37.200000762939</ele>
        <time>2019-11-17T10:31:23.000Z</time>
      </trkpt>
      <trkpt lat="47.31343" lon="-2.35141">
        <ele>37.200000762939</ele>
        <time>2019-11-17T10:31:30.000Z</time>
      </trkpt>
      <trkpt lat="47.31341" lon="-2.35209">
        <ele>37.200000762939</ele>
        <time>2019-11-17T10:31:37.000Z</time>
      </trkpt>
      <trkpt lat="47.3134" lon="-2.35279">
        <ele>37.200000762939</ele>
        <time>2019-11-17T10:31:44.000Z</time>
      </trkpt>
      <trkpt lat="47.31338" lon="-2.35339">
        <ele>37.200000762939</ele>
        <time>2019-11-17T10:31:50.000Z</time>
      </trkpt>
      <trkpt lat="47.31337" lon="-2.35349">
        <ele>37.200000762939</ele>
        <time>2019-11-17T10:31:51.000Z</time>
      </trkpt>
      <trkpt lat="47.31336" lon="-2.35386">
        <ele>37.200000762939</ele>
        <time>2019-11-17T10:31:55.000Z</time>
      </trkpt>
      <trkpt lat="47.31335" lon="-2.35422">
        <ele>37.200000762939</ele>
        <time>2019-11-17T10:31:59.000Z</time>
      </trkpt>
      <trkpt lat="47.31335" lon="-2.35432">
        <ele>37.200000762939</ele>
        <time>2019-11-17T10:32:00.000Z</time>
      </trkpt>
      <trkpt lat="47.31333" lon="-2.35443">
        <ele>37.200000762939</ele>
        <time>2019-11-17T10:32:01.000Z</time>
      </trkpt>
      <trkpt lat="47.31333" lon="-2.35473">
        <ele>37.200000762939</ele>
        <time>2019-11-17T10:32:04.000Z</time>
      </trkpt>
      <trkpt lat="47.31331" lon="-2.35526">
        <ele>37.200000762939</ele>
        <time>2019-11-17T10:32:10.000Z</time>
      </trkpt>
      <trkpt lat="47.31331" lon="-2.35538">
        <ele>37.200000762939</ele>
        <time>2019-11-17T10:32:13.000Z</time>
      </trkpt>
      <trkpt lat="47.3133" lon="-2.35549">
        <ele>37.200000762939</ele>
        <time>2019-11-17T10:32:19.000Z</time>
      </trkpt>
      <trkpt lat="47.31327" lon="-2.35561">
        <ele>37.200000762939</ele>
        <time>2019-11-17T10:32:25.000Z</time>
      </trkpt>
      <trkpt lat="47.31326" lon="-2.35581">
        <ele>37.200000762939</ele>
        <time>2019-11-17T10:32:32.000Z</time>
      </trkpt>
      <trkpt lat="47.31328" lon="-2.35602">
        <ele>37.200000762939</ele>
        <time>2019-11-17T10:32:36.000Z</time>
      </trkpt>
      <trkpt lat="47.31329" lon="-2.35607">
        <ele>37.200000762939</ele>
        <time>2019-11-17T10:32:37.000Z</time>
      </trkpt>
      <trkpt lat="47.3133" lon="-2.35636">
        <ele>37.200000762939</ele>
        <time>2019-11-17T10:32:41.000Z</time>
      </trkpt>
      <trkpt lat="47.31331" lon="-2.35649">
        <ele>37.200000762939</ele>
        <time>2019-11-17T10:32:43.000Z</time>
      </trkpt>
      <trkpt lat="47.31332" lon="-2.35664">
        <ele>37.799999237061</ele>
        <time>2019-11-17T10:32:45.000Z</time>
      </trkpt>
      <trkpt lat="47.31332" lon="-2.35671">
        <ele>38.200000762939</ele>
        <time>2019-11-17T10:32:46.000Z</time>
      </trkpt>
      <trkpt lat="47.31331" lon="-2.35678">
        <ele>38.599998474121</ele>
        <time>2019-11-17T10:32:47.000Z</time>
      </trkpt>
      <trkpt lat="47.31332" lon="-2.35685">
        <ele>39</ele>
        <time>2019-11-17T10:32:48.000Z</time>
      </trkpt>
      <trkpt lat="47.31331" lon="-2.35693">
        <ele>39.400001525879</ele>
        <time>2019-11-17T10:32:49.000Z</time>
      </trkpt>
      <trkpt lat="47.31333" lon="-2.35699">
        <ele>39.400001525879</ele>
        <time>2019-11-17T10:32:50.000Z</time>
      </trkpt>
      <trkpt lat="47.31333" lon="-2.35714">
        <ele>39.400001525879</ele>
        <time>2019-11-17T10:32:52.000Z</time>
      </trkpt>
      <trkpt lat="47.31333" lon="-2.35721">
        <ele>39.400001525879</ele>
        <time>2019-11-17T10:32:53.000Z</time>
      </trkpt>
      <trkpt lat="47.31332" lon="-2.35756">
        <ele>39.400001525879</ele>
        <time>2019-11-17T10:32:58.000Z</time>
      </trkpt>
      <trkpt lat="47.31334" lon="-2.35783">
        <ele>39.400001525879</ele>
        <time>2019-11-17T10:33:02.000Z</time>
      </trkpt>
      <trkpt lat="47.31336" lon="-2.358">
        <ele>39.400001525879</ele>
        <time>2019-11-17T10:33:04.000Z</time>
      </trkpt>
      <trkpt lat="47.31338" lon="-2.35824">
        <ele>39.400001525879</ele>
        <time>2019-11-17T10:33:07.000Z</time>
      </trkpt>
      <trkpt lat="47.31342" lon="-2.3586">
        <ele>39.400001525879</ele>
        <time>2019-11-17T10:33:11.000Z</time>
      </trkpt>
      <trkpt lat="47.31346" lon="-2.35868">
        <ele>39.400001525879</ele>
        <time>2019-11-17T10:33:12.000Z</time>
      </trkpt>
      <trkpt lat="47.31359" lon="-2.35891">
        <ele>39</ele>
        <time>2019-11-17T10:33:16.000Z</time>
      </trkpt>
      <trkpt lat="47.31361" lon="-2.35896">
        <ele>38.599998474121</ele>
        <time>2019-11-17T10:33:17.000Z</time>
      </trkpt>
      <trkpt lat="47.31363" lon="-2.35901">
        <ele>38</ele>
        <time>2019-11-17T10:33:18.000Z</time>
      </trkpt>
      <trkpt lat="47.31365" lon="-2.35906">
        <ele>37.599998474121</ele>
        <time>2019-11-17T10:33:19.000Z</time>
      </trkpt>
      <trkpt lat="47.31367" lon="-2.35911">
        <ele>37.200000762939</ele>
        <time>2019-11-17T10:33:20.000Z</time>
      </trkpt>
      <trkpt lat="47.3137" lon="-2.35916">
        <ele>37.200000762939</ele>
        <time>2019-11-17T10:33:21.000Z</time>
      </trkpt>
      <trkpt lat="47.31376" lon="-2.35926">
        <ele>37.200000762939</ele>
        <time>2019-11-17T10:33:23.000Z</time>
      </trkpt>
      <trkpt lat="47.31386" lon="-2.3594">
        <ele>37.200000762939</ele>
        <time>2019-11-17T10:33:26.000Z</time>
      </trkpt>
      <trkpt lat="47.31388" lon="-2.35945">
        <ele>37.200000762939</ele>
        <time>2019-11-17T10:33:27.000Z</time>
      </trkpt>
      <trkpt lat="47.31394" lon="-2.35961">
        <ele>37.200000762939</ele>
        <time>2019-11-17T10:33:30.000Z</time>
      </trkpt>
      <trkpt lat="47.31397" lon="-2.35967">
        <ele>37.200000762939</ele>
        <time>2019-11-17T10:33:31.000Z</time>
      </trkpt>
      <trkpt lat="47.31403" lon="-2.35993">
        <ele>37.200000762939</ele>
        <time>2019-11-17T10:33:36.000Z</time>
      </trkpt>
      <trkpt lat="47.31413" lon="-2.36013">
        <ele>37.200000762939</ele>
        <time>2019-11-17T10:33:41.000Z</time>
      </trkpt>
      <trkpt lat="47.31417" lon="-2.36027">
        <ele>37.599998474121</ele>
        <time>2019-11-17T10:33:44.000Z</time>
      </trkpt>
      <trkpt lat="47.31418" lon="-2.36032">
        <ele>38</ele>
        <time>2019-11-17T10:33:45.000Z</time>
      </trkpt>
      <trkpt lat="47.3142" lon="-2.36037">
        <ele>38.400001525879</ele>
        <time>2019-11-17T10:33:46.000Z</time>
      </trkpt>
      <trkpt lat="47.31421" lon="-2.36041">
        <ele>38.799999237061</ele>
        <time>2019-11-17T10:33:47.000Z</time>
      </trkpt>
      <trkpt lat="47.31423" lon="-2.36047">
        <ele>39.200000762939</ele>
        <time>2019-11-17T10:33:48.000Z</time>
      </trkpt>
      <trkpt lat="47.31429" lon="-2.36071">
        <ele>39.200000762939</ele>
        <time>2019-11-17T10:33:53.000Z</time>
      </trkpt>
      <trkpt lat="47.31434" lon="-2.36092">
        <ele>39.599998474121</ele>
        <time>2019-11-17T10:33:57.000Z</time>
      </trkpt>
      <trkpt lat="47.31435" lon="-2.36096">
        <ele>40</ele>
        <time>2019-11-17T10:33:58.000Z</time>
      </trkpt>
      <trkpt lat="47.31437" lon="-2.36102">
        <ele>40.400001525879</ele>
        <time>2019-11-17T10:33:59.000Z</time>
      </trkpt>
      <trkpt lat="47.31439" lon="-2.36107">
        <ele>40.799999237061</ele>
        <time>2019-11-17T10:34:00.000Z</time>
      </trkpt>
      <trkpt lat="47.31441" lon="-2.36112">
        <ele>41.200000762939</ele>
        <time>2019-11-17T10:34:01.000Z</time>
      </trkpt>
      <trkpt lat="47.31444" lon="-2.36123">
        <ele>41.200000762939</ele>
        <time>2019-11-17T10:34:03.000Z</time>
      </trkpt>
      <trkpt lat="47.31445" lon="-2.3613">
        <ele>41.200000762939</ele>
        <time>2019-11-17T10:34:04.000Z</time>
      </trkpt>
      <trkpt lat="47.3145" lon="-2.36146">
        <ele>41.200000762939</ele>
        <time>2019-11-17T10:34:07.000Z</time>
      </trkpt>
      <trkpt lat="47.31452" lon="-2.36151">
        <ele>41.200000762939</ele>
        <time>2019-11-17T10:34:08.000Z</time>
      </trkpt>
      <trkpt lat="47.31453" lon="-2.3616">
        <ele>41.200000762939</ele>
        <time>2019-11-17T10:34:10.000Z</time>
      </trkpt>
      <trkpt lat="47.31451" lon="-2.36166">
        <ele>41.200000762939</ele>
        <time>2019-11-17T10:34:12.000Z</time>
      </trkpt>
      <trkpt lat="47.3144" lon="-2.36176">
        <ele>41.200000762939</ele>
        <time>2019-11-17T10:34:16.000Z</time>
      </trkpt>
      <trkpt lat="47.31424" lon="-2.36192">
        <ele>41.200000762939</ele>
        <time>2019-11-17T10:34:21.000Z</time>
      </trkpt>
      <trkpt lat="47.3141" lon="-2.36201">
        <ele>41.599998474121</ele>
        <time>2019-11-17T10:34:25.000Z</time>
      </trkpt>
      <trkpt lat="47.31406" lon="-2.36204">
        <ele>42</ele>
        <time>2019-11-17T10:34:26.000Z</time>
      </trkpt>
      <trkpt lat="47.31402" lon="-2.36206">
        <ele>42.400001525879</ele>
        <time>2019-11-17T10:34:27.000Z</time>
      </trkpt>
      <trkpt lat="47.31399" lon="-2.36209">
        <ele>43</ele>
        <time>2019-11-17T10:34:28.000Z</time>
      </trkpt>
      <trkpt lat="47.31395" lon="-2.3621">
        <ele>43.400001525879</ele>
        <time>2019-11-17T10:34:29.000Z</time>
      </trkpt>
      <trkpt lat="47.31383" lon="-2.36214">
        <ele>43.400001525879</ele>
        <time>2019-11-17T10:34:32.000Z</time>
      </trkpt>
      <trkpt lat="47.31379" lon="-2.36217">
        <ele>43.400001525879</ele>
        <time>2019-11-17T10:34:33.000Z</time>
      </trkpt>
      <trkpt lat="47.31368" lon="-2.3623">
        <ele>43.400001525879</ele>
        <time>2019-11-17T10:34:36.000Z</time>
      </trkpt>
      <trkpt lat="47.3136" lon="-2.36241">
        <ele>43.400001525879</ele>
        <time>2019-11-17T10:34:38.000Z</time>
      </trkpt>
      <trkpt lat="47.31348" lon="-2.36257">
        <ele>43.400001525879</ele>
        <time>2019-11-17T10:34:41.000Z</time>
      </trkpt>
      <trkpt lat="47.31321" lon="-2.36284">
        <ele>43.400001525879</ele>
        <time>2019-11-17T10:34:47.000Z</time>
      </trkpt>
      <trkpt lat="47.31289" lon="-2.36303">
        <ele>43.400001525879</ele>
        <time>2019-11-17T10:34:53.000Z</time>
      </trkpt>
      <trkpt lat="47.31246" lon="-2.36327">
        <ele>43.400001525879</ele>
        <time>2019-11-17T10:35:00.000Z</time>
      </trkpt>
      <trkpt lat="47.31207" lon="-2.36351">
        <ele>43.400001525879</ele>
        <time>2019-11-17T10:35:06.000Z</time>
      </trkpt>
      <trkpt lat="47.31201" lon="-2.36355">
        <ele>43</ele>
        <time>2019-11-17T10:35:07.000Z</time>
      </trkpt>
      <trkpt lat="47.31193" lon="-2.36357">
        <ele>42.599998474121</ele>
        <time>2019-11-17T10:35:08.000Z</time>
      </trkpt>
      <trkpt lat="47.31187" lon="-2.36361">
        <ele>42.200000762939</ele>
        <time>2019-11-17T10:35:09.000Z</time>
      </trkpt>
      <trkpt lat="47.3118" lon="-2.36365">
        <ele>41.799999237061</ele>
        <time>2019-11-17T10:35:10.000Z</time>
      </trkpt>
      <trkpt lat="47.31174" lon="-2.3637">
        <ele>41.200000762939</ele>
        <time>2019-11-17T10:35:11.000Z</time>
      </trkpt>
      <trkpt lat="47.31138" lon="-2.36397">
        <ele>41.200000762939</ele>
        <time>2019-11-17T10:35:17.000Z</time>
      </trkpt>
      <trkpt lat="47.31106" lon="-2.36414">
        <ele>41.200000762939</ele>
        <time>2019-11-17T10:35:23.000Z</time>
      </trkpt>
      <trkpt lat="47.31097" lon="-2.36418">
        <ele>41.200000762939</ele>
        <time>2019-11-17T10:35:25.000Z</time>
      </trkpt>
      <trkpt lat="47.31084" lon="-2.36418">
        <ele>41.200000762939</ele>
        <time>2019-11-17T10:35:28.000Z</time>
      </trkpt>
      <trkpt lat="47.31072" lon="-2.3642">
        <ele>41.200000762939</ele>
        <time>2019-11-17T10:35:31.000Z</time>
      </trkpt>
      <trkpt lat="47.31053" lon="-2.36422">
        <ele>41.200000762939</ele>
        <time>2019-11-17T10:35:35.000Z</time>
      </trkpt>
      <trkpt lat="47.31048" lon="-2.36423">
        <ele>41.200000762939</ele>
        <time>2019-11-17T10:35:36.000Z</time>
      </trkpt>
      <trkpt lat="47.31038" lon="-2.36423">
        <ele>41.200000762939</ele>
        <time>2019-11-17T10:35:38.000Z</time>
      </trkpt>
      <trkpt lat="47.31026" lon="-2.36425">
        <ele>41.200000762939</ele>
        <time>2019-11-17T10:35:40.000Z</time>
      </trkpt>
      <trkpt lat="47.30993" lon="-2.36438">
        <ele>41.200000762939</ele>
        <time>2019-11-17T10:35:46.000Z</time>
      </trkpt>
      <trkpt lat="47.30962" lon="-2.36451">
        <ele>41.200000762939</ele>
        <time>2019-11-17T10:35:52.000Z</time>
      </trkpt>
      <trkpt lat="47.30942" lon="-2.36459">
        <ele>41.200000762939</ele>
        <time>2019-11-17T10:35:56.000Z</time>
      </trkpt>
      <trkpt lat="47.30937" lon="-2.3646">
        <ele>41.200000762939</ele>
        <time>2019-11-17T10:35:57.000Z</time>
      </trkpt>
      <trkpt lat="47.30903" lon="-2.36472">
        <ele>41.200000762939</ele>
        <time>2019-11-17T10:36:03.000Z</time>
      </trkpt>
      <trkpt lat="47.30867" lon="-2.36485">
        <ele>41.200000762939</ele>
        <time>2019-11-17T10:36:09.000Z</time>
      </trkpt>
      <trkpt lat="47.30845" lon="-2.36488">
        <ele>41.200000762939</ele>
        <time>2019-11-17T10:36:13.000Z</time>
      </trkpt>
      <trkpt lat="47.3084" lon="-2.36489">
        <ele>41.200000762939</ele>
        <time>2019-11-17T10:36:14.000Z</time>
      </trkpt>
      <trkpt lat="47.30827" lon="-2.36484">
        <ele>41.200000762939</ele>
        <time>2019-11-17T10:36:17.000Z</time>
      </trkpt>
      <trkpt lat="47.30816" lon="-2.36474">
        <ele>41.200000762939</ele>
        <time>2019-11-17T10:36:20.000Z</time>
      </trkpt>
      <trkpt lat="47.30812" lon="-2.36471">
        <ele>41.200000762939</ele>
        <time>2019-11-17T10:36:21.000Z</time>
      </trkpt>
      <trkpt lat="47.30807" lon="-2.36471">
        <ele>41.200000762939</ele>
        <time>2019-11-17T10:36:22.000Z</time>
      </trkpt>
      <trkpt lat="47.30788" lon="-2.36479">
        <ele>41.200000762939</ele>
        <time>2019-11-17T10:36:26.000Z</time>
      </trkpt>
      <trkpt lat="47.30769" lon="-2.36488">
        <ele>41.599998474121</ele>
        <time>2019-11-17T10:36:30.000Z</time>
      </trkpt>
      <trkpt lat="47.30764" lon="-2.36489">
        <ele>42.200000762939</ele>
        <time>2019-11-17T10:36:31.000Z</time>
      </trkpt>
      <trkpt lat="47.3076" lon="-2.36491">
        <ele>42.599998474121</ele>
        <time>2019-11-17T10:36:32.000Z</time>
      </trkpt>
      <trkpt lat="47.30755" lon="-2.36493">
        <ele>43</ele>
        <time>2019-11-17T10:36:33.000Z</time>
      </trkpt>
      <trkpt lat="47.3075" lon="-2.36495">
        <ele>43.400001525879</ele>
        <time>2019-11-17T10:36:34.000Z</time>
      </trkpt>
      <trkpt lat="47.30721" lon="-2.36507">
        <ele>43.400001525879</ele>
        <time>2019-11-17T10:36:40.000Z</time>
      </trkpt>
      <trkpt lat="47.30713" lon="-2.36513">
        <ele>43.400001525879</ele>
        <time>2019-11-17T10:36:42.000Z</time>
      </trkpt>
      <trkpt lat="47.30703" lon="-2.36522">
        <ele>43.799999237061</ele>
        <time>2019-11-17T10:36:45.000Z</time>
      </trkpt>
      <trkpt lat="47.30698" lon="-2.36521">
        <ele>44.200000762939</ele>
        <time>2019-11-17T10:36:46.000Z</time>
      </trkpt>
      <trkpt lat="47.30697" lon="-2.36517">
        <ele>44.599998474121</ele>
        <time>2019-11-17T10:36:47.000Z</time>
      </trkpt>
      <trkpt lat="47.30695" lon="-2.36513">
        <ele>45</ele>
        <time>2019-11-17T10:36:48.000Z</time>
      </trkpt>
      <trkpt lat="47.30692" lon="-2.36512">
        <ele>45.400001525879</ele>
        <time>2019-11-17T10:36:49.000Z</time>
      </trkpt>
      <trkpt lat="47.30685" lon="-2.36516">
        <ele>45.400001525879</ele>
        <time>2019-11-17T10:36:51.000Z</time>
      </trkpt>
      <trkpt lat="47.30682" lon="-2.36518">
        <ele>45.400001525879</ele>
        <time>2019-11-17T10:36:52.000Z</time>
      </trkpt>
      <trkpt lat="47.3067" lon="-2.36522">
        <ele>45.400001525879</ele>
        <time>2019-11-17T10:36:55.000Z</time>
      </trkpt>
      <trkpt lat="47.30666" lon="-2.36524">
        <ele>45.400001525879</ele>
        <time>2019-11-17T10:36:56.000Z</time>
      </trkpt>
      <trkpt lat="47.30641" lon="-2.36537">
        <ele>45.400001525879</ele>
        <time>2019-11-17T10:37:02.000Z</time>
      </trkpt>
      <trkpt lat="47.30621" lon="-2.36545">
        <ele>45.400001525879</ele>
        <time>2019-11-17T10:37:07.000Z</time>
      </trkpt>
      <trkpt lat="47.30617" lon="-2.36545">
        <ele>45.400001525879</ele>
        <time>2019-11-17T10:37:08.000Z</time>
      </trkpt>
      <trkpt lat="47.306" lon="-2.36551">
        <ele>45.400001525879</ele>
        <time>2019-11-17T10:37:12.000Z</time>
      </trkpt>
      <trkpt lat="47.30579" lon="-2.36558">
        <ele>45.400001525879</ele>
        <time>2019-11-17T10:37:16.000Z</time>
      </trkpt>
      <trkpt lat="47.30574" lon="-2.36561">
        <ele>45.400001525879</ele>
        <time>2019-11-17T10:37:17.000Z</time>
      </trkpt>
      <trkpt lat="47.30555" lon="-2.36575">
        <ele>45.400001525879</ele>
        <time>2019-11-17T10:37:21.000Z</time>
      </trkpt>
      <trkpt lat="47.30538" lon="-2.36587">
        <ele>45.400001525879</ele>
        <time>2019-11-17T10:37:25.000Z</time>
      </trkpt>
      <trkpt lat="47.30529" lon="-2.36592">
        <ele>45.400001525879</ele>
        <time>2019-11-17T10:37:27.000Z</time>
      </trkpt>
      <trkpt lat="47.3052" lon="-2.36594">
        <ele>45.400001525879</ele>
        <time>2019-11-17T10:37:29.000Z</time>
      </trkpt>
      <trkpt lat="47.305" lon="-2.366">
        <ele>45.400001525879</ele>
        <time>2019-11-17T10:37:33.000Z</time>
      </trkpt>
      <trkpt lat="47.30492" lon="-2.36603">
        <ele>45.799999237061</ele>
        <time>2019-11-17T10:37:35.000Z</time>
      </trkpt>
      <trkpt lat="47.30488" lon="-2.36605">
        <ele>46.200000762939</ele>
        <time>2019-11-17T10:37:36.000Z</time>
      </trkpt>
      <trkpt lat="47.30484" lon="-2.36606">
        <ele>46.599998474121</ele>
        <time>2019-11-17T10:37:37.000Z</time>
      </trkpt>
      <trkpt lat="47.3048" lon="-2.36608">
        <ele>47</ele>
        <time>2019-11-17T10:37:38.000Z</time>
      </trkpt>
      <trkpt lat="47.30475" lon="-2.3661">
        <ele>47.400001525879</ele>
        <time>2019-11-17T10:37:39.000Z</time>
      </trkpt>
      <trkpt lat="47.30454" lon="-2.36626">
        <ele>47.400001525879</ele>
        <time>2019-11-17T10:37:44.000Z</time>
      </trkpt>
      <trkpt lat="47.30443" lon="-2.36637">
        <ele>47.400001525879</ele>
        <time>2019-11-17T10:37:47.000Z</time>
      </trkpt>
      <trkpt lat="47.30435" lon="-2.36645">
        <ele>47.400001525879</ele>
        <time>2019-11-17T10:37:49.000Z</time>
      </trkpt>
      <trkpt lat="47.3042" lon="-2.36654">
        <ele>47.400001525879</ele>
        <time>2019-11-17T10:37:53.000Z</time>
      </trkpt>
      <trkpt lat="47.30411" lon="-2.36657">
        <ele>47.400001525879</ele>
        <time>2019-11-17T10:37:55.000Z</time>
      </trkpt>
      <trkpt lat="47.30375" lon="-2.36656">
        <ele>47.400001525879</ele>
        <time>2019-11-17T10:38:02.000Z</time>
      </trkpt>
      <trkpt lat="47.3034" lon="-2.36651">
        <ele>47.400001525879</ele>
        <time>2019-11-17T10:38:08.000Z</time>
      </trkpt>
      <trkpt lat="47.30316" lon="-2.36646">
        <ele>47.400001525879</ele>
        <time>2019-11-17T10:38:12.000Z</time>
      </trkpt>
      <trkpt lat="47.3031" lon="-2.36647">
        <ele>47.400001525879</ele>
        <time>2019-11-17T10:38:13.000Z</time>
      </trkpt>
      <trkpt lat="47.30305" lon="-2.36648">
        <ele>47</ele>
        <time>2019-11-17T10:38:14.000Z</time>
      </trkpt>
      <trkpt lat="47.30299" lon="-2.36649">
        <ele>46.599998474121</ele>
        <time>2019-11-17T10:38:15.000Z</time>
      </trkpt>
      <trkpt lat="47.30294" lon="-2.36652">
        <ele>45.799999237061</ele>
        <time>2019-11-17T10:38:16.000Z</time>
      </trkpt>
      <trkpt lat="47.30289" lon="-2.36654">
        <ele>45.200000762939</ele>
        <time>2019-11-17T10:38:17.000Z</time>
      </trkpt>
      <trkpt lat="47.30284" lon="-2.36657">
        <ele>45.200000762939</ele>
        <time>2019-11-17T10:38:18.000Z</time>
      </trkpt>
      <trkpt lat="47.30251" lon="-2.36667">
        <ele>45.200000762939</ele>
        <time>2019-11-17T10:38:24.000Z</time>
      </trkpt>
      <trkpt lat="47.30219" lon="-2.36672">
        <ele>45.200000762939</ele>
        <time>2019-11-17T10:38:30.000Z</time>
      </trkpt>
      <trkpt lat="47.3019" lon="-2.36678">
        <ele>45.200000762939</ele>
        <time>2019-11-17T10:38:36.000Z</time>
      </trkpt>
      <trkpt lat="47.30177" lon="-2.36681">
        <ele>45.200000762939</ele>
        <time>2019-11-17T10:38:40.000Z</time>
      </trkpt>
      <trkpt lat="47.30163" lon="-2.36683">
        <ele>44.799999237061</ele>
        <time>2019-11-17T10:38:44.000Z</time>
      </trkpt>
      <trkpt lat="47.30159" lon="-2.36685">
        <ele>44.400001525879</ele>
        <time>2019-11-17T10:38:45.000Z</time>
      </trkpt>
      <trkpt lat="47.30154" lon="-2.36687">
        <ele>44</ele>
        <time>2019-11-17T10:38:46.000Z</time>
      </trkpt>
      <trkpt lat="47.30148" lon="-2.36691">
        <ele>43.599998474121</ele>
        <time>2019-11-17T10:38:47.000Z</time>
      </trkpt>
      <trkpt lat="47.30142" lon="-2.36694">
        <ele>43.200000762939</ele>
        <time>2019-11-17T10:38:48.000Z</time>
      </trkpt>
      <trkpt lat="47.30135" lon="-2.36698">
        <ele>42.799999237061</ele>
        <time>2019-11-17T10:38:49.000Z</time>
      </trkpt>
      <trkpt lat="47.30129" lon="-2.36701">
        <ele>42.400001525879</ele>
        <time>2019-11-17T10:38:50.000Z</time>
      </trkpt>
      <trkpt lat="47.30123" lon="-2.36705">
        <ele>41.799999237061</ele>
        <time>2019-11-17T10:38:51.000Z</time>
      </trkpt>
      <trkpt lat="47.30117" lon="-2.36711">
        <ele>41.400001525879</ele>
        <time>2019-11-17T10:38:52.000Z</time>
      </trkpt>
      <trkpt lat="47.30111" lon="-2.36717">
        <ele>41</ele>
        <time>2019-11-17T10:38:53.000Z</time>
      </trkpt>
      <trkpt lat="47.30106" lon="-2.36721">
        <ele>41</ele>
        <time>2019-11-17T10:38:54.000Z</time>
      </trkpt>
      <trkpt lat="47.30087" lon="-2.36737">
        <ele>41</ele>
        <time>2019-11-17T10:38:58.000Z</time>
      </trkpt>
      <trkpt lat="47.30083" lon="-2.36742">
        <ele>41</ele>
        <time>2019-11-17T10:38:59.000Z</time>
      </trkpt>
      <trkpt lat="47.30069" lon="-2.36756">
        <ele>41.400001525879</ele>
        <time>2019-11-17T10:39:02.000Z</time>
      </trkpt>
      <trkpt lat="47.30065" lon="-2.36761">
        <ele>42</ele>
        <time>2019-11-17T10:39:03.000Z</time>
      </trkpt>
      <trkpt lat="47.30061" lon="-2.36766">
        <ele>42.400001525879</ele>
        <time>2019-11-17T10:39:04.000Z</time>
      </trkpt>
      <trkpt lat="47.30056" lon="-2.36771">
        <ele>43.200000762939</ele>
        <time>2019-11-17T10:39:05.000Z</time>
      </trkpt>
      <trkpt lat="47.30043" lon="-2.36786">
        <ele>43.200000762939</ele>
        <time>2019-11-17T10:39:08.000Z</time>
      </trkpt>
      <trkpt lat="47.30013" lon="-2.36821">
        <ele>43.200000762939</ele>
        <time>2019-11-17T10:39:15.000Z</time>
      </trkpt>
      <trkpt lat="47.3" lon="-2.36837">
        <ele>43.200000762939</ele>
        <time>2019-11-17T10:39:18.000Z</time>
      </trkpt>
      <trkpt lat="47.29989" lon="-2.3685">
        <ele>43.200000762939</ele>
        <time>2019-11-17T10:39:21.000Z</time>
      </trkpt>
      <trkpt lat="47.29965" lon="-2.36881">
        <ele>43.200000762939</ele>
        <time>2019-11-17T10:39:28.000Z</time>
      </trkpt>
      <trkpt lat="47.29961" lon="-2.36886">
        <ele>43.200000762939</ele>
        <time>2019-11-17T10:39:29.000Z</time>
      </trkpt>
      <trkpt lat="47.29944" lon="-2.36905">
        <ele>43.200000762939</ele>
        <time>2019-11-17T10:39:33.000Z</time>
      </trkpt>
      <trkpt lat="47.29916" lon="-2.36939">
        <ele>43.200000762939</ele>
        <time>2019-11-17T10:39:40.000Z</time>
      </trkpt>
      <trkpt lat="47.29909" lon="-2.36949">
        <ele>43.200000762939</ele>
        <time>2019-11-17T10:39:42.000Z</time>
      </trkpt>
      <trkpt lat="47.29903" lon="-2.36963">
        <ele>43.200000762939</ele>
        <time>2019-11-17T10:39:45.000Z</time>
      </trkpt>
      <trkpt lat="47.29895" lon="-2.3697">
        <ele>43.200000762939</ele>
        <time>2019-11-17T10:39:48.000Z</time>
      </trkpt>
      <trkpt lat="47.29891" lon="-2.36971">
        <ele>43.200000762939</ele>
        <time>2019-11-17T10:39:49.000Z</time>
      </trkpt>
      <trkpt lat="47.2988" lon="-2.36975">
        <ele>43.200000762939</ele>
        <time>2019-11-17T10:39:52.000Z</time>
      </trkpt>
      <trkpt lat="47.29872" lon="-2.36982">
        <ele>43.200000762939</ele>
        <time>2019-11-17T10:39:54.000Z</time>
      </trkpt>
      <trkpt lat="47.29858" lon="-2.36999">
        <ele>43.200000762939</ele>
        <time>2019-11-17T10:39:58.000Z</time>
      </trkpt>
      <trkpt lat="47.2983" lon="-2.37035">
        <ele>43.200000762939</ele>
        <time>2019-11-17T10:40:05.000Z</time>
      </trkpt>
      <trkpt lat="47.29826" lon="-2.37041">
        <ele>43.200000762939</ele>
        <time>2019-11-17T10:40:06.000Z</time>
      </trkpt>
      <trkpt lat="47.29814" lon="-2.37068">
        <ele>43.200000762939</ele>
        <time>2019-11-17T10:40:10.000Z</time>
      </trkpt>
      <trkpt lat="47.29809" lon="-2.37099">
        <ele>43.200000762939</ele>
        <time>2019-11-17T10:40:14.000Z</time>
      </trkpt>
      <trkpt lat="47.29808" lon="-2.37107">
        <ele>43.200000762939</ele>
        <time>2019-11-17T10:40:15.000Z</time>
      </trkpt>
      <trkpt lat="47.29803" lon="-2.37131">
        <ele>44.200000762939</ele>
        <time>2019-11-17T10:40:18.000Z</time>
      </trkpt>
      <trkpt lat="47.298" lon="-2.37138">
        <ele>44.599998474121</ele>
        <time>2019-11-17T10:40:19.000Z</time>
      </trkpt>
      <trkpt lat="47.29797" lon="-2.37146">
        <ele>45</ele>
        <time>2019-11-17T10:40:20.000Z</time>
      </trkpt>
      <trkpt lat="47.29794" lon="-2.37152">
        <ele>45.400001525879</ele>
        <time>2019-11-17T10:40:21.000Z</time>
      </trkpt>
      <trkpt lat="47.29785" lon="-2.37164">
        <ele>45.400001525879</ele>
        <time>2019-11-17T10:40:23.000Z</time>
      </trkpt>
      <trkpt lat="47.29774" lon="-2.37174">
        <ele>45.400001525879</ele>
        <time>2019-11-17T10:40:25.000Z</time>
      </trkpt>
      <trkpt lat="47.29756" lon="-2.37185">
        <ele>45.400001525879</ele>
        <time>2019-11-17T10:40:28.000Z</time>
      </trkpt>
      <trkpt lat="47.29724" lon="-2.37187">
        <ele>45.400001525879</ele>
        <time>2019-11-17T10:40:33.000Z</time>
      </trkpt>
      <trkpt lat="47.29718" lon="-2.37189">
        <ele>45.400001525879</ele>
        <time>2019-11-17T10:40:34.000Z</time>
      </trkpt>
      <trkpt lat="47.29694" lon="-2.37199">
        <ele>45.400001525879</ele>
        <time>2019-11-17T10:40:38.000Z</time>
      </trkpt>
      <trkpt lat="47.29653" lon="-2.37215">
        <ele>45.400001525879</ele>
        <time>2019-11-17T10:40:45.000Z</time>
      </trkpt>
      <trkpt lat="47.29605" lon="-2.37238">
        <ele>45.400001525879</ele>
        <time>2019-11-17T10:40:53.000Z</time>
      </trkpt>
      <trkpt lat="47.29593" lon="-2.37245">
        <ele>44.799999237061</ele>
        <time>2019-11-17T10:40:55.000Z</time>
      </trkpt>
      <trkpt lat="47.29587" lon="-2.37248">
        <ele>44.400001525879</ele>
        <time>2019-11-17T10:40:56.000Z</time>
      </trkpt>
      <trkpt lat="47.29581" lon="-2.37252">
        <ele>44</ele>
        <time>2019-11-17T10:40:57.000Z</time>
      </trkpt>
      <trkpt lat="47.29575" lon="-2.37255">
        <ele>43.599998474121</ele>
        <time>2019-11-17T10:40:58.000Z</time>
      </trkpt>
      <trkpt lat="47.2957" lon="-2.37258">
        <ele>43.200000762939</ele>
        <time>2019-11-17T10:40:59.000Z</time>
      </trkpt>
      <trkpt lat="47.29553" lon="-2.37268">
        <ele>43.200000762939</ele>
        <time>2019-11-17T10:41:02.000Z</time>
      </trkpt>
      <trkpt lat="47.29547" lon="-2.37271">
        <ele>42.799999237061</ele>
        <time>2019-11-17T10:41:03.000Z</time>
      </trkpt>
      <trkpt lat="47.29541" lon="-2.37274">
        <ele>42.400001525879</ele>
        <time>2019-11-17T10:41:04.000Z</time>
      </trkpt>
      <trkpt lat="47.29535" lon="-2.37278">
        <ele>42</ele>
        <time>2019-11-17T10:41:05.000Z</time>
      </trkpt>
      <trkpt lat="47.29528" lon="-2.37282">
        <ele>41.599998474121</ele>
        <time>2019-11-17T10:41:06.000Z</time>
      </trkpt>
      <trkpt lat="47.29521" lon="-2.37284">
        <ele>41.200000762939</ele>
        <time>2019-11-17T10:41:07.000Z</time>
      </trkpt>
      <trkpt lat="47.29507" lon="-2.37287">
        <ele>40.599998474121</ele>
        <time>2019-11-17T10:41:09.000Z</time>
      </trkpt>
      <trkpt lat="47.295" lon="-2.37287">
        <ele>40.200000762939</ele>
        <time>2019-11-17T10:41:10.000Z</time>
      </trkpt>
      <trkpt lat="47.29493" lon="-2.37287">
        <ele>39.799999237061</ele>
        <time>2019-11-17T10:41:11.000Z</time>
      </trkpt>
      <trkpt lat="47.29487" lon="-2.37288">
        <ele>39.400001525879</ele>
        <time>2019-11-17T10:41:12.000Z</time>
      </trkpt>
      <trkpt lat="47.29483" lon="-2.3729">
        <ele>38.799999237061</ele>
        <time>2019-11-17T10:41:13.000Z</time>
      </trkpt>
      <trkpt lat="47.2948" lon="-2.37294">
        <ele>38.400001525879</ele>
        <time>2019-11-17T10:41:14.000Z</time>
      </trkpt>
      <trkpt lat="47.2948" lon="-2.37299">
        <ele>37.799999237061</ele>
        <time>2019-11-17T10:41:15.000Z</time>
      </trkpt>
      <trkpt lat="47.29481" lon="-2.37304">
        <ele>37.400001525879</ele>
        <time>2019-11-17T10:41:16.000Z</time>
      </trkpt>
      <trkpt lat="47.29484" lon="-2.37307">
        <ele>36.799999237061</ele>
        <time>2019-11-17T10:41:17.000Z</time>
      </trkpt>
      <trkpt lat="47.29487" lon="-2.37311">
        <ele>36.799999237061</ele>
        <time>2019-11-17T10:41:18.000Z</time>
      </trkpt>
      <trkpt lat="47.29498" lon="-2.37323">
        <ele>36.799999237061</ele>
        <time>2019-11-17T10:41:21.000Z</time>
      </trkpt>
      <trkpt lat="47.29507" lon="-2.37333">
        <ele>36.799999237061</ele>
        <time>2019-11-17T10:41:23.000Z</time>
      </trkpt>
      <trkpt lat="47.29523" lon="-2.37351">
        <ele>36.799999237061</ele>
        <time>2019-11-17T10:41:27.000Z</time>
      </trkpt>
      <trkpt lat="47.2953" lon="-2.37359">
        <ele>36.799999237061</ele>
        <time>2019-11-17T10:41:29.000Z</time>
      </trkpt>
      <trkpt lat="47.29553" lon="-2.37388">
        <ele>36.799999237061</ele>
        <time>2019-11-17T10:41:36.000Z</time>
      </trkpt>
      <trkpt lat="47.29556" lon="-2.37393">
        <ele>36.799999237061</ele>
        <time>2019-11-17T10:41:37.000Z</time>
      </trkpt>
      <trkpt lat="47.29573" lon="-2.37422">
        <ele>36.799999237061</ele>
        <time>2019-11-17T10:41:43.000Z</time>
      </trkpt>
      <trkpt lat="47.29594" lon="-2.3746">
        <ele>36.799999237061</ele>
        <time>2019-11-17T10:41:51.000Z</time>
      </trkpt>
      <trkpt lat="47.29603" lon="-2.37474">
        <ele>36.799999237061</ele>
        <time>2019-11-17T10:41:54.000Z</time>
      </trkpt>
      <trkpt lat="47.29614" lon="-2.37488">
        <ele>36.799999237061</ele>
        <time>2019-11-17T10:41:57.000Z</time>
      </trkpt>
      <trkpt lat="47.2964" lon="-2.37507">
        <ele>36.799999237061</ele>
        <time>2019-11-17T10:42:02.000Z</time>
      </trkpt>
      <trkpt lat="47.29653" lon="-2.37515">
        <ele>36.400001525879</ele>
        <time>2019-11-17T10:42:04.000Z</time>
      </trkpt>
      <trkpt lat="47.29659" lon="-2.3752">
        <ele>36</ele>
        <time>2019-11-17T10:42:05.000Z</time>
      </trkpt>
      <trkpt lat="47.29665" lon="-2.37525">
        <ele>35.599998474121</ele>
        <time>2019-11-17T10:42:06.000Z</time>
      </trkpt>
      <trkpt lat="47.29671" lon="-2.3753">
        <ele>35.200000762939</ele>
        <time>2019-11-17T10:42:07.000Z</time>
      </trkpt>
      <trkpt lat="47.29676" lon="-2.37535">
        <ele>34.799999237061</ele>
        <time>2019-11-17T10:42:08.000Z</time>
      </trkpt>
      <trkpt lat="47.29708" lon="-2.37561">
        <ele>34.799999237061</ele>
        <time>2019-11-17T10:42:14.000Z</time>
      </trkpt>
      <trkpt lat="47.29713" lon="-2.37568">
        <ele>34.799999237061</ele>
        <time>2019-11-17T10:42:15.000Z</time>
      </trkpt>
      <trkpt lat="47.29731" lon="-2.3759">
        <ele>34.799999237061</ele>
        <time>2019-11-17T10:42:19.000Z</time>
      </trkpt>
      <trkpt lat="47.29745" lon="-2.37608">
        <ele>35.400001525879</ele>
        <time>2019-11-17T10:42:22.000Z</time>
      </trkpt>
      <trkpt lat="47.29749" lon="-2.37614">
        <ele>35.799999237061</ele>
        <time>2019-11-17T10:42:23.000Z</time>
      </trkpt>
      <trkpt lat="47.29754" lon="-2.3762">
        <ele>36.200000762939</ele>
        <time>2019-11-17T10:42:24.000Z</time>
      </trkpt>
      <trkpt lat="47.29758" lon="-2.37626">
        <ele>36.799999237061</ele>
        <time>2019-11-17T10:42:25.000Z</time>
      </trkpt>
      <trkpt lat="47.29763" lon="-2.37632">
        <ele>37.200000762939</ele>
        <time>2019-11-17T10:42:26.000Z</time>
      </trkpt>
      <trkpt lat="47.29795" lon="-2.3768">
        <ele>37.200000762939</ele>
        <time>2019-11-17T10:42:34.000Z</time>
      </trkpt>
      <trkpt lat="47.29798" lon="-2.37686">
        <ele>37.599998474121</ele>
        <time>2019-11-17T10:42:35.000Z</time>
      </trkpt>
      <trkpt lat="47.29802" lon="-2.37692">
        <ele>38</ele>
        <time>2019-11-17T10:42:36.000Z</time>
      </trkpt>
      <trkpt lat="47.29805" lon="-2.37698">
        <ele>38.400001525879</ele>
        <time>2019-11-17T10:42:37.000Z</time>
      </trkpt>
      <trkpt lat="47.29808" lon="-2.37704">
        <ele>38.799999237061</ele>
        <time>2019-11-17T10:42:38.000Z</time>
      </trkpt>
      <trkpt lat="47.29811" lon="-2.3771">
        <ele>39.200000762939</ele>
        <time>2019-11-17T10:42:39.000Z</time>
      </trkpt>
      <trkpt lat="47.29818" lon="-2.37721">
        <ele>39.200000762939</ele>
        <time>2019-11-17T10:42:41.000Z</time>
      </trkpt>
      <trkpt lat="47.29828" lon="-2.37738">
        <ele>39.200000762939</ele>
        <time>2019-11-17T10:42:44.000Z</time>
      </trkpt>
      <trkpt lat="47.29839" lon="-2.37755">
        <ele>39.200000762939</ele>
        <time>2019-11-17T10:42:47.000Z</time>
      </trkpt>
      <trkpt lat="47.2986" lon="-2.37786">
        <ele>38.799999237061</ele>
        <time>2019-11-17T10:42:52.000Z</time>
      </trkpt>
      <trkpt lat="47.29864" lon="-2.37792">
        <ele>38.400001525879</ele>
        <time>2019-11-17T10:42:53.000Z</time>
      </trkpt>
      <trkpt lat="47.29868" lon="-2.37798">
        <ele>38</ele>
        <time>2019-11-17T10:42:54.000Z</time>
      </trkpt>
      <trkpt lat="47.2987" lon="-2.37805">
        <ele>37.599998474121</ele>
        <time>2019-11-17T10:42:55.000Z</time>
      </trkpt>
      <trkpt lat="47.2987" lon="-2.37811">
        <ele>37.200000762939</ele>
        <time>2019-11-17T10:42:56.000Z</time>
      </trkpt>
      <trkpt lat="47.29869" lon="-2.37817">
        <ele>37.200000762939</ele>
        <time>2019-11-17T10:42:57.000Z</time>
      </trkpt>
      <trkpt lat="47.29865" lon="-2.37827">
        <ele>37.200000762939</ele>
        <time>2019-11-17T10:42:59.000Z</time>
      </trkpt>
      <trkpt lat="47.29861" lon="-2.37836">
        <ele>37.200000762939</ele>
        <time>2019-11-17T10:43:01.000Z</time>
      </trkpt>
      <trkpt lat="47.2985" lon="-2.3786">
        <ele>37.200000762939</ele>
        <time>2019-11-17T10:43:06.000Z</time>
      </trkpt>
      <trkpt lat="47.29844" lon="-2.3787">
        <ele>37.200000762939</ele>
        <time>2019-11-17T10:43:08.000Z</time>
      </trkpt>
      <trkpt lat="47.29834" lon="-2.37881">
        <ele>37.200000762939</ele>
        <time>2019-11-17T10:43:11.000Z</time>
      </trkpt>
      <trkpt lat="47.29822" lon="-2.37891">
        <ele>37.200000762939</ele>
        <time>2019-11-17T10:43:14.000Z</time>
      </trkpt>
      <trkpt lat="47.29813" lon="-2.37895">
        <ele>37.200000762939</ele>
        <time>2019-11-17T10:43:16.000Z</time>
      </trkpt>
      <trkpt lat="47.29795" lon="-2.37906">
        <ele>37.200000762939</ele>
        <time>2019-11-17T10:43:20.000Z</time>
      </trkpt>
      <trkpt lat="47.29784" lon="-2.37911">
        <ele>37.200000762939</ele>
        <time>2019-11-17T10:43:22.000Z</time>
      </trkpt>
      <trkpt lat="47.29758" lon="-2.37932">
        <ele>37.200000762939</ele>
        <time>2019-11-17T10:43:27.000Z</time>
      </trkpt>
      <trkpt lat="47.29739" lon="-2.37965">
        <ele>36.599998474121</ele>
        <time>2019-11-17T10:43:32.000Z</time>
      </trkpt>
      <trkpt lat="47.29736" lon="-2.37972">
        <ele>36.200000762939</ele>
        <time>2019-11-17T10:43:33.000Z</time>
      </trkpt>
      <trkpt lat="47.29734" lon="-2.37978">
        <ele>35.799999237061</ele>
        <time>2019-11-17T10:43:34.000Z</time>
      </trkpt>
      <trkpt lat="47.29731" lon="-2.37984">
        <ele>35</ele>
        <time>2019-11-17T10:43:35.000Z</time>
      </trkpt>
      <trkpt lat="47.2973" lon="-2.37991">
        <ele>34.400001525879</ele>
        <time>2019-11-17T10:43:36.000Z</time>
      </trkpt>
      <trkpt lat="47.29729" lon="-2.37998">
        <ele>33.799999237061</ele>
        <time>2019-11-17T10:43:37.000Z</time>
      </trkpt>
      <trkpt lat="47.2973" lon="-2.38006">
        <ele>33</ele>
        <time>2019-11-17T10:43:38.000Z</time>
      </trkpt>
      <trkpt lat="47.29731" lon="-2.38015">
        <ele>32.400001525879</ele>
        <time>2019-11-17T10:43:39.000Z</time>
      </trkpt>
      <trkpt lat="47.29732" lon="-2.38023">
        <ele>31.60000038147</ele>
        <time>2019-11-17T10:43:40.000Z</time>
      </trkpt>
      <trkpt lat="47.29733" lon="-2.38029">
        <ele>30.799999237061</ele>
        <time>2019-11-17T10:43:41.000Z</time>
      </trkpt>
      <trkpt lat="47.29732" lon="-2.38034">
        <ele>30</ele>
        <time>2019-11-17T10:43:42.000Z</time>
      </trkpt>
      <trkpt lat="47.29731" lon="-2.38038">
        <ele>29</ele>
        <time>2019-11-17T10:43:43.000Z</time>
      </trkpt>
      <trkpt lat="47.29728" lon="-2.3804">
        <ele>28</ele>
        <time>2019-11-17T10:43:44.000Z</time>
      </trkpt>
      <trkpt lat="47.29725" lon="-2.38043">
        <ele>27.200000762939</ele>
        <time>2019-11-17T10:43:45.000Z</time>
      </trkpt>
      <trkpt lat="47.2972" lon="-2.38048">
        <ele>26.200000762939</ele>
        <time>2019-11-17T10:43:46.000Z</time>
      </trkpt>
      <trkpt lat="47.29714" lon="-2.38053">
        <ele>25.200000762939</ele>
        <time>2019-11-17T10:43:47.000Z</time>
      </trkpt>
      <trkpt lat="47.297" lon="-2.38064">
        <ele>24.799999237061</ele>
        <time>2019-11-17T10:43:49.000Z</time>
      </trkpt>
      <trkpt lat="47.29693" lon="-2.3807">
        <ele>24.200000762939</ele>
        <time>2019-11-17T10:43:50.000Z</time>
      </trkpt>
      <trkpt lat="47.29685" lon="-2.38076">
        <ele>23.799999237061</ele>
        <time>2019-11-17T10:43:51.000Z</time>
      </trkpt>
      <trkpt lat="47.29677" lon="-2.38081">
        <ele>23.200000762939</ele>
        <time>2019-11-17T10:43:52.000Z</time>
      </trkpt>
      <trkpt lat="47.29668" lon="-2.38085">
        <ele>22.60000038147</ele>
        <time>2019-11-17T10:43:53.000Z</time>
      </trkpt>
      <trkpt lat="47.2966" lon="-2.3809">
        <ele>22</ele>
        <time>2019-11-17T10:43:54.000Z</time>
      </trkpt>
      <trkpt lat="47.29652" lon="-2.38094">
        <ele>21.39999961853</ele>
        <time>2019-11-17T10:43:55.000Z</time>
      </trkpt>
      <trkpt lat="47.29643" lon="-2.38098">
        <ele>20.799999237061</ele>
        <time>2019-11-17T10:43:56.000Z</time>
      </trkpt>
      <trkpt lat="47.29636" lon="-2.38103">
        <ele>19.60000038147</ele>
        <time>2019-11-17T10:43:57.000Z</time>
      </trkpt>
      <trkpt lat="47.29628" lon="-2.38107">
        <ele>19</ele>
        <time>2019-11-17T10:43:58.000Z</time>
      </trkpt>
      <trkpt lat="47.2962" lon="-2.3811">
        <ele>18.39999961853</ele>
        <time>2019-11-17T10:43:59.000Z</time>
      </trkpt>
      <trkpt lat="47.29612" lon="-2.38112">
        <ele>17.799999237061</ele>
        <time>2019-11-17T10:44:00.000Z</time>
      </trkpt>
      <trkpt lat="47.29596" lon="-2.38116">
        <ele>17.39999961853</ele>
        <time>2019-11-17T10:44:02.000Z</time>
      </trkpt>
      <trkpt lat="47.29587" lon="-2.38118">
        <ele>17</ele>
        <time>2019-11-17T10:44:03.000Z</time>
      </trkpt>
      <trkpt lat="47.29578" lon="-2.3812">
        <ele>16.60000038147</ele>
        <time>2019-11-17T10:44:04.000Z</time>
      </trkpt>
      <trkpt lat="47.2957" lon="-2.38122">
        <ele>16.200000762939</ele>
        <time>2019-11-17T10:44:05.000Z</time>
      </trkpt>
      <trkpt lat="47.29562" lon="-2.38124">
        <ele>15.800000190735</ele>
        <time>2019-11-17T10:44:06.000Z</time>
      </trkpt>
      <trkpt lat="47.29554" lon="-2.38125">
        <ele>15.39999961853</ele>
        <time>2019-11-17T10:44:07.000Z</time>
      </trkpt>
      <trkpt lat="47.29545" lon="-2.38126">
        <ele>14.800000190735</ele>
        <time>2019-11-17T10:44:08.000Z</time>
      </trkpt>
      <trkpt lat="47.29537" lon="-2.38126">
        <ele>14.39999961853</ele>
        <time>2019-11-17T10:44:09.000Z</time>
      </trkpt>
      <trkpt lat="47.29528" lon="-2.38126">
        <ele>14</ele>
        <time>2019-11-17T10:44:10.000Z</time>
      </trkpt>
      <trkpt lat="47.2952" lon="-2.38125">
        <ele>13.60000038147</ele>
        <time>2019-11-17T10:44:11.000Z</time>
      </trkpt>
      <trkpt lat="47.29512" lon="-2.38124">
        <ele>13.199999809265</ele>
        <time>2019-11-17T10:44:12.000Z</time>
      </trkpt>
      <trkpt lat="47.29504" lon="-2.38123">
        <ele>12.800000190735</ele>
        <time>2019-11-17T10:44:13.000Z</time>
      </trkpt>
      <trkpt lat="47.29496" lon="-2.38124">
        <ele>12.39999961853</ele>
        <time>2019-11-17T10:44:14.000Z</time>
      </trkpt>
      <trkpt lat="47.29488" lon="-2.38125">
        <ele>12</ele>
        <time>2019-11-17T10:44:15.000Z</time>
      </trkpt>
      <trkpt lat="47.2948" lon="-2.38127">
        <ele>11.39999961853</ele>
        <time>2019-11-17T10:44:16.000Z</time>
      </trkpt>
      <trkpt lat="47.29474" lon="-2.38132">
        <ele>11</ele>
        <time>2019-11-17T10:44:17.000Z</time>
      </trkpt>
      <trkpt lat="47.29469" lon="-2.38136">
        <ele>10.39999961853</ele>
        <time>2019-11-17T10:44:18.000Z</time>
      </trkpt>
      <trkpt lat="47.29463" lon="-2.3814">
        <ele>9.8000001907349</ele>
        <time>2019-11-17T10:44:19.000Z</time>
      </trkpt>
      <trkpt lat="47.29458" lon="-2.38145">
        <ele>9.3999996185303</ele>
        <time>2019-11-17T10:44:20.000Z</time>
      </trkpt>
      <trkpt lat="47.29454" lon="-2.38148">
        <ele>8.8000001907349</ele>
        <time>2019-11-17T10:44:21.000Z</time>
      </trkpt>
      <trkpt lat="47.2945" lon="-2.38149">
        <ele>7.8000001907349</ele>
        <time>2019-11-17T10:44:22.000Z</time>
      </trkpt>
      <trkpt lat="47.29447" lon="-2.38149">
        <ele>7.1999998092651</ele>
        <time>2019-11-17T10:44:23.000Z</time>
      </trkpt>
      <trkpt lat="47.2944" lon="-2.38134">
        <ele>7.1999998092651</ele>
        <time>2019-11-17T10:44:26.000Z</time>
      </trkpt>
      <trkpt lat="47.29435" lon="-2.3812">
        <ele>7.1999998092651</ele>
        <time>2019-11-17T10:44:28.000Z</time>
      </trkpt>
      <trkpt lat="47.29424" lon="-2.38087">
        <ele>7.1999998092651</ele>
        <time>2019-11-17T10:44:32.000Z</time>
      </trkpt>
      <trkpt lat="47.29402" lon="-2.38029">
        <ele>7.1999998092651</ele>
        <time>2019-11-17T10:44:39.000Z</time>
      </trkpt>
      <trkpt lat="47.29376" lon="-2.37955">
        <ele>7.1999998092651</ele>
        <time>2019-11-17T10:44:48.000Z</time>
      </trkpt>
      <trkpt lat="47.29357" lon="-2.37901">
        <ele>7.1999998092651</ele>
        <time>2019-11-17T10:44:55.000Z</time>
      </trkpt>
      <trkpt lat="47.29341" lon="-2.37852">
        <ele>7.1999998092651</ele>
        <time>2019-11-17T10:45:02.000Z</time>
      </trkpt>
      <trkpt lat="47.29339" lon="-2.37844">
        <ele>7.5999999046326</ele>
        <time>2019-11-17T10:45:03.000Z</time>
      </trkpt>
      <trkpt lat="47.29338" lon="-2.37836">
        <ele>8</ele>
        <time>2019-11-17T10:45:04.000Z</time>
      </trkpt>
      <trkpt lat="47.29336" lon="-2.37829">
        <ele>8.3999996185303</ele>
        <time>2019-11-17T10:45:05.000Z</time>
      </trkpt>
      <trkpt lat="47.29335" lon="-2.37821">
        <ele>8.8000001907349</ele>
        <time>2019-11-17T10:45:06.000Z</time>
      </trkpt>
      <trkpt lat="47.29335" lon="-2.37813">
        <ele>9.3999996185303</ele>
        <time>2019-11-17T10:45:07.000Z</time>
      </trkpt>
      <trkpt lat="47.29334" lon="-2.37797">
        <ele>9.3999996185303</ele>
        <time>2019-11-17T10:45:09.000Z</time>
      </trkpt>
      <trkpt lat="47.29333" lon="-2.37774">
        <ele>9.8000001907349</ele>
        <time>2019-11-17T10:45:12.000Z</time>
      </trkpt>
      <trkpt lat="47.29333" lon="-2.37767">
        <ele>10.199999809265</ele>
        <time>2019-11-17T10:45:13.000Z</time>
      </trkpt>
      <trkpt lat="47.29332" lon="-2.3776">
        <ele>10.60000038147</ele>
        <time>2019-11-17T10:45:14.000Z</time>
      </trkpt>
      <trkpt lat="47.29332" lon="-2.37753">
        <ele>11</ele>
        <time>2019-11-17T10:45:15.000Z</time>
      </trkpt>
      <trkpt lat="47.29332" lon="-2.37746">
        <ele>11.39999961853</ele>
        <time>2019-11-17T10:45:16.000Z</time>
      </trkpt>
      <trkpt lat="47.29332" lon="-2.37734">
        <ele>11.39999961853</ele>
        <time>2019-11-17T10:45:18.000Z</time>
      </trkpt>
      <trkpt lat="47.29332" lon="-2.37721">
        <ele>11.800000190735</ele>
        <time>2019-11-17T10:45:20.000Z</time>
      </trkpt>
      <trkpt lat="47.29332" lon="-2.37715">
        <ele>12.199999809265</ele>
        <time>2019-11-17T10:45:21.000Z</time>
      </trkpt>
      <trkpt lat="47.29331" lon="-2.37708">
        <ele>12.60000038147</ele>
        <time>2019-11-17T10:45:22.000Z</time>
      </trkpt>
      <trkpt lat="47.29331" lon="-2.37702">
        <ele>13.199999809265</ele>
        <time>2019-11-17T10:45:23.000Z</time>
      </trkpt>
      <trkpt lat="47.29331" lon="-2.37695">
        <ele>13.60000038147</ele>
        <time>2019-11-17T10:45:24.000Z</time>
      </trkpt>
      <trkpt lat="47.2933" lon="-2.37682">
        <ele>13.60000038147</ele>
        <time>2019-11-17T10:45:26.000Z</time>
      </trkpt>
      <trkpt lat="47.29329" lon="-2.37669">
        <ele>14</ele>
        <time>2019-11-17T10:45:28.000Z</time>
      </trkpt>
      <trkpt lat="47.29329" lon="-2.37663">
        <ele>14.39999961853</ele>
        <time>2019-11-17T10:45:29.000Z</time>
      </trkpt>
      <trkpt lat="47.29328" lon="-2.37656">
        <ele>14.800000190735</ele>
        <time>2019-11-17T10:45:30.000Z</time>
      </trkpt>
      <trkpt lat="47.29327" lon="-2.3765">
        <ele>15.39999961853</ele>
        <time>2019-11-17T10:45:31.000Z</time>
      </trkpt>
      <trkpt lat="47.29325" lon="-2.37644">
        <ele>15.800000190735</ele>
        <time>2019-11-17T10:45:32.000Z</time>
      </trkpt>
      <trkpt lat="47.29319" lon="-2.37624">
        <ele>15.800000190735</ele>
        <time>2019-11-17T10:45:35.000Z</time>
      </trkpt>
      <trkpt lat="47.29317" lon="-2.37617">
        <ele>15.800000190735</ele>
        <time>2019-11-17T10:45:36.000Z</time>
      </trkpt>
      <trkpt lat="47.29306" lon="-2.37597">
        <ele>15.800000190735</ele>
        <time>2019-11-17T10:45:40.000Z</time>
      </trkpt>
      <trkpt lat="47.29303" lon="-2.37592">
        <ele>15.800000190735</ele>
        <time>2019-11-17T10:45:41.000Z</time>
      </trkpt>
      <trkpt lat="47.29301" lon="-2.37586">
        <ele>15.800000190735</ele>
        <time>2019-11-17T10:45:42.000Z</time>
      </trkpt>
      <trkpt lat="47.2929" lon="-2.37569">
        <ele>15.800000190735</ele>
        <time>2019-11-17T10:45:45.000Z</time>
      </trkpt>
      <trkpt lat="47.29283" lon="-2.37569">
        <ele>15.800000190735</ele>
        <time>2019-11-17T10:45:47.000Z</time>
      </trkpt>
      <trkpt lat="47.29281" lon="-2.37574">
        <ele>15.800000190735</ele>
        <time>2019-11-17T10:45:48.000Z</time>
      </trkpt>
      <trkpt lat="47.2928" lon="-2.37595">
        <ele>15.800000190735</ele>
        <time>2019-11-17T10:45:51.000Z</time>
      </trkpt>
      <trkpt lat="47.29279" lon="-2.37624">
        <ele>15.800000190735</ele>
        <time>2019-11-17T10:45:55.000Z</time>
      </trkpt>
      <trkpt lat="47.29277" lon="-2.37647">
        <ele>15.800000190735</ele>
        <time>2019-11-17T10:45:58.000Z</time>
      </trkpt>
      <trkpt lat="47.2927" lon="-2.3767">
        <ele>15.39999961853</ele>
        <time>2019-11-17T10:46:01.000Z</time>
      </trkpt>
      <trkpt lat="47.29266" lon="-2.37676">
        <ele>14.800000190735</ele>
        <time>2019-11-17T10:46:02.000Z</time>
      </trkpt>
      <trkpt lat="47.29262" lon="-2.37683">
        <ele>14.39999961853</ele>
        <time>2019-11-17T10:46:03.000Z</time>
      </trkpt>
      <trkpt lat="47.29257" lon="-2.37691">
        <ele>14</ele>
        <time>2019-11-17T10:46:04.000Z</time>
      </trkpt>
      <trkpt lat="47.29251" lon="-2.37698">
        <ele>13.60000038147</ele>
        <time>2019-11-17T10:46:05.000Z</time>
      </trkpt>
      <trkpt lat="47.29245" lon="-2.37705">
        <ele>13.60000038147</ele>
        <time>2019-11-17T10:46:06.000Z</time>
      </trkpt>
      <trkpt lat="47.29218" lon="-2.37731">
        <ele>13</ele>
        <time>2019-11-17T10:46:10.000Z</time>
      </trkpt>
      <trkpt lat="47.29211" lon="-2.37737">
        <ele>12.39999961853</ele>
        <time>2019-11-17T10:46:11.000Z</time>
      </trkpt>
      <trkpt lat="47.29205" lon="-2.37745">
        <ele>11.800000190735</ele>
        <time>2019-11-17T10:46:12.000Z</time>
      </trkpt>
      <trkpt lat="47.29197" lon="-2.37753">
        <ele>11.199999809265</ele>
        <time>2019-11-17T10:46:13.000Z</time>
      </trkpt>
      <trkpt lat="47.29191" lon="-2.37763">
        <ele>10.60000038147</ele>
        <time>2019-11-17T10:46:14.000Z</time>
      </trkpt>
      <trkpt lat="47.29186" lon="-2.37773">
        <ele>9.8000001907349</ele>
        <time>2019-11-17T10:46:15.000Z</time>
      </trkpt>
      <trkpt lat="47.29181" lon="-2.37785">
        <ele>9.1999998092651</ele>
        <time>2019-11-17T10:46:16.000Z</time>
      </trkpt>
      <trkpt lat="47.29177" lon="-2.37796">
        <ele>8.6000003814697</ele>
        <time>2019-11-17T10:46:17.000Z</time>
      </trkpt>
      <trkpt lat="47.29164" lon="-2.37828">
        <ele>8.6000003814697</ele>
        <time>2019-11-17T10:46:20.000Z</time>
      </trkpt>
      <trkpt lat="47.29158" lon="-2.37837">
        <ele>8.1999998092651</ele>
        <time>2019-11-17T10:46:21.000Z</time>
      </trkpt>
      <trkpt lat="47.29153" lon="-2.37846">
        <ele>7.5999999046326</ele>
        <time>2019-11-17T10:46:22.000Z</time>
      </trkpt>
      <trkpt lat="47.29148" lon="-2.37855">
        <ele>7.1999998092651</ele>
        <time>2019-11-17T10:46:23.000Z</time>
      </trkpt>
      <trkpt lat="47.29144" lon="-2.37864">
        <ele>6.8000001907349</ele>
        <time>2019-11-17T10:46:24.000Z</time>
      </trkpt>
      <trkpt lat="47.2914" lon="-2.37873">
        <ele>6.1999998092651</ele>
        <time>2019-11-17T10:46:25.000Z</time>
      </trkpt>
      <trkpt lat="47.29132" lon="-2.37891">
        <ele>6.1999998092651</ele>
        <time>2019-11-17T10:46:27.000Z</time>
      </trkpt>
      <trkpt lat="47.2911" lon="-2.3793">
        <ele>6.1999998092651</ele>
        <time>2019-11-17T10:46:32.000Z</time>
      </trkpt>
      <trkpt lat="47.29081" lon="-2.37978">
        <ele>6.1999998092651</ele>
        <time>2019-11-17T10:46:39.000Z</time>
      </trkpt>
      <trkpt lat="47.29059" lon="-2.38014">
        <ele>6.1999998092651</ele>
        <time>2019-11-17T10:46:45.000Z</time>
      </trkpt>
      <trkpt lat="47.2905" lon="-2.38032">
        <ele>5.8000001907349</ele>
        <time>2019-11-17T10:46:48.000Z</time>
      </trkpt>
      <trkpt lat="47.29047" lon="-2.38037">
        <ele>5.4000000953674</ele>
        <time>2019-11-17T10:46:49.000Z</time>
      </trkpt>
      <trkpt lat="47.29044" lon="-2.38043">
        <ele>4.5999999046326</ele>
        <time>2019-11-17T10:46:50.000Z</time>
      </trkpt>
      <trkpt lat="47.29042" lon="-2.38049">
        <ele>4.1999998092651</ele>
        <time>2019-11-17T10:46:51.000Z</time>
      </trkpt>
      <trkpt lat="47.2904" lon="-2.38055">
        <ele>4.1999998092651</ele>
        <time>2019-11-17T10:46:52.000Z</time>
      </trkpt>
      <trkpt lat="47.29042" lon="-2.38079">
        <ele>4.1999998092651</ele>
        <time>2019-11-17T10:46:56.000Z</time>
      </trkpt>
      <trkpt lat="47.29049" lon="-2.38107">
        <ele>4.1999998092651</ele>
        <time>2019-11-17T10:47:02.000Z</time>
      </trkpt>
      <trkpt lat="47.29054" lon="-2.38134">
        <ele>4.1999998092651</ele>
        <time>2019-11-17T10:47:08.000Z</time>
      </trkpt>
      <trkpt lat="47.29064" lon="-2.38178">
        <ele>4.1999998092651</ele>
        <time>2019-11-17T10:47:16.000Z</time>
      </trkpt>
      <trkpt lat="47.29066" lon="-2.38207">
        <ele>4.1999998092651</ele>
        <time>2019-11-17T10:47:21.000Z</time>
      </trkpt>
      <trkpt lat="47.29056" lon="-2.38226">
        <ele>4.1999998092651</ele>
        <time>2019-11-17T10:47:25.000Z</time>
      </trkpt>
      <trkpt lat="47.29053" lon="-2.38231">
        <ele>4.1999998092651</ele>
        <time>2019-11-17T10:47:26.000Z</time>
      </trkpt>
      <trkpt lat="47.2905" lon="-2.38235">
        <ele>4.1999998092651</ele>
        <time>2019-11-17T10:47:27.000Z</time>
      </trkpt>
      <trkpt lat="47.29042" lon="-2.38243">
        <ele>4.1999998092651</ele>
        <time>2019-11-17T10:47:29.000Z</time>
      </trkpt>
      <trkpt lat="47.29033" lon="-2.3825">
        <ele>4.1999998092651</ele>
        <time>2019-11-17T10:47:31.000Z</time>
      </trkpt>
      <trkpt lat="47.29002" lon="-2.38267">
        <ele>4.1999998092651</ele>
        <time>2019-11-17T10:47:38.000Z</time>
      </trkpt>
      <trkpt lat="47.28982" lon="-2.38276">
        <ele>4.1999998092651</ele>
        <time>2019-11-17T10:47:44.000Z</time>
      </trkpt>
      <trkpt lat="47.28969" lon="-2.38277">
        <ele>4.1999998092651</ele>
        <time>2019-11-17T10:47:50.000Z</time>
      </trkpt>
      <trkpt lat="47.2895" lon="-2.38278">
        <ele>4.1999998092651</ele>
        <time>2019-11-17T10:47:56.000Z</time>
      </trkpt>
      <trkpt lat="47.28942" lon="-2.38277">
        <ele>4.1999998092651</ele>
        <time>2019-11-17T10:48:00.000Z</time>
      </trkpt>
      <trkpt lat="47.28941" lon="-2.38272">
        <ele>4.1999998092651</ele>
        <time>2019-11-17T10:48:02.000Z</time>
      </trkpt>
      <trkpt lat="47.28939" lon="-2.38262">
        <ele>4.1999998092651</ele>
        <time>2019-11-17T10:48:05.000Z</time>
      </trkpt>
      <trkpt lat="47.28937" lon="-2.38252">
        <ele>4.1999998092651</ele>
        <time>2019-11-17T10:48:07.000Z</time>
      </trkpt>
      <trkpt lat="47.2893" lon="-2.38228">
        <ele>4.1999998092651</ele>
        <time>2019-11-17T10:48:12.000Z</time>
      </trkpt>
      <trkpt lat="47.28926" lon="-2.38224">
        <ele>4.1999998092651</ele>
        <time>2019-11-17T10:48:13.000Z</time>
      </trkpt>
      <trkpt lat="47.28912" lon="-2.38215">
        <ele>4.1999998092651</ele>
        <time>2019-11-17T10:48:17.000Z</time>
      </trkpt>
      <trkpt lat="47.289" lon="-2.38199">
        <ele>4.5999999046326</ele>
        <time>2019-11-17T10:48:22.000Z</time>
      </trkpt>
      <trkpt lat="47.28899" lon="-2.38194">
        <ele>5</ele>
        <time>2019-11-17T10:48:23.000Z</time>
      </trkpt>
      <trkpt lat="47.289" lon="-2.3819">
        <ele>5.4000000953674</ele>
        <time>2019-11-17T10:48:24.000Z</time>
      </trkpt>
      <trkpt lat="47.289" lon="-2.38186">
        <ele>5.8000001907349</ele>
        <time>2019-11-17T10:48:25.000Z</time>
      </trkpt>
      <trkpt lat="47.28901" lon="-2.38181">
        <ele>6.1999998092651</ele>
        <time>2019-11-17T10:48:26.000Z</time>
      </trkpt>
      <trkpt lat="47.28903" lon="-2.38148">
        <ele>6.1999998092651</ele>
        <time>2019-11-17T10:48:32.000Z</time>
      </trkpt>
      <trkpt lat="47.28906" lon="-2.38103">
        <ele>6.1999998092651</ele>
        <time>2019-11-17T10:48:39.000Z</time>
      </trkpt>
      <trkpt lat="47.28906" lon="-2.38097">
        <ele>6.1999998092651</ele>
        <time>2019-11-17T10:48:40.000Z</time>
      </trkpt>
      <trkpt lat="47.28907" lon="-2.3806">
        <ele>6.1999998092651</ele>
        <time>2019-11-17T10:48:45.000Z</time>
      </trkpt>
      <trkpt lat="47.28911" lon="-2.3799">
        <ele>6.1999998092651</ele>
        <time>2019-11-17T10:48:54.000Z</time>
      </trkpt>
      <trkpt lat="47.28915" lon="-2.37939">
        <ele>6.1999998092651</ele>
        <time>2019-11-17T10:49:00.000Z</time>
      </trkpt>
      <trkpt lat="47.28919" lon="-2.37883">
        <ele>6.1999998092651</ele>
        <time>2019-11-17T10:49:07.000Z</time>
      </trkpt>
      <trkpt lat="47.28924" lon="-2.37834">
        <ele>6.1999998092651</ele>
        <time>2019-11-17T10:49:13.000Z</time>
      </trkpt>
      <trkpt lat="47.28928" lon="-2.37776">
        <ele>6.1999998092651</ele>
        <time>2019-11-17T10:49:20.000Z</time>
      </trkpt>
      <trkpt lat="47.28929" lon="-2.37768">
        <ele>6.1999998092651</ele>
        <time>2019-11-17T10:49:21.000Z</time>
      </trkpt>
      <trkpt lat="47.28932" lon="-2.37726">
        <ele>6.1999998092651</ele>
        <time>2019-11-17T10:49:26.000Z</time>
      </trkpt>
      <trkpt lat="47.28937" lon="-2.37677">
        <ele>6.1999998092651</ele>
        <time>2019-11-17T10:49:32.000Z</time>
      </trkpt>
      <trkpt lat="47.28932" lon="-2.37649">
        <ele>6.1999998092651</ele>
        <time>2019-11-17T10:49:36.000Z</time>
      </trkpt>
      <trkpt lat="47.28915" lon="-2.37645">
        <ele>6.1999998092651</ele>
        <time>2019-11-17T10:49:39.000Z</time>
      </trkpt>
      <trkpt lat="47.28901" lon="-2.3765">
        <ele>6.1999998092651</ele>
        <time>2019-11-17T10:49:42.000Z</time>
      </trkpt>
      <trkpt lat="47.28891" lon="-2.37653">
        <ele>6.1999998092651</ele>
        <time>2019-11-17T10:49:44.000Z</time>
      </trkpt>
      <trkpt lat="47.28873" lon="-2.37657">
        <ele>6.1999998092651</ele>
        <time>2019-11-17T10:49:48.000Z</time>
      </trkpt>
      <trkpt lat="47.28866" lon="-2.37652">
        <ele>6.1999998092651</ele>
        <time>2019-11-17T10:49:50.000Z</time>
      </trkpt>
      <trkpt lat="47.28858" lon="-2.37632">
        <ele>6.1999998092651</ele>
        <time>2019-11-17T10:49:53.000Z</time>
      </trkpt>
      <trkpt lat="47.28855" lon="-2.37617">
        <ele>6.1999998092651</ele>
        <time>2019-11-17T10:49:55.000Z</time>
      </trkpt>
      <trkpt lat="47.28855" lon="-2.37609">
        <ele>6.1999998092651</ele>
        <time>2019-11-17T10:49:56.000Z</time>
      </trkpt>
      <trkpt lat="47.28858" lon="-2.37595">
        <ele>6.1999998092651</ele>
        <time>2019-11-17T10:49:58.000Z</time>
      </trkpt>
      <trkpt lat="47.28861" lon="-2.37589">
        <ele>6.8000001907349</ele>
        <time>2019-11-17T10:49:59.000Z</time>
      </trkpt>
      <trkpt lat="47.28863" lon="-2.37582">
        <ele>7.1999998092651</ele>
        <time>2019-11-17T10:50:00.000Z</time>
      </trkpt>
      <trkpt lat="47.28866" lon="-2.37577">
        <ele>7.5999999046326</ele>
        <time>2019-11-17T10:50:01.000Z</time>
      </trkpt>
      <trkpt lat="47.28868" lon="-2.37571">
        <ele>8</ele>
        <time>2019-11-17T10:50:02.000Z</time>
      </trkpt>
      <trkpt lat="47.28871" lon="-2.37564">
        <ele>8.3999996185303</ele>
        <time>2019-11-17T10:50:03.000Z</time>
      </trkpt>
      <trkpt lat="47.28874" lon="-2.37558">
        <ele>8.3999996185303</ele>
        <time>2019-11-17T10:50:04.000Z</time>
      </trkpt>
      <trkpt lat="47.28882" lon="-2.37539">
        <ele>8.3999996185303</ele>
        <time>2019-11-17T10:50:07.000Z</time>
      </trkpt>
      <trkpt lat="47.28884" lon="-2.37524">
        <ele>8.3999996185303</ele>
        <time>2019-11-17T10:50:09.000Z</time>
      </trkpt>
      <trkpt lat="47.2888" lon="-2.37502">
        <ele>8.3999996185303</ele>
        <time>2019-11-17T10:50:12.000Z</time>
      </trkpt>
      <trkpt lat="47.2888" lon="-2.37495">
        <ele>8.3999996185303</ele>
        <time>2019-11-17T10:50:13.000Z</time>
      </trkpt>
      <trkpt lat="47.28876" lon="-2.37472">
        <ele>8.3999996185303</ele>
        <time>2019-11-17T10:50:16.000Z</time>
      </trkpt>
      <trkpt lat="47.28874" lon="-2.37457">
        <ele>8.3999996185303</ele>
        <time>2019-11-17T10:50:18.000Z</time>
      </trkpt>
      <trkpt lat="47.28871" lon="-2.37443">
        <ele>8.3999996185303</ele>
        <time>2019-11-17T10:50:20.000Z</time>
      </trkpt>
      <trkpt lat="47.28869" lon="-2.37428">
        <ele>8.3999996185303</ele>
        <time>2019-11-17T10:50:22.000Z</time>
      </trkpt>
      <trkpt lat="47.28863" lon="-2.37383">
        <ele>8.3999996185303</ele>
        <time>2019-11-17T10:50:28.000Z</time>
      </trkpt>
      <trkpt lat="47.28857" lon="-2.37336">
        <ele>8.3999996185303</ele>
        <time>2019-11-17T10:50:34.000Z</time>
      </trkpt>
      <trkpt lat="47.28855" lon="-2.3732">
        <ele>8.8000001907349</ele>
        <time>2019-11-17T10:50:36.000Z</time>
      </trkpt>
      <trkpt lat="47.28854" lon="-2.37313">
        <ele>9.1999998092651</ele>
        <time>2019-11-17T10:50:37.000Z</time>
      </trkpt>
      <trkpt lat="47.28854" lon="-2.37305">
        <ele>9.6000003814697</ele>
        <time>2019-11-17T10:50:38.000Z</time>
      </trkpt>
      <trkpt lat="47.28853" lon="-2.37297">
        <ele>10</ele>
        <time>2019-11-17T10:50:39.000Z</time>
      </trkpt>
      <trkpt lat="47.28853" lon="-2.37289">
        <ele>10.60000038147</ele>
        <time>2019-11-17T10:50:40.000Z</time>
      </trkpt>
      <trkpt lat="47.28852" lon="-2.37282">
        <ele>10.60000038147</ele>
        <time>2019-11-17T10:50:41.000Z</time>
      </trkpt>
      <trkpt lat="47.28851" lon="-2.3727">
        <ele>10.60000038147</ele>
        <time>2019-11-17T10:50:43.000Z</time>
      </trkpt>
      <trkpt lat="47.28851" lon="-2.37263">
        <ele>10.60000038147</ele>
        <time>2019-11-17T10:50:44.000Z</time>
      </trkpt>
      <trkpt lat="47.28848" lon="-2.37251">
        <ele>10.60000038147</ele>
        <time>2019-11-17T10:50:46.000Z</time>
      </trkpt>
      <trkpt lat="47.28841" lon="-2.37235">
        <ele>10.60000038147</ele>
        <time>2019-11-17T10:50:49.000Z</time>
      </trkpt>
      <trkpt lat="47.2884" lon="-2.37228">
        <ele>10.60000038147</ele>
        <time>2019-11-17T10:50:50.000Z</time>
      </trkpt>
      <trkpt lat="47.28837" lon="-2.3721">
        <ele>10.60000038147</ele>
        <time>2019-11-17T10:50:53.000Z</time>
      </trkpt>
      <trkpt lat="47.28835" lon="-2.37196">
        <ele>10.60000038147</ele>
        <time>2019-11-17T10:50:55.000Z</time>
      </trkpt>
      <trkpt lat="47.28833" lon="-2.37182">
        <ele>10.60000038147</ele>
        <time>2019-11-17T10:50:57.000Z</time>
      </trkpt>
      <trkpt lat="47.28831" lon="-2.37167">
        <ele>10.60000038147</ele>
        <time>2019-11-17T10:50:59.000Z</time>
      </trkpt>
      <trkpt lat="47.28828" lon="-2.37146">
        <ele>10.60000038147</ele>
        <time>2019-11-17T10:51:02.000Z</time>
      </trkpt>
      <trkpt lat="47.28829" lon="-2.37116">
        <ele>10.60000038147</ele>
        <time>2019-11-17T10:51:07.000Z</time>
      </trkpt>
      <trkpt lat="47.28826" lon="-2.37091">
        <ele>10.60000038147</ele>
        <time>2019-11-17T10:51:11.000Z</time>
      </trkpt>
      <trkpt lat="47.28826" lon="-2.37083">
        <ele>10.60000038147</ele>
        <time>2019-11-17T10:51:12.000Z</time>
      </trkpt>
      <trkpt lat="47.28823" lon="-2.37062">
        <ele>10.60000038147</ele>
        <time>2019-11-17T10:51:15.000Z</time>
      </trkpt>
      <trkpt lat="47.28815" lon="-2.37045">
        <ele>10.60000038147</ele>
        <time>2019-11-17T10:51:18.000Z</time>
      </trkpt>
      <trkpt lat="47.28813" lon="-2.37039">
        <ele>10.60000038147</ele>
        <time>2019-11-17T10:51:19.000Z</time>
      </trkpt>
      <trkpt lat="47.28809" lon="-2.37026">
        <ele>10.60000038147</ele>
        <time>2019-11-17T10:51:21.000Z</time>
      </trkpt>
      <trkpt lat="47.28802" lon="-2.37006">
        <ele>10.60000038147</ele>
        <time>2019-11-17T10:51:24.000Z</time>
      </trkpt>
      <trkpt lat="47.28795" lon="-2.36984">
        <ele>10.60000038147</ele>
        <time>2019-11-17T10:51:27.000Z</time>
      </trkpt>
      <trkpt lat="47.28793" lon="-2.36978">
        <ele>11</ele>
        <time>2019-11-17T10:51:28.000Z</time>
      </trkpt>
      <trkpt lat="47.28791" lon="-2.36972">
        <ele>11.39999961853</ele>
        <time>2019-11-17T10:51:29.000Z</time>
      </trkpt>
      <trkpt lat="47.28789" lon="-2.36965">
        <ele>11.800000190735</ele>
        <time>2019-11-17T10:51:30.000Z</time>
      </trkpt>
      <trkpt lat="47.28787" lon="-2.36957">
        <ele>12.199999809265</ele>
        <time>2019-11-17T10:51:31.000Z</time>
      </trkpt>
      <trkpt lat="47.28785" lon="-2.3695">
        <ele>12.60000038147</ele>
        <time>2019-11-17T10:51:32.000Z</time>
      </trkpt>
      <trkpt lat="47.28784" lon="-2.36943">
        <ele>12.60000038147</ele>
        <time>2019-11-17T10:51:33.000Z</time>
      </trkpt>
      <trkpt lat="47.28781" lon="-2.36936">
        <ele>12.60000038147</ele>
        <time>2019-11-17T10:51:34.000Z</time>
      </trkpt>
      <trkpt lat="47.28768" lon="-2.36915">
        <ele>12.60000038147</ele>
        <time>2019-11-17T10:51:38.000Z</time>
      </trkpt>
      <trkpt lat="47.28762" lon="-2.36906">
        <ele>12.60000038147</ele>
        <time>2019-11-17T10:51:41.000Z</time>
      </trkpt>
      <trkpt lat="47.28762" lon="-2.36891">
        <ele>12.60000038147</ele>
        <time>2019-11-17T10:51:45.000Z</time>
      </trkpt>
      <trkpt lat="47.28763" lon="-2.36878">
        <ele>13</ele>
        <time>2019-11-17T10:51:48.000Z</time>
      </trkpt>
      <trkpt lat="47.28763" lon="-2.36874">
        <ele>13.60000038147</ele>
        <time>2019-11-17T10:51:49.000Z</time>
      </trkpt>
      <trkpt lat="47.28764" lon="-2.3687">
        <ele>14</ele>
        <time>2019-11-17T10:51:50.000Z</time>
      </trkpt>
      <trkpt lat="47.28765" lon="-2.36867">
        <ele>14.39999961853</ele>
        <time>2019-11-17T10:51:51.000Z</time>
      </trkpt>
      <trkpt lat="47.28766" lon="-2.36864">
        <ele>14.800000190735</ele>
        <time>2019-11-17T10:51:52.000Z</time>
      </trkpt>
      <trkpt lat="47.28768" lon="-2.36854">
        <ele>14.800000190735</ele>
        <time>2019-11-17T10:51:55.000Z</time>
      </trkpt>
      <trkpt lat="47.28768" lon="-2.36851">
        <ele>15.199999809265</ele>
        <time>2019-11-17T10:51:56.000Z</time>
      </trkpt>
      <trkpt lat="47.28767" lon="-2.36847">
        <ele>15.60000038147</ele>
        <time>2019-11-17T10:51:57.000Z</time>
      </trkpt>
      <trkpt lat="47.28768" lon="-2.36844">
        <ele>16</ele>
        <time>2019-11-17T10:51:58.000Z</time>
      </trkpt>
      <trkpt lat="47.28769" lon="-2.3684">
        <ele>16.39999961853</ele>
        <time>2019-11-17T10:51:59.000Z</time>
      </trkpt>
      <trkpt lat="47.28769" lon="-2.36836">
        <ele>16.799999237061</ele>
        <time>2019-11-17T10:52:00.000Z</time>
      </trkpt>
      <trkpt lat="47.2877" lon="-2.36825">
        <ele>17.200000762939</ele>
        <time>2019-11-17T10:52:03.000Z</time>
      </trkpt>
      <trkpt lat="47.2877" lon="-2.36823">
        <ele>17.60000038147</ele>
        <time>2019-11-17T10:52:04.000Z</time>
      </trkpt>
      <trkpt lat="47.28771" lon="-2.36819">
        <ele>18.200000762939</ele>
        <time>2019-11-17T10:52:05.000Z</time>
      </trkpt>
      <trkpt lat="47.28772" lon="-2.36815">
        <ele>18.60000038147</ele>
        <time>2019-11-17T10:52:06.000Z</time>
      </trkpt>
      <trkpt lat="47.28772" lon="-2.36811">
        <ele>19</ele>
        <time>2019-11-17T10:52:07.000Z</time>
      </trkpt>
      <trkpt lat="47.28775" lon="-2.36788">
        <ele>19</ele>
        <time>2019-11-17T10:52:12.000Z</time>
      </trkpt>
      <trkpt lat="47.28777" lon="-2.36776">
        <ele>19.39999961853</ele>
        <time>2019-11-17T10:52:15.000Z</time>
      </trkpt>
      <trkpt lat="47.28778" lon="-2.36773">
        <ele>19.799999237061</ele>
        <time>2019-11-17T10:52:16.000Z</time>
      </trkpt>
      <trkpt lat="47.28779" lon="-2.36768">
        <ele>20.200000762939</ele>
        <time>2019-11-17T10:52:17.000Z</time>
      </trkpt>
      <trkpt lat="47.28781" lon="-2.36764">
        <ele>20.60000038147</ele>
        <time>2019-11-17T10:52:18.000Z</time>
      </trkpt>
      <trkpt lat="47.28782" lon="-2.36759">
        <ele>21</ele>
        <time>2019-11-17T10:52:19.000Z</time>
      </trkpt>
      <trkpt lat="47.28786" lon="-2.36739">
        <ele>21</ele>
        <time>2019-11-17T10:52:24.000Z</time>
      </trkpt>
      <trkpt lat="47.28788" lon="-2.36728">
        <ele>21.39999961853</ele>
        <time>2019-11-17T10:52:27.000Z</time>
      </trkpt>
      <trkpt lat="47.28789" lon="-2.36725">
        <ele>21.799999237061</ele>
        <time>2019-11-17T10:52:28.000Z</time>
      </trkpt>
      <trkpt lat="47.2879" lon="-2.36722">
        <ele>22.39999961853</ele>
        <time>2019-11-17T10:52:29.000Z</time>
      </trkpt>
      <trkpt lat="47.28792" lon="-2.36718">
        <ele>22.799999237061</ele>
        <time>2019-11-17T10:52:30.000Z</time>
      </trkpt>
      <trkpt lat="47.28794" lon="-2.36714">
        <ele>23.200000762939</ele>
        <time>2019-11-17T10:52:31.000Z</time>
      </trkpt>
      <trkpt lat="47.28794" lon="-2.3671">
        <ele>23.200000762939</ele>
        <time>2019-11-17T10:52:32.000Z</time>
      </trkpt>
      <trkpt lat="47.28796" lon="-2.36703">
        <ele>23.60000038147</ele>
        <time>2019-11-17T10:52:34.000Z</time>
      </trkpt>
      <trkpt lat="47.28798" lon="-2.36698">
        <ele>24.39999961853</ele>
        <time>2019-11-17T10:52:35.000Z</time>
      </trkpt>
      <trkpt lat="47.28798" lon="-2.36695">
        <ele>24.799999237061</ele>
        <time>2019-11-17T10:52:36.000Z</time>
      </trkpt>
      <trkpt lat="47.288" lon="-2.36692">
        <ele>25.200000762939</ele>
        <time>2019-11-17T10:52:37.000Z</time>
      </trkpt>
      <trkpt lat="47.28808" lon="-2.36679">
        <ele>25.60000038147</ele>
        <time>2019-11-17T10:52:40.000Z</time>
      </trkpt>
      <trkpt lat="47.2881" lon="-2.36676">
        <ele>26</ele>
        <time>2019-11-17T10:52:41.000Z</time>
      </trkpt>
      <trkpt lat="47.28811" lon="-2.36673">
        <ele>26.39999961853</ele>
        <time>2019-11-17T10:52:42.000Z</time>
      </trkpt>
      <trkpt lat="47.28813" lon="-2.36672">
        <ele>26.799999237061</ele>
        <time>2019-11-17T10:52:43.000Z</time>
      </trkpt>
      <trkpt lat="47.28814" lon="-2.3667">
        <ele>27.200000762939</ele>
        <time>2019-11-17T10:52:44.000Z</time>
      </trkpt>
      <trkpt lat="47.28818" lon="-2.36659">
        <ele>27.200000762939</ele>
        <time>2019-11-17T10:52:47.000Z</time>
      </trkpt>
      <trkpt lat="47.28819" lon="-2.36655">
        <ele>27.799999237061</ele>
        <time>2019-11-17T10:52:48.000Z</time>
      </trkpt>
      <trkpt lat="47.2882" lon="-2.36652">
        <ele>28.200000762939</ele>
        <time>2019-11-17T10:52:49.000Z</time>
      </trkpt>
      <trkpt lat="47.28823" lon="-2.3665">
        <ele>28.60000038147</ele>
        <time>2019-11-17T10:52:50.000Z</time>
      </trkpt>
      <trkpt lat="47.28825" lon="-2.36649">
        <ele>29</ele>
        <time>2019-11-17T10:52:51.000Z</time>
      </trkpt>
      <trkpt lat="47.28827" lon="-2.36647">
        <ele>29.39999961853</ele>
        <time>2019-11-17T10:52:52.000Z</time>
      </trkpt>
      <trkpt lat="47.28835" lon="-2.36631">
        <ele>29.39999961853</ele>
        <time>2019-11-17T10:52:57.000Z</time>
      </trkpt>
      <trkpt lat="47.28842" lon="-2.36615">
        <ele>29.39999961853</ele>
        <time>2019-11-17T10:53:01.000Z</time>
      </trkpt>
      <trkpt lat="47.28846" lon="-2.36598">
        <ele>29.39999961853</ele>
        <time>2019-11-17T10:53:06.000Z</time>
      </trkpt>
      <trkpt lat="47.28849" lon="-2.36567">
        <ele>29.39999961853</ele>
        <time>2019-11-17T10:53:12.000Z</time>
      </trkpt>
      <trkpt lat="47.28854" lon="-2.36544">
        <ele>29.799999237061</ele>
        <time>2019-11-17T10:53:17.000Z</time>
      </trkpt>
      <trkpt lat="47.28854" lon="-2.36539">
        <ele>30.200000762939</ele>
        <time>2019-11-17T10:53:18.000Z</time>
      </trkpt>
      <trkpt lat="47.28855" lon="-2.36533">
        <ele>30.60000038147</ele>
        <time>2019-11-17T10:53:19.000Z</time>
      </trkpt>
      <trkpt lat="47.28856" lon="-2.36529">
        <ele>31</ele>
        <time>2019-11-17T10:53:20.000Z</time>
      </trkpt>
      <trkpt lat="47.28856" lon="-2.36525">
        <ele>31.39999961853</ele>
        <time>2019-11-17T10:53:21.000Z</time>
      </trkpt>
      <trkpt lat="47.28856" lon="-2.36521">
        <ele>31.39999961853</ele>
        <time>2019-11-17T10:53:22.000Z</time>
      </trkpt>
      <trkpt lat="47.28855" lon="-2.36511">
        <ele>32</ele>
        <time>2019-11-17T10:53:25.000Z</time>
      </trkpt>
      <trkpt lat="47.28854" lon="-2.3651">
        <ele>32.400001525879</ele>
        <time>2019-11-17T10:53:26.000Z</time>
      </trkpt>
      <trkpt lat="47.28853" lon="-2.36508">
        <ele>32.799999237061</ele>
        <time>2019-11-17T10:53:27.000Z</time>
      </trkpt>
      <trkpt lat="47.28852" lon="-2.36505">
        <ele>33.200000762939</ele>
        <time>2019-11-17T10:53:28.000Z</time>
      </trkpt>
      <trkpt lat="47.28852" lon="-2.36502">
        <ele>33.599998474121</ele>
        <time>2019-11-17T10:53:29.000Z</time>
      </trkpt>
      <trkpt lat="47.28852" lon="-2.36498">
        <ele>33.599998474121</ele>
        <time>2019-11-17T10:53:30.000Z</time>
      </trkpt>
      <trkpt lat="47.28849" lon="-2.36482">
        <ele>33.599998474121</ele>
        <time>2019-11-17T10:53:34.000Z</time>
      </trkpt>
      <trkpt lat="47.28849" lon="-2.36474">
        <ele>33.599998474121</ele>
        <time>2019-11-17T10:53:36.000Z</time>
      </trkpt>
      <trkpt lat="47.28847" lon="-2.36461">
        <ele>34</ele>
        <time>2019-11-17T10:53:39.000Z</time>
      </trkpt>
      <trkpt lat="47.28846" lon="-2.36458">
        <ele>34.400001525879</ele>
        <time>2019-11-17T10:53:40.000Z</time>
      </trkpt>
      <trkpt lat="47.28845" lon="-2.36455">
        <ele>34.799999237061</ele>
        <time>2019-11-17T10:53:41.000Z</time>
      </trkpt>
      <trkpt lat="47.28844" lon="-2.36451">
        <ele>35.200000762939</ele>
        <time>2019-11-17T10:53:42.000Z</time>
      </trkpt>
      <trkpt lat="47.28843" lon="-2.36446">
        <ele>35.599998474121</ele>
        <time>2019-11-17T10:53:43.000Z</time>
      </trkpt>
      <trkpt lat="47.28842" lon="-2.36441">
        <ele>35.599998474121</ele>
        <time>2019-11-17T10:53:45.000Z</time>
      </trkpt>
      <trkpt lat="47.28839" lon="-2.36434">
        <ele>36</ele>
        <time>2019-11-17T10:53:48.000Z</time>
      </trkpt>
      <trkpt lat="47.28838" lon="-2.36432">
        <ele>36.599998474121</ele>
        <time>2019-11-17T10:53:49.000Z</time>
      </trkpt>
      <trkpt lat="47.28839" lon="-2.36429">
        <ele>37.400001525879</ele>
        <time>2019-11-17T10:53:50.000Z</time>
      </trkpt>
      <trkpt lat="47.28838" lon="-2.36426">
        <ele>37.799999237061</ele>
        <time>2019-11-17T10:53:51.000Z</time>
      </trkpt>
      <trkpt lat="47.28837" lon="-2.36422">
        <ele>38.400001525879</ele>
        <time>2019-11-17T10:53:53.000Z</time>
      </trkpt>
      <trkpt lat="47.28837" lon="-2.3642">
        <ele>38.799999237061</ele>
        <time>2019-11-17T10:53:54.000Z</time>
      </trkpt>
      <trkpt lat="47.28837" lon="-2.36418">
        <ele>39.200000762939</ele>
        <time>2019-11-17T10:53:55.000Z</time>
      </trkpt>
      <trkpt lat="47.28836" lon="-2.36417">
        <ele>39.599998474121</ele>
        <time>2019-11-17T10:53:56.000Z</time>
      </trkpt>
      <trkpt lat="47.28836" lon="-2.36415">
        <ele>40.200000762939</ele>
        <time>2019-11-17T10:53:57.000Z</time>
      </trkpt>
      <trkpt lat="47.28834" lon="-2.36412">
        <ele>40.200000762939</ele>
        <time>2019-11-17T10:53:59.000Z</time>
      </trkpt>
      <trkpt lat="47.28831" lon="-2.36413">
        <ele>40.200000762939</ele>
        <time>2019-11-17T10:54:01.000Z</time>
      </trkpt>
      <trkpt lat="47.28818" lon="-2.36416">
        <ele>40.200000762939</ele>
        <time>2019-11-17T10:54:07.000Z</time>
      </trkpt>
      <trkpt lat="47.28809" lon="-2.36413">
        <ele>40.200000762939</ele>
        <time>2019-11-17T10:54:12.000Z</time>
      </trkpt>
      <trkpt lat="47.28808" lon="-2.36413">
        <ele>40.200000762939</ele>
        <time>2019-11-17T10:54:13.000Z</time>
      </trkpt>
      <trkpt lat="47.28807" lon="-2.36411">
        <ele>40.200000762939</ele>
        <time>2019-11-17T10:54:33.000Z</time>
      </trkpt>
      <trkpt lat="47.28808" lon="-2.36405">
        <ele>40.200000762939</ele>
        <time>2019-11-17T10:54:35.000Z</time>
      </trkpt>
      <trkpt lat="47.2881" lon="-2.36389">
        <ele>40.200000762939</ele>
        <time>2019-11-17T10:54:39.000Z</time>
      </trkpt>
      <trkpt lat="47.28818" lon="-2.36368">
        <ele>40.200000762939</ele>
        <time>2019-11-17T10:54:43.000Z</time>
      </trkpt>
      <trkpt lat="47.28822" lon="-2.36361">
        <ele>40.200000762939</ele>
        <time>2019-11-17T10:54:44.000Z</time>
      </trkpt>
      <trkpt lat="47.2883" lon="-2.36343">
        <ele>40.200000762939</ele>
        <time>2019-11-17T10:54:48.000Z</time>
      </trkpt>
      <trkpt lat="47.28835" lon="-2.36334">
        <ele>39.799999237061</ele>
        <time>2019-11-17T10:54:50.000Z</time>
      </trkpt>
      <trkpt lat="47.28837" lon="-2.36328">
        <ele>39.200000762939</ele>
        <time>2019-11-17T10:54:51.000Z</time>
      </trkpt>
      <trkpt lat="47.28837" lon="-2.3632">
        <ele>38.799999237061</ele>
        <time>2019-11-17T10:54:52.000Z</time>
      </trkpt>
      <trkpt lat="47.28835" lon="-2.36312">
        <ele>38.400001525879</ele>
        <time>2019-11-17T10:54:53.000Z</time>
      </trkpt>
      <trkpt lat="47.28833" lon="-2.36306">
        <ele>38</ele>
        <time>2019-11-17T10:54:54.000Z</time>
      </trkpt>
      <trkpt lat="47.28825" lon="-2.36296">
        <ele>38</ele>
        <time>2019-11-17T10:54:56.000Z</time>
      </trkpt>
      <trkpt lat="47.28821" lon="-2.36291">
        <ele>38</ele>
        <time>2019-11-17T10:54:57.000Z</time>
      </trkpt>
      <trkpt lat="47.28812" lon="-2.36285">
        <ele>38</ele>
        <time>2019-11-17T10:54:59.000Z</time>
      </trkpt>
      <trkpt lat="47.28801" lon="-2.36276">
        <ele>38</ele>
        <time>2019-11-17T10:55:02.000Z</time>
      </trkpt>
      <trkpt lat="47.28787" lon="-2.3626">
        <ele>38</ele>
        <time>2019-11-17T10:55:06.000Z</time>
      </trkpt>
      <trkpt lat="47.28784" lon="-2.36256">
        <ele>38</ele>
        <time>2019-11-17T10:55:07.000Z</time>
      </trkpt>
      <trkpt lat="47.2877" lon="-2.36234">
        <ele>38</ele>
        <time>2019-11-17T10:55:12.000Z</time>
      </trkpt>
      <trkpt lat="47.28767" lon="-2.36229">
        <ele>38</ele>
        <time>2019-11-17T10:55:13.000Z</time>
      </trkpt>
      <trkpt lat="47.28756" lon="-2.3622">
        <ele>38</ele>
        <time>2019-11-17T10:55:16.000Z</time>
      </trkpt>
      <trkpt lat="47.28751" lon="-2.36222">
        <ele>38</ele>
        <time>2019-11-17T10:55:17.000Z</time>
      </trkpt>
      <trkpt lat="47.28737" lon="-2.36232">
        <ele>38</ele>
        <time>2019-11-17T10:55:21.000Z</time>
      </trkpt>
      <trkpt lat="47.28732" lon="-2.36225">
        <ele>38</ele>
        <time>2019-11-17T10:55:24.000Z</time>
      </trkpt>
      <trkpt lat="47.2873" lon="-2.3622">
        <ele>38</ele>
        <time>2019-11-17T10:55:26.000Z</time>
      </trkpt>
      <trkpt lat="47.28728" lon="-2.36217">
        <ele>38</ele>
        <time>2019-11-17T10:55:28.000Z</time>
      </trkpt>
      <trkpt lat="47.28721" lon="-2.36216">
        <ele>38</ele>
        <time>2019-11-17T10:55:33.000Z</time>
      </trkpt>
      <trkpt lat="47.28713" lon="-2.36216">
        <ele>38</ele>
        <time>2019-11-17T10:55:39.000Z</time>
      </trkpt>
      <trkpt lat="47.2871" lon="-2.36217">
        <ele>38</ele>
        <time>2019-11-17T10:55:41.000Z</time>
      </trkpt>
      <trkpt lat="47.28705" lon="-2.36222">
        <ele>38</ele>
        <time>2019-11-17T10:55:44.000Z</time>
      </trkpt>
      <trkpt lat="47.28701" lon="-2.36222">
        <ele>38</ele>
        <time>2019-11-17T10:55:46.000Z</time>
      </trkpt>
      <trkpt lat="47.287" lon="-2.36222">
        <ele>38.400001525879</ele>
        <time>2019-11-17T10:55:47.000Z</time>
      </trkpt>
      <trkpt lat="47.28698" lon="-2.3622">
        <ele>38.799999237061</ele>
        <time>2019-11-17T10:55:48.000Z</time>
      </trkpt>
      <trkpt lat="47.28697" lon="-2.3622">
        <ele>39.200000762939</ele>
        <time>2019-11-17T10:55:50.000Z</time>
      </trkpt>
      <trkpt lat="47.28697" lon="-2.3622">
        <ele>39.599998474121</ele>
        <time>2019-11-17T10:55:51.000Z</time>
      </trkpt>
      <trkpt lat="47.28695" lon="-2.36219">
        <ele>40</ele>
        <time>2019-11-17T10:55:52.000Z</time>
      </trkpt>
      <trkpt lat="47.2869" lon="-2.36219">
        <ele>40</ele>
        <time>2019-11-17T10:55:58.000Z</time>
      </trkpt>
      <trkpt lat="47.28689" lon="-2.36219">
        <ele>40</ele>
        <time>2019-11-17T10:55:59.000Z</time>
      </trkpt>
      <trkpt lat="47.2867" lon="-2.36196">
        <ele>44.400001525879</ele>
        <time>2019-11-17T10:56:32.000Z</time>
      </trkpt>
      <trkpt lat="47.28667" lon="-2.3619">
        <ele>44.400001525879</ele>
        <time>2019-11-17T10:56:34.000Z</time>
      </trkpt>
      <trkpt lat="47.28661" lon="-2.36178">
        <ele>44.799999237061</ele>
        <time>2019-11-17T10:56:39.000Z</time>
      </trkpt>
      <trkpt lat="47.28658" lon="-2.36177">
        <ele>45.200000762939</ele>
        <time>2019-11-17T10:56:40.000Z</time>
      </trkpt>
      <trkpt lat="47.28656" lon="-2.36175">
        <ele>45.599998474121</ele>
        <time>2019-11-17T10:56:41.000Z</time>
      </trkpt>
      <trkpt lat="47.28654" lon="-2.36173">
        <ele>46.200000762939</ele>
        <time>2019-11-17T10:56:42.000Z</time>
      </trkpt>
      <trkpt lat="47.28652" lon="-2.36169">
        <ele>46.599998474121</ele>
        <time>2019-11-17T10:56:43.000Z</time>
      </trkpt>
      <trkpt lat="47.28647" lon="-2.36159">
        <ele>46.599998474121</ele>
        <time>2019-11-17T10:56:46.000Z</time>
      </trkpt>
      <trkpt lat="47.28642" lon="-2.36152">
        <ele>47</ele>
        <time>2019-11-17T10:56:48.000Z</time>
      </trkpt>
      <trkpt lat="47.28639" lon="-2.3615">
        <ele>47.400001525879</ele>
        <time>2019-11-17T10:56:49.000Z</time>
      </trkpt>
      <trkpt lat="47.28636" lon="-2.36149">
        <ele>47.799999237061</ele>
        <time>2019-11-17T10:56:50.000Z</time>
      </trkpt>
      <trkpt lat="47.28633" lon="-2.36148">
        <ele>48.200000762939</ele>
        <time>2019-11-17T10:56:51.000Z</time>
      </trkpt>
      <trkpt lat="47.2863" lon="-2.36148">
        <ele>48.599998474121</ele>
        <time>2019-11-17T10:56:52.000Z</time>
      </trkpt>
      <trkpt lat="47.28628" lon="-2.36149">
        <ele>48.599998474121</ele>
        <time>2019-11-17T10:56:53.000Z</time>
      </trkpt>
      <trkpt lat="47.28626" lon="-2.3615">
        <ele>48.599998474121</ele>
        <time>2019-11-17T10:56:54.000Z</time>
      </trkpt>
      <trkpt lat="47.28609" lon="-2.36158">
        <ele>48.599998474121</ele>
        <time>2019-11-17T10:56:59.000Z</time>
      </trkpt>
      <trkpt lat="47.28593" lon="-2.36155">
        <ele>48.599998474121</ele>
        <time>2019-11-17T10:57:04.000Z</time>
      </trkpt>
      <trkpt lat="47.28582" lon="-2.36149">
        <ele>48.599998474121</ele>
        <time>2019-11-17T10:57:08.000Z</time>
      </trkpt>
      <trkpt lat="47.28576" lon="-2.36149">
        <ele>48.599998474121</ele>
        <time>2019-11-17T10:57:10.000Z</time>
      </trkpt>
      <trkpt lat="47.28564" lon="-2.36155">
        <ele>48.599998474121</ele>
        <time>2019-11-17T10:57:12.000Z</time>
      </trkpt>
      <trkpt lat="47.28557" lon="-2.36155">
        <ele>48.200000762939</ele>
        <time>2019-11-17T10:57:14.000Z</time>
      </trkpt>
      <trkpt lat="47.28554" lon="-2.36154">
        <ele>47.799999237061</ele>
        <time>2019-11-17T10:57:15.000Z</time>
      </trkpt>
      <trkpt lat="47.28553" lon="-2.36149">
        <ele>47.400001525879</ele>
        <time>2019-11-17T10:57:16.000Z</time>
      </trkpt>
      <trkpt lat="47.28552" lon="-2.36145">
        <ele>47</ele>
        <time>2019-11-17T10:57:17.000Z</time>
      </trkpt>
      <trkpt lat="47.28551" lon="-2.36141">
        <ele>46.599998474121</ele>
        <time>2019-11-17T10:57:18.000Z</time>
      </trkpt>
      <trkpt lat="47.2855" lon="-2.36136">
        <ele>46.599998474121</ele>
        <time>2019-11-17T10:57:19.000Z</time>
      </trkpt>
      <trkpt lat="47.28544" lon="-2.36111">
        <ele>46.599998474121</ele>
        <time>2019-11-17T10:57:23.000Z</time>
      </trkpt>
      <trkpt lat="47.28537" lon="-2.36091">
        <ele>46.599998474121</ele>
        <time>2019-11-17T10:57:27.000Z</time>
      </trkpt>
      <trkpt lat="47.28536" lon="-2.36087">
        <ele>46.599998474121</ele>
        <time>2019-11-17T10:57:28.000Z</time>
      </trkpt>
      <trkpt lat="47.28523" lon="-2.36068">
        <ele>46.599998474121</ele>
        <time>2019-11-17T10:57:33.000Z</time>
      </trkpt>
      <trkpt lat="47.28514" lon="-2.36056">
        <ele>46.599998474121</ele>
        <time>2019-11-17T10:57:36.000Z</time>
      </trkpt>
      <trkpt lat="47.2851" lon="-2.3605">
        <ele>46.599998474121</ele>
        <time>2019-11-17T10:57:38.000Z</time>
      </trkpt>
      <trkpt lat="47.28494" lon="-2.36043">
        <ele>46.599998474121</ele>
        <time>2019-11-17T10:57:43.000Z</time>
      </trkpt>
      <trkpt lat="47.28483" lon="-2.36034">
        <ele>46.599998474121</ele>
        <time>2019-11-17T10:57:46.000Z</time>
      </trkpt>
      <trkpt lat="47.2848" lon="-2.3603">
        <ele>46.599998474121</ele>
        <time>2019-11-17T10:57:47.000Z</time>
      </trkpt>
      <trkpt lat="47.28475" lon="-2.3602">
        <ele>46.599998474121</ele>
        <time>2019-11-17T10:57:50.000Z</time>
      </trkpt>
      <trkpt lat="47.28471" lon="-2.3601">
        <ele>46.599998474121</ele>
        <time>2019-11-17T10:57:52.000Z</time>
      </trkpt>
      <trkpt lat="47.28463" lon="-2.35993">
        <ele>46.599998474121</ele>
        <time>2019-11-17T10:57:56.000Z</time>
      </trkpt>
      <trkpt lat="47.2846" lon="-2.35994">
        <ele>46.599998474121</ele>
        <time>2019-11-17T10:57:57.000Z</time>
      </trkpt>
      <trkpt lat="47.2845" lon="-2.35995">
        <ele>46.599998474121</ele>
        <time>2019-11-17T10:58:00.000Z</time>
      </trkpt>
      <trkpt lat="47.28447" lon="-2.35996">
        <ele>46.599998474121</ele>
        <time>2019-11-17T10:58:01.000Z</time>
      </trkpt>
      <trkpt lat="47.28432" lon="-2.36005">
        <ele>46.599998474121</ele>
        <time>2019-11-17T10:58:06.000Z</time>
      </trkpt>
      <trkpt lat="47.28415" lon="-2.36017">
        <ele>46.599998474121</ele>
        <time>2019-11-17T10:58:11.000Z</time>
      </trkpt>
      <trkpt lat="47.28413" lon="-2.36018">
        <ele>46.599998474121</ele>
        <time>2019-11-17T10:58:12.000Z</time>
      </trkpt>
      <trkpt lat="47.28393" lon="-2.3602">
        <ele>46.599998474121</ele>
        <time>2019-11-17T10:58:16.000Z</time>
      </trkpt>
      <trkpt lat="47.28389" lon="-2.36021">
        <ele>46.200000762939</ele>
        <time>2019-11-17T10:58:17.000Z</time>
      </trkpt>
      <trkpt lat="47.28382" lon="-2.36023">
        <ele>45.799999237061</ele>
        <time>2019-11-17T10:58:18.000Z</time>
      </trkpt>
      <trkpt lat="47.28376" lon="-2.36026">
        <ele>45.200000762939</ele>
        <time>2019-11-17T10:58:19.000Z</time>
      </trkpt>
      <trkpt lat="47.2837" lon="-2.36028">
        <ele>44.799999237061</ele>
        <time>2019-11-17T10:58:20.000Z</time>
      </trkpt>
      <trkpt lat="47.28364" lon="-2.36031">
        <ele>44.200000762939</ele>
        <time>2019-11-17T10:58:21.000Z</time>
      </trkpt>
      <trkpt lat="47.28355" lon="-2.36036">
        <ele>43</ele>
        <time>2019-11-17T10:58:22.000Z</time>
      </trkpt>
      <trkpt lat="47.28349" lon="-2.36042">
        <ele>42.400001525879</ele>
        <time>2019-11-17T10:58:23.000Z</time>
      </trkpt>
      <trkpt lat="47.28342" lon="-2.36046">
        <ele>41.799999237061</ele>
        <time>2019-11-17T10:58:24.000Z</time>
      </trkpt>
      <trkpt lat="47.28335" lon="-2.3605">
        <ele>41.400001525879</ele>
        <time>2019-11-17T10:58:25.000Z</time>
      </trkpt>
      <trkpt lat="47.2833" lon="-2.36054">
        <ele>40.799999237061</ele>
        <time>2019-11-17T10:58:26.000Z</time>
      </trkpt>
      <trkpt lat="47.28324" lon="-2.36051">
        <ele>40.200000762939</ele>
        <time>2019-11-17T10:58:27.000Z</time>
      </trkpt>
      <trkpt lat="47.2832" lon="-2.36051">
        <ele>39.599998474121</ele>
        <time>2019-11-17T10:58:28.000Z</time>
      </trkpt>
      <trkpt lat="47.28313" lon="-2.36049">
        <ele>39.599998474121</ele>
        <time>2019-11-17T10:58:29.000Z</time>
      </trkpt>
      <trkpt lat="47.28303" lon="-2.36046">
        <ele>39.200000762939</ele>
        <time>2019-11-17T10:58:31.000Z</time>
      </trkpt>
      <trkpt lat="47.28298" lon="-2.36042">
        <ele>38.799999237061</ele>
        <time>2019-11-17T10:58:32.000Z</time>
      </trkpt>
      <trkpt lat="47.28294" lon="-2.36038">
        <ele>38.200000762939</ele>
        <time>2019-11-17T10:58:33.000Z</time>
      </trkpt>
      <trkpt lat="47.28291" lon="-2.36032">
        <ele>37.599998474121</ele>
        <time>2019-11-17T10:58:34.000Z</time>
      </trkpt>
      <trkpt lat="47.28287" lon="-2.36026">
        <ele>36.799999237061</ele>
        <time>2019-11-17T10:58:35.000Z</time>
      </trkpt>
      <trkpt lat="47.28283" lon="-2.36021">
        <ele>35.799999237061</ele>
        <time>2019-11-17T10:58:36.000Z</time>
      </trkpt>
      <trkpt lat="47.28282" lon="-2.36016">
        <ele>34.799999237061</ele>
        <time>2019-11-17T10:58:37.000Z</time>
      </trkpt>
      <trkpt lat="47.28281" lon="-2.36012">
        <ele>33.799999237061</ele>
        <time>2019-11-17T10:58:38.000Z</time>
      </trkpt>
      <trkpt lat="47.2828" lon="-2.36008">
        <ele>33</ele>
        <time>2019-11-17T10:58:39.000Z</time>
      </trkpt>
      <trkpt lat="47.28281" lon="-2.36003">
        <ele>32</ele>
        <time>2019-11-17T10:58:40.000Z</time>
      </trkpt>
      <trkpt lat="47.28281" lon="-2.35999">
        <ele>31.200000762939</ele>
        <time>2019-11-17T10:58:41.000Z</time>
      </trkpt>
      <trkpt lat="47.28282" lon="-2.35996">
        <ele>30.200000762939</ele>
        <time>2019-11-17T10:58:42.000Z</time>
      </trkpt>
      <trkpt lat="47.28282" lon="-2.35992">
        <ele>29.39999961853</ele>
        <time>2019-11-17T10:58:43.000Z</time>
      </trkpt>
      <trkpt lat="47.28286" lon="-2.35974">
        <ele>29.39999961853</ele>
        <time>2019-11-17T10:58:49.000Z</time>
      </trkpt>
      <trkpt lat="47.28288" lon="-2.35969">
        <ele>29.39999961853</ele>
        <time>2019-11-17T10:58:51.000Z</time>
      </trkpt>
      <trkpt lat="47.28284" lon="-2.35959">
        <ele>29.39999961853</ele>
        <time>2019-11-17T10:58:54.000Z</time>
      </trkpt>
      <trkpt lat="47.28282" lon="-2.35953">
        <ele>29.799999237061</ele>
        <time>2019-11-17T10:58:56.000Z</time>
      </trkpt>
      <trkpt lat="47.28281" lon="-2.35949">
        <ele>30.200000762939</ele>
        <time>2019-11-17T10:58:57.000Z</time>
      </trkpt>
      <trkpt lat="47.28281" lon="-2.35948">
        <ele>30.60000038147</ele>
        <time>2019-11-17T10:58:58.000Z</time>
      </trkpt>
      <trkpt lat="47.28281" lon="-2.35947">
        <ele>31</ele>
        <time>2019-11-17T10:58:59.000Z</time>
      </trkpt>
      <trkpt lat="47.28274" lon="-2.35941">
        <ele>31.39999961853</ele>
        <time>2019-11-17T10:59:00.000Z</time>
      </trkpt>
      <trkpt lat="47.28253" lon="-2.35935">
        <ele>31.39999961853</ele>
        <time>2019-11-17T10:59:04.000Z</time>
      </trkpt>
      <trkpt lat="47.28248" lon="-2.35932">
        <ele>31.39999961853</ele>
        <time>2019-11-17T10:59:05.000Z</time>
      </trkpt>
      <trkpt lat="47.28234" lon="-2.35927">
        <ele>31.39999961853</ele>
        <time>2019-11-17T10:59:08.000Z</time>
      </trkpt>
      <trkpt lat="47.28216" lon="-2.35921">
        <ele>31.39999961853</ele>
        <time>2019-11-17T10:59:11.000Z</time>
      </trkpt>
      <trkpt lat="47.282" lon="-2.35918">
        <ele>31</ele>
        <time>2019-11-17T10:59:14.000Z</time>
      </trkpt>
      <trkpt lat="47.28197" lon="-2.35917">
        <ele>30.60000038147</ele>
        <time>2019-11-17T10:59:15.000Z</time>
      </trkpt>
      <trkpt lat="47.28193" lon="-2.35911">
        <ele>30.200000762939</ele>
        <time>2019-11-17T10:59:16.000Z</time>
      </trkpt>
      <trkpt lat="47.28189" lon="-2.3591">
        <ele>29.799999237061</ele>
        <time>2019-11-17T10:59:17.000Z</time>
      </trkpt>
      <trkpt lat="47.28184" lon="-2.35908">
        <ele>29.39999961853</ele>
        <time>2019-11-17T10:59:18.000Z</time>
      </trkpt>
      <trkpt lat="47.28175" lon="-2.35906">
        <ele>29.39999961853</ele>
        <time>2019-11-17T10:59:20.000Z</time>
      </trkpt>
      <trkpt lat="47.28171" lon="-2.35904">
        <ele>29.39999961853</ele>
        <time>2019-11-17T10:59:21.000Z</time>
      </trkpt>
      <trkpt lat="47.28167" lon="-2.35901">
        <ele>29.39999961853</ele>
        <time>2019-11-17T10:59:22.000Z</time>
      </trkpt>
      <trkpt lat="47.28154" lon="-2.35895">
        <ele>29.39999961853</ele>
        <time>2019-11-17T10:59:25.000Z</time>
      </trkpt>
      <trkpt lat="47.28145" lon="-2.35881">
        <ele>29.39999961853</ele>
        <time>2019-11-17T10:59:28.000Z</time>
      </trkpt>
      <trkpt lat="47.28133" lon="-2.35862">
        <ele>29.39999961853</ele>
        <time>2019-11-17T10:59:32.000Z</time>
      </trkpt>
      <trkpt lat="47.28119" lon="-2.35859">
        <ele>29.39999961853</ele>
        <time>2019-11-17T10:59:37.000Z</time>
      </trkpt>
      <trkpt lat="47.28116" lon="-2.35859">
        <ele>29.39999961853</ele>
        <time>2019-11-17T10:59:38.000Z</time>
      </trkpt>
      <trkpt lat="47.28113" lon="-2.35857">
        <ele>29.39999961853</ele>
        <time>2019-11-17T10:59:39.000Z</time>
      </trkpt>
      <trkpt lat="47.28104" lon="-2.35845">
        <ele>29.39999961853</ele>
        <time>2019-11-17T10:59:42.000Z</time>
      </trkpt>
      <trkpt lat="47.28092" lon="-2.3581">
        <ele>29.39999961853</ele>
        <time>2019-11-17T10:59:47.000Z</time>
      </trkpt>
      <trkpt lat="47.28092" lon="-2.35789">
        <ele>29.799999237061</ele>
        <time>2019-11-17T10:59:50.000Z</time>
      </trkpt>
      <trkpt lat="47.28093" lon="-2.35783">
        <ele>30.200000762939</ele>
        <time>2019-11-17T10:59:51.000Z</time>
      </trkpt>
      <trkpt lat="47.28093" lon="-2.35778">
        <ele>30.60000038147</ele>
        <time>2019-11-17T10:59:52.000Z</time>
      </trkpt>
      <trkpt lat="47.28093" lon="-2.35772">
        <ele>31</ele>
        <time>2019-11-17T10:59:53.000Z</time>
      </trkpt>
      <trkpt lat="47.28094" lon="-2.35767">
        <ele>31.39999961853</ele>
        <time>2019-11-17T10:59:54.000Z</time>
      </trkpt>
      <trkpt lat="47.28095" lon="-2.35757">
        <ele>31.39999961853</ele>
        <time>2019-11-17T10:59:56.000Z</time>
      </trkpt>
      <trkpt lat="47.28098" lon="-2.35749">
        <ele>31.39999961853</ele>
        <time>2019-11-17T10:59:58.000Z</time>
      </trkpt>
      <trkpt lat="47.28099" lon="-2.35739">
        <ele>32.200000762939</ele>
        <time>2019-11-17T11:00:00.000Z</time>
      </trkpt>
      <trkpt lat="47.28098" lon="-2.35734">
        <ele>32.599998474121</ele>
        <time>2019-11-17T11:00:01.000Z</time>
      </trkpt>
      <trkpt lat="47.28098" lon="-2.3573">
        <ele>33</ele>
        <time>2019-11-17T11:00:02.000Z</time>
      </trkpt>
      <trkpt lat="47.28097" lon="-2.35726">
        <ele>33.599998474121</ele>
        <time>2019-11-17T11:00:03.000Z</time>
      </trkpt>
      <trkpt lat="47.28095" lon="-2.35718">
        <ele>33.599998474121</ele>
        <time>2019-11-17T11:00:05.000Z</time>
      </trkpt>
      <trkpt lat="47.28095" lon="-2.35708">
        <ele>33.599998474121</ele>
        <time>2019-11-17T11:00:08.000Z</time>
      </trkpt>
      <trkpt lat="47.28094" lon="-2.3568">
        <ele>33.599998474121</ele>
        <time>2019-11-17T11:00:13.000Z</time>
      </trkpt>
      <trkpt lat="47.28089" lon="-2.35662">
        <ele>33</ele>
        <time>2019-11-17T11:00:15.000Z</time>
      </trkpt>
      <trkpt lat="47.28085" lon="-2.35648">
        <ele>32.599998474121</ele>
        <time>2019-11-17T11:00:16.000Z</time>
      </trkpt>
      <trkpt lat="47.2808" lon="-2.35633">
        <ele>32.200000762939</ele>
        <time>2019-11-17T11:00:17.000Z</time>
      </trkpt>
      <trkpt lat="47.28076" lon="-2.3562">
        <ele>31.60000038147</ele>
        <time>2019-11-17T11:00:18.000Z</time>
      </trkpt>
      <trkpt lat="47.28073" lon="-2.35611">
        <ele>31.200000762939</ele>
        <time>2019-11-17T11:00:19.000Z</time>
      </trkpt>
      <trkpt lat="47.28069" lon="-2.35605">
        <ele>30.60000038147</ele>
        <time>2019-11-17T11:00:20.000Z</time>
      </trkpt>
      <trkpt lat="47.28064" lon="-2.356">
        <ele>30</ele>
        <time>2019-11-17T11:00:21.000Z</time>
      </trkpt>
      <trkpt lat="47.28057" lon="-2.35596">
        <ele>29.39999961853</ele>
        <time>2019-11-17T11:00:22.000Z</time>
      </trkpt>
      <trkpt lat="47.2805" lon="-2.35595">
        <ele>28.799999237061</ele>
        <time>2019-11-17T11:00:23.000Z</time>
      </trkpt>
      <trkpt lat="47.28043" lon="-2.35593">
        <ele>28.799999237061</ele>
        <time>2019-11-17T11:00:24.000Z</time>
      </trkpt>
      <trkpt lat="47.28036" lon="-2.3559">
        <ele>28.799999237061</ele>
        <time>2019-11-17T11:00:25.000Z</time>
      </trkpt>
      <trkpt lat="47.28032" lon="-2.35588">
        <ele>28.39999961853</ele>
        <time>2019-11-17T11:00:26.000Z</time>
      </trkpt>
      <trkpt lat="47.28029" lon="-2.35585">
        <ele>28</ele>
        <time>2019-11-17T11:00:27.000Z</time>
      </trkpt>
      <trkpt lat="47.28028" lon="-2.3558">
        <ele>27.60000038147</ele>
        <time>2019-11-17T11:00:28.000Z</time>
      </trkpt>
      <trkpt lat="47.28027" lon="-2.35577">
        <ele>27</ele>
        <time>2019-11-17T11:00:29.000Z</time>
      </trkpt>
      <trkpt lat="47.28026" lon="-2.35574">
        <ele>26.60000038147</ele>
        <time>2019-11-17T11:00:30.000Z</time>
      </trkpt>
      <trkpt lat="47.28026" lon="-2.35573">
        <ele>26.60000038147</ele>
        <time>2019-11-17T11:00:31.000Z</time>
      </trkpt>
      <trkpt lat="47.28025" lon="-2.35565">
        <ele>26.60000038147</ele>
        <time>2019-11-17T11:04:38.000Z</time>
      </trkpt>
      <trkpt lat="47.28024" lon="-2.35564">
        <ele>26.60000038147</ele>
        <time>2019-11-17T11:04:39.000Z</time>
      </trkpt>
      <trkpt lat="47.28011" lon="-2.35564">
        <ele>26.60000038147</ele>
        <time>2019-11-17T11:04:43.000Z</time>
      </trkpt>
      <trkpt lat="47.2799" lon="-2.35568">
        <ele>26.60000038147</ele>
        <time>2019-11-17T11:04:49.000Z</time>
      </trkpt>
      <trkpt lat="47.27964" lon="-2.35576">
        <ele>26.60000038147</ele>
        <time>2019-11-17T11:04:56.000Z</time>
      </trkpt>
      <trkpt lat="47.27944" lon="-2.35584">
        <ele>26.60000038147</ele>
        <time>2019-11-17T11:05:02.000Z</time>
      </trkpt>
      <trkpt lat="47.2793" lon="-2.3559">
        <ele>26.60000038147</ele>
        <time>2019-11-17T11:05:07.000Z</time>
      </trkpt>
      <trkpt lat="47.27922" lon="-2.35592">
        <ele>26.60000038147</ele>
        <time>2019-11-17T11:05:09.000Z</time>
      </trkpt>
      <trkpt lat="47.27911" lon="-2.35593">
        <ele>26.60000038147</ele>
        <time>2019-11-17T11:05:12.000Z</time>
      </trkpt>
      <trkpt lat="47.27891" lon="-2.35599">
        <ele>26.60000038147</ele>
        <time>2019-11-17T11:05:17.000Z</time>
      </trkpt>
      <trkpt lat="47.27874" lon="-2.35602">
        <ele>26.200000762939</ele>
        <time>2019-11-17T11:05:20.000Z</time>
      </trkpt>
      <trkpt lat="47.27868" lon="-2.35603">
        <ele>25.39999961853</ele>
        <time>2019-11-17T11:05:21.000Z</time>
      </trkpt>
      <trkpt lat="47.27862" lon="-2.35604">
        <ele>25</ele>
        <time>2019-11-17T11:05:22.000Z</time>
      </trkpt>
      <trkpt lat="47.27856" lon="-2.35605">
        <ele>24.39999961853</ele>
        <time>2019-11-17T11:05:23.000Z</time>
      </trkpt>
      <trkpt lat="47.27822" lon="-2.35614">
        <ele>24.39999961853</ele>
        <time>2019-11-17T11:05:29.000Z</time>
      </trkpt>
      <trkpt lat="47.27785" lon="-2.35629">
        <ele>24.39999961853</ele>
        <time>2019-11-17T11:05:35.000Z</time>
      </trkpt>
      <trkpt lat="47.27779" lon="-2.35633">
        <ele>24</ele>
        <time>2019-11-17T11:05:36.000Z</time>
      </trkpt>
      <trkpt lat="47.27773" lon="-2.35637">
        <ele>23.60000038147</ele>
        <time>2019-11-17T11:05:37.000Z</time>
      </trkpt>
      <trkpt lat="47.27768" lon="-2.35643">
        <ele>23.200000762939</ele>
        <time>2019-11-17T11:05:38.000Z</time>
      </trkpt>
      <trkpt lat="47.27763" lon="-2.35648">
        <ele>22.799999237061</ele>
        <time>2019-11-17T11:05:39.000Z</time>
      </trkpt>
      <trkpt lat="47.27758" lon="-2.35654">
        <ele>22.39999961853</ele>
        <time>2019-11-17T11:05:40.000Z</time>
      </trkpt>
      <trkpt lat="47.27721" lon="-2.357">
        <ele>22.39999961853</ele>
        <time>2019-11-17T11:05:48.000Z</time>
      </trkpt>
      <trkpt lat="47.27694" lon="-2.35727">
        <ele>22.39999961853</ele>
        <time>2019-11-17T11:05:53.000Z</time>
      </trkpt>
      <trkpt lat="47.27689" lon="-2.35734">
        <ele>21.799999237061</ele>
        <time>2019-11-17T11:05:54.000Z</time>
      </trkpt>
      <trkpt lat="47.27685" lon="-2.35741">
        <ele>21.39999961853</ele>
        <time>2019-11-17T11:05:55.000Z</time>
      </trkpt>
      <trkpt lat="47.2768" lon="-2.35746">
        <ele>21</ele>
        <time>2019-11-17T11:05:56.000Z</time>
      </trkpt>
      <trkpt lat="47.27675" lon="-2.35747">
        <ele>20.60000038147</ele>
        <time>2019-11-17T11:05:57.000Z</time>
      </trkpt>
      <trkpt lat="47.2767" lon="-2.35744">
        <ele>20</ele>
        <time>2019-11-17T11:05:58.000Z</time>
      </trkpt>
      <trkpt lat="47.27666" lon="-2.35739">
        <ele>20</ele>
        <time>2019-11-17T11:05:59.000Z</time>
      </trkpt>
      <trkpt lat="47.27645" lon="-2.35722">
        <ele>20</ele>
        <time>2019-11-17T11:06:03.000Z</time>
      </trkpt>
      <trkpt lat="47.27638" lon="-2.3572">
        <ele>20</ele>
        <time>2019-11-17T11:06:04.000Z</time>
      </trkpt>
      <trkpt lat="47.27631" lon="-2.35718">
        <ele>19.60000038147</ele>
        <time>2019-11-17T11:06:05.000Z</time>
      </trkpt>
      <trkpt lat="47.27625" lon="-2.35716">
        <ele>19.200000762939</ele>
        <time>2019-11-17T11:06:06.000Z</time>
      </trkpt>
      <trkpt lat="47.27618" lon="-2.35714">
        <ele>18.799999237061</ele>
        <time>2019-11-17T11:06:07.000Z</time>
      </trkpt>
      <trkpt lat="47.27611" lon="-2.35712">
        <ele>18.39999961853</ele>
        <time>2019-11-17T11:06:08.000Z</time>
      </trkpt>
      <trkpt lat="47.27604" lon="-2.3571">
        <ele>18</ele>
        <time>2019-11-17T11:06:09.000Z</time>
      </trkpt>
      <trkpt lat="47.27565" lon="-2.35701">
        <ele>18</ele>
        <time>2019-11-17T11:06:15.000Z</time>
      </trkpt>
      <trkpt lat="47.2754" lon="-2.35694">
        <ele>17.60000038147</ele>
        <time>2019-11-17T11:06:19.000Z</time>
      </trkpt>
      <trkpt lat="47.27534" lon="-2.35693">
        <ele>17</ele>
        <time>2019-11-17T11:06:20.000Z</time>
      </trkpt>
      <trkpt lat="47.27528" lon="-2.35691">
        <ele>16.60000038147</ele>
        <time>2019-11-17T11:06:21.000Z</time>
      </trkpt>
      <trkpt lat="47.27522" lon="-2.3569">
        <ele>16.200000762939</ele>
        <time>2019-11-17T11:06:22.000Z</time>
      </trkpt>
      <trkpt lat="47.27516" lon="-2.35689">
        <ele>15.800000190735</ele>
        <time>2019-11-17T11:06:23.000Z</time>
      </trkpt>
      <trkpt lat="47.27479" lon="-2.3568">
        <ele>15.800000190735</ele>
        <time>2019-11-17T11:06:29.000Z</time>
      </trkpt>
      <trkpt lat="47.27466" lon="-2.35678">
        <ele>15.39999961853</ele>
        <time>2019-11-17T11:06:31.000Z</time>
      </trkpt>
      <trkpt lat="47.2746" lon="-2.35677">
        <ele>15</ele>
        <time>2019-11-17T11:06:32.000Z</time>
      </trkpt>
      <trkpt lat="47.27454" lon="-2.35676">
        <ele>14.60000038147</ele>
        <time>2019-11-17T11:06:33.000Z</time>
      </trkpt>
      <trkpt lat="47.27449" lon="-2.35675">
        <ele>14.199999809265</ele>
        <time>2019-11-17T11:06:34.000Z</time>
      </trkpt>
      <trkpt lat="47.27443" lon="-2.35673">
        <ele>13.800000190735</ele>
        <time>2019-11-17T11:06:35.000Z</time>
      </trkpt>
      <trkpt lat="47.27438" lon="-2.35672">
        <ele>13.800000190735</ele>
        <time>2019-11-17T11:06:36.000Z</time>
      </trkpt>
      <trkpt lat="47.27422" lon="-2.35669">
        <ele>13.800000190735</ele>
        <time>2019-11-17T11:06:39.000Z</time>
      </trkpt>
      <trkpt lat="47.27411" lon="-2.35671">
        <ele>13.800000190735</ele>
        <time>2019-11-17T11:06:41.000Z</time>
      </trkpt>
      <trkpt lat="47.27385" lon="-2.35684">
        <ele>13.800000190735</ele>
        <time>2019-11-17T11:06:45.000Z</time>
      </trkpt>
      <trkpt lat="47.27357" lon="-2.35705">
        <ele>13.800000190735</ele>
        <time>2019-11-17T11:06:50.000Z</time>
      </trkpt>
      <trkpt lat="47.27351" lon="-2.35709">
        <ele>13.800000190735</ele>
        <time>2019-11-17T11:06:51.000Z</time>
      </trkpt>
      <trkpt lat="47.27338" lon="-2.35721">
        <ele>13.800000190735</ele>
        <time>2019-11-17T11:06:54.000Z</time>
      </trkpt>
      <trkpt lat="47.27331" lon="-2.3573">
        <ele>13.800000190735</ele>
        <time>2019-11-17T11:06:56.000Z</time>
      </trkpt>
      <trkpt lat="47.2732" lon="-2.35743">
        <ele>13.800000190735</ele>
        <time>2019-11-17T11:07:00.000Z</time>
      </trkpt>
      <trkpt lat="47.27317" lon="-2.35744">
        <ele>13.800000190735</ele>
        <time>2019-11-17T11:07:01.000Z</time>
      </trkpt>
      <trkpt lat="47.27307" lon="-2.35734">
        <ele>13.800000190735</ele>
        <time>2019-11-17T11:07:04.000Z</time>
      </trkpt>
      <trkpt lat="47.27301" lon="-2.35715">
        <ele>13.800000190735</ele>
        <time>2019-11-17T11:07:07.000Z</time>
      </trkpt>
      <trkpt lat="47.27299" lon="-2.35709">
        <ele>13.800000190735</ele>
        <time>2019-11-17T11:07:08.000Z</time>
      </trkpt>
      <trkpt lat="47.27296" lon="-2.35703">
        <ele>13.800000190735</ele>
        <time>2019-11-17T11:07:09.000Z</time>
      </trkpt>
      <trkpt lat="47.27275" lon="-2.35656">
        <ele>13.800000190735</ele>
        <time>2019-11-17T11:07:17.000Z</time>
      </trkpt>
      <trkpt lat="47.27256" lon="-2.35614">
        <ele>13.800000190735</ele>
        <time>2019-11-17T11:07:24.000Z</time>
      </trkpt>
      <trkpt lat="47.27238" lon="-2.35576">
        <ele>13.800000190735</ele>
        <time>2019-11-17T11:07:31.000Z</time>
      </trkpt>
      <trkpt lat="47.27227" lon="-2.35552">
        <ele>13.800000190735</ele>
        <time>2019-11-17T11:07:35.000Z</time>
      </trkpt>
      <trkpt lat="47.27218" lon="-2.35534">
        <ele>13.800000190735</ele>
        <time>2019-11-17T11:07:38.000Z</time>
      </trkpt>
      <trkpt lat="47.27202" lon="-2.35495">
        <ele>13.800000190735</ele>
        <time>2019-11-17T11:07:45.000Z</time>
      </trkpt>
      <trkpt lat="47.27185" lon="-2.35462">
        <ele>13.800000190735</ele>
        <time>2019-11-17T11:07:51.000Z</time>
      </trkpt>
      <trkpt lat="47.27158" lon="-2.35412">
        <ele>13.800000190735</ele>
        <time>2019-11-17T11:07:59.000Z</time>
      </trkpt>
      <trkpt lat="47.27133" lon="-2.3537">
        <ele>13.800000190735</ele>
        <time>2019-11-17T11:08:06.000Z</time>
      </trkpt>
      <trkpt lat="47.27102" lon="-2.35319">
        <ele>13.800000190735</ele>
        <time>2019-11-17T11:08:14.000Z</time>
      </trkpt>
      <trkpt lat="47.27088" lon="-2.35296">
        <ele>13.800000190735</ele>
        <time>2019-11-17T11:08:18.000Z</time>
      </trkpt>
      <trkpt lat="47.27081" lon="-2.35286">
        <ele>13.800000190735</ele>
        <time>2019-11-17T11:08:20.000Z</time>
      </trkpt>
      <trkpt lat="47.27055" lon="-2.35246">
        <ele>13.800000190735</ele>
        <time>2019-11-17T11:08:27.000Z</time>
      </trkpt>
      <trkpt lat="47.27027" lon="-2.35201">
        <ele>13.800000190735</ele>
        <time>2019-11-17T11:08:34.000Z</time>
      </trkpt>
      <trkpt lat="47.26987" lon="-2.35141">
        <ele>13.800000190735</ele>
        <time>2019-11-17T11:08:43.000Z</time>
      </trkpt>
      <trkpt lat="47.26957" lon="-2.35097">
        <ele>13.800000190735</ele>
        <time>2019-11-17T11:08:50.000Z</time>
      </trkpt>
      <trkpt lat="47.2692" lon="-2.3504">
        <ele>13.800000190735</ele>
        <time>2019-11-17T11:08:59.000Z</time>
      </trkpt>
      <trkpt lat="47.26882" lon="-2.34981">
        <ele>13.800000190735</ele>
        <time>2019-11-17T11:09:08.000Z</time>
      </trkpt>
      <trkpt lat="47.26848" lon="-2.34928">
        <ele>13.800000190735</ele>
        <time>2019-11-17T11:09:16.000Z</time>
      </trkpt>
      <trkpt lat="47.26818" lon="-2.34884">
        <ele>13.800000190735</ele>
        <time>2019-11-17T11:09:23.000Z</time>
      </trkpt>
      <trkpt lat="47.26781" lon="-2.34829">
        <ele>13.800000190735</ele>
        <time>2019-11-17T11:09:32.000Z</time>
      </trkpt>
      <trkpt lat="47.26753" lon="-2.34791">
        <ele>13.800000190735</ele>
        <time>2019-11-17T11:09:39.000Z</time>
      </trkpt>
      <trkpt lat="47.26726" lon="-2.3476">
        <ele>13.800000190735</ele>
        <time>2019-11-17T11:09:45.000Z</time>
      </trkpt>
      <trkpt lat="47.26698" lon="-2.34727">
        <ele>13.800000190735</ele>
        <time>2019-11-17T11:09:52.000Z</time>
      </trkpt>
      <trkpt lat="47.26672" lon="-2.34697">
        <ele>13.800000190735</ele>
        <time>2019-11-17T11:09:58.000Z</time>
      </trkpt>
      <trkpt lat="47.26641" lon="-2.34659">
        <ele>13.800000190735</ele>
        <time>2019-11-17T11:10:05.000Z</time>
      </trkpt>
      <trkpt lat="47.2661" lon="-2.34621">
        <ele>13.800000190735</ele>
        <time>2019-11-17T11:10:12.000Z</time>
      </trkpt>
      <trkpt lat="47.26602" lon="-2.34609">
        <ele>13.800000190735</ele>
        <time>2019-11-17T11:10:14.000Z</time>
      </trkpt>
      <trkpt lat="47.26584" lon="-2.34589">
        <ele>13.800000190735</ele>
        <time>2019-11-17T11:10:18.000Z</time>
      </trkpt>
      <trkpt lat="47.26551" lon="-2.34554">
        <ele>13.800000190735</ele>
        <time>2019-11-17T11:10:25.000Z</time>
      </trkpt>
      <trkpt lat="47.2652" lon="-2.34525">
        <ele>13.800000190735</ele>
        <time>2019-11-17T11:10:31.000Z</time>
      </trkpt>
      <trkpt lat="47.26509" lon="-2.34516">
        <ele>13.800000190735</ele>
        <time>2019-11-17T11:10:33.000Z</time>
      </trkpt>
      <trkpt lat="47.26486" lon="-2.345">
        <ele>13.800000190735</ele>
        <time>2019-11-17T11:10:37.000Z</time>
      </trkpt>
      <trkpt lat="47.2644" lon="-2.34468">
        <ele>13.800000190735</ele>
        <time>2019-11-17T11:10:45.000Z</time>
      </trkpt>
      <trkpt lat="47.26396" lon="-2.34433">
        <ele>13.800000190735</ele>
        <time>2019-11-17T11:10:53.000Z</time>
      </trkpt>
      <trkpt lat="47.26354" lon="-2.34397">
        <ele>13.800000190735</ele>
        <time>2019-11-17T11:11:01.000Z</time>
      </trkpt>
      <trkpt lat="47.2634" lon="-2.34384">
        <ele>13.800000190735</ele>
        <time>2019-11-17T11:11:04.000Z</time>
      </trkpt>
      <trkpt lat="47.26329" lon="-2.34382">
        <ele>13.800000190735</ele>
        <time>2019-11-17T11:11:06.000Z</time>
      </trkpt>
      <trkpt lat="47.26324" lon="-2.3438">
        <ele>13.800000190735</ele>
        <time>2019-11-17T11:11:07.000Z</time>
      </trkpt>
      <trkpt lat="47.26316" lon="-2.34371">
        <ele>13.800000190735</ele>
        <time>2019-11-17T11:11:09.000Z</time>
      </trkpt>
      <trkpt lat="47.263" lon="-2.34347">
        <ele>13.800000190735</ele>
        <time>2019-11-17T11:11:13.000Z</time>
      </trkpt>
      <trkpt lat="47.26295" lon="-2.34342">
        <ele>13.800000190735</ele>
        <time>2019-11-17T11:11:14.000Z</time>
      </trkpt>
      <trkpt lat="47.26254" lon="-2.34299">
        <ele>13.800000190735</ele>
        <time>2019-11-17T11:11:22.000Z</time>
      </trkpt>
      <trkpt lat="47.26224" lon="-2.34265">
        <ele>13.800000190735</ele>
        <time>2019-11-17T11:11:28.000Z</time>
      </trkpt>
      <trkpt lat="47.26219" lon="-2.3426">
        <ele>13.800000190735</ele>
        <time>2019-11-17T11:11:29.000Z</time>
      </trkpt>
      <trkpt lat="47.2618" lon="-2.34218">
        <ele>13.800000190735</ele>
        <time>2019-11-17T11:11:37.000Z</time>
      </trkpt>
      <trkpt lat="47.26151" lon="-2.34189">
        <ele>13.800000190735</ele>
        <time>2019-11-17T11:11:43.000Z</time>
      </trkpt>
      <trkpt lat="47.2614" lon="-2.34184">
        <ele>13.800000190735</ele>
        <time>2019-11-17T11:11:45.000Z</time>
      </trkpt>
      <trkpt lat="47.26125" lon="-2.3417">
        <ele>13.800000190735</ele>
        <time>2019-11-17T11:11:48.000Z</time>
      </trkpt>
      <trkpt lat="47.26109" lon="-2.34158">
        <ele>13.800000190735</ele>
        <time>2019-11-17T11:11:51.000Z</time>
      </trkpt>
      <trkpt lat="47.26103" lon="-2.34156">
        <ele>13.800000190735</ele>
        <time>2019-11-17T11:11:52.000Z</time>
      </trkpt>
      <trkpt lat="47.26063" lon="-2.34134">
        <ele>13.800000190735</ele>
        <time>2019-11-17T11:11:59.000Z</time>
      </trkpt>
      <trkpt lat="47.26016" lon="-2.34112">
        <ele>13.800000190735</ele>
        <time>2019-11-17T11:12:07.000Z</time>
      </trkpt>
      <trkpt lat="47.2597" lon="-2.3409">
        <ele>13.800000190735</ele>
        <time>2019-11-17T11:12:15.000Z</time>
      </trkpt>
      <trkpt lat="47.25931" lon="-2.34074">
        <ele>13.800000190735</ele>
        <time>2019-11-17T11:12:22.000Z</time>
      </trkpt>
      <trkpt lat="47.25926" lon="-2.34073">
        <ele>13.800000190735</ele>
        <time>2019-11-17T11:12:23.000Z</time>
      </trkpt>
      <trkpt lat="47.25914" lon="-2.34077">
        <ele>13.800000190735</ele>
        <time>2019-11-17T11:12:25.000Z</time>
      </trkpt>
      <trkpt lat="47.259" lon="-2.34096">
        <ele>13.800000190735</ele>
        <time>2019-11-17T11:12:28.000Z</time>
      </trkpt>
      <trkpt lat="47.25888" lon="-2.34126">
        <ele>13.800000190735</ele>
        <time>2019-11-17T11:12:32.000Z</time>
      </trkpt>
      <trkpt lat="47.25885" lon="-2.34133">
        <ele>13.800000190735</ele>
        <time>2019-11-17T11:12:33.000Z</time>
      </trkpt>
      <trkpt lat="47.25877" lon="-2.34154">
        <ele>13.800000190735</ele>
        <time>2019-11-17T11:12:36.000Z</time>
      </trkpt>
      <trkpt lat="47.25871" lon="-2.34164">
        <ele>13.800000190735</ele>
        <time>2019-11-17T11:12:38.000Z</time>
      </trkpt>
      <trkpt lat="47.25867" lon="-2.34164">
        <ele>13.199999809265</ele>
        <time>2019-11-17T11:12:39.000Z</time>
      </trkpt>
      <trkpt lat="47.25863" lon="-2.34163">
        <ele>12.800000190735</ele>
        <time>2019-11-17T11:12:40.000Z</time>
      </trkpt>
      <trkpt lat="47.2586" lon="-2.34162">
        <ele>12.39999961853</ele>
        <time>2019-11-17T11:12:41.000Z</time>
      </trkpt>
      <trkpt lat="47.25857" lon="-2.3416">
        <ele>12</ele>
        <time>2019-11-17T11:12:42.000Z</time>
      </trkpt>
      <trkpt lat="47.25854" lon="-2.34159">
        <ele>11.60000038147</ele>
        <time>2019-11-17T11:12:43.000Z</time>
      </trkpt>
      <trkpt lat="47.25845" lon="-2.34156">
        <ele>11.60000038147</ele>
        <time>2019-11-17T11:12:46.000Z</time>
      </trkpt>
      <trkpt lat="47.25839" lon="-2.34155">
        <ele>11.60000038147</ele>
        <time>2019-11-17T11:12:48.000Z</time>
      </trkpt>
      <trkpt lat="47.25836" lon="-2.34164">
        <ele>11.60000038147</ele>
        <time>2019-11-17T11:12:50.000Z</time>
      </trkpt>
      <trkpt lat="47.25827" lon="-2.34177">
        <ele>11.60000038147</ele>
        <time>2019-11-17T11:12:54.000Z</time>
      </trkpt>
      <trkpt lat="47.25813" lon="-2.34175">
        <ele>12</ele>
        <time>2019-11-17T11:12:57.000Z</time>
      </trkpt>
      <trkpt lat="47.25808" lon="-2.34175">
        <ele>12.39999961853</ele>
        <time>2019-11-17T11:12:58.000Z</time>
      </trkpt>
      <trkpt lat="47.25804" lon="-2.34175">
        <ele>12.800000190735</ele>
        <time>2019-11-17T11:12:59.000Z</time>
      </trkpt>
      <trkpt lat="47.25798" lon="-2.34175">
        <ele>13.199999809265</ele>
        <time>2019-11-17T11:13:00.000Z</time>
      </trkpt>
      <trkpt lat="47.25793" lon="-2.34175">
        <ele>13.60000038147</ele>
        <time>2019-11-17T11:13:01.000Z</time>
      </trkpt>
      <trkpt lat="47.25782" lon="-2.34176">
        <ele>13.60000038147</ele>
        <time>2019-11-17T11:13:03.000Z</time>
      </trkpt>
      <trkpt lat="47.25777" lon="-2.34177">
        <ele>13.60000038147</ele>
        <time>2019-11-17T11:13:04.000Z</time>
      </trkpt>
      <trkpt lat="47.25771" lon="-2.34178">
        <ele>13.60000038147</ele>
        <time>2019-11-17T11:13:05.000Z</time>
      </trkpt>
      <trkpt lat="47.25753" lon="-2.34181">
        <ele>13.60000038147</ele>
        <time>2019-11-17T11:13:08.000Z</time>
      </trkpt>
      <trkpt lat="47.25747" lon="-2.34182">
        <ele>13.60000038147</ele>
        <time>2019-11-17T11:13:09.000Z</time>
      </trkpt>
      <trkpt lat="47.25729" lon="-2.34183">
        <ele>13.60000038147</ele>
        <time>2019-11-17T11:13:12.000Z</time>
      </trkpt>
      <trkpt lat="47.25724" lon="-2.34184">
        <ele>13.60000038147</ele>
        <time>2019-11-17T11:13:13.000Z</time>
      </trkpt>
      <trkpt lat="47.25692" lon="-2.34189">
        <ele>13.60000038147</ele>
        <time>2019-11-17T11:13:19.000Z</time>
      </trkpt>
      <trkpt lat="47.25678" lon="-2.3419">
        <ele>13.60000038147</ele>
        <time>2019-11-17T11:13:22.000Z</time>
      </trkpt>
      <trkpt lat="47.25669" lon="-2.34183">
        <ele>13.60000038147</ele>
        <time>2019-11-17T11:13:24.000Z</time>
      </trkpt>
      <trkpt lat="47.25654" lon="-2.34154">
        <ele>13.60000038147</ele>
        <time>2019-11-17T11:13:29.000Z</time>
      </trkpt>
      <trkpt lat="47.25642" lon="-2.34113">
        <ele>13.60000038147</ele>
        <time>2019-11-17T11:13:35.000Z</time>
      </trkpt>
      <trkpt lat="47.2564" lon="-2.34084">
        <ele>13.60000038147</ele>
        <time>2019-11-17T11:13:39.000Z</time>
      </trkpt>
      <trkpt lat="47.2564" lon="-2.34076">
        <ele>13.60000038147</ele>
        <time>2019-11-17T11:13:40.000Z</time>
      </trkpt>
      <trkpt lat="47.25642" lon="-2.34061">
        <ele>13.60000038147</ele>
        <time>2019-11-17T11:13:42.000Z</time>
      </trkpt>
      <trkpt lat="47.25645" lon="-2.34032">
        <ele>13.60000038147</ele>
        <time>2019-11-17T11:13:46.000Z</time>
      </trkpt>
      <trkpt lat="47.25651" lon="-2.33996">
        <ele>13.60000038147</ele>
        <time>2019-11-17T11:13:51.000Z</time>
      </trkpt>
      <trkpt lat="47.25653" lon="-2.33988">
        <ele>13.60000038147</ele>
        <time>2019-11-17T11:13:52.000Z</time>
      </trkpt>
      <trkpt lat="47.25659" lon="-2.3395">
        <ele>13.60000038147</ele>
        <time>2019-11-17T11:13:57.000Z</time>
      </trkpt>
      <trkpt lat="47.25658" lon="-2.33935">
        <ele>13.60000038147</ele>
        <time>2019-11-17T11:13:59.000Z</time>
      </trkpt>
      <trkpt lat="47.25656" lon="-2.33919">
        <ele>13.60000038147</ele>
        <time>2019-11-17T11:14:01.000Z</time>
      </trkpt>
      <trkpt lat="47.25648" lon="-2.33872">
        <ele>13.60000038147</ele>
        <time>2019-11-17T11:14:07.000Z</time>
      </trkpt>
      <trkpt lat="47.2564" lon="-2.33833">
        <ele>13.60000038147</ele>
        <time>2019-11-17T11:14:12.000Z</time>
      </trkpt>
      <trkpt lat="47.25639" lon="-2.33826">
        <ele>13.60000038147</ele>
        <time>2019-11-17T11:14:13.000Z</time>
      </trkpt>
      <trkpt lat="47.25632" lon="-2.33788">
        <ele>13.60000038147</ele>
        <time>2019-11-17T11:14:18.000Z</time>
      </trkpt>
      <trkpt lat="47.2563" lon="-2.33782">
        <ele>13.60000038147</ele>
        <time>2019-11-17T11:14:19.000Z</time>
      </trkpt>
      <trkpt lat="47.25622" lon="-2.33767">
        <ele>13.60000038147</ele>
        <time>2019-11-17T11:14:22.000Z</time>
      </trkpt>
      <trkpt lat="47.25616" lon="-2.33761">
        <ele>13.60000038147</ele>
        <time>2019-11-17T11:14:24.000Z</time>
      </trkpt>
      <trkpt lat="47.25596" lon="-2.33756">
        <ele>13.60000038147</ele>
        <time>2019-11-17T11:14:28.000Z</time>
      </trkpt>
      <trkpt lat="47.25585" lon="-2.33757">
        <ele>13.60000038147</ele>
        <time>2019-11-17T11:14:30.000Z</time>
      </trkpt>
      <trkpt lat="47.25567" lon="-2.33759">
        <ele>13.60000038147</ele>
        <time>2019-11-17T11:14:33.000Z</time>
      </trkpt>
      <trkpt lat="47.25525" lon="-2.3376">
        <ele>13.60000038147</ele>
        <time>2019-11-17T11:14:40.000Z</time>
      </trkpt>
      <trkpt lat="47.25488" lon="-2.33759">
        <ele>13.60000038147</ele>
        <time>2019-11-17T11:14:46.000Z</time>
      </trkpt>
      <trkpt lat="47.25482" lon="-2.33758">
        <ele>13.60000038147</ele>
        <time>2019-11-17T11:14:47.000Z</time>
      </trkpt>
      <trkpt lat="47.25467" lon="-2.33749">
        <ele>13.60000038147</ele>
        <time>2019-11-17T11:14:50.000Z</time>
      </trkpt>
      <trkpt lat="47.25458" lon="-2.33724">
        <ele>13.60000038147</ele>
        <time>2019-11-17T11:14:53.000Z</time>
      </trkpt>
      <trkpt lat="47.25453" lon="-2.33697">
        <ele>13.60000038147</ele>
        <time>2019-11-17T11:14:56.000Z</time>
      </trkpt>
      <trkpt lat="47.2545" lon="-2.3368">
        <ele>13.60000038147</ele>
        <time>2019-11-17T11:14:58.000Z</time>
      </trkpt>
      <trkpt lat="47.25446" lon="-2.33651">
        <ele>13.60000038147</ele>
        <time>2019-11-17T11:15:02.000Z</time>
      </trkpt>
      <trkpt lat="47.25444" lon="-2.33638">
        <ele>13.60000038147</ele>
        <time>2019-11-17T11:15:04.000Z</time>
      </trkpt>
      <trkpt lat="47.25443" lon="-2.33617">
        <ele>13.60000038147</ele>
        <time>2019-11-17T11:15:07.000Z</time>
      </trkpt>
      <trkpt lat="47.25442" lon="-2.33606">
        <ele>13.60000038147</ele>
        <time>2019-11-17T11:15:09.000Z</time>
      </trkpt>
      <trkpt lat="47.25444" lon="-2.33584">
        <ele>13.60000038147</ele>
        <time>2019-11-17T11:15:13.000Z</time>
      </trkpt>
      <trkpt lat="47.25447" lon="-2.33583">
        <ele>13.60000038147</ele>
        <time>2019-11-17T11:15:14.000Z</time>
      </trkpt>
      <trkpt lat="47.25457" lon="-2.33573">
        <ele>13.60000038147</ele>
        <time>2019-11-17T11:15:18.000Z</time>
      </trkpt>
      <trkpt lat="47.25454" lon="-2.33557">
        <ele>13.60000038147</ele>
        <time>2019-11-17T11:15:21.000Z</time>
      </trkpt>
      <trkpt lat="47.25453" lon="-2.33551">
        <ele>13.60000038147</ele>
        <time>2019-11-17T11:15:22.000Z</time>
      </trkpt>
      <trkpt lat="47.25447" lon="-2.33526">
        <ele>13.60000038147</ele>
        <time>2019-11-17T11:15:27.000Z</time>
      </trkpt>
      <trkpt lat="47.2544" lon="-2.33489">
        <ele>13.60000038147</ele>
        <time>2019-11-17T11:15:33.000Z</time>
      </trkpt>
      <trkpt lat="47.25438" lon="-2.33483">
        <ele>13.60000038147</ele>
        <time>2019-11-17T11:15:34.000Z</time>
      </trkpt>
      <trkpt lat="47.25433" lon="-2.33462">
        <ele>13.60000038147</ele>
        <time>2019-11-17T11:15:37.000Z</time>
      </trkpt>
      <trkpt lat="47.25432" lon="-2.33438">
        <ele>13.60000038147</ele>
        <time>2019-11-17T11:15:40.000Z</time>
      </trkpt>
      <trkpt lat="47.25432" lon="-2.33431">
        <ele>14</ele>
        <time>2019-11-17T11:15:41.000Z</time>
      </trkpt>
      <trkpt lat="47.25432" lon="-2.33423">
        <ele>14.39999961853</ele>
        <time>2019-11-17T11:15:42.000Z</time>
      </trkpt>
      <trkpt lat="47.25432" lon="-2.33415">
        <ele>14.800000190735</ele>
        <time>2019-11-17T11:15:43.000Z</time>
      </trkpt>
      <trkpt lat="47.25432" lon="-2.33408">
        <ele>15.199999809265</ele>
        <time>2019-11-17T11:15:44.000Z</time>
      </trkpt>
      <trkpt lat="47.25431" lon="-2.334">
        <ele>15.800000190735</ele>
        <time>2019-11-17T11:15:45.000Z</time>
      </trkpt>
      <trkpt lat="47.2543" lon="-2.33392">
        <ele>15.800000190735</ele>
        <time>2019-11-17T11:15:46.000Z</time>
      </trkpt>
      <trkpt lat="47.25431" lon="-2.33348">
        <ele>15.800000190735</ele>
        <time>2019-11-17T11:15:52.000Z</time>
      </trkpt>
      <trkpt lat="47.25432" lon="-2.33341">
        <ele>15.800000190735</ele>
        <time>2019-11-17T11:15:53.000Z</time>
      </trkpt>
      <trkpt lat="47.25439" lon="-2.33323">
        <ele>15.800000190735</ele>
        <time>2019-11-17T11:15:56.000Z</time>
      </trkpt>
      <trkpt lat="47.25448" lon="-2.33296">
        <ele>15.800000190735</ele>
        <time>2019-11-17T11:16:00.000Z</time>
      </trkpt>
      <trkpt lat="47.25447" lon="-2.33282">
        <ele>15.800000190735</ele>
        <time>2019-11-17T11:16:02.000Z</time>
      </trkpt>
      <trkpt lat="47.25441" lon="-2.33263">
        <ele>15.800000190735</ele>
        <time>2019-11-17T11:16:05.000Z</time>
      </trkpt>
      <trkpt lat="47.25439" lon="-2.33256">
        <ele>15.800000190735</ele>
        <time>2019-11-17T11:16:06.000Z</time>
      </trkpt>
      <trkpt lat="47.2543" lon="-2.33236">
        <ele>15.800000190735</ele>
        <time>2019-11-17T11:16:09.000Z</time>
      </trkpt>
      <trkpt lat="47.25421" lon="-2.33217">
        <ele>15.800000190735</ele>
        <time>2019-11-17T11:16:12.000Z</time>
      </trkpt>
      <trkpt lat="47.25399" lon="-2.33165">
        <ele>15.800000190735</ele>
        <time>2019-11-17T11:16:20.000Z</time>
      </trkpt>
      <trkpt lat="47.2539" lon="-2.3315">
        <ele>15.800000190735</ele>
        <time>2019-11-17T11:16:23.000Z</time>
      </trkpt>
      <trkpt lat="47.25384" lon="-2.33145">
        <ele>15.800000190735</ele>
        <time>2019-11-17T11:16:25.000Z</time>
      </trkpt>
      <trkpt lat="47.25378" lon="-2.33134">
        <ele>15.800000190735</ele>
        <time>2019-11-17T11:16:28.000Z</time>
      </trkpt>
      <trkpt lat="47.25375" lon="-2.33124">
        <ele>15.800000190735</ele>
        <time>2019-11-17T11:16:33.000Z</time>
      </trkpt>
      <trkpt lat="47.25375" lon="-2.33124">
        <ele>15.800000190735</ele>
        <time>2019-11-17T11:16:34.000Z</time>
      </trkpt>
      <trkpt lat="47.25375" lon="-2.33121">
        <ele>15.800000190735</ele>
        <time>2019-11-17T11:26:13.000Z</time>
      </trkpt>
      <trkpt lat="47.25375" lon="-2.33118">
        <ele>15.800000190735</ele>
        <time>2019-11-17T11:26:15.000Z</time>
      </trkpt>
      <trkpt lat="47.25371" lon="-2.33101">
        <ele>15.800000190735</ele>
        <time>2019-11-17T11:26:20.000Z</time>
      </trkpt>
      <trkpt lat="47.25365" lon="-2.33091">
        <ele>15.800000190735</ele>
        <time>2019-11-17T11:26:22.000Z</time>
      </trkpt>
      <trkpt lat="47.25363" lon="-2.33085">
        <ele>15.800000190735</ele>
        <time>2019-11-17T11:26:23.000Z</time>
      </trkpt>
      <trkpt lat="47.25349" lon="-2.33045">
        <ele>15.800000190735</ele>
        <time>2019-11-17T11:26:30.000Z</time>
      </trkpt>
      <trkpt lat="47.25338" lon="-2.33012">
        <ele>15.800000190735</ele>
        <time>2019-11-17T11:26:36.000Z</time>
      </trkpt>
      <trkpt lat="47.25325" lon="-2.32978">
        <ele>15.800000190735</ele>
        <time>2019-11-17T11:26:42.000Z</time>
      </trkpt>
      <trkpt lat="47.2532" lon="-2.32967">
        <ele>15.800000190735</ele>
        <time>2019-11-17T11:26:44.000Z</time>
      </trkpt>
      <trkpt lat="47.25308" lon="-2.32932">
        <ele>15.800000190735</ele>
        <time>2019-11-17T11:26:50.000Z</time>
      </trkpt>
      <trkpt lat="47.25309" lon="-2.32926">
        <ele>15.800000190735</ele>
        <time>2019-11-17T11:26:51.000Z</time>
      </trkpt>
      <trkpt lat="47.25319" lon="-2.32911">
        <ele>15.800000190735</ele>
        <time>2019-11-17T11:26:54.000Z</time>
      </trkpt>
      <trkpt lat="47.25327" lon="-2.32903">
        <ele>15.800000190735</ele>
        <time>2019-11-17T11:26:56.000Z</time>
      </trkpt>
      <trkpt lat="47.25349" lon="-2.32883">
        <ele>15.800000190735</ele>
        <time>2019-11-17T11:27:01.000Z</time>
      </trkpt>
      <trkpt lat="47.25382" lon="-2.32846">
        <ele>15.800000190735</ele>
        <time>2019-11-17T11:27:09.000Z</time>
      </trkpt>
      <trkpt lat="47.2541" lon="-2.32814">
        <ele>16.200000762939</ele>
        <time>2019-11-17T11:27:16.000Z</time>
      </trkpt>
      <trkpt lat="47.25414" lon="-2.32809">
        <ele>16.60000038147</ele>
        <time>2019-11-17T11:27:17.000Z</time>
      </trkpt>
      <trkpt lat="47.25417" lon="-2.32804">
        <ele>17</ele>
        <time>2019-11-17T11:27:18.000Z</time>
      </trkpt>
      <trkpt lat="47.25419" lon="-2.328">
        <ele>17.39999961853</ele>
        <time>2019-11-17T11:27:19.000Z</time>
      </trkpt>
      <trkpt lat="47.25422" lon="-2.32795">
        <ele>17.799999237061</ele>
        <time>2019-11-17T11:27:20.000Z</time>
      </trkpt>
      <trkpt lat="47.25424" lon="-2.3279">
        <ele>17.799999237061</ele>
        <time>2019-11-17T11:27:21.000Z</time>
      </trkpt>
      <trkpt lat="47.25426" lon="-2.32785">
        <ele>17.799999237061</ele>
        <time>2019-11-17T11:27:22.000Z</time>
      </trkpt>
      <trkpt lat="47.25434" lon="-2.32765">
        <ele>17.799999237061</ele>
        <time>2019-11-17T11:27:26.000Z</time>
      </trkpt>
      <trkpt lat="47.25447" lon="-2.32745">
        <ele>17.799999237061</ele>
        <time>2019-11-17T11:27:30.000Z</time>
      </trkpt>
      <trkpt lat="47.25451" lon="-2.3274">
        <ele>17.799999237061</ele>
        <time>2019-11-17T11:27:31.000Z</time>
      </trkpt>
      <trkpt lat="47.25466" lon="-2.32721">
        <ele>17.799999237061</ele>
        <time>2019-11-17T11:27:35.000Z</time>
      </trkpt>
      <trkpt lat="47.25483" lon="-2.32697">
        <ele>17.799999237061</ele>
        <time>2019-11-17T11:27:40.000Z</time>
      </trkpt>
      <trkpt lat="47.25485" lon="-2.3269">
        <ele>17.799999237061</ele>
        <time>2019-11-17T11:27:41.000Z</time>
      </trkpt>
      <trkpt lat="47.25488" lon="-2.32669">
        <ele>17.799999237061</ele>
        <time>2019-11-17T11:27:44.000Z</time>
      </trkpt>
      <trkpt lat="47.25487" lon="-2.32654">
        <ele>18.200000762939</ele>
        <time>2019-11-17T11:27:46.000Z</time>
      </trkpt>
      <trkpt lat="47.25486" lon="-2.32647">
        <ele>18.60000038147</ele>
        <time>2019-11-17T11:27:47.000Z</time>
      </trkpt>
      <trkpt lat="47.25484" lon="-2.3264">
        <ele>19</ele>
        <time>2019-11-17T11:27:48.000Z</time>
      </trkpt>
      <trkpt lat="47.25483" lon="-2.32632">
        <ele>19.39999961853</ele>
        <time>2019-11-17T11:27:49.000Z</time>
      </trkpt>
      <trkpt lat="47.25482" lon="-2.32625">
        <ele>19.799999237061</ele>
        <time>2019-11-17T11:27:50.000Z</time>
      </trkpt>
      <trkpt lat="47.25481" lon="-2.32618">
        <ele>19.799999237061</ele>
        <time>2019-11-17T11:27:51.000Z</time>
      </trkpt>
      <trkpt lat="47.25478" lon="-2.32604">
        <ele>19.799999237061</ele>
        <time>2019-11-17T11:27:53.000Z</time>
      </trkpt>
      <trkpt lat="47.25477" lon="-2.3259">
        <ele>19.799999237061</ele>
        <time>2019-11-17T11:27:55.000Z</time>
      </trkpt>
      <trkpt lat="47.25478" lon="-2.3257">
        <ele>19.799999237061</ele>
        <time>2019-11-17T11:27:58.000Z</time>
      </trkpt>
      <trkpt lat="47.25487" lon="-2.32555">
        <ele>19.799999237061</ele>
        <time>2019-11-17T11:28:01.000Z</time>
      </trkpt>
      <trkpt lat="47.25491" lon="-2.32551">
        <ele>19.799999237061</ele>
        <time>2019-11-17T11:28:02.000Z</time>
      </trkpt>
      <trkpt lat="47.25499" lon="-2.32543">
        <ele>19.799999237061</ele>
        <time>2019-11-17T11:28:04.000Z</time>
      </trkpt>
      <trkpt lat="47.25511" lon="-2.3253">
        <ele>19.799999237061</ele>
        <time>2019-11-17T11:28:07.000Z</time>
      </trkpt>
      <trkpt lat="47.25545" lon="-2.32498">
        <ele>19.799999237061</ele>
        <time>2019-11-17T11:28:14.000Z</time>
      </trkpt>
      <trkpt lat="47.25573" lon="-2.32473">
        <ele>19.39999961853</ele>
        <time>2019-11-17T11:28:19.000Z</time>
      </trkpt>
      <trkpt lat="47.25578" lon="-2.32468">
        <ele>18.799999237061</ele>
        <time>2019-11-17T11:28:20.000Z</time>
      </trkpt>
      <trkpt lat="47.25583" lon="-2.32462">
        <ele>18.39999961853</ele>
        <time>2019-11-17T11:28:21.000Z</time>
      </trkpt>
      <trkpt lat="47.25588" lon="-2.32456">
        <ele>18</ele>
        <time>2019-11-17T11:28:22.000Z</time>
      </trkpt>
      <trkpt lat="47.25594" lon="-2.3245">
        <ele>17.60000038147</ele>
        <time>2019-11-17T11:28:23.000Z</time>
      </trkpt>
      <trkpt lat="47.2561" lon="-2.3243">
        <ele>17.200000762939</ele>
        <time>2019-11-17T11:28:26.000Z</time>
      </trkpt>
      <trkpt lat="47.25616" lon="-2.32425">
        <ele>16.60000038147</ele>
        <time>2019-11-17T11:28:27.000Z</time>
      </trkpt>
      <trkpt lat="47.25622" lon="-2.32419">
        <ele>16.200000762939</ele>
        <time>2019-11-17T11:28:28.000Z</time>
      </trkpt>
      <trkpt lat="47.25628" lon="-2.32414">
        <ele>15.800000190735</ele>
        <time>2019-11-17T11:28:29.000Z</time>
      </trkpt>
      <trkpt lat="47.25634" lon="-2.32409">
        <ele>15.39999961853</ele>
        <time>2019-11-17T11:28:30.000Z</time>
      </trkpt>
      <trkpt lat="47.25645" lon="-2.32402">
        <ele>15.39999961853</ele>
        <time>2019-11-17T11:28:32.000Z</time>
      </trkpt>
      <trkpt lat="47.25657" lon="-2.32401">
        <ele>14.800000190735</ele>
        <time>2019-11-17T11:28:34.000Z</time>
      </trkpt>
      <trkpt lat="47.25662" lon="-2.32402">
        <ele>14.39999961853</ele>
        <time>2019-11-17T11:28:35.000Z</time>
      </trkpt>
      <trkpt lat="47.25667" lon="-2.32405">
        <ele>14</ele>
        <time>2019-11-17T11:28:36.000Z</time>
      </trkpt>
      <trkpt lat="47.2567" lon="-2.3241">
        <ele>13.60000038147</ele>
        <time>2019-11-17T11:28:37.000Z</time>
      </trkpt>
      <trkpt lat="47.25674" lon="-2.32415">
        <ele>13.199999809265</ele>
        <time>2019-11-17T11:28:38.000Z</time>
      </trkpt>
      <trkpt lat="47.2569" lon="-2.3242">
        <ele>13.199999809265</ele>
        <time>2019-11-17T11:28:41.000Z</time>
      </trkpt>
      <trkpt lat="47.25695" lon="-2.3242">
        <ele>13.199999809265</ele>
        <time>2019-11-17T11:28:42.000Z</time>
      </trkpt>
      <trkpt lat="47.25724" lon="-2.32422">
        <ele>13.199999809265</ele>
        <time>2019-11-17T11:28:47.000Z</time>
      </trkpt>
      <trkpt lat="47.25757" lon="-2.3242">
        <ele>13.199999809265</ele>
        <time>2019-11-17T11:28:53.000Z</time>
      </trkpt>
      <trkpt lat="47.25762" lon="-2.32418">
        <ele>13.199999809265</ele>
        <time>2019-11-17T11:28:54.000Z</time>
      </trkpt>
      <trkpt lat="47.25774" lon="-2.32413">
        <ele>13.199999809265</ele>
        <time>2019-11-17T11:28:57.000Z</time>
      </trkpt>
      <trkpt lat="47.25782" lon="-2.32415">
        <ele>13.199999809265</ele>
        <time>2019-11-17T11:28:59.000Z</time>
      </trkpt>
      <trkpt lat="47.25789" lon="-2.32424">
        <ele>13.199999809265</ele>
        <time>2019-11-17T11:29:01.000Z</time>
      </trkpt>
      <trkpt lat="47.25804" lon="-2.32449">
        <ele>13.199999809265</ele>
        <time>2019-11-17T11:29:05.000Z</time>
      </trkpt>
      <trkpt lat="47.25815" lon="-2.32456">
        <ele>13.199999809265</ele>
        <time>2019-11-17T11:29:07.000Z</time>
      </trkpt>
      <trkpt lat="47.25826" lon="-2.32464">
        <ele>13.199999809265</ele>
        <time>2019-11-17T11:29:09.000Z</time>
      </trkpt>
      <trkpt lat="47.25843" lon="-2.32471">
        <ele>13.199999809265</ele>
        <time>2019-11-17T11:29:12.000Z</time>
      </trkpt>
      <trkpt lat="47.25853" lon="-2.32472">
        <ele>13.199999809265</ele>
        <time>2019-11-17T11:29:14.000Z</time>
      </trkpt>
      <trkpt lat="47.25859" lon="-2.32472">
        <ele>12.800000190735</ele>
        <time>2019-11-17T11:29:15.000Z</time>
      </trkpt>
      <trkpt lat="47.25864" lon="-2.32472">
        <ele>12.39999961853</ele>
        <time>2019-11-17T11:29:16.000Z</time>
      </trkpt>
      <trkpt lat="47.2587" lon="-2.3247">
        <ele>12</ele>
        <time>2019-11-17T11:29:17.000Z</time>
      </trkpt>
      <trkpt lat="47.25875" lon="-2.3247">
        <ele>11.60000038147</ele>
        <time>2019-11-17T11:29:18.000Z</time>
      </trkpt>
      <trkpt lat="47.2588" lon="-2.32469">
        <ele>11.199999809265</ele>
        <time>2019-11-17T11:29:19.000Z</time>
      </trkpt>
      <trkpt lat="47.2589" lon="-2.32464">
        <ele>11.199999809265</ele>
        <time>2019-11-17T11:29:21.000Z</time>
      </trkpt>
      <trkpt lat="47.25899" lon="-2.32455">
        <ele>11.199999809265</ele>
        <time>2019-11-17T11:29:23.000Z</time>
      </trkpt>
      <trkpt lat="47.25912" lon="-2.32442">
        <ele>11.199999809265</ele>
        <time>2019-11-17T11:29:26.000Z</time>
      </trkpt>
      <trkpt lat="47.2593" lon="-2.32422">
        <ele>11.199999809265</ele>
        <time>2019-11-17T11:29:30.000Z</time>
      </trkpt>
      <trkpt lat="47.25961" lon="-2.32379">
        <ele>11.199999809265</ele>
        <time>2019-11-17T11:29:38.000Z</time>
      </trkpt>
      <trkpt lat="47.25994" lon="-2.32336">
        <ele>11.199999809265</ele>
        <time>2019-11-17T11:29:46.000Z</time>
      </trkpt>
      <trkpt lat="47.26023" lon="-2.323">
        <ele>11.199999809265</ele>
        <time>2019-11-17T11:29:53.000Z</time>
      </trkpt>
      <trkpt lat="47.26049" lon="-2.32272">
        <ele>11.199999809265</ele>
        <time>2019-11-17T11:29:59.000Z</time>
      </trkpt>
      <trkpt lat="47.26078" lon="-2.32238">
        <ele>11.199999809265</ele>
        <time>2019-11-17T11:30:06.000Z</time>
      </trkpt>
      <trkpt lat="47.26092" lon="-2.32216">
        <ele>11.199999809265</ele>
        <time>2019-11-17T11:30:10.000Z</time>
      </trkpt>
      <trkpt lat="47.26095" lon="-2.32211">
        <ele>11.199999809265</ele>
        <time>2019-11-17T11:30:11.000Z</time>
      </trkpt>
      <trkpt lat="47.26108" lon="-2.32186">
        <ele>11.199999809265</ele>
        <time>2019-11-17T11:30:15.000Z</time>
      </trkpt>
      <trkpt lat="47.26116" lon="-2.32165">
        <ele>11.199999809265</ele>
        <time>2019-11-17T11:30:18.000Z</time>
      </trkpt>
      <trkpt lat="47.26133" lon="-2.32118">
        <ele>11.199999809265</ele>
        <time>2019-11-17T11:30:25.000Z</time>
      </trkpt>
      <trkpt lat="47.26144" lon="-2.32076">
        <ele>11.199999809265</ele>
        <time>2019-11-17T11:30:31.000Z</time>
      </trkpt>
      <trkpt lat="47.26159" lon="-2.3203">
        <ele>11.199999809265</ele>
        <time>2019-11-17T11:30:38.000Z</time>
      </trkpt>
      <trkpt lat="47.26162" lon="-2.32026">
        <ele>11.199999809265</ele>
        <time>2019-11-17T11:30:39.000Z</time>
      </trkpt>
      <trkpt lat="47.26171" lon="-2.32017">
        <ele>11.199999809265</ele>
        <time>2019-11-17T11:30:42.000Z</time>
      </trkpt>
      <trkpt lat="47.26183" lon="-2.32021">
        <ele>11.199999809265</ele>
        <time>2019-11-17T11:30:45.000Z</time>
      </trkpt>
      <trkpt lat="47.26187" lon="-2.32022">
        <ele>10.800000190735</ele>
        <time>2019-11-17T11:30:47.000Z</time>
      </trkpt>
      <trkpt lat="47.26189" lon="-2.32023">
        <ele>10.39999961853</ele>
        <time>2019-11-17T11:30:48.000Z</time>
      </trkpt>
      <trkpt lat="47.26191" lon="-2.32024">
        <ele>10</ele>
        <time>2019-11-17T11:30:49.000Z</time>
      </trkpt>
      <trkpt lat="47.26193" lon="-2.32024">
        <ele>9.6000003814697</ele>
        <time>2019-11-17T11:30:50.000Z</time>
      </trkpt>
      <trkpt lat="47.26194" lon="-2.32023">
        <ele>9.1999998092651</ele>
        <time>2019-11-17T11:30:51.000Z</time>
      </trkpt>
      <trkpt lat="47.26196" lon="-2.32016">
        <ele>9.1999998092651</ele>
        <time>2019-11-17T11:30:53.000Z</time>
      </trkpt>
      <trkpt lat="47.26197" lon="-2.32011">
        <ele>9.1999998092651</ele>
        <time>2019-11-17T11:30:55.000Z</time>
      </trkpt>
      <trkpt lat="47.262" lon="-2.32006">
        <ele>9.1999998092651</ele>
        <time>2019-11-17T11:30:57.000Z</time>
      </trkpt>
      <trkpt lat="47.26209" lon="-2.31996">
        <ele>9.1999998092651</ele>
        <time>2019-11-17T11:31:02.000Z</time>
      </trkpt>
      <trkpt lat="47.26222" lon="-2.31979">
        <ele>9.1999998092651</ele>
        <time>2019-11-17T11:31:07.000Z</time>
      </trkpt>
      <trkpt lat="47.26238" lon="-2.3196">
        <ele>9.1999998092651</ele>
        <time>2019-11-17T11:31:12.000Z</time>
      </trkpt>
      <trkpt lat="47.26251" lon="-2.3194">
        <ele>9.1999998092651</ele>
        <time>2019-11-17T11:31:17.000Z</time>
      </trkpt>
      <trkpt lat="47.26256" lon="-2.31925">
        <ele>9.1999998092651</ele>
        <time>2019-11-17T11:31:21.000Z</time>
      </trkpt>
      <trkpt lat="47.26266" lon="-2.31909">
        <ele>9.1999998092651</ele>
        <time>2019-11-17T11:31:25.000Z</time>
      </trkpt>
      <trkpt lat="47.26281" lon="-2.31895">
        <ele>9.1999998092651</ele>
        <time>2019-11-17T11:31:30.000Z</time>
      </trkpt>
      <trkpt lat="47.26288" lon="-2.31874">
        <ele>9.1999998092651</ele>
        <time>2019-11-17T11:31:34.000Z</time>
      </trkpt>
      <trkpt lat="47.26298" lon="-2.31836">
        <ele>9.1999998092651</ele>
        <time>2019-11-17T11:31:40.000Z</time>
      </trkpt>
      <trkpt lat="47.26301" lon="-2.31808">
        <ele>9.1999998092651</ele>
        <time>2019-11-17T11:31:45.000Z</time>
      </trkpt>
      <trkpt lat="47.263" lon="-2.31766">
        <ele>9.1999998092651</ele>
        <time>2019-11-17T11:31:52.000Z</time>
      </trkpt>
      <trkpt lat="47.26297" lon="-2.31747">
        <ele>9.1999998092651</ele>
        <time>2019-11-17T11:31:55.000Z</time>
      </trkpt>
      <trkpt lat="47.26296" lon="-2.3174">
        <ele>9.1999998092651</ele>
        <time>2019-11-17T11:31:56.000Z</time>
      </trkpt>
      <trkpt lat="47.26298" lon="-2.31728">
        <ele>9.1999998092651</ele>
        <time>2019-11-17T11:31:58.000Z</time>
      </trkpt>
      <trkpt lat="47.26301" lon="-2.31723">
        <ele>9.1999998092651</ele>
        <time>2019-11-17T11:31:59.000Z</time>
      </trkpt>
      <trkpt lat="47.26314" lon="-2.31718">
        <ele>9.1999998092651</ele>
        <time>2019-11-17T11:32:02.000Z</time>
      </trkpt>
      <trkpt lat="47.26324" lon="-2.31712">
        <ele>10</ele>
        <time>2019-11-17T11:32:05.000Z</time>
      </trkpt>
      <trkpt lat="47.26328" lon="-2.3171">
        <ele>10.39999961853</ele>
        <time>2019-11-17T11:32:06.000Z</time>
      </trkpt>
      <trkpt lat="47.2633" lon="-2.31704">
        <ele>10.800000190735</ele>
        <time>2019-11-17T11:32:07.000Z</time>
      </trkpt>
      <trkpt lat="47.26332" lon="-2.31698">
        <ele>11.199999809265</ele>
        <time>2019-11-17T11:32:08.000Z</time>
      </trkpt>
      <trkpt lat="47.26337" lon="-2.31691">
        <ele>11.199999809265</ele>
        <time>2019-11-17T11:32:10.000Z</time>
      </trkpt>
      <trkpt lat="47.2634" lon="-2.31688">
        <ele>11.199999809265</ele>
        <time>2019-11-17T11:32:11.000Z</time>
      </trkpt>
      <trkpt lat="47.26353" lon="-2.3168">
        <ele>11.60000038147</ele>
        <time>2019-11-17T11:32:16.000Z</time>
      </trkpt>
      <trkpt lat="47.26356" lon="-2.31678">
        <ele>12</ele>
        <time>2019-11-17T11:32:17.000Z</time>
      </trkpt>
      <trkpt lat="47.26359" lon="-2.31676">
        <ele>12.39999961853</ele>
        <time>2019-11-17T11:32:18.000Z</time>
      </trkpt>
      <trkpt lat="47.26361" lon="-2.31674">
        <ele>13</ele>
        <time>2019-11-17T11:32:19.000Z</time>
      </trkpt>
      <trkpt lat="47.26365" lon="-2.31672">
        <ele>13.39999961853</ele>
        <time>2019-11-17T11:32:20.000Z</time>
      </trkpt>
      <trkpt lat="47.26375" lon="-2.3167">
        <ele>13.39999961853</ele>
        <time>2019-11-17T11:32:23.000Z</time>
      </trkpt>
      <trkpt lat="47.26391" lon="-2.3166">
        <ele>13.39999961853</ele>
        <time>2019-11-17T11:32:28.000Z</time>
      </trkpt>
      <trkpt lat="47.26406" lon="-2.31654">
        <ele>13.39999961853</ele>
        <time>2019-11-17T11:32:33.000Z</time>
      </trkpt>
      <trkpt lat="47.26409" lon="-2.31646">
        <ele>13.39999961853</ele>
        <time>2019-11-17T11:32:35.000Z</time>
      </trkpt>
      <trkpt lat="47.26409" lon="-2.31642">
        <ele>13.39999961853</ele>
        <time>2019-11-17T11:32:36.000Z</time>
      </trkpt>
      <trkpt lat="47.26409" lon="-2.31613">
        <ele>13.39999961853</ele>
        <time>2019-11-17T11:32:42.000Z</time>
      </trkpt>
      <trkpt lat="47.2641" lon="-2.31588">
        <ele>13.800000190735</ele>
        <time>2019-11-17T11:32:47.000Z</time>
      </trkpt>
      <trkpt lat="47.2641" lon="-2.31584">
        <ele>14.199999809265</ele>
        <time>2019-11-17T11:32:48.000Z</time>
      </trkpt>
      <trkpt lat="47.2641" lon="-2.31579">
        <ele>14.60000038147</ele>
        <time>2019-11-17T11:32:49.000Z</time>
      </trkpt>
      <trkpt lat="47.2641" lon="-2.31574">
        <ele>15</ele>
        <time>2019-11-17T11:32:50.000Z</time>
      </trkpt>
      <trkpt lat="47.2641" lon="-2.31571">
        <ele>15.39999961853</ele>
        <time>2019-11-17T11:32:51.000Z</time>
      </trkpt>
      <trkpt lat="47.2641" lon="-2.3156">
        <ele>15.39999961853</ele>
        <time>2019-11-17T11:32:54.000Z</time>
      </trkpt>
      <trkpt lat="47.26411" lon="-2.31553">
        <ele>15.39999961853</ele>
        <time>2019-11-17T11:32:56.000Z</time>
      </trkpt>
      <trkpt lat="47.26415" lon="-2.31554">
        <ele>15.39999961853</ele>
        <time>2019-11-17T11:32:58.000Z</time>
      </trkpt>
      <trkpt lat="47.26416" lon="-2.31555">
        <ele>15.39999961853</ele>
        <time>2019-11-17T11:33:01.000Z</time>
      </trkpt>
      <trkpt lat="47.26416" lon="-2.31554">
        <ele>15.39999961853</ele>
        <time>2019-11-17T11:33:02.000Z</time>
      </trkpt>
    </trkseg>
  </trk>
</gpx>